<?xml version='1.0' encoding='UTF-8'?><gpx version="1.1" creator="JPX - https://github.com/jenetics/jpx" xmlns="http://www.topografix.com/GPX/1/1"><trk><trkseg><trkpt lat="46.24573646718175" lon="8.024312745981224"><ele>1990.9999999999998</ele><time>2026-05-03T10:06:52.999Z</time></trkpt><trkpt lat="46.24572014303066" lon="8.024223635870028"><ele>1991.0</ele><time>2026-05-03T10:06:56.999Z</time></trkpt><trkpt lat="46.24568709893708" lon="8.024120936880756"><ele>1991.0</ele><time>2026-05-03T10:07:03.998Z</time></trkpt><trkpt lat="46.24565579009212" lon="8.024034690072927"><ele>1991.0</ele><time>2026-05-03T10:07:08.998Z</time></trkpt><trkpt lat="46.245609990267944" lon="8.023959474786569"><ele>1990.9999999999998</ele><time>2026-05-03T10:07:13.998Z</time></trkpt><trkpt lat="46.24551774479186" lon="8.02391406674445"><ele>1991.0</ele><time>2026-05-03T10:08:45.999Z</time></trkpt><trkpt lat="46.24544962639979" lon="8.023840881494204"><ele>1990.3333333333333</ele><time>2026-05-03T10:08:47.999Z</time></trkpt><trkpt lat="46.24538557623389" lon="8.023793938731002"><ele>1989.6666666666665</ele><time>2026-05-03T10:08:48.999Z</time></trkpt><trkpt lat="46.24531137038126" lon="8.023756264863236"><ele>1989.0</ele><time>2026-05-03T10:08:50.999Z</time></trkpt><trkpt lat="46.24522394017052" lon="8.023657243108813"><ele>1988.3333333333335</ele><time>2026-05-03T10:08:51.999Z</time></trkpt><trkpt lat="46.24516614482557" lon="8.023608538910965"><ele>1987.6666666666667</ele><time>2026-05-03T10:08:52.999Z</time></trkpt><trkpt lat="46.245101927394636" lon="8.023569337464352"><ele>1987.0</ele><time>2026-05-03T10:08:53.999Z</time></trkpt><trkpt lat="46.24503778312751" lon="8.023524269276546"><ele>1987.0000000000002</ele><time>2026-05-03T10:08:54.999Z</time></trkpt><trkpt lat="46.24496631787394" lon="8.023479775799728"><ele>1987.0</ele><time>2026-05-03T10:08:55.998Z</time></trkpt><trkpt lat="46.244890775840595" lon="8.02344020639708"><ele>1987.0</ele><time>2026-05-03T10:08:56.998Z</time></trkpt><trkpt lat="46.2448143973521" lon="8.02340220222532"><ele>1987.0</ele><time>2026-05-03T10:08:57.998Z</time></trkpt><trkpt lat="46.244736614829534" lon="8.02336193774381"><ele>1987.0000000000002</ele><time>2026-05-03T10:08:58.998Z</time></trkpt><trkpt lat="46.24465459107578" lon="8.023322091679816"><ele>1987.0</ele><time>2026-05-03T10:08:59.998Z</time></trkpt><trkpt lat="46.244572100776146" lon="8.0232791487591"><ele>1987.0</ele><time>2026-05-03T10:09:00.998Z</time></trkpt><trkpt lat="46.24448768082445" lon="8.02323038773356"><ele>1986.9999999999998</ele><time>2026-05-03T10:09:01.998Z</time></trkpt><trkpt lat="46.24440303213362" lon="8.02316532422296"><ele>1986.9999999999998</ele><time>2026-05-03T10:09:02.998Z</time></trkpt><trkpt lat="46.24431897173817" lon="8.023095911001159"><ele>1987.0</ele><time>2026-05-03T10:09:03.998Z</time></trkpt><trkpt lat="46.24423535482014" lon="8.02301663791808"><ele>1987.0</ele><time>2026-05-03T10:09:04.998Z</time></trkpt><trkpt lat="46.24415076738059" lon="8.022928849802138"><ele>1987.0</ele><time>2026-05-03T10:09:05.998Z</time></trkpt><trkpt lat="46.24407559821057" lon="8.022830559714654"><ele>1986.9999999999998</ele><time>2026-05-03T10:09:06.998Z</time></trkpt><trkpt lat="46.24400812473452" lon="8.022724573271622"><ele>1986.9999999999998</ele><time>2026-05-03T10:09:07.998Z</time></trkpt><trkpt lat="46.2439448849226" lon="8.022618381845552"><ele>1987.0</ele><time>2026-05-03T10:09:08.998Z</time></trkpt><trkpt lat="46.243886210877434" lon="8.022503947975869"><ele>1987.0</ele><time>2026-05-03T10:09:09.998Z</time></trkpt><trkpt lat="46.2438288612932" lon="8.0223781370484"><ele>1986.8</ele><time>2026-05-03T10:09:10.998Z</time></trkpt><trkpt lat="46.24377681153081" lon="8.022243885634513"><ele>1986.6</ele><time>2026-05-03T10:09:11.998Z</time></trkpt><trkpt lat="46.24372860274353" lon="8.022105519953096"><ele>1986.3999999999999</ele><time>2026-05-03T10:09:12.998Z</time></trkpt><trkpt lat="46.24366718096457" lon="8.021974673232076"><ele>1986.1999999999998</ele><time>2026-05-03T10:09:13.998Z</time></trkpt><trkpt lat="46.243612010858186" lon="8.021837388169617"><ele>1986.0</ele><time>2026-05-03T10:09:14.998Z</time></trkpt><trkpt lat="46.24355473561714" lon="8.021699293122074"><ele>1984.75</ele><time>2026-05-03T10:09:15.998Z</time></trkpt><trkpt lat="46.243493553266994" lon="8.021563769817604"><ele>1983.5</ele><time>2026-05-03T10:09:16.998Z</time></trkpt><trkpt lat="46.243427253740904" lon="8.021429421968193"><ele>1982.25</ele><time>2026-05-03T10:09:17.998Z</time></trkpt><trkpt lat="46.24335479011506" lon="8.021298531891455"><ele>1981.0</ele><time>2026-05-03T10:09:18.998Z</time></trkpt><trkpt lat="46.24327233881522" lon="8.021180913367166"><ele>1981.0</ele><time>2026-05-03T10:09:19.998Z</time></trkpt><trkpt lat="46.24317594556322" lon="8.021075344380199"><ele>1981.0</ele><time>2026-05-03T10:09:20.998Z</time></trkpt><trkpt lat="46.24308585202147" lon="8.020963052210947"><ele>1981.0</ele><time>2026-05-03T10:09:21.998Z</time></trkpt><trkpt lat="46.242982125687156" lon="8.02087398981757"><ele>1981.0</ele><time>2026-05-03T10:09:22.998Z</time></trkpt><trkpt lat="46.24287186724167" lon="8.020789633840641"><ele>1979.0</ele><time>2026-05-03T10:09:23.998Z</time></trkpt><trkpt lat="46.2427576406901" lon="8.020711017400599"><ele>1977.0</ele><time>2026-05-03T10:09:24.998Z</time></trkpt><trkpt lat="46.24264258746407" lon="8.02064741041955"><ele>1975.0</ele><time>2026-05-03T10:09:25.998Z</time></trkpt><trkpt lat="46.24251579432595" lon="8.020598865224013"><ele>1973.0</ele><time>2026-05-03T10:09:26.998Z</time></trkpt><trkpt lat="46.242385940716424" lon="8.020561781424021"><ele>1971.5</ele><time>2026-05-03T10:09:27.998Z</time></trkpt><trkpt lat="46.242253800217455" lon="8.020536046502615"><ele>1970.0</ele><time>2026-05-03T10:09:28.998Z</time></trkpt><trkpt lat="46.24214884292726" lon="8.020544091131127"><ele>1968.5</ele><time>2026-05-03T10:09:29.998Z</time></trkpt><trkpt lat="46.24202860980756" lon="8.020558836287698"><ele>1967.0</ele><time>2026-05-03T10:09:30.998Z</time></trkpt><trkpt lat="46.24189607615053" lon="8.020585879367838"><ele>1967.0</ele><time>2026-05-03T10:09:31.998Z</time></trkpt><trkpt lat="46.24177460441378" lon="8.02064704610389"><ele>1967.0</ele><time>2026-05-03T10:09:32.998Z</time></trkpt><trkpt lat="46.24166213105788" lon="8.020717537401987"><ele>1967.0</ele><time>2026-05-03T10:09:33.998Z</time></trkpt><trkpt lat="46.241541464555965" lon="8.020785969142885"><ele>1967.0</ele><time>2026-05-03T10:09:34.998Z</time></trkpt><trkpt lat="46.24141939486826" lon="8.020858783543297"><ele>1966.75</ele><time>2026-05-03T10:09:35.998Z</time></trkpt><trkpt lat="46.24129891516885" lon="8.020931796347174"><ele>1966.5</ele><time>2026-05-03T10:09:36.998Z</time></trkpt><trkpt lat="46.24117775609799" lon="8.021001841800084"><ele>1966.25</ele><time>2026-05-03T10:09:37.998Z</time></trkpt><trkpt lat="46.24105854691508" lon="8.021072889122182"><ele>1966.0</ele><time>2026-05-03T10:09:38.998Z</time></trkpt><trkpt lat="46.2409381415334" lon="8.021148085554124"><ele>1966.0</ele><time>2026-05-03T10:09:39.998Z</time></trkpt><trkpt lat="46.24081530971909" lon="8.021222480084175"><ele>1966.0</ele><time>2026-05-03T10:09:40.998Z</time></trkpt><trkpt lat="46.24069184929006" lon="8.021297022911748"><ele>1966.0</ele><time>2026-05-03T10:09:41.998Z</time></trkpt><trkpt lat="46.240563651641814" lon="8.021366940718899"><ele>1966.0</ele><time>2026-05-03T10:09:42.998Z</time></trkpt><trkpt lat="46.24043515466673" lon="8.02143021607362"><ele>1964.75</ele><time>2026-05-03T10:09:43.998Z</time></trkpt><trkpt lat="46.240303178084865" lon="8.021478248983868"><ele>1963.5</ele><time>2026-05-03T10:09:44.998Z</time></trkpt><trkpt lat="46.24016824758149" lon="8.021523903563534"><ele>1962.25</ele><time>2026-05-03T10:09:45.998Z</time></trkpt><trkpt lat="46.24003187690432" lon="8.02156509186713"><ele>1961.0</ele><time>2026-05-03T10:09:46.998Z</time></trkpt><trkpt lat="46.23989361447752" lon="8.021589401381092"><ele>1957.75</ele><time>2026-05-03T10:09:47.998Z</time></trkpt><trkpt lat="46.239752737207866" lon="8.021604631184802"><ele>1954.5</ele><time>2026-05-03T10:09:48.999Z</time></trkpt><trkpt lat="46.239608826356864" lon="8.021607631580078"><ele>1951.25</ele><time>2026-05-03T10:09:49.999Z</time></trkpt><trkpt lat="46.23946429865841" lon="8.021600605589517"><ele>1948.0</ele><time>2026-05-03T10:09:50.999Z</time></trkpt><trkpt lat="46.23931799659195" lon="8.021582201110318"><ele>1948.0</ele><time>2026-05-03T10:09:51.999Z</time></trkpt><trkpt lat="46.239171443333795" lon="8.021555199586526"><ele>1948.0</ele><time>2026-05-03T10:09:52.999Z</time></trkpt><trkpt lat="46.239026285518705" lon="8.021517023382962"><ele>1948.0</ele><time>2026-05-03T10:09:53.999Z</time></trkpt><trkpt lat="46.238885920589844" lon="8.021468454228854"><ele>1948.0</ele><time>2026-05-03T10:09:54.999Z</time></trkpt><trkpt lat="46.23874793700039" lon="8.021406390470908"><ele>1947.0</ele><time>2026-05-03T10:09:55.999Z</time></trkpt><trkpt lat="46.23861356003527" lon="8.02133376318201"><ele>1946.0</ele><time>2026-05-03T10:09:56.999Z</time></trkpt><trkpt lat="46.23848246273017" lon="8.021251052942565"><ele>1945.0</ele><time>2026-05-03T10:09:57.999Z</time></trkpt><trkpt lat="46.23835173770713" lon="8.021159817577702"><ele>1944.0</ele><time>2026-05-03T10:09:58.999Z</time></trkpt><trkpt lat="46.238221245352726" lon="8.021061220790028"><ele>1945.5</ele><time>2026-05-03T10:09:59.999Z</time></trkpt><trkpt lat="46.2380918640285" lon="8.020955703626251"><ele>1947.0</ele><time>2026-05-03T10:10:00.999Z</time></trkpt><trkpt lat="46.23796695383196" lon="8.020849126416675"><ele>1948.5</ele><time>2026-05-03T10:10:01.999Z</time></trkpt><trkpt lat="46.237841994026766" lon="8.020737430185417"><ele>1950.0</ele><time>2026-05-03T10:10:02.999Z</time></trkpt><trkpt lat="46.23771770457009" lon="8.020630710473473"><ele>1947.0</ele><time>2026-05-03T10:10:03.999Z</time></trkpt><trkpt lat="46.23758997143095" lon="8.020521740534098"><ele>1944.0</ele><time>2026-05-03T10:10:04.999Z</time></trkpt><trkpt lat="46.23746050429307" lon="8.020414426731225"><ele>1941.0</ele><time>2026-05-03T10:10:05.999Z</time></trkpt><trkpt lat="46.23732850309314" lon="8.020307716837255"><ele>1938.0</ele><time>2026-05-03T10:10:06.999Z</time></trkpt><trkpt lat="46.2371918842481" lon="8.020200561579086"><ele>1938.0</ele><time>2026-05-03T10:10:07.999Z</time></trkpt><trkpt lat="46.237052901306825" lon="8.020099770888798"><ele>1938.0</ele><time>2026-05-03T10:10:08.999Z</time></trkpt><trkpt lat="46.23690696107853" lon="8.019988589415268"><ele>1938.0</ele><time>2026-05-03T10:10:09.999Z</time></trkpt><trkpt lat="46.236759525129365" lon="8.019883345182624"><ele>1933.3333333333335</ele><time>2026-05-03T10:10:10.999Z</time></trkpt><trkpt lat="46.23660942445983" lon="8.019779428492503"><ele>1928.6666666666667</ele><time>2026-05-03T10:10:11.999Z</time></trkpt><trkpt lat="46.23645824841444" lon="8.019676407595487"><ele>1924.0</ele><time>2026-05-03T10:10:12.999Z</time></trkpt><trkpt lat="46.236304938065935" lon="8.019572237363866"><ele>1924.0</ele><time>2026-05-03T10:10:13.999Z</time></trkpt><trkpt lat="46.23615852577444" lon="8.019471756034196"><ele>1924.0</ele><time>2026-05-03T10:10:14.999Z</time></trkpt><trkpt lat="46.23601344038387" lon="8.019379477452036"><ele>1924.0</ele><time>2026-05-03T10:10:15.999Z</time></trkpt><trkpt lat="46.23587259362433" lon="8.01929009289528"><ele>1924.0</ele><time>2026-05-03T10:10:16.999Z</time></trkpt><trkpt lat="46.23573778759344" lon="8.019196723784942"><ele>1924.0</ele><time>2026-05-03T10:10:17.999Z</time></trkpt><trkpt lat="46.23561428778112" lon="8.019096162134423"><ele>1924.0</ele><time>2026-05-03T10:10:18.999Z</time></trkpt><trkpt lat="46.2354983908917" lon="8.018987280406492"><ele>1924.0</ele><time>2026-05-03T10:10:19.999Z</time></trkpt><trkpt lat="46.23538746800311" lon="8.018875769738868"><ele>1922.5</ele><time>2026-05-03T10:10:20.999Z</time></trkpt><trkpt lat="46.23528134563436" lon="8.01875854911064"><ele>1921.0</ele><time>2026-05-03T10:10:21.999Z</time></trkpt><trkpt lat="46.23517923668336" lon="8.018633575954533"><ele>1919.5</ele><time>2026-05-03T10:10:22.999Z</time></trkpt><trkpt lat="46.23508455764509" lon="8.018499317659554"><ele>1918.0</ele><time>2026-05-03T10:10:23.999Z</time></trkpt><trkpt lat="46.23499504232947" lon="8.01835882355468"><ele>1919.0</ele><time>2026-05-03T10:10:24.999Z</time></trkpt><trkpt lat="46.23490638406059" lon="8.018211721200476"><ele>1920.0</ele><time>2026-05-03T10:10:25.999Z</time></trkpt><trkpt lat="46.23481910919587" lon="8.018060319055806"><ele>1921.0</ele><time>2026-05-03T10:10:26.999Z</time></trkpt><trkpt lat="46.234734155653996" lon="8.01790295424091"><ele>1922.0</ele><time>2026-05-03T10:10:27.999Z</time></trkpt><trkpt lat="46.23464921193642" lon="8.017739349264884"><ele>1922.0</ele><time>2026-05-03T10:10:28.999Z</time></trkpt><trkpt lat="46.234561808077395" lon="8.017572160705297"><ele>1922.0</ele><time>2026-05-03T10:10:29.999Z</time></trkpt><trkpt lat="46.23447537561452" lon="8.01740077529806"><ele>1922.0</ele><time>2026-05-03T10:10:30.999Z</time></trkpt><trkpt lat="46.23438759800311" lon="8.017226475310999"><ele>1922.0</ele><time>2026-05-03T10:10:31.999Z</time></trkpt><trkpt lat="46.234297653161065" lon="8.017050829880194"><ele>1916.6666666666665</ele><time>2026-05-03T10:10:32.999Z</time></trkpt><trkpt lat="46.23420617894049" lon="8.016873801627334"><ele>1911.3333333333335</ele><time>2026-05-03T10:10:33.999Z</time></trkpt><trkpt lat="46.234117777697264" lon="8.016696614143385"><ele>1906.0</ele><time>2026-05-03T10:10:34.999Z</time></trkpt><trkpt lat="46.2340325514099" lon="8.01652570765391"><ele>1907.75</ele><time>2026-05-03T10:10:35.999Z</time></trkpt><trkpt lat="46.23394958895934" lon="8.016356659198738"><ele>1909.5</ele><time>2026-05-03T10:10:36.999Z</time></trkpt><trkpt lat="46.2338657000068" lon="8.016185319315417"><ele>1911.25</ele><time>2026-05-03T10:10:37.999Z</time></trkpt><trkpt lat="46.2337811857682" lon="8.016017928589537"><ele>1913.0</ele><time>2026-05-03T10:10:38.999Z</time></trkpt><trkpt lat="46.23369629652847" lon="8.015851786849534"><ele>1906.75</ele><time>2026-05-03T10:10:39.999Z</time></trkpt><trkpt lat="46.233611738554536" lon="8.015696638265796"><ele>1900.5</ele><time>2026-05-03T10:10:40.999Z</time></trkpt><trkpt lat="46.23352026718952" lon="8.015550018907403"><ele>1894.25</ele><time>2026-05-03T10:10:41.999Z</time></trkpt><trkpt lat="46.233420977111095" lon="8.015415175677326"><ele>1888.0</ele><time>2026-05-03T10:10:42.999Z</time></trkpt><trkpt lat="46.23332028246756" lon="8.01527981406457"><ele>1888.0</ele><time>2026-05-03T10:10:43.999Z</time></trkpt><trkpt lat="46.23321522352631" lon="8.015148917206092"><ele>1888.0</ele><time>2026-05-03T10:10:44.999Z</time></trkpt><trkpt lat="46.23310448350808" lon="8.015024534999895"><ele>1888.0</ele><time>2026-05-03T10:10:45.999Z</time></trkpt><trkpt lat="46.23298966932671" lon="8.014904698571158"><ele>1888.0</ele><time>2026-05-03T10:10:46.999Z</time></trkpt><trkpt lat="46.2328674520678" lon="8.01479957616831"><ele>1885.5</ele><time>2026-05-03T10:10:47.999Z</time></trkpt><trkpt lat="46.23274407522683" lon="8.014698033238018"><ele>1883.0</ele><time>2026-05-03T10:10:48.999Z</time></trkpt><trkpt lat="46.23261756728486" lon="8.014610065672635"><ele>1880.5</ele><time>2026-05-03T10:10:49.999Z</time></trkpt><trkpt lat="46.232488694493995" lon="8.014529079284891"><ele>1878.0</ele><time>2026-05-03T10:10:50.999Z</time></trkpt><trkpt lat="46.23236308594987" lon="8.014460359649684"><ele>1878.25</ele><time>2026-05-03T10:10:51.999Z</time></trkpt><trkpt lat="46.232235379422605" lon="8.014398776834726"><ele>1878.5</ele><time>2026-05-03T10:10:52.999Z</time></trkpt><trkpt lat="46.23210307473565" lon="8.01434941924342"><ele>1878.75</ele><time>2026-05-03T10:10:53.999Z</time></trkpt><trkpt lat="46.23196881389807" lon="8.014312170434287"><ele>1879.0</ele><time>2026-05-03T10:10:54.999Z</time></trkpt><trkpt lat="46.231831488737676" lon="8.014277812524938"><ele>1879.0</ele><time>2026-05-03T10:10:55.999Z</time></trkpt><trkpt lat="46.23169351527112" lon="8.014250946947824"><ele>1879.0</ele><time>2026-05-03T10:10:56.999Z</time></trkpt><trkpt lat="46.23155033298134" lon="8.014226093114814"><ele>1879.0</ele><time>2026-05-03T10:10:57.999Z</time></trkpt><trkpt lat="46.23140893669865" lon="8.014203932217173"><ele>1879.0</ele><time>2026-05-03T10:10:58.998Z</time></trkpt><trkpt lat="46.23126809480417" lon="8.014175619328709"><ele>1874.0</ele><time>2026-05-03T10:10:59.998Z</time></trkpt><trkpt lat="46.2311279549347" lon="8.014149406456154"><ele>1869.0</ele><time>2026-05-03T10:11:00.998Z</time></trkpt><trkpt lat="46.230988298138655" lon="8.014118964397532"><ele>1864.0</ele><time>2026-05-03T10:11:01.998Z</time></trkpt><trkpt lat="46.230846682315" lon="8.014082359197548"><ele>1859.0</ele><time>2026-05-03T10:11:02.998Z</time></trkpt><trkpt lat="46.23070715722295" lon="8.01403602146604"><ele>1860.5</ele><time>2026-05-03T10:11:03.998Z</time></trkpt><trkpt lat="46.230567948713315" lon="8.013977993945181"><ele>1862.0</ele><time>2026-05-03T10:11:04.998Z</time></trkpt><trkpt lat="46.2304286812572" lon="8.013910835605126"><ele>1863.5</ele><time>2026-05-03T10:11:05.998Z</time></trkpt><trkpt lat="46.230288958827956" lon="8.01383278692779"><ele>1865.0</ele><time>2026-05-03T10:11:06.998Z</time></trkpt><trkpt lat="46.23014934733703" lon="8.01374804266174"><ele>1865.0</ele><time>2026-05-03T10:11:07.998Z</time></trkpt><trkpt lat="46.230008915095965" lon="8.013660779311063"><ele>1865.0</ele><time>2026-05-03T10:11:08.998Z</time></trkpt><trkpt lat="46.229866912440414" lon="8.013572741216823"><ele>1865.0</ele><time>2026-05-03T10:11:09.998Z</time></trkpt><trkpt lat="46.22972403417362" lon="8.013477617198221"><ele>1864.75</ele><time>2026-05-03T10:11:10.998Z</time></trkpt><trkpt lat="46.22958237206304" lon="8.01339307957686"><ele>1864.5</ele><time>2026-05-03T10:11:11.998Z</time></trkpt><trkpt lat="46.229448062321865" lon="8.013312779368729"><ele>1864.25</ele><time>2026-05-03T10:11:12.998Z</time></trkpt><trkpt lat="46.229316192356606" lon="8.013229956448479"><ele>1864.0</ele><time>2026-05-03T10:11:13.998Z</time></trkpt><trkpt lat="46.22918511834835" lon="8.013147135577581"><ele>1859.25</ele><time>2026-05-03T10:11:14.998Z</time></trkpt><trkpt lat="46.22905621684237" lon="8.013068890934443"><ele>1854.5</ele><time>2026-05-03T10:11:15.998Z</time></trkpt><trkpt lat="46.22892625090864" lon="8.012994173436672"><ele>1849.75</ele><time>2026-05-03T10:11:16.998Z</time></trkpt><trkpt lat="46.228794289722245" lon="8.012927713808315"><ele>1845.0</ele><time>2026-05-03T10:11:17.998Z</time></trkpt><trkpt lat="46.22865658298055" lon="8.012882232111847"><ele>1844.25</ele><time>2026-05-03T10:11:18.998Z</time></trkpt><trkpt lat="46.22851616912878" lon="8.012860084452079"><ele>1843.5</ele><time>2026-05-03T10:11:19.998Z</time></trkpt><trkpt lat="46.22837425388744" lon="8.012861233453222"><ele>1842.75</ele><time>2026-05-03T10:11:20.998Z</time></trkpt><trkpt lat="46.22823611171952" lon="8.012878293205715"><ele>1842.0</ele><time>2026-05-03T10:11:21.998Z</time></trkpt><trkpt lat="46.22810447295442" lon="8.012912431961384"><ele>1839.0</ele><time>2026-05-03T10:11:22.998Z</time></trkpt><trkpt lat="46.227979159335746" lon="8.012975907384277"><ele>1836.0</ele><time>2026-05-03T10:11:23.998Z</time></trkpt><trkpt lat="46.2278540164925" lon="8.013048452401772"><ele>1833.0</ele><time>2026-05-03T10:11:24.998Z</time></trkpt><trkpt lat="46.22773280009644" lon="8.013140431258186"><ele>1830.0</ele><time>2026-05-03T10:11:25.998Z</time></trkpt><trkpt lat="46.22761500895262" lon="8.013251484425018"><ele>1829.0</ele><time>2026-05-03T10:11:26.998Z</time></trkpt><trkpt lat="46.227502693677465" lon="8.01337611737261"><ele>1828.0</ele><time>2026-05-03T10:11:27.998Z</time></trkpt><trkpt lat="46.22739469342376" lon="8.013509053856252"><ele>1827.0</ele><time>2026-05-03T10:11:28.998Z</time></trkpt><trkpt lat="46.22728688915063" lon="8.01364870005664"><ele>1826.0</ele><time>2026-05-03T10:11:29.998Z</time></trkpt><trkpt lat="46.22718155320026" lon="8.013792986182088"><ele>1826.0</ele><time>2026-05-03T10:11:30.998Z</time></trkpt><trkpt lat="46.22707495632867" lon="8.013939413955748"><ele>1826.0</ele><time>2026-05-03T10:11:31.998Z</time></trkpt><trkpt lat="46.226966305855235" lon="8.01408474672686"><ele>1826.0</ele><time>2026-05-03T10:11:32.998Z</time></trkpt><trkpt lat="46.22685780781502" lon="8.014230959808081"><ele>1826.0</ele><time>2026-05-03T10:11:33.998Z</time></trkpt><trkpt lat="46.22674842182265" lon="8.014377358446062"><ele>1827.6666666666665</ele><time>2026-05-03T10:11:34.998Z</time></trkpt><trkpt lat="46.22663846652132" lon="8.014523898644667"><ele>1829.3333333333335</ele><time>2026-05-03T10:11:35.998Z</time></trkpt><trkpt lat="46.2265264584526" lon="8.01467091626463"><ele>1831.0</ele><time>2026-05-03T10:11:36.998Z</time></trkpt><trkpt lat="46.226415569658464" lon="8.014820388707596"><ele>1831.0</ele><time>2026-05-03T10:11:37.998Z</time></trkpt><trkpt lat="46.22630620375932" lon="8.014969351773106"><ele>1831.0</ele><time>2026-05-03T10:11:38.998Z</time></trkpt><trkpt lat="46.22619457262703" lon="8.015119080004718"><ele>1831.0</ele><time>2026-05-03T10:11:39.998Z</time></trkpt><trkpt lat="46.22608248471847" lon="8.015270232692647"><ele>1829.3333333333335</ele><time>2026-05-03T10:11:40.998Z</time></trkpt><trkpt lat="46.22596982482072" lon="8.015419153471758"><ele>1827.6666666666665</ele><time>2026-05-03T10:11:41.998Z</time></trkpt><trkpt lat="46.225854888857995" lon="8.015566829567938"><ele>1826.0</ele><time>2026-05-03T10:11:42.998Z</time></trkpt><trkpt lat="46.22573549150043" lon="8.015712304414134"><ele>1820.6666666666665</ele><time>2026-05-03T10:11:43.998Z</time></trkpt><trkpt lat="46.22563262997802" lon="8.015882390937357"><ele>1815.3333333333335</ele><time>2026-05-03T10:11:44.998Z</time></trkpt><trkpt lat="46.225507178397194" lon="8.016021654818934"><ele>1810.0</ele><time>2026-05-03T10:11:45.998Z</time></trkpt><trkpt lat="46.22540333996367" lon="8.01618099350369"><ele>1810.0</ele><time>2026-05-03T10:11:46.998Z</time></trkpt><trkpt lat="46.22528863701369" lon="8.016332882300787"><ele>1810.0</ele><time>2026-05-03T10:11:47.998Z</time></trkpt><trkpt lat="46.225173177610365" lon="8.01647815980622"><ele>1810.0</ele><time>2026-05-03T10:11:48.998Z</time></trkpt><trkpt lat="46.22504971964743" lon="8.016608562182563"><ele>1808.0</ele><time>2026-05-03T10:11:49.998Z</time></trkpt><trkpt lat="46.22495862483036" lon="8.016788631083386"><ele>1806.0</ele><time>2026-05-03T10:11:50.998Z</time></trkpt><trkpt lat="46.224848479317465" lon="8.016929836049375"><ele>1804.0</ele><time>2026-05-03T10:11:51.998Z</time></trkpt><trkpt lat="46.2247390897469" lon="8.017069214386483"><ele>1802.0</ele><time>2026-05-03T10:11:52.998Z</time></trkpt><trkpt lat="46.22463600689679" lon="8.017212694227888"><ele>1802.0</ele><time>2026-05-03T10:11:53.998Z</time></trkpt><trkpt lat="46.2245347619614" lon="8.017365114379079"><ele>1802.0</ele><time>2026-05-03T10:11:54.999Z</time></trkpt><trkpt lat="46.22445036954283" lon="8.017530341751915"><ele>1802.0</ele><time>2026-05-03T10:11:55.999Z</time></trkpt><trkpt lat="46.22438023521098" lon="8.017705331615781"><ele>1802.0</ele><time>2026-05-03T10:11:56.999Z</time></trkpt><trkpt lat="46.22432609953278" lon="8.017889025904335"><ele>1802.75</ele><time>2026-05-03T10:11:57.999Z</time></trkpt><trkpt lat="46.22427973576523" lon="8.018078052876989"><ele>1803.5</ele><time>2026-05-03T10:11:58.999Z</time></trkpt><trkpt lat="46.22424876313179" lon="8.01827423371394"><ele>1804.25</ele><time>2026-05-03T10:11:59.999Z</time></trkpt><trkpt lat="46.22423259998272" lon="8.018477736359674"><ele>1805.0</ele><time>2026-05-03T10:12:00.999Z</time></trkpt><trkpt lat="46.224225746379275" lon="8.0186793156906"><ele>1805.0</ele><time>2026-05-03T10:12:01.999Z</time></trkpt><trkpt lat="46.224236102200045" lon="8.01888439133612"><ele>1805.0</ele><time>2026-05-03T10:12:02.999Z</time></trkpt><trkpt lat="46.22425973538689" lon="8.019087684383496"><ele>1805.0</ele><time>2026-05-03T10:12:03.999Z</time></trkpt><trkpt lat="46.224296333711095" lon="8.0192812520813"><ele>1805.0</ele><time>2026-05-03T10:12:04.999Z</time></trkpt><trkpt lat="46.22433869958229" lon="8.019466050432703"><ele>1805.0</ele><time>2026-05-03T10:12:05.999Z</time></trkpt><trkpt lat="46.22439250276135" lon="8.019658870854737"><ele>1805.0</ele><time>2026-05-03T10:12:06.999Z</time></trkpt><trkpt lat="46.224446004008065" lon="8.019849219058957"><ele>1805.0</ele><time>2026-05-03T10:12:07.999Z</time></trkpt><trkpt lat="46.22449557079329" lon="8.020035766251636"><ele>1805.0</ele><time>2026-05-03T10:12:08.999Z</time></trkpt><trkpt lat="46.2245383899904" lon="8.020228282013083"><ele>1802.25</ele><time>2026-05-03T10:12:09.999Z</time></trkpt><trkpt lat="46.22457384421374" lon="8.020424391817187"><ele>1799.5</ele><time>2026-05-03T10:12:10.999Z</time></trkpt><trkpt lat="46.224599166363895" lon="8.020622384756525"><ele>1796.75</ele><time>2026-05-03T10:12:11.999Z</time></trkpt><trkpt lat="46.224603912680216" lon="8.020823138926453"><ele>1794.0</ele><time>2026-05-03T10:12:12.999Z</time></trkpt><trkpt lat="46.22460144165959" lon="8.021026880092862"><ele>1791.25</ele><time>2026-05-03T10:12:13.999Z</time></trkpt><trkpt lat="46.224585540944354" lon="8.021235235289492"><ele>1788.5</ele><time>2026-05-03T10:12:14.999Z</time></trkpt><trkpt lat="46.224559069713" lon="8.021445301070646"><ele>1785.75</ele><time>2026-05-03T10:12:15.999Z</time></trkpt><trkpt lat="46.224525989475126" lon="8.021648569864555"><ele>1783.0</ele><time>2026-05-03T10:12:16.999Z</time></trkpt><trkpt lat="46.224483498380195" lon="8.02185704663549"><ele>1781.25</ele><time>2026-05-03T10:12:17.999Z</time></trkpt><trkpt lat="46.22443488785954" lon="8.022062574068768"><ele>1779.5</ele><time>2026-05-03T10:12:18.999Z</time></trkpt><trkpt lat="46.22438627837611" lon="8.022265727141933"><ele>1777.75</ele><time>2026-05-03T10:12:19.999Z</time></trkpt><trkpt lat="46.22433544947176" lon="8.022457484661366"><ele>1776.0</ele><time>2026-05-03T10:12:20.999Z</time></trkpt><trkpt lat="46.22428322682852" lon="8.022641813176929"><ele>1775.6666666666665</ele><time>2026-05-03T10:12:21.999Z</time></trkpt><trkpt lat="46.22422865588703" lon="8.02287098167108"><ele>1775.3333333333333</ele><time>2026-05-03T10:12:22.999Z</time></trkpt><trkpt lat="46.22418588083526" lon="8.02307974258535"><ele>1775.0</ele><time>2026-05-03T10:12:23.999Z</time></trkpt><trkpt lat="46.22413810722341" lon="8.023291112452045"><ele>1775.0</ele><time>2026-05-03T10:12:24.999Z</time></trkpt><trkpt lat="46.22410424404479" lon="8.023495998954242"><ele>1775.0</ele><time>2026-05-03T10:12:25.999Z</time></trkpt><trkpt lat="46.22408184503077" lon="8.02371208403626"><ele>1775.0</ele><time>2026-05-03T10:12:26.999Z</time></trkpt><trkpt lat="46.22404105665737" lon="8.023921136180743"><ele>1775.0</ele><time>2026-05-03T10:12:27.999Z</time></trkpt><trkpt lat="46.22400192890481" lon="8.024132939353482"><ele>1768.6666666666665</ele><time>2026-05-03T10:12:28.999Z</time></trkpt><trkpt lat="46.22397361490023" lon="8.024339827731596"><ele>1762.3333333333335</ele><time>2026-05-03T10:12:29.999Z</time></trkpt><trkpt lat="46.22393988317169" lon="8.02455570569843"><ele>1756.0</ele><time>2026-05-03T10:12:30.999Z</time></trkpt><trkpt lat="46.223915292598086" lon="8.024770786136326"><ele>1755.0</ele><time>2026-05-03T10:12:31.999Z</time></trkpt><trkpt lat="46.2238953419071" lon="8.024985918129001"><ele>1754.0</ele><time>2026-05-03T10:12:32.999Z</time></trkpt><trkpt lat="46.22387412577128" lon="8.02520005236253"><ele>1753.0</ele><time>2026-05-03T10:12:33.999Z</time></trkpt><trkpt lat="46.22385720447186" lon="8.025415638873914"><ele>1753.0</ele><time>2026-05-03T10:12:34.999Z</time></trkpt><trkpt lat="46.22383564975518" lon="8.025627434391843"><ele>1753.0</ele><time>2026-05-03T10:12:35.999Z</time></trkpt><trkpt lat="46.223809688206146" lon="8.025839969882522"><ele>1753.0</ele><time>2026-05-03T10:12:36.999Z</time></trkpt><trkpt lat="46.22379201111815" lon="8.026052366058448"><ele>1753.0</ele><time>2026-05-03T10:12:37.999Z</time></trkpt><trkpt lat="46.22378979745496" lon="8.02625997909512"><ele>1751.75</ele><time>2026-05-03T10:12:38.999Z</time></trkpt><trkpt lat="46.22376658525492" lon="8.026457981894374"><ele>1750.5</ele><time>2026-05-03T10:12:39.999Z</time></trkpt><trkpt lat="46.22372465664643" lon="8.026674084491948"><ele>1749.25</ele><time>2026-05-03T10:12:40.999Z</time></trkpt><trkpt lat="46.223709331130955" lon="8.026881462731758"><ele>1748.0</ele><time>2026-05-03T10:12:41.999Z</time></trkpt><trkpt lat="46.223691445072404" lon="8.027091541576748"><ele>1746.75</ele><time>2026-05-03T10:12:42.999Z</time></trkpt><trkpt lat="46.22367009955222" lon="8.027294743166635"><ele>1745.5</ele><time>2026-05-03T10:12:43.999Z</time></trkpt><trkpt lat="46.223647889267916" lon="8.027499112226286"><ele>1744.25</ele><time>2026-05-03T10:12:44.999Z</time></trkpt><trkpt lat="46.22362093821785" lon="8.027696580048504"><ele>1743.0</ele><time>2026-05-03T10:12:45.999Z</time></trkpt><trkpt lat="46.223601932086595" lon="8.02790020142547"><ele>1741.75</ele><time>2026-05-03T10:12:46.999Z</time></trkpt><trkpt lat="46.22356210623212" lon="8.028100589502628"><ele>1740.5</ele><time>2026-05-03T10:12:47.999Z</time></trkpt><trkpt lat="46.22351785449881" lon="8.028300929000613"><ele>1739.25</ele><time>2026-05-03T10:12:48.999Z</time></trkpt><trkpt lat="46.22346621038818" lon="8.028501270287979"><ele>1738.0</ele><time>2026-05-03T10:12:49.999Z</time></trkpt><trkpt lat="46.22341041616958" lon="8.028695824346011"><ele>1737.5</ele><time>2026-05-03T10:12:50.999Z</time></trkpt><trkpt lat="46.223357281720254" lon="8.028886703071109"><ele>1737.0</ele><time>2026-05-03T10:12:51.999Z</time></trkpt><trkpt lat="46.22331466353936" lon="8.029072509894455"><ele>1736.5</ele><time>2026-05-03T10:12:52.999Z</time></trkpt><trkpt lat="46.223258925057884" lon="8.02924817464666"><ele>1736.0</ele><time>2026-05-03T10:12:53.999Z</time></trkpt><trkpt lat="46.22319779622771" lon="8.029428390554237"><ele>1732.5</ele><time>2026-05-03T10:12:54.999Z</time></trkpt><trkpt lat="46.223135846879124" lon="8.029644022052652"><ele>1729.0</ele><time>2026-05-03T10:12:55.999Z</time></trkpt><trkpt lat="46.22305565982135" lon="8.029811448917997"><ele>1725.5</ele><time>2026-05-03T10:12:56.999Z</time></trkpt><trkpt lat="46.222995323518894" lon="8.029956401203778"><ele>1722.0</ele><time>2026-05-03T10:12:57.999Z</time></trkpt><trkpt lat="46.22290846862777" lon="8.030152621304246"><ele>1721.3333333333335</ele><time>2026-05-03T10:12:58.999Z</time></trkpt><trkpt lat="46.222811385410736" lon="8.030358119310367"><ele>1720.6666666666667</ele><time>2026-05-03T10:12:59.999Z</time></trkpt><trkpt lat="46.22271793902001" lon="8.03053524044818"><ele>1720.0</ele><time>2026-05-03T10:13:00.999Z</time></trkpt><trkpt lat="46.22262461790147" lon="8.030716784478086"><ele>1722.0</ele><time>2026-05-03T10:13:01.999Z</time></trkpt><trkpt lat="46.22252696269029" lon="8.030892699606559"><ele>1724.0</ele><time>2026-05-03T10:13:02.999Z</time></trkpt><trkpt lat="46.22241798430385" lon="8.031061557916463"><ele>1726.0</ele><time>2026-05-03T10:13:03.999Z</time></trkpt><trkpt lat="46.22230137730942" lon="8.031228949269721"><ele>1722.3333333333335</ele><time>2026-05-03T10:13:04.999Z</time></trkpt><trkpt lat="46.22218257581923" lon="8.031385853349299"><ele>1718.6666666666665</ele><time>2026-05-03T10:13:05.999Z</time></trkpt><trkpt lat="46.22204888520305" lon="8.031542637521694"><ele>1715.0</ele><time>2026-05-03T10:13:06.999Z</time></trkpt><trkpt lat="46.22193199517034" lon="8.031715357310869"><ele>1715.0</ele><time>2026-05-03T10:13:07.999Z</time></trkpt><trkpt lat="46.22181187834946" lon="8.031883847964252"><ele>1715.0</ele><time>2026-05-03T10:13:08.999Z</time></trkpt><trkpt lat="46.221678662531716" lon="8.032017984886267"><ele>1715.0</ele><time>2026-05-03T10:13:09.999Z</time></trkpt><trkpt lat="46.22154514340849" lon="8.032153578590673"><ele>1710.6666666666665</ele><time>2026-05-03T10:13:10.999Z</time></trkpt><trkpt lat="46.221403723187926" lon="8.032292762511592"><ele>1706.3333333333335</ele><time>2026-05-03T10:13:12.065Z</time></trkpt><trkpt lat="46.22127199162442" lon="8.032414105956317"><ele>1702.0</ele><time>2026-05-03T10:13:13.033Z</time></trkpt><trkpt lat="46.22072230295333" lon="8.033116274599069"><ele>1697.6666666666667</ele><time>2026-05-03T10:13:17.999Z</time></trkpt><trkpt lat="46.22060519707464" lon="8.0332703821713"><ele>1693.3333333333335</ele><time>2026-05-03T10:13:18.998Z</time></trkpt><trkpt lat="46.22045173913649" lon="8.033359202113763"><ele>1689.0</ele><time>2026-05-03T10:13:19.998Z</time></trkpt><trkpt lat="46.220302114154755" lon="8.033471656043305"><ele>1689.0</ele><time>2026-05-03T10:13:20.998Z</time></trkpt><trkpt lat="46.22012603407717" lon="8.033519733514524"><ele>1689.0</ele><time>2026-05-03T10:13:21.998Z</time></trkpt><trkpt lat="46.21996490217281" lon="8.033600566148882"><ele>1689.0</ele><time>2026-05-03T10:13:22.998Z</time></trkpt><trkpt lat="46.21981090723983" lon="8.033599302712771"><ele>1684.0</ele><time>2026-05-03T10:13:23.998Z</time></trkpt><trkpt lat="46.219685811815" lon="8.033739830427024"><ele>1679.0</ele><time>2026-05-03T10:13:24.998Z</time></trkpt><trkpt lat="46.219573382800135" lon="8.033903769915975"><ele>1674.0</ele><time>2026-05-03T10:13:25.998Z</time></trkpt><trkpt lat="46.21945134866487" lon="8.034061559304929"><ele>1677.6666666666665</ele><time>2026-05-03T10:13:26.998Z</time></trkpt><trkpt lat="46.21934652069556" lon="8.034193918285228"><ele>1681.3333333333333</ele><time>2026-05-03T10:13:27.998Z</time></trkpt><trkpt lat="46.21923476678524" lon="8.034399330706538"><ele>1685.0</ele><time>2026-05-03T10:13:28.998Z</time></trkpt><trkpt lat="46.219125523227994" lon="8.034556965684553"><ele>1685.0</ele><time>2026-05-03T10:13:29.998Z</time></trkpt><trkpt lat="46.21898605175609" lon="8.034630642775006"><ele>1685.0</ele><time>2026-05-03T10:13:30.998Z</time></trkpt><trkpt lat="46.21886605994955" lon="8.034773106481998"><ele>1685.0</ele><time>2026-05-03T10:13:31.998Z</time></trkpt><trkpt lat="46.21874910639363" lon="8.034914964374655"><ele>1682.0</ele><time>2026-05-03T10:13:32.998Z</time></trkpt><trkpt lat="46.21863482209135" lon="8.035050890650925"><ele>1679.0</ele><time>2026-05-03T10:13:33.998Z</time></trkpt><trkpt lat="46.21851489794726" lon="8.035187962559334"><ele>1676.0</ele><time>2026-05-03T10:13:34.998Z</time></trkpt><trkpt lat="46.218399579839904" lon="8.03533269617505"><ele>1676.0</ele><time>2026-05-03T10:13:35.998Z</time></trkpt><trkpt lat="46.21829007460708" lon="8.035476405625372"><ele>1676.0</ele><time>2026-05-03T10:13:36.998Z</time></trkpt><trkpt lat="46.21818281987759" lon="8.03562612189257"><ele>1676.0</ele><time>2026-05-03T10:13:37.998Z</time></trkpt><trkpt lat="46.21808181153989" lon="8.035786028101105"><ele>1676.0</ele><time>2026-05-03T10:13:38.998Z</time></trkpt><trkpt lat="46.21796655392131" lon="8.035927706109465"><ele>1672.25</ele><time>2026-05-03T10:13:39.998Z</time></trkpt><trkpt lat="46.21786308506506" lon="8.036078624761545"><ele>1668.5</ele><time>2026-05-03T10:13:40.998Z</time></trkpt><trkpt lat="46.217746068727784" lon="8.03621317235943"><ele>1664.75</ele><time>2026-05-03T10:13:41.998Z</time></trkpt><trkpt lat="46.21763138906356" lon="8.036347303874546"><ele>1661.0</ele><time>2026-05-03T10:13:42.998Z</time></trkpt><trkpt lat="46.21751666952459" lon="8.036488827667393"><ele>1661.0</ele><time>2026-05-03T10:13:43.998Z</time></trkpt><trkpt lat="46.21740206096942" lon="8.036633847019248"><ele>1661.0</ele><time>2026-05-03T10:13:44.998Z</time></trkpt><trkpt lat="46.21727489563655" lon="8.036761881595005"><ele>1661.0</ele><time>2026-05-03T10:13:45.998Z</time></trkpt><trkpt lat="46.217154941552586" lon="8.03689662627262"><ele>1656.6666666666665</ele><time>2026-05-03T10:13:46.998Z</time></trkpt><trkpt lat="46.21702733745691" lon="8.037022290080369"><ele>1652.3333333333335</ele><time>2026-05-03T10:13:47.998Z</time></trkpt><trkpt lat="46.21690214106442" lon="8.037147575727568"><ele>1648.0</ele><time>2026-05-03T10:13:48.998Z</time></trkpt><trkpt lat="46.21677360341744" lon="8.037268004466922"><ele>1648.0</ele><time>2026-05-03T10:13:49.998Z</time></trkpt><trkpt lat="46.21664501945965" lon="8.037390537655188"><ele>1648.0</ele><time>2026-05-03T10:13:50.998Z</time></trkpt><trkpt lat="46.21651588755939" lon="8.037508734570693"><ele>1648.0</ele><time>2026-05-03T10:13:51.998Z</time></trkpt><trkpt lat="46.21638789311231" lon="8.037622722674696"><ele>1644.3333333333335</ele><time>2026-05-03T10:13:52.998Z</time></trkpt><trkpt lat="46.21626147790523" lon="8.037742574145339"><ele>1640.6666666666665</ele><time>2026-05-03T10:13:53.998Z</time></trkpt><trkpt lat="46.21614036711387" lon="8.037873366903215"><ele>1637.0</ele><time>2026-05-03T10:13:54.998Z</time></trkpt><trkpt lat="46.21601675721327" lon="8.038003956982848"><ele>1637.0</ele><time>2026-05-03T10:13:55.998Z</time></trkpt><trkpt lat="46.21591380654281" lon="8.038169473138014"><ele>1637.0</ele><time>2026-05-03T10:13:56.998Z</time></trkpt><trkpt lat="46.21578646031344" lon="8.038351514017547"><ele>1637.0</ele><time>2026-05-03T10:13:57.998Z</time></trkpt><trkpt lat="46.21569058167116" lon="8.038480731503926"><ele>1634.0</ele><time>2026-05-03T10:13:58.998Z</time></trkpt><trkpt lat="46.215579735596606" lon="8.038647934533119"><ele>1631.0</ele><time>2026-05-03T10:13:59.998Z</time></trkpt><trkpt lat="46.21547223586649" lon="8.038814663985159"><ele>1628.0</ele><time>2026-05-03T10:14:00.999Z</time></trkpt><trkpt lat="46.21536382678435" lon="8.038981268974343"><ele>1629.6666666666665</ele><time>2026-05-03T10:14:01.999Z</time></trkpt><trkpt lat="46.21525928259546" lon="8.039138367010873"><ele>1631.3333333333335</ele><time>2026-05-03T10:14:02.999Z</time></trkpt><trkpt lat="46.215143820322645" lon="8.039283071706256"><ele>1633.0</ele><time>2026-05-03T10:14:03.999Z</time></trkpt><trkpt lat="46.215012993400855" lon="8.039418472579817"><ele>1633.0</ele><time>2026-05-03T10:14:04.999Z</time></trkpt><trkpt lat="46.21489169029763" lon="8.039546492430574"><ele>1633.0</ele><time>2026-05-03T10:14:05.999Z</time></trkpt><trkpt lat="46.214753976216485" lon="8.03966492269804"><ele>1633.0</ele><time>2026-05-03T10:14:06.999Z</time></trkpt><trkpt lat="46.21461199806566" lon="8.039768925998464"><ele>1631.0</ele><time>2026-05-03T10:14:07.999Z</time></trkpt><trkpt lat="46.214465854472415" lon="8.039855390505426"><ele>1629.0</ele><time>2026-05-03T10:14:08.999Z</time></trkpt><trkpt lat="46.214318064278835" lon="8.039928129566661"><ele>1627.0</ele><time>2026-05-03T10:14:09.999Z</time></trkpt><trkpt lat="46.214163235590455" lon="8.039980127134013"><ele>1627.0</ele><time>2026-05-03T10:14:10.999Z</time></trkpt><trkpt lat="46.21400264087661" lon="8.040021143472176"><ele>1627.0</ele><time>2026-05-03T10:14:11.999Z</time></trkpt><trkpt lat="46.2138438775016" lon="8.040043747906944"><ele>1627.0</ele><time>2026-05-03T10:14:12.999Z</time></trkpt><trkpt lat="46.21368430209976" lon="8.040047148527385"><ele>1624.3333333333335</ele><time>2026-05-03T10:14:13.999Z</time></trkpt><trkpt lat="46.21352603565297" lon="8.040043308280506"><ele>1621.6666666666665</ele><time>2026-05-03T10:14:14.999Z</time></trkpt><trkpt lat="46.2133716128593" lon="8.040038493734432"><ele>1619.0</ele><time>2026-05-03T10:14:15.999Z</time></trkpt><trkpt lat="46.21321582619774" lon="8.040031718559145"><ele>1616.3333333333333</ele><time>2026-05-03T10:14:16.999Z</time></trkpt><trkpt lat="46.213059720071" lon="8.04002005441928"><ele>1613.6666666666665</ele><time>2026-05-03T10:14:17.999Z</time></trkpt><trkpt lat="46.212902262706265" lon="8.040012477291931"><ele>1611.0</ele><time>2026-05-03T10:14:18.999Z</time></trkpt><trkpt lat="46.21275028923417" lon="8.040007855999525"><ele>1611.0</ele><time>2026-05-03T10:14:19.999Z</time></trkpt><trkpt lat="46.21259965513209" lon="8.040013890444538"><ele>1611.0</ele><time>2026-05-03T10:14:20.999Z</time></trkpt><trkpt lat="46.21243482522885" lon="8.039993432558399"><ele>1611.0</ele><time>2026-05-03T10:14:21.999Z</time></trkpt><trkpt lat="46.21227825238121" lon="8.039991109065548"><ele>1612.0</ele><time>2026-05-03T10:14:22.999Z</time></trkpt><trkpt lat="46.212119613457254" lon="8.039994871614365"><ele>1613.0</ele><time>2026-05-03T10:14:23.999Z</time></trkpt><trkpt lat="46.211961734882514" lon="8.03999826094522"><ele>1614.0</ele><time>2026-05-03T10:14:24.999Z</time></trkpt><trkpt lat="46.21180277074264" lon="8.040018133537766"><ele>1614.0</ele><time>2026-05-03T10:14:25.999Z</time></trkpt><trkpt lat="46.211642732209604" lon="8.040056299067912"><ele>1614.0</ele><time>2026-05-03T10:14:26.999Z</time></trkpt><trkpt lat="46.21148573551887" lon="8.040106920959282"><ele>1614.0</ele><time>2026-05-03T10:14:27.999Z</time></trkpt><trkpt lat="46.211330072906705" lon="8.040171076884459"><ele>1614.6666666666665</ele><time>2026-05-03T10:14:28.999Z</time></trkpt><trkpt lat="46.21117848691503" lon="8.040249586080755"><ele>1615.3333333333333</ele><time>2026-05-03T10:14:29.999Z</time></trkpt><trkpt lat="46.21103212286093" lon="8.040343479358421"><ele>1616.0</ele><time>2026-05-03T10:14:30.999Z</time></trkpt><trkpt lat="46.21088542346951" lon="8.040443305413818"><ele>1616.0</ele><time>2026-05-03T10:14:31.999Z</time></trkpt><trkpt lat="46.21074018809467" lon="8.04054509142561"><ele>1616.0</ele><time>2026-05-03T10:14:32.999Z</time></trkpt><trkpt lat="46.210593511363356" lon="8.040649813897272"><ele>1616.0</ele><time>2026-05-03T10:14:33.999Z</time></trkpt><trkpt lat="46.21044617183227" lon="8.040755237688094"><ele>1611.3333333333333</ele><time>2026-05-03T10:14:34.999Z</time></trkpt><trkpt lat="46.21029793865902" lon="8.040857874980158"><ele>1606.6666666666665</ele><time>2026-05-03T10:14:35.999Z</time></trkpt><trkpt lat="46.210147363069865" lon="8.040953114310643"><ele>1602.0</ele><time>2026-05-03T10:14:36.999Z</time></trkpt><trkpt lat="46.209994286810115" lon="8.041042147269346"><ele>1602.0</ele><time>2026-05-03T10:14:37.999Z</time></trkpt><trkpt lat="46.20983779538617" lon="8.04112658354202"><ele>1602.0</ele><time>2026-05-03T10:14:38.999Z</time></trkpt><trkpt lat="46.2096792201286" lon="8.041208245613749"><ele>1602.0</ele><time>2026-05-03T10:14:39.999Z</time></trkpt><trkpt lat="46.209519650725866" lon="8.041287339358146"><ele>1600.6666666666665</ele><time>2026-05-03T10:14:40.999Z</time></trkpt><trkpt lat="46.209357324194244" lon="8.04136162798371"><ele>1599.3333333333333</ele><time>2026-05-03T10:14:41.999Z</time></trkpt><trkpt lat="46.20919343823781" lon="8.041432612048101"><ele>1598.0</ele><time>2026-05-03T10:14:42.999Z</time></trkpt><trkpt lat="46.20902833492283" lon="8.041496488334209"><ele>1597.0</ele><time>2026-05-03T10:14:43.999Z</time></trkpt><trkpt lat="46.208862502239256" lon="8.041550782162101"><ele>1596.0</ele><time>2026-05-03T10:14:44.999Z</time></trkpt><trkpt lat="46.20869671635297" lon="8.041599366897147"><ele>1595.0</ele><time>2026-05-03T10:14:45.999Z</time></trkpt><trkpt lat="46.20852927571847" lon="8.041642556290766"><ele>1595.0</ele><time>2026-05-03T10:14:46.999Z</time></trkpt><trkpt lat="46.20836301142648" lon="8.04168075094342"><ele>1595.0</ele><time>2026-05-03T10:14:47.999Z</time></trkpt><trkpt lat="46.20819588198097" lon="8.04171393781852"><ele>1595.0</ele><time>2026-05-03T10:14:48.999Z</time></trkpt><trkpt lat="46.20802806453768" lon="8.041745210835693"><ele>1594.0</ele><time>2026-05-03T10:14:49.999Z</time></trkpt><trkpt lat="46.20785955135226" lon="8.04177531884085"><ele>1593.0</ele><time>2026-05-03T10:14:50.999Z</time></trkpt><trkpt lat="46.207691738089984" lon="8.041802329725558"><ele>1592.0</ele><time>2026-05-03T10:14:51.999Z</time></trkpt><trkpt lat="46.20752575851508" lon="8.04183157363785"><ele>1592.0</ele><time>2026-05-03T10:14:52.999Z</time></trkpt><trkpt lat="46.20736253958377" lon="8.041865448828684"><ele>1592.0</ele><time>2026-05-03T10:14:53.999Z</time></trkpt><trkpt lat="46.20720106599939" lon="8.041906271328315"><ele>1592.0</ele><time>2026-05-03T10:14:54.999Z</time></trkpt><trkpt lat="46.207041494786644" lon="8.041959602124363"><ele>1593.0</ele><time>2026-05-03T10:14:55.999Z</time></trkpt><trkpt lat="46.20688515577839" lon="8.042025666026905"><ele>1594.0</ele><time>2026-05-03T10:14:56.999Z</time></trkpt><trkpt lat="46.2067297774436" lon="8.042102309932256"><ele>1595.0</ele><time>2026-05-03T10:14:57.999Z</time></trkpt><trkpt lat="46.20657842095994" lon="8.042185713042686"><ele>1595.0</ele><time>2026-05-03T10:14:58.999Z</time></trkpt><trkpt lat="46.20642947515738" lon="8.042278137044828"><ele>1595.0</ele><time>2026-05-03T10:14:59.999Z</time></trkpt><trkpt lat="46.20628418503737" lon="8.042380069369074"><ele>1595.0</ele><time>2026-05-03T10:15:00.999Z</time></trkpt><trkpt lat="46.20613949129118" lon="8.042492105611085"><ele>1595.0</ele><time>2026-05-03T10:15:01.999Z</time></trkpt><trkpt lat="46.205996588288606" lon="8.042605987996645"><ele>1595.0</ele><time>2026-05-03T10:15:02.999Z</time></trkpt><trkpt lat="46.205852963358986" lon="8.042722979499603"><ele>1595.0</ele><time>2026-05-03T10:15:03.999Z</time></trkpt><trkpt lat="46.20570855558135" lon="8.042839201359552"><ele>1594.6666666666665</ele><time>2026-05-03T10:15:04.999Z</time></trkpt><trkpt lat="46.20556120528229" lon="8.042953094011592"><ele>1594.3333333333335</ele><time>2026-05-03T10:15:05.999Z</time></trkpt><trkpt lat="46.205413029989984" lon="8.043054411278735"><ele>1594.0</ele><time>2026-05-03T10:15:06.999Z</time></trkpt><trkpt lat="46.205260996123094" lon="8.043148538010504"><ele>1594.0</ele><time>2026-05-03T10:15:07.999Z</time></trkpt><trkpt lat="46.20510840204711" lon="8.043238241647948"><ele>1594.0</ele><time>2026-05-03T10:15:08.999Z</time></trkpt><trkpt lat="46.20495454612536" lon="8.04332520421985"><ele>1594.0</ele><time>2026-05-03T10:15:09.999Z</time></trkpt><trkpt lat="46.20479920928307" lon="8.043412376109815"><ele>1591.3333333333335</ele><time>2026-05-03T10:15:10.999Z</time></trkpt><trkpt lat="46.20464447369126" lon="8.043503526405768"><ele>1588.6666666666665</ele><time>2026-05-03T10:15:11.999Z</time></trkpt><trkpt lat="46.20449129263789" lon="8.043602299523387"><ele>1586.0</ele><time>2026-05-03T10:15:12.999Z</time></trkpt><trkpt lat="46.20434411784321" lon="8.043707990929581"><ele>1586.0</ele><time>2026-05-03T10:15:13.999Z</time></trkpt><trkpt lat="46.20420278433726" lon="8.043826618229872"><ele>1586.0</ele><time>2026-05-03T10:15:14.999Z</time></trkpt><trkpt lat="46.20406802038579" lon="8.043955266826325"><ele>1586.0</ele><time>2026-05-03T10:15:15.999Z</time></trkpt><trkpt lat="46.20394141785104" lon="8.04409744201967"><ele>1584.3333333333333</ele><time>2026-05-03T10:15:16.999Z</time></trkpt><trkpt lat="46.20382211461862" lon="8.044251373805631"><ele>1582.6666666666665</ele><time>2026-05-03T10:15:17.999Z</time></trkpt><trkpt lat="46.20371274223612" lon="8.044419603958735"><ele>1581.0</ele><time>2026-05-03T10:15:18.999Z</time></trkpt><trkpt lat="46.203611966945466" lon="8.044602595105163"><ele>1581.0</ele><time>2026-05-03T10:15:19.999Z</time></trkpt><trkpt lat="46.20351643753449" lon="8.044796761410199"><ele>1581.0</ele><time>2026-05-03T10:15:20.999Z</time></trkpt><trkpt lat="46.20342801409953" lon="8.044998256074981"><ele>1581.0</ele><time>2026-05-03T10:15:21.999Z</time></trkpt><trkpt lat="46.20335246070229" lon="8.045214093073286"><ele>1577.6666666666665</ele><time>2026-05-03T10:15:22.999Z</time></trkpt><trkpt lat="46.203288589675935" lon="8.045437448923456"><ele>1574.3333333333333</ele><time>2026-05-03T10:15:23.999Z</time></trkpt><trkpt lat="46.20323743317236" lon="8.045666393905016"><ele>1571.0</ele><time>2026-05-03T10:15:24.999Z</time></trkpt><trkpt lat="46.203196288214585" lon="8.04589776850971"><ele>1569.6666666666665</ele><time>2026-05-03T10:15:25.999Z</time></trkpt><trkpt lat="46.20316413205397" lon="8.046132261834346"><ele>1568.3333333333335</ele><time>2026-05-03T10:15:26.999Z</time></trkpt><trkpt lat="46.20314050842536" lon="8.046371152469327"><ele>1567.0</ele><time>2026-05-03T10:15:27.999Z</time></trkpt><trkpt lat="46.20312492197662" lon="8.046612210990762"><ele>1562.6666666666667</ele><time>2026-05-03T10:15:28.999Z</time></trkpt><trkpt lat="46.20310888873608" lon="8.046855287600707"><ele>1558.3333333333335</ele><time>2026-05-03T10:15:29.999Z</time></trkpt><trkpt lat="46.203091057321345" lon="8.047098405783716"><ele>1554.0</ele><time>2026-05-03T10:15:30.999Z</time></trkpt><trkpt lat="46.20306990689117" lon="8.04734321094774"><ele>1551.3333333333335</ele><time>2026-05-03T10:15:31.999Z</time></trkpt><trkpt lat="46.20304333405032" lon="8.047585305174524"><ele>1548.6666666666667</ele><time>2026-05-03T10:15:32.999Z</time></trkpt><trkpt lat="46.20300902146176" lon="8.047826419363517"><ele>1546.0</ele><time>2026-05-03T10:15:33.999Z</time></trkpt><trkpt lat="46.20296786317242" lon="8.04806503879654"><ele>1544.3333333333335</ele><time>2026-05-03T10:15:34.999Z</time></trkpt><trkpt lat="46.20291873740751" lon="8.048302454956888"><ele>1542.6666666666665</ele><time>2026-05-03T10:15:35.999Z</time></trkpt><trkpt lat="46.202862240000265" lon="8.04853741206675"><ele>1541.0</ele><time>2026-05-03T10:15:36.999Z</time></trkpt><trkpt lat="46.202794376869825" lon="8.048769476490003"><ele>1541.0</ele><time>2026-05-03T10:15:37.999Z</time></trkpt><trkpt lat="46.202718197489354" lon="8.048997191886599"><ele>1541.0</ele><time>2026-05-03T10:15:38.999Z</time></trkpt><trkpt lat="46.20263346399268" lon="8.049220048749497"><ele>1541.0</ele><time>2026-05-03T10:15:39.999Z</time></trkpt><trkpt lat="46.20254208911273" lon="8.049437834480011"><ele>1541.0</ele><time>2026-05-03T10:15:40.999Z</time></trkpt><trkpt lat="46.20244601804889" lon="8.049650473064395"><ele>1541.0</ele><time>2026-05-03T10:15:41.999Z</time></trkpt><trkpt lat="46.20234736835971" lon="8.049860351488132"><ele>1541.0</ele><time>2026-05-03T10:15:42.999Z</time></trkpt><trkpt lat="46.20225032892633" lon="8.050070728296673"><ele>1535.3333333333333</ele><time>2026-05-03T10:15:43.999Z</time></trkpt><trkpt lat="46.20215363560632" lon="8.050279516509685"><ele>1529.6666666666665</ele><time>2026-05-03T10:15:44.999Z</time></trkpt><trkpt lat="46.202056621778766" lon="8.050488140121526"><ele>1524.0</ele><time>2026-05-03T10:15:45.999Z</time></trkpt><trkpt lat="46.20195927662225" lon="8.050693222113416"><ele>1521.0</ele><time>2026-05-03T10:15:46.999Z</time></trkpt><trkpt lat="46.20186307933206" lon="8.050898178087161"><ele>1518.0</ele><time>2026-05-03T10:15:47.999Z</time></trkpt><trkpt lat="46.20176854761203" lon="8.051101449864532"><ele>1515.0</ele><time>2026-05-03T10:15:48.999Z</time></trkpt><trkpt lat="46.20167945986477" lon="8.051306720435349"><ele>1515.0</ele><time>2026-05-03T10:15:49.999Z</time></trkpt><trkpt lat="46.201593379487264" lon="8.051513348367838"><ele>1515.0</ele><time>2026-05-03T10:15:50.999Z</time></trkpt><trkpt lat="46.20151026298415" lon="8.051721986783487"><ele>1515.0</ele><time>2026-05-03T10:15:51.998Z</time></trkpt><trkpt lat="46.20142889337977" lon="8.051932526423794"><ele>1509.3333333333333</ele><time>2026-05-03T10:15:52.998Z</time></trkpt><trkpt lat="46.20134854586638" lon="8.052148198453471"><ele>1503.6666666666665</ele><time>2026-05-03T10:15:53.998Z</time></trkpt><trkpt lat="46.20126967206455" lon="8.052368982340225"><ele>1498.0</ele><time>2026-05-03T10:15:54.998Z</time></trkpt><trkpt lat="46.20119528120398" lon="8.052597112353647"><ele>1498.0</ele><time>2026-05-03T10:15:55.998Z</time></trkpt><trkpt lat="46.20112190745263" lon="8.052827979950527"><ele>1498.0</ele><time>2026-05-03T10:15:56.998Z</time></trkpt><trkpt lat="46.201051407198634" lon="8.053061755305752"><ele>1498.0</ele><time>2026-05-03T10:15:57.998Z</time></trkpt><trkpt lat="46.20098471391067" lon="8.053298432625683"><ele>1499.0</ele><time>2026-05-03T10:15:58.998Z</time></trkpt><trkpt lat="46.20091919434315" lon="8.053538384401786"><ele>1500.0</ele><time>2026-05-03T10:15:59.998Z</time></trkpt><trkpt lat="46.200856300875344" lon="8.053781579064315"><ele>1501.0</ele><time>2026-05-03T10:16:00.998Z</time></trkpt><trkpt lat="46.20079523080755" lon="8.054027204606161"><ele>1502.3333333333333</ele><time>2026-05-03T10:16:01.998Z</time></trkpt><trkpt lat="46.20073676345548" lon="8.054274823261107"><ele>1503.6666666666667</ele><time>2026-05-03T10:16:02.998Z</time></trkpt><trkpt lat="46.200678568038704" lon="8.054523025919927"><ele>1505.0</ele><time>2026-05-03T10:16:03.998Z</time></trkpt><trkpt lat="46.20062024349697" lon="8.054771287616381"><ele>1497.6666666666667</ele><time>2026-05-03T10:16:04.998Z</time></trkpt><trkpt lat="46.20056116410349" lon="8.055017926005087"><ele>1490.3333333333333</ele><time>2026-05-03T10:16:05.998Z</time></trkpt><trkpt lat="46.20050080054158" lon="8.05526436312422"><ele>1483.0</ele><time>2026-05-03T10:16:07Z</time></trkpt><trkpt lat="46.20044236617945" lon="8.05550841532472"><ele>1483.0</ele><time>2026-05-03T10:16:08Z</time></trkpt><trkpt lat="46.2003873983669" lon="8.055746625010302"><ele>1483.0</ele><time>2026-05-03T10:16:09Z</time></trkpt><trkpt lat="46.200333536705706" lon="8.055980829131354"><ele>1483.0</ele><time>2026-05-03T10:16:10Z</time></trkpt><trkpt lat="46.20027481269047" lon="8.056209576386987"><ele>1483.6666666666665</ele><time>2026-05-03T10:16:11Z</time></trkpt><trkpt lat="46.20020967322983" lon="8.056431882381139"><ele>1484.3333333333333</ele><time>2026-05-03T10:16:12Z</time></trkpt><trkpt lat="46.2001392553888" lon="8.056649781503236"><ele>1485.0</ele><time>2026-05-03T10:16:13Z</time></trkpt><trkpt lat="46.20006509976711" lon="8.056862845748363"><ele>1485.0</ele><time>2026-05-03T10:16:14Z</time></trkpt><trkpt lat="46.199983877098255" lon="8.057068440836456"><ele>1485.0</ele><time>2026-05-03T10:16:15Z</time></trkpt><trkpt lat="46.199895066505064" lon="8.057269460055734"><ele>1485.0</ele><time>2026-05-03T10:16:16Z</time></trkpt><trkpt lat="46.19979842182423" lon="8.057467059944763"><ele>1481.0</ele><time>2026-05-03T10:16:17Z</time></trkpt><trkpt lat="46.19969474439869" lon="8.057657544634136"><ele>1477.0</ele><time>2026-05-03T10:16:17.999Z</time></trkpt><trkpt lat="46.19958205740569" lon="8.057840898797393"><ele>1473.0</ele><time>2026-05-03T10:16:18.999Z</time></trkpt><trkpt lat="46.199469704188466" lon="8.058016666647912"><ele>1473.0</ele><time>2026-05-03T10:16:19.999Z</time></trkpt><trkpt lat="46.199351159075356" lon="8.058185460594618"><ele>1473.0</ele><time>2026-05-03T10:16:20.999Z</time></trkpt><trkpt lat="46.19922531682551" lon="8.058346460293501"><ele>1473.0</ele><time>2026-05-03T10:16:21.999Z</time></trkpt><trkpt lat="46.199094862689314" lon="8.058499486177316"><ele>1466.6666666666667</ele><time>2026-05-03T10:16:22.999Z</time></trkpt><trkpt lat="46.198959857774824" lon="8.058644642368119"><ele>1460.3333333333335</ele><time>2026-05-03T10:16:23.999Z</time></trkpt><trkpt lat="46.19882112512084" lon="8.058782645084758"><ele>1454.0</ele><time>2026-05-03T10:16:24.999Z</time></trkpt><trkpt lat="46.19867814949267" lon="8.058913253069178"><ele>1454.0</ele><time>2026-05-03T10:16:25.999Z</time></trkpt><trkpt lat="46.198530477085896" lon="8.059034323142736"><ele>1454.0</ele><time>2026-05-03T10:16:26.999Z</time></trkpt><trkpt lat="46.19837994622507" lon="8.059151760085507"><ele>1454.0</ele><time>2026-05-03T10:16:27.999Z</time></trkpt><trkpt lat="46.19822959275743" lon="8.059268723507396"><ele>1453.3333333333335</ele><time>2026-05-03T10:16:28.999Z</time></trkpt><trkpt lat="46.198080613440524" lon="8.059385508151511"><ele>1452.6666666666667</ele><time>2026-05-03T10:16:29.999Z</time></trkpt><trkpt lat="46.197932129826675" lon="8.059499173415302"><ele>1452.0</ele><time>2026-05-03T10:16:30.999Z</time></trkpt><trkpt lat="46.19778186619356" lon="8.059611843365069"><ele>1452.0</ele><time>2026-05-03T10:16:31.999Z</time></trkpt><trkpt lat="46.197633236114136" lon="8.059728420279876"><ele>1452.0</ele><time>2026-05-03T10:16:32.999Z</time></trkpt><trkpt lat="46.19748639374103" lon="8.059850568066864"><ele>1452.0</ele><time>2026-05-03T10:16:33.999Z</time></trkpt><trkpt lat="46.19734061068793" lon="8.059976893844292"><ele>1452.3333333333333</ele><time>2026-05-03T10:16:34.999Z</time></trkpt><trkpt lat="46.19719382198496" lon="8.060101510220518"><ele>1452.6666666666665</ele><time>2026-05-03T10:16:35.999Z</time></trkpt><trkpt lat="46.19704777492496" lon="8.060229472301687"><ele>1453.0</ele><time>2026-05-03T10:16:36.999Z</time></trkpt><trkpt lat="46.196904223840946" lon="8.06036109351177"><ele>1453.0</ele><time>2026-05-03T10:16:37.999Z</time></trkpt><trkpt lat="46.196759706910385" lon="8.060493825073694"><ele>1453.0</ele><time>2026-05-03T10:16:38.999Z</time></trkpt><trkpt lat="46.19661689186163" lon="8.060628587358575"><ele>1453.0</ele><time>2026-05-03T10:16:39.999Z</time></trkpt><trkpt lat="46.196476767541235" lon="8.060766598685015"><ele>1445.0</ele><time>2026-05-03T10:16:40.999Z</time></trkpt><trkpt lat="46.19633794338818" lon="8.060908567646031"><ele>1437.0</ele><time>2026-05-03T10:16:41.999Z</time></trkpt><trkpt lat="46.19620035407256" lon="8.061053523572438"><ele>1429.0</ele><time>2026-05-03T10:16:42.999Z</time></trkpt><trkpt lat="46.19606430515533" lon="8.061201573724528"><ele>1429.0</ele><time>2026-05-03T10:16:43.999Z</time></trkpt><trkpt lat="46.19592922732095" lon="8.061352056780445"><ele>1429.0</ele><time>2026-05-03T10:16:44.999Z</time></trkpt><trkpt lat="46.19579379083879" lon="8.061503207513907"><ele>1429.0</ele><time>2026-05-03T10:16:45.999Z</time></trkpt><trkpt lat="46.19565838671042" lon="8.061655129026317"><ele>1425.6666666666665</ele><time>2026-05-03T10:16:46.999Z</time></trkpt><trkpt lat="46.19552525728782" lon="8.061808702851065"><ele>1422.3333333333333</ele><time>2026-05-03T10:16:47.999Z</time></trkpt><trkpt lat="46.195394957006926" lon="8.061966579320336"><ele>1419.0</ele><time>2026-05-03T10:16:48.999Z</time></trkpt><trkpt lat="46.195264968342855" lon="8.062127692835166"><ele>1419.0</ele><time>2026-05-03T10:16:49.999Z</time></trkpt><trkpt lat="46.19513970023794" lon="8.062286658696861"><ele>1419.0</ele><time>2026-05-03T10:16:50.999Z</time></trkpt><trkpt lat="46.19501251503177" lon="8.062448341957191"><ele>1419.0</ele><time>2026-05-03T10:16:51.999Z</time></trkpt><trkpt lat="46.194880544017785" lon="8.06261193040906"><ele>1416.0</ele><time>2026-05-03T10:16:52.999Z</time></trkpt><trkpt lat="46.19474817688681" lon="8.062775339026867"><ele>1413.0</ele><time>2026-05-03T10:16:53.999Z</time></trkpt><trkpt lat="46.19461479620748" lon="8.062936689944152"><ele>1410.0</ele><time>2026-05-03T10:16:54.999Z</time></trkpt><trkpt lat="46.194479009366276" lon="8.063095637344345"><ele>1410.0</ele><time>2026-05-03T10:16:55.999Z</time></trkpt><trkpt lat="46.194340693971114" lon="8.06325080271592"><ele>1410.0</ele><time>2026-05-03T10:16:56.999Z</time></trkpt><trkpt lat="46.19420101600401" lon="8.063400186115665"><ele>1410.0</ele><time>2026-05-03T10:16:57.999Z</time></trkpt><trkpt lat="46.19405942732989" lon="8.06354405552433"><ele>1405.3333333333333</ele><time>2026-05-03T10:16:58.999Z</time></trkpt><trkpt lat="46.193915792025045" lon="8.063682137179212"><ele>1400.6666666666665</ele><time>2026-05-03T10:16:59.999Z</time></trkpt><trkpt lat="46.19377061729749" lon="8.063811393919602"><ele>1396.0</ele><time>2026-05-03T10:17:00.999Z</time></trkpt><trkpt lat="46.19362275280768" lon="8.06393374362809"><ele>1396.0</ele><time>2026-05-03T10:17:01.999Z</time></trkpt><trkpt lat="46.19347172132517" lon="8.064048520005406"><ele>1396.0</ele><time>2026-05-03T10:17:02.999Z</time></trkpt><trkpt lat="46.193320137924196" lon="8.06415663814902"><ele>1396.0</ele><time>2026-05-03T10:17:03.999Z</time></trkpt><trkpt lat="46.19316541510951" lon="8.064257447000482"><ele>1390.0</ele><time>2026-05-03T10:17:04.999Z</time></trkpt><trkpt lat="46.19300757829034" lon="8.064350004442284"><ele>1384.0</ele><time>2026-05-03T10:17:05.999Z</time></trkpt><trkpt lat="46.19284880469113" lon="8.064434925310836"><ele>1378.0</ele><time>2026-05-03T10:17:06.999Z</time></trkpt><trkpt lat="46.19268896381963" lon="8.064514147478127"><ele>1378.0</ele><time>2026-05-03T10:17:07.999Z</time></trkpt><trkpt lat="46.192527081730404" lon="8.064587613900775"><ele>1378.0</ele><time>2026-05-03T10:17:08.999Z</time></trkpt><trkpt lat="46.19236440934438" lon="8.064652081371483"><ele>1378.0</ele><time>2026-05-03T10:17:09.999Z</time></trkpt><trkpt lat="46.192198665819646" lon="8.064707215191156"><ele>1381.6666666666665</ele><time>2026-05-03T10:17:10.999Z</time></trkpt><trkpt lat="46.19203243575989" lon="8.064755397863312"><ele>1385.3333333333333</ele><time>2026-05-03T10:17:11.999Z</time></trkpt><trkpt lat="46.191864702845535" lon="8.064800047206175"><ele>1389.0</ele><time>2026-05-03T10:17:12.999Z</time></trkpt><trkpt lat="46.19169554135526" lon="8.064841681614304"><ele>1389.0</ele><time>2026-05-03T10:17:13.999Z</time></trkpt><trkpt lat="46.19152652344415" lon="8.064878789949102"><ele>1389.0</ele><time>2026-05-03T10:17:14.999Z</time></trkpt><trkpt lat="46.191357838756815" lon="8.064913532566392"><ele>1389.0</ele><time>2026-05-03T10:17:15.999Z</time></trkpt><trkpt lat="46.19118806717665" lon="8.064947134301939"><ele>1393.6666666666667</ele><time>2026-05-03T10:17:16.999Z</time></trkpt><trkpt lat="46.191019104418494" lon="8.064978228836075"><ele>1398.3333333333335</ele><time>2026-05-03T10:17:17.999Z</time></trkpt><trkpt lat="46.1908514997749" lon="8.065010359952367"><ele>1403.0</ele><time>2026-05-03T10:17:18.999Z</time></trkpt><trkpt lat="46.190683864191065" lon="8.065043089120078"><ele>1402.3333333333335</ele><time>2026-05-03T10:17:19.999Z</time></trkpt><trkpt lat="46.19051732838618" lon="8.065072363108419"><ele>1401.6666666666667</ele><time>2026-05-03T10:17:20.999Z</time></trkpt><trkpt lat="46.19035011403449" lon="8.065102491813594"><ele>1401.0</ele><time>2026-05-03T10:17:21.999Z</time></trkpt><trkpt lat="46.19018153197761" lon="8.06513363592522"><ele>1401.0</ele><time>2026-05-03T10:17:22.999Z</time></trkpt><trkpt lat="46.190012098834885" lon="8.065165419840179"><ele>1401.0</ele><time>2026-05-03T10:17:23.999Z</time></trkpt><trkpt lat="46.189842758798825" lon="8.065201484059383"><ele>1401.0</ele><time>2026-05-03T10:17:24.999Z</time></trkpt><trkpt lat="46.18967204118545" lon="8.06523938280048"><ele>1400.6666666666667</ele><time>2026-05-03T10:17:25.999Z</time></trkpt><trkpt lat="46.18950055069059" lon="8.065282497778641"><ele>1400.3333333333335</ele><time>2026-05-03T10:17:26.999Z</time></trkpt><trkpt lat="46.18932982034088" lon="8.065330798413724"><ele>1400.0</ele><time>2026-05-03T10:17:27.999Z</time></trkpt><trkpt lat="46.18915863380966" lon="8.065386619262783"><ele>1401.6666666666667</ele><time>2026-05-03T10:17:28.999Z</time></trkpt><trkpt lat="46.18898821951791" lon="8.065449863069555"><ele>1403.3333333333333</ele><time>2026-05-03T10:17:29.999Z</time></trkpt><trkpt lat="46.18881748022011" lon="8.065518465999347"><ele>1405.0</ele><time>2026-05-03T10:17:30.999Z</time></trkpt><trkpt lat="46.18864789373879" lon="8.065593669566958"><ele>1405.0</ele><time>2026-05-03T10:17:31.999Z</time></trkpt><trkpt lat="46.18848096469636" lon="8.065677131949585"><ele>1405.0</ele><time>2026-05-03T10:17:32.999Z</time></trkpt><trkpt lat="46.18831581344921" lon="8.065768017796529"><ele>1405.0</ele><time>2026-05-03T10:17:33.999Z</time></trkpt><trkpt lat="46.18815449934428" lon="8.065864496156367"><ele>1403.6666666666665</ele><time>2026-05-03T10:17:34.999Z</time></trkpt><trkpt lat="46.18799501938341" lon="8.065966234369599"><ele>1402.3333333333333</ele><time>2026-05-03T10:17:35.999Z</time></trkpt><trkpt lat="46.18784278073324" lon="8.06607396327752"><ele>1401.0</ele><time>2026-05-03T10:17:36.999Z</time></trkpt><trkpt lat="46.18769527867457" lon="8.06618156551278"><ele>1401.0</ele><time>2026-05-03T10:17:37.999Z</time></trkpt><trkpt lat="46.18755324367873" lon="8.066287700183743"><ele>1401.0</ele><time>2026-05-03T10:17:38.999Z</time></trkpt><trkpt lat="46.18742024888474" lon="8.06639230669231"><ele>1401.0</ele><time>2026-05-03T10:17:39.999Z</time></trkpt><trkpt lat="46.18729708846772" lon="8.066497634033079"><ele>1399.5</ele><time>2026-05-03T10:17:40.999Z</time></trkpt><trkpt lat="46.18718234525652" lon="8.066605485804741"><ele>1398.0</ele><time>2026-05-03T10:17:41.999Z</time></trkpt><trkpt lat="46.18707675023727" lon="8.066723311652533"><ele>1396.5</ele><time>2026-05-03T10:17:43.075Z</time></trkpt><trkpt lat="46.186989202480945" lon="8.066805606246541"><ele>1395.0</ele><time>2026-05-03T10:17:44.062Z</time></trkpt><trkpt lat="46.18689945551488" lon="8.066887458559425"><ele>1395.0</ele><time>2026-05-03T10:17:45.039Z</time></trkpt><trkpt lat="46.18682040628476" lon="8.066959427302892"><ele>1395.0</ele><time>2026-05-03T10:17:46.034Z</time></trkpt><trkpt lat="46.18674644781053" lon="8.067026766533097"><ele>1395.0</ele><time>2026-05-03T10:17:47.035Z</time></trkpt><trkpt lat="46.186683494074124" lon="8.067084140151982"><ele>1395.0</ele><time>2026-05-03T10:17:48.032Z</time></trkpt><trkpt lat="46.18658799900003" lon="8.067171169798815"><ele>1395.0</ele><time>2026-05-03T10:17:50.031Z</time></trkpt><trkpt lat="46.18649432019368" lon="8.067256545118743"><ele>1390.25</ele><time>2026-05-03T10:17:52.032Z</time></trkpt><trkpt lat="46.1864326695768" lon="8.067312731070345"><ele>1385.5</ele><time>2026-05-03T10:17:54.03Z</time></trkpt><trkpt lat="46.186353062064384" lon="8.06740617988194"><ele>1380.75</ele><time>2026-05-03T10:17:57.033Z</time></trkpt><trkpt lat="46.18627150867632" lon="8.06743332976909"><ele>1376.0</ele><time>2026-05-03T10:18:02.032Z</time></trkpt><trkpt lat="46.18473987038333" lon="8.069129445355996"><ele>1376.0</ele><time>2026-05-03T10:18:09.459Z</time></trkpt><trkpt lat="46.184676540679376" lon="8.06920488414171"><ele>1376.0</ele><time>2026-05-03T10:20:14.997Z</time></trkpt><trkpt lat="46.18469063709109" lon="8.069556154555027"><ele>1376.0</ele><time>2026-05-03T10:20:15.997Z</time></trkpt><trkpt lat="46.184592382468544" lon="8.06929373382374"><ele>1376.0</ele><time>2026-05-03T10:20:16.997Z</time></trkpt><trkpt lat="46.18452276938428" lon="8.069388017177749"><ele>1376.0</ele><time>2026-05-03T10:20:22Z</time></trkpt><trkpt lat="46.18444725745074" lon="8.069463015283855"><ele>1376.0</ele><time>2026-05-03T10:20:25Z</time></trkpt><trkpt lat="46.184376728712074" lon="8.06952396874319"><ele>1376.0</ele><time>2026-05-03T10:20:28Z</time></trkpt><trkpt lat="46.184304324729936" lon="8.069569760102672"><ele>1376.0</ele><time>2026-05-03T10:20:31Z</time></trkpt><trkpt lat="46.18422170299645" lon="8.069622015884072"><ele>1376.0</ele><time>2026-05-03T10:20:34Z</time></trkpt><trkpt lat="46.18413927706413" lon="8.069663532056175"><ele>1376.0</ele><time>2026-05-03T10:20:36Z</time></trkpt><trkpt lat="46.184059159947864" lon="8.069674899233641"><ele>1376.0</ele><time>2026-05-03T10:20:38Z</time></trkpt><trkpt lat="46.1839761636801" lon="8.069710940879515"><ele>1376.0</ele><time>2026-05-03T10:20:40Z</time></trkpt><trkpt lat="46.18389252448836" lon="8.069747261810285"><ele>1376.0</ele><time>2026-05-03T10:20:42Z</time></trkpt><trkpt lat="46.18378432015566" lon="8.069793382248914"><ele>1376.0</ele><time>2026-05-03T10:20:44Z</time></trkpt><trkpt lat="46.18370243356531" lon="8.06982812991833"><ele>1377.5714285714287</ele><time>2026-05-03T10:20:46Z</time></trkpt><trkpt lat="46.18362625803055" lon="8.069860454204584"><ele>1379.142857142857</ele><time>2026-05-03T10:20:48Z</time></trkpt><trkpt lat="46.183554594557364" lon="8.069890863857731"><ele>1380.7142857142858</ele><time>2026-05-03T10:20:50Z</time></trkpt><trkpt lat="46.18348749747104" lon="8.06991626381226"><ele>1382.2857142857142</ele><time>2026-05-03T10:20:54Z</time></trkpt><trkpt lat="46.1834275484719" lon="8.069944774509935"><ele>1383.857142857143</ele><time>2026-05-03T10:21:13.999Z</time></trkpt><trkpt lat="46.18336480653829" lon="8.069971438316305"><ele>1385.4285714285716</ele><time>2026-05-03T10:21:15.999Z</time></trkpt><trkpt lat="46.183297972064175" lon="8.070000156297814"><ele>1387.0</ele><time>2026-05-03T10:25:47Z</time></trkpt><trkpt lat="46.18322495110274" lon="8.070031532606462"><ele>1381.1666666666665</ele><time>2026-05-03T10:25:52Z</time></trkpt><trkpt lat="46.18313392816386" lon="8.070070644117331"><ele>1375.3333333333333</ele><time>2026-05-03T10:25:55Z</time></trkpt><trkpt lat="46.18302839646672" lon="8.070115989892074"><ele>1369.5</ele><time>2026-05-03T10:25:57Z</time></trkpt><trkpt lat="46.18295663878699" lon="8.070146823367839"><ele>1363.6666666666667</ele><time>2026-05-03T10:25:58Z</time></trkpt><trkpt lat="46.182880044144895" lon="8.070179735170647"><ele>1357.8333333333335</ele><time>2026-05-03T10:25:59Z</time></trkpt><trkpt lat="46.18280568994477" lon="8.070211684353877"><ele>1352.0</ele><time>2026-05-03T10:26:00Z</time></trkpt><trkpt lat="46.18272944743031" lon="8.070244444929749"><ele>1352.0</ele><time>2026-05-03T10:26:01Z</time></trkpt><trkpt lat="46.18260025636019" lon="8.070298496343856"><ele>1352.0</ele><time>2026-05-03T10:26:03Z</time></trkpt><trkpt lat="46.182491931104614" lon="8.0703437550461"><ele>1352.0</ele><time>2026-05-03T10:26:05Z</time></trkpt><trkpt lat="46.182416064194314" lon="8.070371049833165"><ele>1352.0</ele><time>2026-05-03T10:26:06Z</time></trkpt><trkpt lat="46.18234056207956" lon="8.070393387930588"><ele>1352.0</ele><time>2026-05-03T10:26:07Z</time></trkpt><trkpt lat="46.18226503045452" lon="8.070415232180187"><ele>1353.3333333333335</ele><time>2026-05-03T10:26:08Z</time></trkpt><trkpt lat="46.18219565193551" lon="8.070454107985327"><ele>1354.6666666666667</ele><time>2026-05-03T10:26:09Z</time></trkpt><trkpt lat="46.18212672880965" lon="8.07046872309615"><ele>1356.0</ele><time>2026-05-03T10:26:10Z</time></trkpt><trkpt lat="46.18205693293768" lon="8.07048119219548"><ele>1357.3333333333333</ele><time>2026-05-03T10:26:11Z</time></trkpt><trkpt lat="46.18198096571561" lon="8.070481757380016"><ele>1358.6666666666665</ele><time>2026-05-03T10:26:12Z</time></trkpt><trkpt lat="46.18189331560303" lon="8.070468101845776"><ele>1360.0</ele><time>2026-05-03T10:26:13Z</time></trkpt><trkpt lat="46.18179654268299" lon="8.070441941073462"><ele>1360.0</ele><time>2026-05-03T10:26:14Z</time></trkpt><trkpt lat="46.18169459535829" lon="8.070436303567874"><ele>1360.0</ele><time>2026-05-03T10:26:15Z</time></trkpt><trkpt lat="46.18158110718088" lon="8.070455791843523"><ele>1360.0</ele><time>2026-05-03T10:26:15.999Z</time></trkpt><trkpt lat="46.18146189447545" lon="8.070478369534973"><ele>1360.0</ele><time>2026-05-03T10:26:16.999Z</time></trkpt><trkpt lat="46.1817845322923" lon="8.070540997068516"><ele>1360.0</ele><time>2026-05-03T10:26:17.999Z</time></trkpt><trkpt lat="46.181692499779274" lon="8.070560196383703"><ele>1360.0</ele><time>2026-05-03T10:26:18.999Z</time></trkpt><trkpt lat="46.18159395116803" lon="8.070574814814913"><ele>1360.0</ele><time>2026-05-03T10:26:20.999Z</time></trkpt><trkpt lat="46.181511368238716" lon="8.070595514071154"><ele>1360.0</ele><time>2026-05-03T10:26:22.999Z</time></trkpt><trkpt lat="46.179924148822984" lon="8.069998391620086"><ele>1392.0</ele><time>2026-05-03T10:26:24.999Z</time></trkpt><trkpt lat="46.17968471373196" lon="8.069921401014641"><ele>1424.0</ele><time>2026-05-03T10:26:25.999Z</time></trkpt><trkpt lat="46.179457506878" lon="8.069872825284044"><ele>1424.0</ele><time>2026-05-03T10:26:26.999Z</time></trkpt><trkpt lat="46.179220973578104" lon="8.069792462036029"><ele>1424.0</ele><time>2026-05-03T10:26:27.999Z</time></trkpt><trkpt lat="46.179005794105365" lon="8.06974317609682"><ele>1421.6666666666667</ele><time>2026-05-03T10:26:28.999Z</time></trkpt><trkpt lat="46.178789410083006" lon="8.069640238315682"><ele>1419.3333333333333</ele><time>2026-05-03T10:26:29.999Z</time></trkpt><trkpt lat="46.17859506777373" lon="8.069664314995773"><ele>1417.0</ele><time>2026-05-03T10:26:30.999Z</time></trkpt><trkpt lat="46.1784148223772" lon="8.069617265699682"><ele>1417.0</ele><time>2026-05-03T10:26:31.999Z</time></trkpt><trkpt lat="46.178201740705916" lon="8.0696628706091"><ele>1417.0</ele><time>2026-05-03T10:26:32.999Z</time></trkpt><trkpt lat="46.17799759631338" lon="8.069716349053232"><ele>1417.0</ele><time>2026-05-03T10:26:33.999Z</time></trkpt><trkpt lat="46.17774703566773" lon="8.069602432890154"><ele>1412.0</ele><time>2026-05-03T10:26:34.999Z</time></trkpt><trkpt lat="46.17749038665807" lon="8.069581414627672"><ele>1407.0</ele><time>2026-05-03T10:26:35.999Z</time></trkpt><trkpt lat="46.177222146199576" lon="8.06949125533214"><ele>1407.0</ele><time>2026-05-03T10:26:36.999Z</time></trkpt><trkpt lat="46.177023283537196" lon="8.06949806692096"><ele>1407.0</ele><time>2026-05-03T10:26:38Z</time></trkpt><trkpt lat="46.177411422300956" lon="8.069288742019769"><ele>1403.0</ele><time>2026-05-03T10:26:39Z</time></trkpt><trkpt lat="46.177311406911755" lon="8.069633713684956"><ele>1399.0</ele><time>2026-05-03T10:26:40Z</time></trkpt><trkpt lat="46.17722331116271" lon="8.0697748694269"><ele>1395.0</ele><time>2026-05-03T10:26:41Z</time></trkpt><trkpt lat="46.17712385405302" lon="8.069844503045026"><ele>1395.0</ele><time>2026-05-03T10:26:42Z</time></trkpt><trkpt lat="46.176958412138156" lon="8.069837728666274"><ele>1395.0</ele><time>2026-05-03T10:26:43Z</time></trkpt><trkpt lat="46.17679522980145" lon="8.069828944600816"><ele>1395.0</ele><time>2026-05-03T10:26:44Z</time></trkpt><trkpt lat="46.1766926701143" lon="8.069826970340138"><ele>1395.0</ele><time>2026-05-03T10:26:45Z</time></trkpt><trkpt lat="46.17663119068385" lon="8.069766890529023"><ele>1395.0</ele><time>2026-05-03T10:26:46Z</time></trkpt><trkpt lat="46.17655702770228" lon="8.06972590586262"><ele>1395.0</ele><time>2026-05-03T10:26:47Z</time></trkpt><trkpt lat="46.1767449613848" lon="8.069635773324933"><ele>1395.0</ele><time>2026-05-03T10:26:48Z</time></trkpt><trkpt lat="46.17686681647103" lon="8.069600484223747"><ele>1395.0</ele><time>2026-05-03T10:26:49Z</time></trkpt><trkpt lat="46.17698342706884" lon="8.069569725944927"><ele>1417.0</ele><time>2026-05-03T10:26:50Z</time></trkpt><trkpt lat="46.17854599850644" lon="8.069764759092905"><ele>1417.0</ele><time>2026-05-03T10:26:51Z</time></trkpt><trkpt lat="46.178627619990245" lon="8.069800682955446"><ele>1417.0</ele><time>2026-05-03T10:26:52Z</time></trkpt><trkpt lat="46.178879218237405" lon="8.069748137348924"><ele>1417.0</ele><time>2026-05-03T10:26:59Z</time></trkpt><trkpt lat="46.178952678883476" lon="8.06974809885155"><ele>1417.0</ele><time>2026-05-03T10:27:00Z</time></trkpt><trkpt lat="46.17903241167481" lon="8.069752187704546"><ele>1418.3999999999999</ele><time>2026-05-03T10:27:01Z</time></trkpt><trkpt lat="46.17913146041393" lon="8.069791269744778"><ele>1419.8</ele><time>2026-05-03T10:27:02Z</time></trkpt><trkpt lat="46.17918724983896" lon="8.069867782019578"><ele>1421.2</ele><time>2026-05-03T10:27:03Z</time></trkpt><trkpt lat="46.179193967588766" lon="8.069979270541884"><ele>1422.6</ele><time>2026-05-03T10:27:04Z</time></trkpt><trkpt lat="46.179279407415464" lon="8.069973452344565"><ele>1424.0</ele><time>2026-05-03T10:27:05Z</time></trkpt><trkpt lat="46.17936947177462" lon="8.069861939645497"><ele>1424.0</ele><time>2026-05-03T10:27:06Z</time></trkpt><trkpt lat="46.179536979280776" lon="8.069805910712109"><ele>1424.0</ele><time>2026-05-03T10:27:08Z</time></trkpt><trkpt lat="46.1796428779856" lon="8.069806645802693"><ele>1424.0</ele><time>2026-05-03T10:27:09Z</time></trkpt><trkpt lat="46.179720463149" lon="8.06983294108665"><ele>1424.0</ele><time>2026-05-03T10:27:10Z</time></trkpt><trkpt lat="46.17981776237846" lon="8.069906838069743"><ele>1425.0</ele><time>2026-05-03T10:27:11Z</time></trkpt><trkpt lat="46.17989965499555" lon="8.069897446008705"><ele>1426.0</ele><time>2026-05-03T10:27:14Z</time></trkpt><trkpt lat="46.1801606992652" lon="8.069897446048758"><ele>1427.0</ele><time>2026-05-03T10:27:15Z</time></trkpt><trkpt lat="46.1802373217229" lon="8.069897446048815"><ele>1428.0</ele><time>2026-05-03T10:27:16Z</time></trkpt><trkpt lat="46.18031654496026" lon="8.06991527719681"><ele>1343.0</ele><time>2026-05-03T10:27:17Z</time></trkpt><trkpt lat="46.18049090424633" lon="8.07095201185006"><ele>1343.0</ele><time>2026-05-03T10:27:18Z</time></trkpt><trkpt lat="46.180552329251114" lon="8.071043281168205"><ele>1343.0</ele><time>2026-05-03T10:27:19Z</time></trkpt><trkpt lat="46.18062891880853" lon="8.071120980886253"><ele>1343.0</ele><time>2026-05-03T10:27:21Z</time></trkpt><trkpt lat="46.180674105089764" lon="8.0711890496363"><ele>1343.0</ele><time>2026-05-03T10:27:22Z</time></trkpt><trkpt lat="46.1807346611758" lon="8.071250565446656"><ele>1343.0</ele><time>2026-05-03T10:27:23Z</time></trkpt><trkpt lat="46.18079986154837" lon="8.071289718311732"><ele>1343.0</ele><time>2026-05-03T10:27:24Z</time></trkpt><trkpt lat="46.18045043280503" lon="8.071089391598804"><ele>1343.0</ele><time>2026-05-03T10:27:26Z</time></trkpt><trkpt lat="46.18061875518904" lon="8.07126362019606"><ele>1343.0</ele><time>2026-05-03T10:27:30Z</time></trkpt><trkpt lat="46.18067481015124" lon="8.071143235950382"><ele>1343.0</ele><time>2026-05-03T10:27:34Z</time></trkpt><trkpt lat="46.18075403421803" lon="8.071147294521781"><ele>1343.0</ele><time>2026-05-03T10:27:39Z</time></trkpt><trkpt lat="46.180849908476915" lon="8.07123200298747"><ele>1342.0</ele><time>2026-05-03T10:27:59Z</time></trkpt><trkpt lat="46.180909881765075" lon="8.071303595894818"><ele>1341.0</ele><time>2026-05-03T10:28:11.999Z</time></trkpt><trkpt lat="46.18094924931262" lon="8.071229423621379"><ele>1340.0</ele><time>2026-05-03T10:28:21.999Z</time></trkpt><trkpt lat="46.18098297141771" lon="8.071152615634116"><ele>1339.0</ele><time>2026-05-03T10:28:32.999Z</time></trkpt><trkpt lat="46.18099361250006" lon="8.071062203195849"><ele>1338.0</ele><time>2026-05-03T10:29:01Z</time></trkpt><trkpt lat="46.18101458906031" lon="8.07094506656343"><ele>1337.0</ele><time>2026-05-03T10:29:12Z</time></trkpt><trkpt lat="46.181097023779586" lon="8.071017458963825"><ele>1336.0</ele><time>2026-05-03T10:29:56Z</time></trkpt><trkpt lat="46.18119470054521" lon="8.07099919145879"><ele>1336.0</ele><time>2026-05-03T10:31:36Z</time></trkpt><trkpt lat="46.18109781162426" lon="8.070990774450667"><ele>1336.0</ele><time>2026-05-03T10:31:51Z</time></trkpt><trkpt lat="46.1810015495593" lon="8.070999158224701"><ele>1336.0</ele><time>2026-05-03T10:31:53Z</time></trkpt><trkpt lat="46.18091459192488" lon="8.07101890302355"><ele>1336.0</ele><time>2026-05-03T10:31:54Z</time></trkpt><trkpt lat="46.180810852094545" lon="8.071043050738814"><ele>1336.0</ele><time>2026-05-03T10:31:55Z</time></trkpt><trkpt lat="46.18072976207066" lon="8.071070585795042"><ele>1337.4</ele><time>2026-05-03T10:31:56Z</time></trkpt><trkpt lat="46.18062568498768" lon="8.070977379110985"><ele>1338.8</ele><time>2026-05-03T10:31:57Z</time></trkpt><trkpt lat="46.180558722755386" lon="8.071018807169326"><ele>1340.2</ele><time>2026-05-03T10:31:58Z</time></trkpt><trkpt lat="46.180481038085105" lon="8.071066869045346"><ele>1341.6000000000001</ele><time>2026-05-03T10:31:59Z</time></trkpt><trkpt lat="46.180367570783616" lon="8.07111960036678"><ele>1343.0</ele><time>2026-05-03T10:32:01Z</time></trkpt><trkpt lat="46.18030149639781" lon="8.071137483828824"><ele>1343.0</ele><time>2026-05-03T10:32:02Z</time></trkpt><trkpt lat="46.18023151929383" lon="8.071158714647725"><ele>1343.0</ele><time>2026-05-03T10:32:03Z</time></trkpt><trkpt lat="46.180162728936764" lon="8.071182298720084"><ele>1343.0</ele><time>2026-05-03T10:32:04Z</time></trkpt><trkpt lat="46.180248496014066" lon="8.071173771386992"><ele>1343.0</ele><time>2026-05-03T10:32:05Z</time></trkpt><trkpt lat="46.1801686305968" lon="8.07123827279085"><ele>1343.0</ele><time>2026-05-03T10:32:07Z</time></trkpt><trkpt lat="46.180077822442115" lon="8.07130343621871"><ele>1343.0</ele><time>2026-05-03T10:32:09Z</time></trkpt><trkpt lat="46.17998453015498" lon="8.071359920530794"><ele>1343.0</ele><time>2026-05-03T10:32:11Z</time></trkpt><trkpt lat="46.17990239149903" lon="8.071415739194595"><ele>1343.0</ele><time>2026-05-03T10:32:13Z</time></trkpt><trkpt lat="46.17982117809882" lon="8.071471456982042"><ele>1343.0</ele><time>2026-05-03T10:32:15Z</time></trkpt><trkpt lat="46.17971028393301" lon="8.071526984394415"><ele>1343.0</ele><time>2026-05-03T10:32:17Z</time></trkpt><trkpt lat="46.17964481632867" lon="8.071550042176568"><ele>1343.0</ele><time>2026-05-03T10:32:18Z</time></trkpt><trkpt lat="46.17957629071811" lon="8.071572679720681"><ele>1343.0</ele><time>2026-05-03T10:32:19Z</time></trkpt><trkpt lat="46.17949920551027" lon="8.07155050897752"><ele>1342.6666666666667</ele><time>2026-05-03T10:32:20Z</time></trkpt><trkpt lat="46.17941736285067" lon="8.071573041248426"><ele>1342.3333333333335</ele><time>2026-05-03T10:32:21Z</time></trkpt><trkpt lat="46.17933668314855" lon="8.071563621354617"><ele>1342.0</ele><time>2026-05-03T10:32:22Z</time></trkpt><trkpt lat="46.17925655636775" lon="8.071526032450956"><ele>1341.6666666666667</ele><time>2026-05-03T10:32:23Z</time></trkpt><trkpt lat="46.179169543632426" lon="8.071537548801544"><ele>1341.3333333333333</ele><time>2026-05-03T10:32:24Z</time></trkpt><trkpt lat="46.17908366970689" lon="8.07154749269603"><ele>1341.0</ele><time>2026-05-03T10:32:25Z</time></trkpt><trkpt lat="46.17900517303206" lon="8.071577261897161"><ele>1335.3333333333333</ele><time>2026-05-03T10:32:26Z</time></trkpt><trkpt lat="46.178923400721104" lon="8.071613574087838"><ele>1329.6666666666667</ele><time>2026-05-03T10:32:27Z</time></trkpt><trkpt lat="46.178838834973504" lon="8.071642597785225"><ele>1324.0</ele><time>2026-05-03T10:32:28Z</time></trkpt><trkpt lat="46.178751323881954" lon="8.071675167827989"><ele>1318.3333333333335</ele><time>2026-05-03T10:32:29Z</time></trkpt><trkpt lat="46.17866279496433" lon="8.071705628903294"><ele>1312.6666666666667</ele><time>2026-05-03T10:32:30Z</time></trkpt><trkpt lat="46.17857637322354" lon="8.071738809222428"><ele>1307.0</ele><time>2026-05-03T10:32:31Z</time></trkpt><trkpt lat="46.17849458177926" lon="8.071765776738472"><ele>1307.0</ele><time>2026-05-03T10:32:32Z</time></trkpt><trkpt lat="46.178411419350155" lon="8.071791545452825"><ele>1307.0</ele><time>2026-05-03T10:32:33Z</time></trkpt><trkpt lat="46.17832670985445" lon="8.071805178390692"><ele>1307.0</ele><time>2026-05-03T10:32:34Z</time></trkpt><trkpt lat="46.17824105107199" lon="8.071792180247161"><ele>1307.0</ele><time>2026-05-03T10:32:35Z</time></trkpt><trkpt lat="46.178154688656676" lon="8.071756783979676"><ele>1307.0</ele><time>2026-05-03T10:32:36Z</time></trkpt><trkpt lat="46.17806127733823" lon="8.071700532503923"><ele>1307.0</ele><time>2026-05-03T10:32:37Z</time></trkpt><trkpt lat="46.17796199896928" lon="8.071638728281206"><ele>1312.0</ele><time>2026-05-03T10:32:38Z</time></trkpt><trkpt lat="46.17786517810554" lon="8.071573938472937"><ele>1317.0</ele><time>2026-05-03T10:32:39Z</time></trkpt><trkpt lat="46.1777780443341" lon="8.071505852652912"><ele>1322.0</ele><time>2026-05-03T10:32:40Z</time></trkpt><trkpt lat="46.177693123871244" lon="8.071436457238855"><ele>1327.0</ele><time>2026-05-03T10:32:41Z</time></trkpt><trkpt lat="46.177613415870965" lon="8.071372853007611"><ele>1332.0</ele><time>2026-05-03T10:32:42Z</time></trkpt><trkpt lat="46.17752387388212" lon="8.071303610446535"><ele>1332.0</ele><time>2026-05-03T10:32:43Z</time></trkpt><trkpt lat="46.17743655887056" lon="8.071244358944915"><ele>1332.0</ele><time>2026-05-03T10:32:43.999Z</time></trkpt><trkpt lat="46.17733112751205" lon="8.071168389745534"><ele>1332.0</ele><time>2026-05-03T10:32:44.999Z</time></trkpt><trkpt lat="46.17722917896544" lon="8.071099172795137"><ele>1332.0</ele><time>2026-05-03T10:32:45.999Z</time></trkpt><trkpt lat="46.17711987969388" lon="8.07106340121481"><ele>1332.0</ele><time>2026-05-03T10:32:46.999Z</time></trkpt><trkpt lat="46.177016569886135" lon="8.071039363083433"><ele>1330.4285714285716</ele><time>2026-05-03T10:32:47.999Z</time></trkpt><trkpt lat="46.17694137325386" lon="8.071000430086018"><ele>1328.8571428571427</ele><time>2026-05-03T10:32:48.999Z</time></trkpt><trkpt lat="46.176858492290094" lon="8.070977296822708"><ele>1327.2857142857142</ele><time>2026-05-03T10:32:49.999Z</time></trkpt><trkpt lat="46.17678412534481" lon="8.070984744130039"><ele>1325.7142857142858</ele><time>2026-05-03T10:32:50.999Z</time></trkpt><trkpt lat="46.17671035876355" lon="8.071012932035341"><ele>1324.1428571428573</ele><time>2026-05-03T10:32:51.999Z</time></trkpt><trkpt lat="46.17664395143849" lon="8.071035461753434"><ele>1322.5714285714284</ele><time>2026-05-03T10:32:52.999Z</time></trkpt><trkpt lat="46.17658117920222" lon="8.071047149508793"><ele>1321.0</ele><time>2026-05-03T10:32:53.999Z</time></trkpt><trkpt lat="46.17646413775783" lon="8.071078413673279"><ele>1321.0</ele><time>2026-05-03T10:32:55.069Z</time></trkpt><trkpt lat="46.17640151739533" lon="8.071142839864764"><ele>1321.0</ele><time>2026-05-03T10:32:56.042Z</time></trkpt><trkpt lat="46.17627271722067" lon="8.071335338171243"><ele>1321.0</ele><time>2026-05-03T10:32:57.043Z</time></trkpt><trkpt lat="46.17633314864634" lon="8.071956503655324"><ele>1317.6</ele><time>2026-05-03T10:32:59.999Z</time></trkpt><trkpt lat="46.17639049246152" lon="8.072090011196087"><ele>1314.1999999999998</ele><time>2026-05-03T10:33:01.001Z</time></trkpt><trkpt lat="46.17644248555876" lon="8.072273952054053"><ele>1310.8000000000002</ele><time>2026-05-03T10:33:02.001Z</time></trkpt><trkpt lat="46.17652275539916" lon="8.072357634307833"><ele>1307.4</ele><time>2026-05-03T10:33:03.001Z</time></trkpt><trkpt lat="46.1766204095601" lon="8.072401308061895"><ele>1304.0</ele><time>2026-05-03T10:33:04.001Z</time></trkpt><trkpt lat="46.17673442298256" lon="8.072430234770689"><ele>1301.5</ele><time>2026-05-03T10:33:05.001Z</time></trkpt><trkpt lat="46.17687175303982" lon="8.07242136377498"><ele>1299.0</ele><time>2026-05-03T10:33:06.001Z</time></trkpt><trkpt lat="46.17698587700424" lon="8.07244316437605"><ele>1296.5</ele><time>2026-05-03T10:33:07.001Z</time></trkpt><trkpt lat="46.17710295320384" lon="8.072461072933372"><ele>1294.0</ele><time>2026-05-03T10:33:08.001Z</time></trkpt><trkpt lat="46.17722400819855" lon="8.072477799851255"><ele>1290.5</ele><time>2026-05-03T10:33:09.001Z</time></trkpt><trkpt lat="46.17734540760334" lon="8.072494885657152"><ele>1287.0</ele><time>2026-05-03T10:33:10.001Z</time></trkpt><trkpt lat="46.17746596735041" lon="8.072513068884858"><ele>1283.5</ele><time>2026-05-03T10:33:11.001Z</time></trkpt><trkpt lat="46.177586868256896" lon="8.072529600986167"><ele>1280.0</ele><time>2026-05-03T10:33:12.001Z</time></trkpt><trkpt lat="46.1777067266026" lon="8.07254724603382"><ele>1279.75</ele><time>2026-05-03T10:33:13.001Z</time></trkpt><trkpt lat="46.17783003727899" lon="8.072563800846847"><ele>1279.5</ele><time>2026-05-03T10:33:14.001Z</time></trkpt><trkpt lat="46.17795586346922" lon="8.072578911064772"><ele>1279.25</ele><time>2026-05-03T10:33:15.001Z</time></trkpt><trkpt lat="46.178083027751605" lon="8.07257752346041"><ele>1279.0</ele><time>2026-05-03T10:33:16.001Z</time></trkpt><trkpt lat="46.17821271996701" lon="8.07256103783594"><ele>1279.0</ele><time>2026-05-03T10:33:17.001Z</time></trkpt><trkpt lat="46.17834469358787" lon="8.072579735404567"><ele>1279.0</ele><time>2026-05-03T10:33:18.001Z</time></trkpt><trkpt lat="46.178469652491145" lon="8.072592227756076"><ele>1279.0</ele><time>2026-05-03T10:33:19.001Z</time></trkpt><trkpt lat="46.17861689755938" lon="8.07257258464104"><ele>1279.0</ele><time>2026-05-03T10:33:20.001Z</time></trkpt><trkpt lat="46.178748026304184" lon="8.072543162825443"><ele>1279.0</ele><time>2026-05-03T10:33:21.001Z</time></trkpt><trkpt lat="46.17887060502303" lon="8.072522936577734"><ele>1279.0</ele><time>2026-05-03T10:33:22.001Z</time></trkpt><trkpt lat="46.178992554509186" lon="8.072504711097732"><ele>1279.0</ele><time>2026-05-03T10:33:23.001Z</time></trkpt><trkpt lat="46.17911008686395" lon="8.072489429040179"><ele>1279.0</ele><time>2026-05-03T10:33:24.001Z</time></trkpt><trkpt lat="46.17921733972918" lon="8.072452682638161"><ele>1277.5</ele><time>2026-05-03T10:33:25Z</time></trkpt><trkpt lat="46.17933885551943" lon="8.072469880667208"><ele>1276.0</ele><time>2026-05-03T10:33:26Z</time></trkpt><trkpt lat="46.17945440465712" lon="8.072490017319565"><ele>1274.5</ele><time>2026-05-03T10:33:27Z</time></trkpt><trkpt lat="46.1795605084464" lon="8.072517446265005"><ele>1273.0</ele><time>2026-05-03T10:33:28Z</time></trkpt><trkpt lat="46.17966926911998" lon="8.072545288530321"><ele>1273.0</ele><time>2026-05-03T10:33:29Z</time></trkpt><trkpt lat="46.17978094426897" lon="8.072573337100147"><ele>1273.0</ele><time>2026-05-03T10:33:30Z</time></trkpt><trkpt lat="46.17989600012183" lon="8.072600582320568"><ele>1273.0</ele><time>2026-05-03T10:33:31Z</time></trkpt><trkpt lat="46.180025563878544" lon="8.072624775405378"><ele>1273.0</ele><time>2026-05-03T10:33:32Z</time></trkpt><trkpt lat="46.18014424182442" lon="8.07265515211529"><ele>1272.0</ele><time>2026-05-03T10:33:33Z</time></trkpt><trkpt lat="46.18027485523011" lon="8.072680136095402"><ele>1271.0</ele><time>2026-05-03T10:33:34Z</time></trkpt><trkpt lat="46.180407428553885" lon="8.072717116662949"><ele>1270.0</ele><time>2026-05-03T10:33:35Z</time></trkpt><trkpt lat="46.18053104386902" lon="8.07274127801916"><ele>1269.0</ele><time>2026-05-03T10:33:36Z</time></trkpt><trkpt lat="46.180654426177945" lon="8.07276745620727"><ele>1267.5</ele><time>2026-05-03T10:33:37Z</time></trkpt><trkpt lat="46.18077645980484" lon="8.072791804316887"><ele>1266.0</ele><time>2026-05-03T10:33:38Z</time></trkpt><trkpt lat="46.18089673368768" lon="8.072826216016516"><ele>1264.5</ele><time>2026-05-03T10:33:39Z</time></trkpt><trkpt lat="46.181019284283" lon="8.072848489760506"><ele>1263.0</ele><time>2026-05-03T10:33:40Z</time></trkpt><trkpt lat="46.18114473173533" lon="8.07284271074587"><ele>1263.0</ele><time>2026-05-03T10:33:41Z</time></trkpt><trkpt lat="46.18127355127372" lon="8.072818879585236"><ele>1263.0</ele><time>2026-05-03T10:33:42Z</time></trkpt><trkpt lat="46.1814053761673" lon="8.07275975677887"><ele>1263.0</ele><time>2026-05-03T10:33:43Z</time></trkpt><trkpt lat="46.18153700670544" lon="8.07269332487403"><ele>1263.0</ele><time>2026-05-03T10:33:44Z</time></trkpt><trkpt lat="46.18166395697177" lon="8.072633517326963"><ele>1261.5</ele><time>2026-05-03T10:33:45Z</time></trkpt><trkpt lat="46.18178508173633" lon="8.07258533218819"><ele>1260.0</ele><time>2026-05-03T10:33:46Z</time></trkpt><trkpt lat="46.18192869053666" lon="8.072537377075701"><ele>1258.5</ele><time>2026-05-03T10:33:47Z</time></trkpt><trkpt lat="46.18205701413888" lon="8.072499186062698"><ele>1257.0</ele><time>2026-05-03T10:33:48Z</time></trkpt><trkpt lat="46.1821884447237" lon="8.072511496771984"><ele>1257.0</ele><time>2026-05-03T10:33:49Z</time></trkpt><trkpt lat="46.18231382412298" lon="8.072546847860458"><ele>1257.0</ele><time>2026-05-03T10:33:50Z</time></trkpt><trkpt lat="46.182434525640076" lon="8.07261931816627"><ele>1257.0</ele><time>2026-05-03T10:33:51Z</time></trkpt><trkpt lat="46.18255632872494" lon="8.072719492948536"><ele>1257.0</ele><time>2026-05-03T10:33:52Z</time></trkpt><trkpt lat="46.18267894290397" lon="8.072821327361767"><ele>1256.5</ele><time>2026-05-03T10:33:53Z</time></trkpt><trkpt lat="46.18280190495502" lon="8.072931942665202"><ele>1256.0</ele><time>2026-05-03T10:33:54Z</time></trkpt><trkpt lat="46.182930472574085" lon="8.073022492555252"><ele>1255.5</ele><time>2026-05-03T10:33:55Z</time></trkpt><trkpt lat="46.18307104322742" lon="8.073087613820407"><ele>1255.0</ele><time>2026-05-03T10:33:56Z</time></trkpt><trkpt lat="46.1832071267438" lon="8.073105869498189"><ele>1254.75</ele><time>2026-05-03T10:33:57Z</time></trkpt><trkpt lat="46.183343062158414" lon="8.073068698178378"><ele>1254.5</ele><time>2026-05-03T10:33:58Z</time></trkpt><trkpt lat="46.18346893426658" lon="8.072988597241643"><ele>1254.25</ele><time>2026-05-03T10:33:59Z</time></trkpt><trkpt lat="46.1835868515528" lon="8.072888868106526"><ele>1254.0</ele><time>2026-05-03T10:34:00Z</time></trkpt><trkpt lat="46.183710826860064" lon="8.072793254441969"><ele>1254.0</ele><time>2026-05-03T10:34:01Z</time></trkpt><trkpt lat="46.18383318876743" lon="8.072715470360697"><ele>1254.0</ele><time>2026-05-03T10:34:02Z</time></trkpt><trkpt lat="46.18396124113615" lon="8.072659074075194"><ele>1254.0</ele><time>2026-05-03T10:34:03Z</time></trkpt><trkpt lat="46.184089019671646" lon="8.072629736786354"><ele>1254.0</ele><time>2026-05-03T10:34:04Z</time></trkpt><trkpt lat="46.18421248122561" lon="8.07259848867836"><ele>1251.75</ele><time>2026-05-03T10:34:05Z</time></trkpt><trkpt lat="46.18433324623213" lon="8.072565853039539"><ele>1249.5</ele><time>2026-05-03T10:34:06Z</time></trkpt><trkpt lat="46.18445420080149" lon="8.072532969165943"><ele>1247.25</ele><time>2026-05-03T10:34:07Z</time></trkpt><trkpt lat="46.18457093987973" lon="8.072520193076477"><ele>1245.0</ele><time>2026-05-03T10:34:08Z</time></trkpt><trkpt lat="46.18468832805911" lon="8.072544710353746"><ele>1245.0</ele><time>2026-05-03T10:34:09Z</time></trkpt><trkpt lat="46.18479484748528" lon="8.07261282866709"><ele>1245.0</ele><time>2026-05-03T10:34:10Z</time></trkpt><trkpt lat="46.18485407978613" lon="8.072758150964724"><ele>1245.0</ele><time>2026-05-03T10:34:11Z</time></trkpt><trkpt lat="46.18487738503618" lon="8.07289973362225"><ele>1245.0</ele><time>2026-05-03T10:34:12Z</time></trkpt><trkpt lat="46.18488491642718" lon="8.073042052954825"><ele>1245.0</ele><time>2026-05-03T10:34:13Z</time></trkpt><trkpt lat="46.184853211810314" lon="8.073168152008783"><ele>1240.0</ele><time>2026-05-03T10:34:14Z</time></trkpt><trkpt lat="46.18479310695306" lon="8.073293419158302"><ele>1235.0</ele><time>2026-05-03T10:34:15Z</time></trkpt><trkpt lat="46.184723719694844" lon="8.073433549117057"><ele>1230.0</ele><time>2026-05-03T10:34:16Z</time></trkpt><trkpt lat="46.18465864029972" lon="8.073588972111546"><ele>1225.0</ele><time>2026-05-03T10:34:17Z</time></trkpt><trkpt lat="46.18459943474092" lon="8.073737602317204"><ele>1225.0</ele><time>2026-05-03T10:34:18Z</time></trkpt><trkpt lat="46.184560031659764" lon="8.073911382736233"><ele>1225.0</ele><time>2026-05-03T10:34:19Z</time></trkpt><trkpt lat="46.18455914662565" lon="8.074089075759655"><ele>1225.0</ele><time>2026-05-03T10:34:20Z</time></trkpt><trkpt lat="46.184588417552355" lon="8.074273892222504"><ele>1225.0</ele><time>2026-05-03T10:34:21Z</time></trkpt><trkpt lat="46.18463525199443" lon="8.074457186084814"><ele>1223.75</ele><time>2026-05-03T10:34:22Z</time></trkpt><trkpt lat="46.18468920552099" lon="8.074642167007466"><ele>1222.5</ele><time>2026-05-03T10:34:23Z</time></trkpt><trkpt lat="46.18473863094152" lon="8.074835247692292"><ele>1221.25</ele><time>2026-05-03T10:34:24Z</time></trkpt><trkpt lat="46.18478993874255" lon="8.0750388204145"><ele>1220.0</ele><time>2026-05-03T10:34:25Z</time></trkpt><trkpt lat="46.18484209370885" lon="8.075241618465054"><ele>1223.6666666666667</ele><time>2026-05-03T10:34:26Z</time></trkpt><trkpt lat="46.18489197504056" lon="8.075445443004458"><ele>1227.3333333333333</ele><time>2026-05-03T10:34:27Z</time></trkpt><trkpt lat="46.18494465773574" lon="8.075654785060987"><ele>1231.0</ele><time>2026-05-03T10:34:28Z</time></trkpt><trkpt lat="46.18499339463576" lon="8.075860824637003"><ele>1231.0</ele><time>2026-05-03T10:34:29Z</time></trkpt><trkpt lat="46.18504511836901" lon="8.076066065075507"><ele>1231.0</ele><time>2026-05-03T10:34:30Z</time></trkpt><trkpt lat="46.185091735158984" lon="8.076277992595307"><ele>1231.0</ele><time>2026-05-03T10:34:31Z</time></trkpt><trkpt lat="46.185135421138256" lon="8.07648683188284"><ele>1229.6666666666665</ele><time>2026-05-03T10:34:32Z</time></trkpt><trkpt lat="46.18517798023915" lon="8.076701424246412"><ele>1228.3333333333333</ele><time>2026-05-03T10:34:33Z</time></trkpt><trkpt lat="46.18521493413171" lon="8.076913181129424"><ele>1227.0</ele><time>2026-05-03T10:34:34Z</time></trkpt><trkpt lat="46.185267364043845" lon="8.077120864719845"><ele>1227.0</ele><time>2026-05-03T10:34:35Z</time></trkpt><trkpt lat="46.185297862296004" lon="8.07733291133677"><ele>1227.0</ele><time>2026-05-03T10:34:36Z</time></trkpt><trkpt lat="46.18535406832206" lon="8.077556479477428"><ele>1227.0</ele><time>2026-05-03T10:34:37Z</time></trkpt><trkpt lat="46.18540644562688" lon="8.07775121438155"><ele>1219.6666666666667</ele><time>2026-05-03T10:34:38Z</time></trkpt><trkpt lat="46.18546178915926" lon="8.077931559478245"><ele>1212.3333333333335</ele><time>2026-05-03T10:34:39Z</time></trkpt><trkpt lat="46.18554193785864" lon="8.078154840049354"><ele>1205.0</ele><time>2026-05-03T10:34:40Z</time></trkpt><trkpt lat="46.18561968598238" lon="8.078354213495954"><ele>1208.3333333333335</ele><time>2026-05-03T10:34:41Z</time></trkpt><trkpt lat="46.185696421142154" lon="8.078550228712777"><ele>1211.6666666666667</ele><time>2026-05-03T10:34:42Z</time></trkpt><trkpt lat="46.18577220171837" lon="8.078752768762923"><ele>1215.0</ele><time>2026-05-03T10:34:43Z</time></trkpt><trkpt lat="46.18583502711356" lon="8.07895176186949"><ele>1213.25</ele><time>2026-05-03T10:34:44Z</time></trkpt><trkpt lat="46.1858987419762" lon="8.079139676484418"><ele>1211.5</ele><time>2026-05-03T10:34:45Z</time></trkpt><trkpt lat="46.1859332144786" lon="8.079350511878202"><ele>1209.75</ele><time>2026-05-03T10:34:46Z</time></trkpt><trkpt lat="46.18595952928936" lon="8.079554598963593"><ele>1208.0</ele><time>2026-05-03T10:34:47Z</time></trkpt><trkpt lat="46.185964337845135" lon="8.07976268747032"><ele>1208.0</ele><time>2026-05-03T10:34:48Z</time></trkpt><trkpt lat="46.1859498254447" lon="8.079972201594066"><ele>1208.0</ele><time>2026-05-03T10:34:49Z</time></trkpt><trkpt lat="46.185909840666014" lon="8.080175050699035"><ele>1208.0</ele><time>2026-05-03T10:34:50Z</time></trkpt><trkpt lat="46.18585987885219" lon="8.080374190455272"><ele>1208.0</ele><time>2026-05-03T10:34:51Z</time></trkpt><trkpt lat="46.185809496799365" lon="8.08058055342805"><ele>1208.0</ele><time>2026-05-03T10:34:52Z</time></trkpt><trkpt lat="46.18575761481481" lon="8.080789860835488"><ele>1208.0</ele><time>2026-05-03T10:34:53Z</time></trkpt><trkpt lat="46.18570695675829" lon="8.081004649939054"><ele>1208.0</ele><time>2026-05-03T10:34:54Z</time></trkpt><trkpt lat="46.18567213147112" lon="8.081229713723495"><ele>1205.0</ele><time>2026-05-03T10:34:55Z</time></trkpt><trkpt lat="46.185659332171404" lon="8.08146200697221"><ele>1202.0</ele><time>2026-05-03T10:34:55.999Z</time></trkpt><trkpt lat="46.185675301584794" lon="8.081697277898169"><ele>1199.0</ele><time>2026-05-03T10:34:56.999Z</time></trkpt><trkpt lat="46.1857062882873" lon="8.081930365708878"><ele>1199.0</ele><time>2026-05-03T10:34:57.999Z</time></trkpt><trkpt lat="46.18575324931564" lon="8.082160004777121"><ele>1199.0</ele><time>2026-05-03T10:34:58.999Z</time></trkpt><trkpt lat="46.18580080270106" lon="8.08239012966596"><ele>1199.0</ele><time>2026-05-03T10:34:59.999Z</time></trkpt><trkpt lat="46.18584659614781" lon="8.082620625074185"><ele>1199.0</ele><time>2026-05-03T10:35:00.999Z</time></trkpt><trkpt lat="46.1858894282543" lon="8.082854897112792"><ele>1199.0</ele><time>2026-05-03T10:35:01.999Z</time></trkpt><trkpt lat="46.18593009227378" lon="8.08308799210159"><ele>1199.0</ele><time>2026-05-03T10:35:02.999Z</time></trkpt><trkpt lat="46.18596791949112" lon="8.083323353431217"><ele>1199.0</ele><time>2026-05-03T10:35:03.999Z</time></trkpt><trkpt lat="46.1860026727204" lon="8.083553620664283"><ele>1199.0</ele><time>2026-05-03T10:35:04.999Z</time></trkpt><trkpt lat="46.18602602637082" lon="8.083786982657761"><ele>1199.0</ele><time>2026-05-03T10:35:05.999Z</time></trkpt><trkpt lat="46.18601064248906" lon="8.084023506211345"><ele>1199.0</ele><time>2026-05-03T10:35:07.001Z</time></trkpt><trkpt lat="46.18598969877177" lon="8.08425673726077"><ele>1199.0</ele><time>2026-05-03T10:35:08.001Z</time></trkpt><trkpt lat="46.185971900431085" lon="8.084499303876719"><ele>1199.0</ele><time>2026-05-03T10:35:09.001Z</time></trkpt><trkpt lat="46.185925971641936" lon="8.084734780676209"><ele>1199.0</ele><time>2026-05-03T10:35:10.001Z</time></trkpt><trkpt lat="46.18588165738731" lon="8.08496860993164"><ele>1199.0</ele><time>2026-05-03T10:35:11.001Z</time></trkpt><trkpt lat="46.18583929223439" lon="8.085203532478783"><ele>1199.0</ele><time>2026-05-03T10:35:12.001Z</time></trkpt><trkpt lat="46.185798933665495" lon="8.08543687302433"><ele>1199.0</ele><time>2026-05-03T10:35:13.001Z</time></trkpt><trkpt lat="46.18575823442836" lon="8.085672197792952"><ele>1199.0</ele><time>2026-05-03T10:35:14.001Z</time></trkpt><trkpt lat="46.185717779818916" lon="8.085908373936233"><ele>1199.0</ele><time>2026-05-03T10:35:15.001Z</time></trkpt><trkpt lat="46.18567652878367" lon="8.08614998633229"><ele>1199.0</ele><time>2026-05-03T10:35:16.001Z</time></trkpt><trkpt lat="46.18563349941716" lon="8.086388115460064"><ele>1199.0</ele><time>2026-05-03T10:35:17.001Z</time></trkpt><trkpt lat="46.18559042016779" lon="8.086623459670369"><ele>1199.0</ele><time>2026-05-03T10:35:18.001Z</time></trkpt><trkpt lat="46.18554976811442" lon="8.086856361634116"><ele>1199.0</ele><time>2026-05-03T10:35:19.001Z</time></trkpt><trkpt lat="46.18551926670709" lon="8.087086791251611"><ele>1199.0</ele><time>2026-05-03T10:35:20.001Z</time></trkpt><trkpt lat="46.18551613077072" lon="8.08734192638975"><ele>1199.0</ele><time>2026-05-03T10:35:21.001Z</time></trkpt><trkpt lat="46.185511505824444" lon="8.087607769914136"><ele>1199.0</ele><time>2026-05-03T10:35:22Z</time></trkpt><trkpt lat="46.18548417930884" lon="8.087801470032817"><ele>1199.0</ele><time>2026-05-03T10:35:23Z</time></trkpt><trkpt lat="46.18548443791828" lon="8.088036088738988"><ele>1199.0</ele><time>2026-05-03T10:35:24Z</time></trkpt><trkpt lat="46.18550797057195" lon="8.088263459644981"><ele>1199.0</ele><time>2026-05-03T10:35:25Z</time></trkpt><trkpt lat="46.185545387748995" lon="8.088504758471334"><ele>1199.0</ele><time>2026-05-03T10:35:26Z</time></trkpt><trkpt lat="46.18555581837512" lon="8.08874816757839"><ele>1199.0</ele><time>2026-05-03T10:35:27Z</time></trkpt><trkpt lat="46.18558732812578" lon="8.088938024436228"><ele>1210.0</ele><time>2026-05-03T10:35:28Z</time></trkpt><trkpt lat="46.18562258312533" lon="8.089143742459523"><ele>1221.0</ele><time>2026-05-03T10:35:29Z</time></trkpt><trkpt lat="46.185655427521695" lon="8.08934375158099"><ele>1232.0</ele><time>2026-05-03T10:35:30Z</time></trkpt><trkpt lat="46.18568592253486" lon="8.089537444648046"><ele>1243.0</ele><time>2026-05-03T10:35:31Z</time></trkpt><trkpt lat="46.185713551309505" lon="8.089726363623882"><ele>1243.0</ele><time>2026-05-03T10:35:32Z</time></trkpt><trkpt lat="46.18573614037493" lon="8.089892400387576"><ele>1243.0</ele><time>2026-05-03T10:35:33Z</time></trkpt><trkpt lat="46.18579065040727" lon="8.090061127462844"><ele>1243.0</ele><time>2026-05-03T10:35:35Z</time></trkpt><trkpt lat="46.18581023272453" lon="8.090220643075853"><ele>1243.0</ele><time>2026-05-03T10:35:36Z</time></trkpt><trkpt lat="46.18584098543019" lon="8.09042108574747"><ele>1240.75</ele><time>2026-05-03T10:35:37Z</time></trkpt><trkpt lat="46.18586724069537" lon="8.090629594567641"><ele>1238.5</ele><time>2026-05-03T10:35:38Z</time></trkpt><trkpt lat="46.18590466207416" lon="8.090817676086454"><ele>1236.25</ele><time>2026-05-03T10:35:39Z</time></trkpt><trkpt lat="46.18593790811194" lon="8.091000221532381"><ele>1234.0</ele><time>2026-05-03T10:35:40Z</time></trkpt><trkpt lat="46.18596971245165" lon="8.091184687571854"><ele>1234.0</ele><time>2026-05-03T10:35:41Z</time></trkpt><trkpt lat="46.18600756328824" lon="8.091368190669604"><ele>1234.0</ele><time>2026-05-03T10:35:42Z</time></trkpt><trkpt lat="46.186047242917645" lon="8.091549353751907"><ele>1234.0</ele><time>2026-05-03T10:35:43Z</time></trkpt><trkpt lat="46.18609634690237" lon="8.091720341383526"><ele>1234.0</ele><time>2026-05-03T10:35:44Z</time></trkpt><trkpt lat="46.1861544829243" lon="8.091886755867026"><ele>1215.5</ele><time>2026-05-03T10:35:45Z</time></trkpt><trkpt lat="46.186217771527424" lon="8.092049508746747"><ele>1197.0</ele><time>2026-05-03T10:35:46Z</time></trkpt><trkpt lat="46.18629218085661" lon="8.092210557468942"><ele>1178.5</ele><time>2026-05-03T10:35:47Z</time></trkpt><trkpt lat="46.18637111236016" lon="8.09237345907038"><ele>1160.0</ele><time>2026-05-03T10:35:48Z</time></trkpt><trkpt lat="46.18644689553054" lon="8.092544904862383"><ele>1159.75</ele><time>2026-05-03T10:35:49Z</time></trkpt><trkpt lat="46.18651737662484" lon="8.092724780294152"><ele>1159.5</ele><time>2026-05-03T10:35:50Z</time></trkpt><trkpt lat="46.18658001409612" lon="8.092915426168439"><ele>1159.25</ele><time>2026-05-03T10:35:51Z</time></trkpt><trkpt lat="46.186638462824476" lon="8.093112149879246"><ele>1159.0</ele><time>2026-05-03T10:35:52Z</time></trkpt><trkpt lat="46.18669387941751" lon="8.093315012661327"><ele>1159.0</ele><time>2026-05-03T10:35:53Z</time></trkpt><trkpt lat="46.186746936692025" lon="8.093525403147021"><ele>1159.0</ele><time>2026-05-03T10:35:54Z</time></trkpt><trkpt lat="46.18680287515391" lon="8.093734879607979"><ele>1159.0</ele><time>2026-05-03T10:35:55Z</time></trkpt><trkpt lat="46.186860730748464" lon="8.09394569760469"><ele>1161.0</ele><time>2026-05-03T10:35:56Z</time></trkpt><trkpt lat="46.18691903586511" lon="8.094155403127791"><ele>1163.0</ele><time>2026-05-03T10:35:57Z</time></trkpt><trkpt lat="46.186984062950216" lon="8.094352387760358"><ele>1165.0</ele><time>2026-05-03T10:35:58Z</time></trkpt><trkpt lat="46.18706784412775" lon="8.094533480982745"><ele>1165.0</ele><time>2026-05-03T10:35:59Z</time></trkpt><trkpt lat="46.18716669727446" lon="8.094699863634713"><ele>1165.0</ele><time>2026-05-03T10:36:00Z</time></trkpt><trkpt lat="46.18727666673145" lon="8.094848478496425"><ele>1165.0</ele><time>2026-05-03T10:36:01Z</time></trkpt><trkpt lat="46.18739304724732" lon="8.094988250130019"><ele>1164.5</ele><time>2026-05-03T10:36:02Z</time></trkpt><trkpt lat="46.187513313439965" lon="8.095119221977068"><ele>1164.0</ele><time>2026-05-03T10:36:03Z</time></trkpt><trkpt lat="46.18763898593679" lon="8.095239521331804"><ele>1163.5</ele><time>2026-05-03T10:36:04Z</time></trkpt><trkpt lat="46.18774113243867" lon="8.095364541652462"><ele>1163.0</ele><time>2026-05-03T10:36:05Z</time></trkpt><trkpt lat="46.18784264769019" lon="8.095497032520782"><ele>1163.0</ele><time>2026-05-03T10:36:06Z</time></trkpt><trkpt lat="46.18792886005347" lon="8.095633850573547"><ele>1163.0</ele><time>2026-05-03T10:36:07Z</time></trkpt><trkpt lat="46.18799652257323" lon="8.095767205293367"><ele>1163.0</ele><time>2026-05-03T10:36:08Z</time></trkpt><trkpt lat="46.18805669869474" lon="8.095896757853321"><ele>1163.0</ele><time>2026-05-03T10:36:09Z</time></trkpt><trkpt lat="46.1881095266133" lon="8.096026719198159"><ele>1161.4</ele><time>2026-05-03T10:36:10Z</time></trkpt><trkpt lat="46.18814364572066" lon="8.096177565000998"><ele>1159.8</ele><time>2026-05-03T10:36:11Z</time></trkpt><trkpt lat="46.18817127011965" lon="8.096287664168399"><ele>1158.2</ele><time>2026-05-03T10:36:12Z</time></trkpt><trkpt lat="46.18821520920723" lon="8.096508415633386"><ele>1156.6</ele><time>2026-05-03T10:36:13Z</time></trkpt><trkpt lat="46.18823422480874" lon="8.096636022692655"><ele>1155.0</ele><time>2026-05-03T10:36:14Z</time></trkpt><trkpt lat="46.1882513768611" lon="8.096759711768188"><ele>1155.75</ele><time>2026-05-03T10:36:15Z</time></trkpt><trkpt lat="46.18827147982423" lon="8.096904680709347"><ele>1156.5</ele><time>2026-05-03T10:36:16Z</time></trkpt><trkpt lat="46.188331868902466" lon="8.097208161283397"><ele>1157.25</ele><time>2026-05-03T10:36:17Z</time></trkpt><trkpt lat="46.188355160732094" lon="8.09737449819363"><ele>1158.0</ele><time>2026-05-03T10:36:18Z</time></trkpt><trkpt lat="46.18844766550319" lon="8.097967932489537"><ele>1158.0</ele><time>2026-05-03T10:36:19Z</time></trkpt><trkpt lat="46.18853182674638" lon="8.098095368321939"><ele>1158.0</ele><time>2026-05-03T10:36:20Z</time></trkpt><trkpt lat="46.18860340830692" lon="8.09821890380087"><ele>1158.0</ele><time>2026-05-03T10:36:21Z</time></trkpt><trkpt lat="46.188699036002596" lon="8.09835699919895"><ele>1158.0</ele><time>2026-05-03T10:36:22.069Z</time></trkpt><trkpt lat="46.18895971466086" lon="8.09857321665173"><ele>1155.25</ele><time>2026-05-03T10:36:25Z</time></trkpt><trkpt lat="46.189054601024516" lon="8.098707061226671"><ele>1152.5</ele><time>2026-05-03T10:36:26Z</time></trkpt><trkpt lat="46.189157771006" lon="8.098851143874048"><ele>1149.75</ele><time>2026-05-03T10:36:27Z</time></trkpt><trkpt lat="46.18924947884231" lon="8.098980760103727"><ele>1147.0</ele><time>2026-05-03T10:36:28Z</time></trkpt><trkpt lat="46.189343432242495" lon="8.099114298421863"><ele>1147.0</ele><time>2026-05-03T10:36:29Z</time></trkpt><trkpt lat="46.189466987876216" lon="8.099288411321469"><ele>1147.0</ele><time>2026-05-03T10:36:30Z</time></trkpt><trkpt lat="46.189579394999754" lon="8.099449938958065"><ele>1147.0</ele><time>2026-05-03T10:36:31Z</time></trkpt><trkpt lat="46.18967139116933" lon="8.099585612292096"><ele>1147.0</ele><time>2026-05-03T10:36:32Z</time></trkpt><trkpt lat="46.18977473112805" lon="8.099747606360932"><ele>1147.0</ele><time>2026-05-03T10:36:33Z</time></trkpt><trkpt lat="46.19473267847161" lon="8.111726773058386"><ele>1123.6666666666665</ele><time>2026-05-03T10:37:39.999Z</time></trkpt><trkpt lat="46.19484780440544" lon="8.111840781835014"><ele>1100.3333333333333</ele><time>2026-05-03T10:37:40.999Z</time></trkpt><trkpt lat="46.195000743788384" lon="8.111963594427682"><ele>1077.0</ele><time>2026-05-03T10:37:41.999Z</time></trkpt><trkpt lat="46.196398819010646" lon="8.11393767619562"><ele>1029.0</ele><time>2026-05-03T10:37:57.175Z</time></trkpt><trkpt lat="46.1981375890432" lon="8.117709220698794"><ele>1049.5</ele><time>2026-05-03T10:38:17Z</time></trkpt><trkpt lat="46.198214809185856" lon="8.11789790264215"><ele>1070.0</ele><time>2026-05-03T10:38:18Z</time></trkpt><trkpt lat="46.19690964304996" lon="8.118604903137788"><ele>1070.0</ele><time>2026-05-03T10:38:19Z</time></trkpt><trkpt lat="46.197036620734124" lon="8.118758667990374"><ele>1070.0</ele><time>2026-05-03T10:38:20Z</time></trkpt><trkpt lat="46.19711334796947" lon="8.118943596224968"><ele>1070.0</ele><time>2026-05-03T10:38:21Z</time></trkpt><trkpt lat="46.197163743200164" lon="8.119138744382937"><ele>1070.0</ele><time>2026-05-03T10:38:22Z</time></trkpt><trkpt lat="46.197161614319604" lon="8.11935669884286"><ele>1070.0</ele><time>2026-05-03T10:38:23Z</time></trkpt><trkpt lat="46.197165876563844" lon="8.119573026595877"><ele>1070.0</ele><time>2026-05-03T10:38:24Z</time></trkpt><trkpt lat="46.19715657040866" lon="8.119793900954457"><ele>1070.0</ele><time>2026-05-03T10:38:25Z</time></trkpt><trkpt lat="46.197215554649766" lon="8.1200250481022"><ele>1070.0</ele><time>2026-05-03T10:38:26Z</time></trkpt><trkpt lat="46.19721070773646" lon="8.120248837525354"><ele>1070.0</ele><time>2026-05-03T10:38:27Z</time></trkpt><trkpt lat="46.19723411861019" lon="8.120470044395953"><ele>1070.0</ele><time>2026-05-03T10:38:28Z</time></trkpt><trkpt lat="46.19818075043837" lon="8.120665375501453"><ele>1070.0</ele><time>2026-05-03T10:38:29Z</time></trkpt><trkpt lat="46.19729924507343" lon="8.120954312386797"><ele>1070.0</ele><time>2026-05-03T10:38:30Z</time></trkpt><trkpt lat="46.19734452778078" lon="8.121188283477869"><ele>1070.0</ele><time>2026-05-03T10:38:31Z</time></trkpt><trkpt lat="46.19821106717203" lon="8.12130655712327"><ele>1070.0</ele><time>2026-05-03T10:38:32Z</time></trkpt><trkpt lat="46.197346740446164" lon="8.121628238720879"><ele>1070.0</ele><time>2026-05-03T10:38:33Z</time></trkpt><trkpt lat="46.197398054121926" lon="8.121779053447131"><ele>1070.0</ele><time>2026-05-03T10:38:34Z</time></trkpt><trkpt lat="46.197533444552754" lon="8.122057506950002"><ele>1070.0</ele><time>2026-05-03T10:38:35Z</time></trkpt><trkpt lat="46.1975403541234" lon="8.122274495235827"><ele>1070.0</ele><time>2026-05-03T10:38:36Z</time></trkpt><trkpt lat="46.19772166147659" lon="8.122461575387952"><ele>1070.0</ele><time>2026-05-03T10:38:37Z</time></trkpt><trkpt lat="46.197794267931855" lon="8.122663165253476"><ele>1070.0</ele><time>2026-05-03T10:38:38Z</time></trkpt><trkpt lat="46.19792030176847" lon="8.122866422471274"><ele>1070.0</ele><time>2026-05-03T10:38:39Z</time></trkpt><trkpt lat="46.19808047341453" lon="8.12308570606687"><ele>1070.0</ele><time>2026-05-03T10:38:40Z</time></trkpt><trkpt lat="46.19813377232586" lon="8.123244896898266"><ele>1070.0</ele><time>2026-05-03T10:38:41Z</time></trkpt><trkpt lat="46.19811873115513" lon="8.123444087560715"><ele>1070.0</ele><time>2026-05-03T10:38:42Z</time></trkpt><trkpt lat="46.198095220747646" lon="8.123637452211444"><ele>1070.0</ele><time>2026-05-03T10:38:43Z</time></trkpt><trkpt lat="46.198056679115595" lon="8.12384126234162"><ele>1070.0</ele><time>2026-05-03T10:38:44Z</time></trkpt><trkpt lat="46.19803353236776" lon="8.124051172681122"><ele>1070.0</ele><time>2026-05-03T10:38:45Z</time></trkpt><trkpt lat="46.19802497599533" lon="8.124253820396683"><ele>1070.0</ele><time>2026-05-03T10:38:46Z</time></trkpt><trkpt lat="46.19802048139656" lon="8.124465083391826"><ele>1070.0</ele><time>2026-05-03T10:38:47Z</time></trkpt><trkpt lat="46.198026867347025" lon="8.124673967542671"><ele>1070.0</ele><time>2026-05-03T10:38:48Z</time></trkpt><trkpt lat="46.19803552337686" lon="8.124882932192463"><ele>1070.0</ele><time>2026-05-03T10:38:49Z</time></trkpt><trkpt lat="46.19805596057584" lon="8.125092617257337"><ele>1070.0</ele><time>2026-05-03T10:38:50Z</time></trkpt><trkpt lat="46.19808993625451" lon="8.12528384735117"><ele>1070.0</ele><time>2026-05-03T10:38:51Z</time></trkpt><trkpt lat="46.19813105582016" lon="8.125479437780939"><ele>1070.0</ele><time>2026-05-03T10:38:52Z</time></trkpt><trkpt lat="46.198181588996135" lon="8.12567845245168"><ele>1070.0</ele><time>2026-05-03T10:38:53Z</time></trkpt><trkpt lat="46.19823332897419" lon="8.1258727470264"><ele>1070.0</ele><time>2026-05-03T10:38:54Z</time></trkpt><trkpt lat="46.19829198194502" lon="8.126069388233459"><ele>1070.0</ele><time>2026-05-03T10:38:55Z</time></trkpt><trkpt lat="46.19836098047477" lon="8.126258555038259"><ele>1070.0</ele><time>2026-05-03T10:38:56Z</time></trkpt><trkpt lat="46.198431787462326" lon="8.126446660890963"><ele>1070.0</ele><time>2026-05-03T10:38:57Z</time></trkpt><trkpt lat="46.19851936671005" lon="8.126617289674234"><ele>1070.0</ele><time>2026-05-03T10:38:58Z</time></trkpt><trkpt lat="46.19860289983435" lon="8.126780931672627"><ele>1070.0</ele><time>2026-05-03T10:38:59Z</time></trkpt><trkpt lat="46.198683754101495" lon="8.126939553269644"><ele>1070.0</ele><time>2026-05-03T10:39:00Z</time></trkpt><trkpt lat="46.19876081195694" lon="8.12705788851333"><ele>1070.0</ele><time>2026-05-03T10:39:01Z</time></trkpt><trkpt lat="46.19883830547339" lon="8.127182846863294"><ele>1070.0</ele><time>2026-05-03T10:39:02Z</time></trkpt><trkpt lat="46.19890143799168" lon="8.127276884949605"><ele>1070.0</ele><time>2026-05-03T10:39:03Z</time></trkpt><trkpt lat="46.19895392659513" lon="8.127360837105039"><ele>1070.0</ele><time>2026-05-03T10:39:04Z</time></trkpt><trkpt lat="46.198988470932186" lon="8.127467565968384"><ele>1070.0</ele><time>2026-05-03T10:39:05Z</time></trkpt><trkpt lat="46.198992029045144" lon="8.127572173526163"><ele>1070.0</ele><time>2026-05-03T10:39:06Z</time></trkpt><trkpt lat="46.19895322302436" lon="8.127668162088318"><ele>1070.0</ele><time>2026-05-03T10:39:07Z</time></trkpt><trkpt lat="46.19888277091661" lon="8.127718533043723"><ele>1070.0</ele><time>2026-05-03T10:39:08Z</time></trkpt><trkpt lat="46.19879299557748" lon="8.127713917968"><ele>1070.0</ele><time>2026-05-03T10:39:09Z</time></trkpt><trkpt lat="46.198719466266766" lon="8.127649252930143"><ele>1070.0</ele><time>2026-05-03T10:39:10Z</time></trkpt><trkpt lat="46.19865574532462" lon="8.127552066439506"><ele>1070.0</ele><time>2026-05-03T10:39:11Z</time></trkpt><trkpt lat="46.19858936387575" lon="8.127449253374438"><ele>1070.0</ele><time>2026-05-03T10:39:12Z</time></trkpt><trkpt lat="46.19851820483716" lon="8.127340937295306"><ele>1070.0</ele><time>2026-05-03T10:39:13Z</time></trkpt><trkpt lat="46.198445470316905" lon="8.127214154695855"><ele>1070.0</ele><time>2026-05-03T10:39:14Z</time></trkpt><trkpt lat="46.19838019009777" lon="8.127074045844642"><ele>1070.0</ele><time>2026-05-03T10:39:15Z</time></trkpt><trkpt lat="46.19832800174761" lon="8.126924140424475"><ele>1070.0</ele><time>2026-05-03T10:39:16Z</time></trkpt><trkpt lat="46.1982877762979" lon="8.126771627262286"><ele>1070.0</ele><time>2026-05-03T10:39:17Z</time></trkpt><trkpt lat="46.19825137370671" lon="8.126617624849413"><ele>1070.0</ele><time>2026-05-03T10:39:18Z</time></trkpt><trkpt lat="46.19822285462822" lon="8.126463575915071"><ele>1070.0</ele><time>2026-05-03T10:39:19Z</time></trkpt><trkpt lat="46.198195623995495" lon="8.126318519015491"><ele>1070.0</ele><time>2026-05-03T10:39:20Z</time></trkpt><trkpt lat="46.19815287208805" lon="8.126191912633423"><ele>1070.0</ele><time>2026-05-03T10:39:21Z</time></trkpt><trkpt lat="46.19807866204841" lon="8.126112293944239"><ele>1070.0</ele><time>2026-05-03T10:39:22Z</time></trkpt><trkpt lat="46.197986112051744" lon="8.12609102803929"><ele>1070.0</ele><time>2026-05-03T10:39:23Z</time></trkpt><trkpt lat="46.197900352927086" lon="8.126136956706151"><ele>1070.0</ele><time>2026-05-03T10:39:24Z</time></trkpt><trkpt lat="46.197845588396525" lon="8.126245881251426"><ele>1070.0</ele><time>2026-05-03T10:39:25Z</time></trkpt><trkpt lat="46.19782882875952" lon="8.12638821898013"><ele>1070.0</ele><time>2026-05-03T10:39:26Z</time></trkpt><trkpt lat="46.197852187101056" lon="8.126535056665848"><ele>1237.25</ele><time>2026-05-03T10:39:27Z</time></trkpt><trkpt lat="46.19790107025868" lon="8.12668102291888"><ele>1404.5</ele><time>2026-05-03T10:39:28Z</time></trkpt><trkpt lat="46.19795780776482" lon="8.12683403284544"><ele>1571.75</ele><time>2026-05-03T10:39:29Z</time></trkpt><trkpt lat="46.19801500442975" lon="8.127003227246297"><ele>1739.0</ele><time>2026-05-03T10:39:30Z</time></trkpt><trkpt lat="46.19807556581289" lon="8.127179841380038"><ele>1739.0</ele><time>2026-05-03T10:39:31Z</time></trkpt><trkpt lat="46.19814723191391" lon="8.127345176614096"><ele>1739.0</ele><time>2026-05-03T10:39:32Z</time></trkpt><trkpt lat="46.19822686912187" lon="8.127500067332527"><ele>1739.0</ele><time>2026-05-03T10:39:33Z</time></trkpt><trkpt lat="46.198316988086276" lon="8.127648209826278"><ele>1739.0</ele><time>2026-05-03T10:39:34Z</time></trkpt><trkpt lat="46.19841035424256" lon="8.127788689428728"><ele>1693.5</ele><time>2026-05-03T10:39:35Z</time></trkpt><trkpt lat="46.19850419760218" lon="8.127917996694395"><ele>1648.0</ele><time>2026-05-03T10:39:36Z</time></trkpt><trkpt lat="46.19859343329041" lon="8.128044152401028"><ele>1602.5</ele><time>2026-05-03T10:39:36.999Z</time></trkpt><trkpt lat="46.19867754156985" lon="8.128180209647912"><ele>1557.0</ele><time>2026-05-03T10:39:37.999Z</time></trkpt><trkpt lat="46.19875564547891" lon="8.128323671291032"><ele>1557.0</ele><time>2026-05-03T10:39:38.999Z</time></trkpt><trkpt lat="46.19883040587361" lon="8.128478041799351"><ele>1557.0</ele><time>2026-05-03T10:39:39.999Z</time></trkpt><trkpt lat="46.198896742689584" lon="8.128646574406925"><ele>1557.0</ele><time>2026-05-03T10:39:40.999Z</time></trkpt><trkpt lat="46.198953523222166" lon="8.128827866278286"><ele>1557.0</ele><time>2026-05-03T10:39:41.999Z</time></trkpt><trkpt lat="46.198994810142985" lon="8.129022016186628"><ele>1499.75</ele><time>2026-05-03T10:39:42.999Z</time></trkpt><trkpt lat="46.199023411387714" lon="8.129222367231526"><ele>1442.5</ele><time>2026-05-03T10:39:43.999Z</time></trkpt><trkpt lat="46.19904315117242" lon="8.129429964970868"><ele>1385.25</ele><time>2026-05-03T10:39:44.999Z</time></trkpt><trkpt lat="46.19905349788798" lon="8.129637419860638"><ele>1328.0</ele><time>2026-05-03T10:39:45.999Z</time></trkpt><trkpt lat="46.1990273418074" lon="8.129847160705669"><ele>1320.75</ele><time>2026-05-03T10:39:46.999Z</time></trkpt><trkpt lat="46.19903179055962" lon="8.13006137019103"><ele>1313.5</ele><time>2026-05-03T10:39:47.999Z</time></trkpt><trkpt lat="46.19904461223799" lon="8.130277949255884"><ele>1306.25</ele><time>2026-05-03T10:39:48.999Z</time></trkpt><trkpt lat="46.19906394490523" lon="8.13048514994329"><ele>1299.0</ele><time>2026-05-03T10:39:49.999Z</time></trkpt><trkpt lat="46.19909649138688" lon="8.130672542753054"><ele>1289.25</ele><time>2026-05-03T10:39:51.001Z</time></trkpt><trkpt lat="46.199101823082266" lon="8.130879414440148"><ele>1279.5</ele><time>2026-05-03T10:39:52.001Z</time></trkpt><trkpt lat="46.19907756899451" lon="8.131096291630943"><ele>1269.75</ele><time>2026-05-03T10:39:53.001Z</time></trkpt><trkpt lat="46.19906714514915" lon="8.131301849708903"><ele>1260.0</ele><time>2026-05-03T10:39:54.001Z</time></trkpt><trkpt lat="46.19911788429308" lon="8.13150336755661"><ele>1256.6666666666667</ele><time>2026-05-03T10:39:55.001Z</time></trkpt><trkpt lat="46.19915643068477" lon="8.13170855325383"><ele>1253.3333333333335</ele><time>2026-05-03T10:39:56.001Z</time></trkpt><trkpt lat="46.1991877237717" lon="8.131936421310762"><ele>1250.0</ele><time>2026-05-03T10:39:57.001Z</time></trkpt><trkpt lat="46.19920273179711" lon="8.132159059856471"><ele>1250.0</ele><time>2026-05-03T10:39:58.001Z</time></trkpt><trkpt lat="46.19921047498991" lon="8.13238008662268"><ele>1250.0</ele><time>2026-05-03T10:39:59.001Z</time></trkpt><trkpt lat="46.1992115761315" lon="8.132598949693822"><ele>1250.0</ele><time>2026-05-03T10:40:00.001Z</time></trkpt><trkpt lat="46.19924330923378" lon="8.132828774590356"><ele>1237.3333333333335</ele><time>2026-05-03T10:40:01.001Z</time></trkpt><trkpt lat="46.199219361201145" lon="8.133043919644338"><ele>1224.6666666666667</ele><time>2026-05-03T10:40:02.001Z</time></trkpt><trkpt lat="46.199175945559034" lon="8.133266061611323"><ele>1212.0</ele><time>2026-05-03T10:40:03.001Z</time></trkpt><trkpt lat="46.19914609732997" lon="8.133482746485527"><ele>1200.6666666666667</ele><time>2026-05-03T10:40:04.001Z</time></trkpt><trkpt lat="46.199100131256046" lon="8.13369614476163"><ele>1189.3333333333335</ele><time>2026-05-03T10:40:05.001Z</time></trkpt><trkpt lat="46.19904093157506" lon="8.133914889135998"><ele>1178.0</ele><time>2026-05-03T10:40:06.001Z</time></trkpt><trkpt lat="46.1989690351559" lon="8.134115869323308"><ele>1176.6666666666667</ele><time>2026-05-03T10:40:07.001Z</time></trkpt><trkpt lat="46.19892664079033" lon="8.134331999802637"><ele>1175.3333333333333</ele><time>2026-05-03T10:40:08.001Z</time></trkpt><trkpt lat="46.198884745713755" lon="8.134536679469935"><ele>1174.0</ele><time>2026-05-03T10:40:09.001Z</time></trkpt><trkpt lat="46.19878824028705" lon="8.134705240458093"><ele>1174.0</ele><time>2026-05-03T10:40:10.001Z</time></trkpt><trkpt lat="46.198697896643345" lon="8.134876860242752"><ele>1174.0</ele><time>2026-05-03T10:40:11.001Z</time></trkpt><trkpt lat="46.19859276124996" lon="8.13504860165714"><ele>1174.0</ele><time>2026-05-03T10:40:12.001Z</time></trkpt><trkpt lat="46.19850349077346" lon="8.135185758002324"><ele>1174.0</ele><time>2026-05-03T10:40:13.001Z</time></trkpt><trkpt lat="46.19838760771028" lon="8.135334007937244"><ele>1171.0</ele><time>2026-05-03T10:40:14.001Z</time></trkpt><trkpt lat="46.19826164872949" lon="8.135486420270876"><ele>1168.0</ele><time>2026-05-03T10:40:15.001Z</time></trkpt><trkpt lat="46.19814193993685" lon="8.135619767059335"><ele>1165.0</ele><time>2026-05-03T10:40:16.001Z</time></trkpt><trkpt lat="46.19802602914311" lon="8.135742520748066"><ele>1160.75</ele><time>2026-05-03T10:40:17Z</time></trkpt><trkpt lat="46.19790207840425" lon="8.13586624603795"><ele>1156.5</ele><time>2026-05-03T10:40:18Z</time></trkpt><trkpt lat="46.197781070538326" lon="8.13598184963561"><ele>1152.25</ele><time>2026-05-03T10:40:19Z</time></trkpt><trkpt lat="46.19765810299485" lon="8.136101481638743"><ele>1148.0</ele><time>2026-05-03T10:40:20Z</time></trkpt><trkpt lat="46.19754223907715" lon="8.136225173372145"><ele>1148.0</ele><time>2026-05-03T10:40:21Z</time></trkpt><trkpt lat="46.197432245623396" lon="8.136363508427362"><ele>1148.0</ele><time>2026-05-03T10:40:22Z</time></trkpt><trkpt lat="46.19733569357779" lon="8.136515043845968"><ele>1148.0</ele><time>2026-05-03T10:40:23Z</time></trkpt><trkpt lat="46.19724236282846" lon="8.13666875152222"><ele>1148.0</ele><time>2026-05-03T10:40:24Z</time></trkpt><trkpt lat="46.197151480986555" lon="8.136821012626381"><ele>1145.75</ele><time>2026-05-03T10:40:25Z</time></trkpt><trkpt lat="46.19706193919546" lon="8.136971029012686"><ele>1143.5</ele><time>2026-05-03T10:40:26Z</time></trkpt><trkpt lat="46.19697454333005" lon="8.137117449740735"><ele>1141.25</ele><time>2026-05-03T10:40:27Z</time></trkpt><trkpt lat="46.19688070383692" lon="8.137251803666766"><ele>1139.0</ele><time>2026-05-03T10:40:28Z</time></trkpt><trkpt lat="46.196779782094495" lon="8.137372861956026"><ele>1138.75</ele><time>2026-05-03T10:40:29Z</time></trkpt><trkpt lat="46.196682651035516" lon="8.13748415570594"><ele>1138.5</ele><time>2026-05-03T10:40:30Z</time></trkpt><trkpt lat="46.19659012542366" lon="8.137591840358793"><ele>1138.25</ele><time>2026-05-03T10:40:31Z</time></trkpt><trkpt lat="46.1965025604221" lon="8.137701909777679"><ele>1138.0</ele><time>2026-05-03T10:40:32Z</time></trkpt><trkpt lat="46.19642198198207" lon="8.137810257929235"><ele>1146.0</ele><time>2026-05-03T10:40:33Z</time></trkpt><trkpt lat="46.19636361195983" lon="8.137938258560169"><ele>1154.0</ele><time>2026-05-03T10:40:34Z</time></trkpt><trkpt lat="46.196298499586504" lon="8.138054521218619"><ele>1162.0</ele><time>2026-05-03T10:40:35Z</time></trkpt><trkpt lat="46.196238738879806" lon="8.138180435068701"><ele>1170.0</ele><time>2026-05-03T10:40:36Z</time></trkpt><trkpt lat="46.196181964165454" lon="8.138305880256821"><ele>1178.0</ele><time>2026-05-03T10:40:37Z</time></trkpt><trkpt lat="46.19613102194856" lon="8.138435910693739"><ele>1179.4</ele><time>2026-05-03T10:40:38Z</time></trkpt><trkpt lat="46.196083721900536" lon="8.138569311836587"><ele>1180.8</ele><time>2026-05-03T10:40:39Z</time></trkpt><trkpt lat="46.196042433370486" lon="8.138701693633331"><ele>1182.2</ele><time>2026-05-03T10:40:40Z</time></trkpt><trkpt lat="46.19600834621778" lon="8.13882795932849"><ele>1183.6</ele><time>2026-05-03T10:40:41Z</time></trkpt><trkpt lat="46.1959821597339" lon="8.138956568124827"><ele>1185.0</ele><time>2026-05-03T10:40:42Z</time></trkpt><trkpt lat="46.1959437289578" lon="8.139078814720225"><ele>1185.0</ele><time>2026-05-03T10:40:43Z</time></trkpt><trkpt lat="46.195931960440475" lon="8.139218381855905"><ele>1185.0</ele><time>2026-05-03T10:40:44Z</time></trkpt><trkpt lat="46.19588959176602" lon="8.13934438880168"><ele>1185.0</ele><time>2026-05-03T10:40:45Z</time></trkpt><trkpt lat="46.19586421673924" lon="8.139475612142041"><ele>1185.0</ele><time>2026-05-03T10:40:46Z</time></trkpt><trkpt lat="46.195839367295996" lon="8.13960411747966"><ele>1185.0</ele><time>2026-05-03T10:40:47Z</time></trkpt><trkpt lat="46.19581540392188" lon="8.139727074757015"><ele>1185.0</ele><time>2026-05-03T10:40:48Z</time></trkpt><trkpt lat="46.1957912264394" lon="8.139848897019407"><ele>1185.0</ele><time>2026-05-03T10:40:49Z</time></trkpt><trkpt lat="46.195769896849605" lon="8.139973621546963"><ele>1185.0</ele><time>2026-05-03T10:40:50Z</time></trkpt><trkpt lat="46.19576412786046" lon="8.140101192228567"><ele>1185.0</ele><time>2026-05-03T10:40:51Z</time></trkpt><trkpt lat="46.195730159766846" lon="8.14022710232041"><ele>1185.0</ele><time>2026-05-03T10:40:52Z</time></trkpt><trkpt lat="46.195742849354055" lon="8.140363969508444"><ele>1185.0</ele><time>2026-05-03T10:40:53Z</time></trkpt><trkpt lat="46.19575752645022" lon="8.140496558647849"><ele>1185.0</ele><time>2026-05-03T10:40:54Z</time></trkpt><trkpt lat="46.19578515239307" lon="8.140618354932107"><ele>1185.0</ele><time>2026-05-03T10:40:55Z</time></trkpt><trkpt lat="46.19581815076205" lon="8.14072875701472"><ele>1185.0</ele><time>2026-05-03T10:40:56Z</time></trkpt><trkpt lat="46.19585169671377" lon="8.140852180954841"><ele>1185.0</ele><time>2026-05-03T10:40:57Z</time></trkpt><trkpt lat="46.195892769740254" lon="8.140995348119944"><ele>1185.0</ele><time>2026-05-03T10:40:58Z</time></trkpt><trkpt lat="46.195916791370024" lon="8.141152085861927"><ele>1185.0</ele><time>2026-05-03T10:40:59Z</time></trkpt><trkpt lat="46.19595475925787" lon="8.141293332985788"><ele>1185.0</ele><time>2026-05-03T10:41:00Z</time></trkpt><trkpt lat="46.196002978115914" lon="8.141421934094025"><ele>1185.0</ele><time>2026-05-03T10:41:01Z</time></trkpt><trkpt lat="46.19605362096407" lon="8.141537810126364"><ele>1185.0</ele><time>2026-05-03T10:41:02Z</time></trkpt><trkpt lat="46.19609656541835" lon="8.141673021592464"><ele>1185.0</ele><time>2026-05-03T10:41:03Z</time></trkpt><trkpt lat="46.196136063867996" lon="8.141812762140773"><ele>1185.0</ele><time>2026-05-03T10:41:04Z</time></trkpt><trkpt lat="46.19616951079852" lon="8.141947616413733"><ele>1185.0</ele><time>2026-05-03T10:41:05Z</time></trkpt><trkpt lat="46.196201411916434" lon="8.142084982769592"><ele>1185.0</ele><time>2026-05-03T10:41:06Z</time></trkpt><trkpt lat="46.19622728978829" lon="8.142225741245266"><ele>1185.0</ele><time>2026-05-03T10:41:07Z</time></trkpt><trkpt lat="46.19623136889625" lon="8.142375180471584"><ele>1185.0</ele><time>2026-05-03T10:41:08Z</time></trkpt><trkpt lat="46.196249397962234" lon="8.142522650806985"><ele>1185.0</ele><time>2026-05-03T10:41:09Z</time></trkpt><trkpt lat="46.196260395725425" lon="8.142671767404883"><ele>1185.0</ele><time>2026-05-03T10:41:10Z</time></trkpt><trkpt lat="46.19626544498332" lon="8.142828123604435"><ele>1185.0</ele><time>2026-05-03T10:41:11Z</time></trkpt><trkpt lat="46.196264355513556" lon="8.14298873607528"><ele>1185.0</ele><time>2026-05-03T10:41:12Z</time></trkpt><trkpt lat="46.19625466859856" lon="8.143151341351885"><ele>1185.0</ele><time>2026-05-03T10:41:13Z</time></trkpt><trkpt lat="46.19624358311719" lon="8.143302058963164"><ele>1185.0</ele><time>2026-05-03T10:41:14Z</time></trkpt><trkpt lat="46.19623527151244" lon="8.14341126051729"><ele>1185.0</ele><time>2026-05-03T10:41:15Z</time></trkpt><trkpt lat="46.1962399050497" lon="8.14352687198432"><ele>1185.0</ele><time>2026-05-03T10:41:17Z</time></trkpt><trkpt lat="46.19650588717901" lon="8.14355434108424"><ele>1488.0</ele><time>2026-05-03T10:41:19Z</time></trkpt><trkpt lat="46.196176970852356" lon="8.144399085618891"><ele>1488.0</ele><time>2026-05-03T10:41:20Z</time></trkpt><trkpt lat="46.196117018433284" lon="8.14459210490311"><ele>1488.0</ele><time>2026-05-03T10:41:21Z</time></trkpt><trkpt lat="46.19610076498271" lon="8.144799457540733"><ele>1488.0</ele><time>2026-05-03T10:41:22Z</time></trkpt><trkpt lat="46.19608806015309" lon="8.145002716330405"><ele>1488.0</ele><time>2026-05-03T10:41:23Z</time></trkpt><trkpt lat="46.19607887328572" lon="8.145216601911075"><ele>1483.6666666666667</ele><time>2026-05-03T10:41:24Z</time></trkpt><trkpt lat="46.19607757818279" lon="8.145424684927573"><ele>1479.3333333333335</ele><time>2026-05-03T10:41:25Z</time></trkpt><trkpt lat="46.19607825875808" lon="8.145642073157"><ele>1475.0</ele><time>2026-05-03T10:41:26Z</time></trkpt><trkpt lat="46.19608609940778" lon="8.14586954328137"><ele>1470.6666666666667</ele><time>2026-05-03T10:41:27Z</time></trkpt><trkpt lat="46.19611390964309" lon="8.146086944928438"><ele>1466.3333333333333</ele><time>2026-05-03T10:41:28Z</time></trkpt><trkpt lat="46.19613593445926" lon="8.14631331061642"><ele>1462.0</ele><time>2026-05-03T10:41:29Z</time></trkpt><trkpt lat="46.19616377669611" lon="8.146532070796832"><ele>1466.3333333333333</ele><time>2026-05-03T10:41:30Z</time></trkpt><trkpt lat="46.19619646921668" lon="8.146748813248257"><ele>1470.6666666666667</ele><time>2026-05-03T10:41:31Z</time></trkpt><trkpt lat="46.19623655164833" lon="8.146970763169021"><ele>1475.0</ele><time>2026-05-03T10:41:32Z</time></trkpt><trkpt lat="46.19628488253054" lon="8.147185364886301"><ele>1475.0</ele><time>2026-05-03T10:41:33Z</time></trkpt><trkpt lat="46.19633861016767" lon="8.147397502448934"><ele>1475.0</ele><time>2026-05-03T10:41:34Z</time></trkpt><trkpt lat="46.1963980286219" lon="8.147603377175146"><ele>1475.0</ele><time>2026-05-03T10:41:35Z</time></trkpt><trkpt lat="46.1964432495545" lon="8.147829214254989"><ele>1475.0</ele><time>2026-05-03T10:41:35.999Z</time></trkpt><trkpt lat="46.196492263109064" lon="8.148047386904071"><ele>1475.0</ele><time>2026-05-03T10:41:36.999Z</time></trkpt><trkpt lat="46.19654284457198" lon="8.148265733776451"><ele>1475.0</ele><time>2026-05-03T10:41:37.999Z</time></trkpt><trkpt lat="46.1965938414702" lon="8.148483665485971"><ele>1475.0</ele><time>2026-05-03T10:41:38.999Z</time></trkpt><trkpt lat="46.19665667959857" lon="8.148703435982902"><ele>1475.0</ele><time>2026-05-03T10:41:39.999Z</time></trkpt><trkpt lat="46.19669989415492" lon="8.148927269264986"><ele>1475.0</ele><time>2026-05-03T10:41:40.999Z</time></trkpt><trkpt lat="46.19674257401728" lon="8.149150177995855"><ele>1475.0</ele><time>2026-05-03T10:41:41.999Z</time></trkpt><trkpt lat="46.19676312633662" lon="8.149384497988322"><ele>1475.0</ele><time>2026-05-03T10:41:42.999Z</time></trkpt><trkpt lat="46.19676611502625" lon="8.149615221340115"><ele>1475.0</ele><time>2026-05-03T10:41:43.999Z</time></trkpt><trkpt lat="46.19680446803848" lon="8.14981735345013"><ele>1475.0</ele><time>2026-05-03T10:41:44.999Z</time></trkpt><trkpt lat="46.19680599775356" lon="8.150013278863"><ele>1475.0</ele><time>2026-05-03T10:41:45.999Z</time></trkpt><trkpt lat="46.196794728784155" lon="8.150256282450123"><ele>1475.0</ele><time>2026-05-03T10:41:46.999Z</time></trkpt><trkpt lat="46.19677629371101" lon="8.150480621916563"><ele>1475.0</ele><time>2026-05-03T10:41:47.999Z</time></trkpt><trkpt lat="46.196745862748465" lon="8.150697033274385"><ele>1475.0</ele><time>2026-05-03T10:41:48.999Z</time></trkpt><trkpt lat="46.19671006177235" lon="8.150904682896797"><ele>1475.0</ele><time>2026-05-03T10:41:49.999Z</time></trkpt><trkpt lat="46.19666373767449" lon="8.151113617066567"><ele>1475.0</ele><time>2026-05-03T10:41:50.999Z</time></trkpt><trkpt lat="46.19661638943653" lon="8.151321061415944"><ele>1475.0</ele><time>2026-05-03T10:41:51.999Z</time></trkpt><trkpt lat="46.196551339794006" lon="8.151514411688913"><ele>1475.0</ele><time>2026-05-03T10:41:52.999Z</time></trkpt><trkpt lat="46.1965139454976" lon="8.151720932837517"><ele>1475.0</ele><time>2026-05-03T10:41:53.999Z</time></trkpt><trkpt lat="46.196456625024915" lon="8.151925402600813"><ele>1475.0</ele><time>2026-05-03T10:41:54.999Z</time></trkpt><trkpt lat="46.19637628031169" lon="8.152133831677862"><ele>1475.0</ele><time>2026-05-03T10:41:55.999Z</time></trkpt><trkpt lat="46.19633255864322" lon="8.152331593660564"><ele>1475.0</ele><time>2026-05-03T10:41:57.001Z</time></trkpt><trkpt lat="46.1962679319274" lon="8.152538598581879"><ele>1475.0</ele><time>2026-05-03T10:41:58.001Z</time></trkpt><trkpt lat="46.19620700988085" lon="8.152742082286943"><ele>1475.0</ele><time>2026-05-03T10:41:59.001Z</time></trkpt><trkpt lat="46.19614391618047" lon="8.152944700270872"><ele>1475.0</ele><time>2026-05-03T10:42:00.001Z</time></trkpt><trkpt lat="46.1960836484294" lon="8.153146750887029"><ele>1475.0</ele><time>2026-05-03T10:42:01.001Z</time></trkpt><trkpt lat="46.196024820302" lon="8.15334291611688"><ele>1475.0</ele><time>2026-05-03T10:42:02.001Z</time></trkpt><trkpt lat="46.19596720748874" lon="8.153528386502408"><ele>1475.0</ele><time>2026-05-03T10:42:03.001Z</time></trkpt><trkpt lat="46.195919250188204" lon="8.153724471176117"><ele>1475.0</ele><time>2026-05-03T10:42:04Z</time></trkpt><trkpt lat="46.195907997831746" lon="8.153912547552446"><ele>1475.0</ele><time>2026-05-03T10:42:05Z</time></trkpt><trkpt lat="46.19592603923594" lon="8.154110502644908"><ele>1475.0</ele><time>2026-05-03T10:42:06Z</time></trkpt><trkpt lat="46.195979986147975" lon="8.154291567061511"><ele>1475.0</ele><time>2026-05-03T10:42:07Z</time></trkpt><trkpt lat="46.196059984471965" lon="8.154457171390439"><ele>1475.0</ele><time>2026-05-03T10:42:08Z</time></trkpt><trkpt lat="46.196172362664626" lon="8.154594328688816"><ele>1475.0</ele><time>2026-05-03T10:42:09Z</time></trkpt><trkpt lat="46.196291341750275" lon="8.154707922102256"><ele>1475.0</ele><time>2026-05-03T10:42:10Z</time></trkpt><trkpt lat="46.1964028473202" lon="8.154810326751692"><ele>1475.0</ele><time>2026-05-03T10:42:11Z</time></trkpt><trkpt lat="46.19650509362136" lon="8.154930797151794"><ele>1475.0</ele><time>2026-05-03T10:42:12Z</time></trkpt><trkpt lat="46.19659922774727" lon="8.155070808989693"><ele>1475.0</ele><time>2026-05-03T10:42:13Z</time></trkpt><trkpt lat="46.196683852385995" lon="8.155236040019446"><ele>1475.0</ele><time>2026-05-03T10:42:14Z</time></trkpt><trkpt lat="46.19675776781913" lon="8.155419091328767"><ele>1475.0</ele><time>2026-05-03T10:42:15Z</time></trkpt><trkpt lat="46.19682853129835" lon="8.155617100891435"><ele>1475.0</ele><time>2026-05-03T10:42:16Z</time></trkpt><trkpt lat="46.19689677189549" lon="8.155821972516527"><ele>1475.0</ele><time>2026-05-03T10:42:17Z</time></trkpt><trkpt lat="46.19696891486259" lon="8.156033608953729"><ele>1475.0</ele><time>2026-05-03T10:42:18Z</time></trkpt><trkpt lat="46.1970434510939" lon="8.156248719255812"><ele>1475.0</ele><time>2026-05-03T10:42:19Z</time></trkpt><trkpt lat="46.197119088815384" lon="8.156458148227951"><ele>1475.0</ele><time>2026-05-03T10:42:20Z</time></trkpt><trkpt lat="46.19719336789866" lon="8.156670705061519"><ele>1475.0</ele><time>2026-05-03T10:42:21Z</time></trkpt><trkpt lat="46.197271223171136" lon="8.156880174078298"><ele>1475.0</ele><time>2026-05-03T10:42:22Z</time></trkpt><trkpt lat="46.19734595271058" lon="8.157096983176706"><ele>1475.0</ele><time>2026-05-03T10:42:23Z</time></trkpt><trkpt lat="46.19741665700208" lon="8.157318614895463"><ele>1475.0</ele><time>2026-05-03T10:42:24Z</time></trkpt><trkpt lat="46.1974863450294" lon="8.157543034238063"><ele>1475.0</ele><time>2026-05-03T10:42:25Z</time></trkpt><trkpt lat="46.19753860019423" lon="8.157773330773056"><ele>1475.0</ele><time>2026-05-03T10:42:26Z</time></trkpt><trkpt lat="46.197579861512914" lon="8.15800733227899"><ele>1475.0</ele><time>2026-05-03T10:42:27Z</time></trkpt><trkpt lat="46.1976167201657" lon="8.158239088238592"><ele>1475.0</ele><time>2026-05-03T10:42:28Z</time></trkpt><trkpt lat="46.19764868299751" lon="8.158470588794229"><ele>1475.0</ele><time>2026-05-03T10:42:29Z</time></trkpt><trkpt lat="46.19766764208694" lon="8.158700892017276"><ele>1475.0</ele><time>2026-05-03T10:42:30Z</time></trkpt><trkpt lat="46.19767604897412" lon="8.158931771359978"><ele>1475.0</ele><time>2026-05-03T10:42:31Z</time></trkpt><trkpt lat="46.19768090443164" lon="8.159161427709927"><ele>1475.0</ele><time>2026-05-03T10:42:32Z</time></trkpt><trkpt lat="46.1976832697748" lon="8.159391591208896"><ele>1475.0</ele><time>2026-05-03T10:42:33Z</time></trkpt><trkpt lat="46.19768518298317" lon="8.159615154844621"><ele>1475.0</ele><time>2026-05-03T10:42:34Z</time></trkpt><trkpt lat="46.19768593286294" lon="8.159831625318855"><ele>1475.0</ele><time>2026-05-03T10:42:35Z</time></trkpt><trkpt lat="46.197689767627466" lon="8.160049204718494"><ele>1475.0</ele><time>2026-05-03T10:42:36Z</time></trkpt><trkpt lat="46.19769160888724" lon="8.160264484864012"><ele>1475.0</ele><time>2026-05-03T10:42:37Z</time></trkpt><trkpt lat="46.1976985775404" lon="8.160480813455388"><ele>1475.0</ele><time>2026-05-03T10:42:38Z</time></trkpt><trkpt lat="46.19771968368112" lon="8.160696693725518"><ele>1475.0</ele><time>2026-05-03T10:42:39Z</time></trkpt><trkpt lat="46.19776649208846" lon="8.160909790300748"><ele>1475.0</ele><time>2026-05-03T10:42:40Z</time></trkpt><trkpt lat="46.19783562357051" lon="8.161111204238589"><ele>1475.0</ele><time>2026-05-03T10:42:41Z</time></trkpt><trkpt lat="46.19792379794692" lon="8.161302427195444"><ele>1475.0</ele><time>2026-05-03T10:42:42Z</time></trkpt><trkpt lat="46.198022508697214" lon="8.161486703741232"><ele>1475.0</ele><time>2026-05-03T10:42:43Z</time></trkpt><trkpt lat="46.19811569560568" lon="8.161668556434732"><ele>1475.0</ele><time>2026-05-03T10:42:44Z</time></trkpt><trkpt lat="46.19817377872787" lon="8.161878039404543"><ele>1475.0</ele><time>2026-05-03T10:42:45Z</time></trkpt><trkpt lat="46.19824137242781" lon="8.1620777285832"><ele>1475.0</ele><time>2026-05-03T10:42:46Z</time></trkpt><trkpt lat="46.19831389081779" lon="8.162273576220047"><ele>1475.0</ele><time>2026-05-03T10:42:47Z</time></trkpt><trkpt lat="46.19839488376252" lon="8.162459421090169"><ele>1475.0</ele><time>2026-05-03T10:42:48Z</time></trkpt><trkpt lat="46.19849821815822" lon="8.16262213248352"><ele>1475.0</ele><time>2026-05-03T10:42:49Z</time></trkpt><trkpt lat="46.19858325675911" lon="8.16280209552567"><ele>1475.0</ele><time>2026-05-03T10:42:50Z</time></trkpt><trkpt lat="46.19864094990042" lon="8.16300611465093"><ele>1475.0</ele><time>2026-05-03T10:42:51Z</time></trkpt><trkpt lat="46.198697174276944" lon="8.163208326654766"><ele>1475.0</ele><time>2026-05-03T10:42:52Z</time></trkpt><trkpt lat="46.198719675750354" lon="8.163420980634129"><ele>1475.0</ele><time>2026-05-03T10:42:53Z</time></trkpt><trkpt lat="46.19872640498996" lon="8.16364255942764"><ele>1475.0</ele><time>2026-05-03T10:42:54Z</time></trkpt><trkpt lat="46.198726439140735" lon="8.16386897140583"><ele>1475.0</ele><time>2026-05-03T10:42:55Z</time></trkpt><trkpt lat="46.19872444456215" lon="8.1640990081335"><ele>1475.0</ele><time>2026-05-03T10:42:56Z</time></trkpt><trkpt lat="46.198720148717065" lon="8.164333032628972"><ele>1475.0</ele><time>2026-05-03T10:42:57Z</time></trkpt><trkpt lat="46.19871381990968" lon="8.164567802793844"><ele>1475.0</ele><time>2026-05-03T10:42:58Z</time></trkpt><trkpt lat="46.198706336375366" lon="8.16480398974676"><ele>1475.0</ele><time>2026-05-03T10:42:59Z</time></trkpt><trkpt lat="46.198698512374776" lon="8.165042593258807"><ele>1475.0</ele><time>2026-05-03T10:43:00Z</time></trkpt><trkpt lat="46.198708429182126" lon="8.165279549331013"><ele>1475.0</ele><time>2026-05-03T10:43:01Z</time></trkpt><trkpt lat="46.19869960360772" lon="8.165514962404666"><ele>1475.0</ele><time>2026-05-03T10:43:02Z</time></trkpt><trkpt lat="46.19869695876841" lon="8.165749883423558"><ele>1475.0</ele><time>2026-05-03T10:43:03Z</time></trkpt><trkpt lat="46.19871508843922" lon="8.165978175366982"><ele>1475.0</ele><time>2026-05-03T10:43:04Z</time></trkpt><trkpt lat="46.19875697496408" lon="8.166197014888072"><ele>1475.0</ele><time>2026-05-03T10:43:05Z</time></trkpt><trkpt lat="46.19881364250445" lon="8.16640503152986"><ele>1475.0</ele><time>2026-05-03T10:43:06Z</time></trkpt><trkpt lat="46.198870063980905" lon="8.166612048890403"><ele>1475.0</ele><time>2026-05-03T10:43:07Z</time></trkpt><trkpt lat="46.198904445099934" lon="8.16682854649764"><ele>1475.0</ele><time>2026-05-03T10:43:08Z</time></trkpt><trkpt lat="46.19895204302031" lon="8.167034836679735"><ele>1475.0</ele><time>2026-05-03T10:43:09Z</time></trkpt><trkpt lat="46.198999463923414" lon="8.167237050846241"><ele>1475.0</ele><time>2026-05-03T10:43:10Z</time></trkpt><trkpt lat="46.19905308827917" lon="8.16744033764313"><ele>1475.0</ele><time>2026-05-03T10:43:11Z</time></trkpt><trkpt lat="46.19905104475804" lon="8.167654523771379"><ele>1287.5</ele><time>2026-05-03T10:43:12Z</time></trkpt><trkpt lat="46.19903524823053" lon="8.167857610437563"><ele>1100.0</ele><time>2026-05-03T10:43:13Z</time></trkpt><trkpt lat="46.199015663533906" lon="8.168062408329444"><ele>912.5</ele><time>2026-05-03T10:43:14Z</time></trkpt><trkpt lat="46.19902756365036" lon="8.16826795173183"><ele>725.0</ele><time>2026-05-03T10:43:15Z</time></trkpt><trkpt lat="46.19910744192338" lon="8.168445155279194"><ele>725.0</ele><time>2026-05-03T10:43:16Z</time></trkpt><trkpt lat="46.19920065155979" lon="8.168596364127875"><ele>725.0</ele><time>2026-05-03T10:43:17Z</time></trkpt><trkpt lat="46.19932546408554" lon="8.168698386731258"><ele>725.0</ele><time>2026-05-03T10:43:18Z</time></trkpt><trkpt lat="46.19946404533637" lon="8.168775935624957"><ele>725.0</ele><time>2026-05-03T10:43:19Z</time></trkpt><trkpt lat="46.19958280714817" lon="8.168909633592037"><ele>723.3333333333333</ele><time>2026-05-03T10:43:20Z</time></trkpt><trkpt lat="46.19971576177284" lon="8.169029753327543"><ele>721.6666666666666</ele><time>2026-05-03T10:43:21Z</time></trkpt><trkpt lat="46.19985545257864" lon="8.16914831971021"><ele>720.0</ele><time>2026-05-03T10:43:22Z</time></trkpt><trkpt lat="46.19999419630761" lon="8.169267161022747"><ele>720.0</ele><time>2026-05-03T10:43:23Z</time></trkpt><trkpt lat="46.20013454798074" lon="8.169400926067258"><ele>720.0</ele><time>2026-05-03T10:43:24Z</time></trkpt><trkpt lat="46.20026754306009" lon="8.169537887580265"><ele>720.0</ele><time>2026-05-03T10:43:25Z</time></trkpt><trkpt lat="46.20038354549155" lon="8.16969105557716"><ele>718.75</ele><time>2026-05-03T10:43:26Z</time></trkpt><trkpt lat="46.20047249339469" lon="8.169859760305973"><ele>717.5</ele><time>2026-05-03T10:43:27Z</time></trkpt><trkpt lat="46.20053354458226" lon="8.170028929288856"><ele>716.25</ele><time>2026-05-03T10:43:28Z</time></trkpt><trkpt lat="46.20057201984878" lon="8.170208097144773"><ele>715.0</ele><time>2026-05-03T10:43:29.056Z</time></trkpt><trkpt lat="46.20058689771123" lon="8.170367128833247"><ele>715.0</ele><time>2026-05-03T10:43:30.054Z</time></trkpt><trkpt lat="46.20129161833821" lon="8.170746072567253"><ele>715.0</ele><time>2026-05-03T10:43:33Z</time></trkpt><trkpt lat="46.20142288372041" lon="8.170903967048606"><ele>715.0</ele><time>2026-05-03T10:43:34Z</time></trkpt><trkpt lat="46.20122808001086" lon="8.171226752557494"><ele>715.0</ele><time>2026-05-03T10:43:34.999Z</time></trkpt><trkpt lat="46.201054212184225" lon="8.17142042335578"><ele>715.0</ele><time>2026-05-03T10:43:35.999Z</time></trkpt><trkpt lat="46.20086659627348" lon="8.171674199519245"><ele>717.0</ele><time>2026-05-03T10:43:36.999Z</time></trkpt><trkpt lat="46.200216670044796" lon="8.172083995358191"><ele>717.0</ele><time>2026-05-03T10:43:37.999Z</time></trkpt><trkpt lat="46.200250037214396" lon="8.17229900512448"><ele>717.0</ele><time>2026-05-03T10:43:38.999Z</time></trkpt><trkpt lat="46.2002813224926" lon="8.17251779348895"><ele>717.0</ele><time>2026-05-03T10:43:39.999Z</time></trkpt><trkpt lat="46.20031663838571" lon="8.172734026700981"><ele>715.6666666666666</ele><time>2026-05-03T10:43:40.999Z</time></trkpt><trkpt lat="46.20035421895699" lon="8.172953503631106"><ele>714.3333333333333</ele><time>2026-05-03T10:43:41.999Z</time></trkpt><trkpt lat="46.20039563765198" lon="8.173177280438415"><ele>713.0</ele><time>2026-05-03T10:43:42.999Z</time></trkpt><trkpt lat="46.200437445378675" lon="8.173403473314034"><ele>711.6666666666666</ele><time>2026-05-03T10:43:43.999Z</time></trkpt><trkpt lat="46.20047947770509" lon="8.17362815575704"><ele>710.3333333333334</ele><time>2026-05-03T10:43:44.999Z</time></trkpt><trkpt lat="46.200524768202875" lon="8.17385207372916"><ele>709.0</ele><time>2026-05-03T10:43:45.999Z</time></trkpt><trkpt lat="46.200568671425664" lon="8.174083226980898"><ele>708.0</ele><time>2026-05-03T10:43:46.999Z</time></trkpt><trkpt lat="46.20063298822817" lon="8.174298151579361"><ele>707.0</ele><time>2026-05-03T10:43:47.999Z</time></trkpt><trkpt lat="46.20069086585629" lon="8.17451013438786"><ele>706.0</ele><time>2026-05-03T10:43:48.999Z</time></trkpt><trkpt lat="46.20073406838816" lon="8.174719116692215"><ele>705.75</ele><time>2026-05-03T10:43:49.999Z</time></trkpt><trkpt lat="46.200763263473505" lon="8.17492252942871"><ele>705.5</ele><time>2026-05-03T10:43:50.999Z</time></trkpt><trkpt lat="46.20076457264978" lon="8.175122194381906"><ele>705.25</ele><time>2026-05-03T10:43:51.999Z</time></trkpt><trkpt lat="46.20076729763583" lon="8.175341151470287"><ele>705.0</ele><time>2026-05-03T10:43:52.999Z</time></trkpt><trkpt lat="46.200802411122936" lon="8.17555072292218"><ele>703.6666666666666</ele><time>2026-05-03T10:43:53.999Z</time></trkpt><trkpt lat="46.20083893123772" lon="8.175757088271038"><ele>702.3333333333333</ele><time>2026-05-03T10:43:54.999Z</time></trkpt><trkpt lat="46.200889089217206" lon="8.175966774557917"><ele>701.0</ele><time>2026-05-03T10:43:55.999Z</time></trkpt><trkpt lat="46.20095205198827" lon="8.176174535252047"><ele>701.0</ele><time>2026-05-03T10:43:56.999Z</time></trkpt><trkpt lat="46.20102802550664" lon="8.176377903187186"><ele>701.0</ele><time>2026-05-03T10:43:57.999Z</time></trkpt><trkpt lat="46.201125951980316" lon="8.176570931058306"><ele>701.0</ele><time>2026-05-03T10:43:58.999Z</time></trkpt><trkpt lat="46.201190338605564" lon="8.176779529131615"><ele>700.0</ele><time>2026-05-03T10:43:59.999Z</time></trkpt><trkpt lat="46.201260497387224" lon="8.176980940138607"><ele>699.0</ele><time>2026-05-03T10:44:00.999Z</time></trkpt><trkpt lat="46.20132243612385" lon="8.177186378983107"><ele>698.0</ele><time>2026-05-03T10:44:01.999Z</time></trkpt><trkpt lat="46.201379235091075" lon="8.177395649563424"><ele>700.3333333333333</ele><time>2026-05-03T10:44:03Z</time></trkpt><trkpt lat="46.20143691515037" lon="8.177601978514188"><ele>702.6666666666666</ele><time>2026-05-03T10:44:04Z</time></trkpt><trkpt lat="46.20149473837572" lon="8.177806600082919"><ele>705.0</ele><time>2026-05-03T10:44:05Z</time></trkpt><trkpt lat="46.20156800923724" lon="8.17800302865413"><ele>703.0</ele><time>2026-05-03T10:44:06Z</time></trkpt><trkpt lat="46.201609158357414" lon="8.178215349887601"><ele>701.0</ele><time>2026-05-03T10:44:07Z</time></trkpt><trkpt lat="46.201665501454315" lon="8.178420996557882"><ele>699.0</ele><time>2026-05-03T10:44:08Z</time></trkpt><trkpt lat="46.20172000241696" lon="8.178628784166616"><ele>699.0</ele><time>2026-05-03T10:44:09Z</time></trkpt><trkpt lat="46.20177487086873" lon="8.178837972873318"><ele>699.0</ele><time>2026-05-03T10:44:10Z</time></trkpt><trkpt lat="46.201832392107015" lon="8.17904840489587"><ele>699.0</ele><time>2026-05-03T10:44:11Z</time></trkpt><trkpt lat="46.2018841042946" lon="8.179260388957697"><ele>696.6666666666666</ele><time>2026-05-03T10:44:12Z</time></trkpt><trkpt lat="46.201918867041734" lon="8.179481202934554"><ele>694.3333333333333</ele><time>2026-05-03T10:44:13Z</time></trkpt><trkpt lat="46.20194057895945" lon="8.17970228686102"><ele>692.0</ele><time>2026-05-03T10:44:14Z</time></trkpt><trkpt lat="46.20194636847305" lon="8.179926094782001"><ele>691.3333333333333</ele><time>2026-05-03T10:44:15Z</time></trkpt><trkpt lat="46.201945502290606" lon="8.180152072454645"><ele>690.6666666666666</ele><time>2026-05-03T10:44:16Z</time></trkpt><trkpt lat="46.20193617373699" lon="8.180379915284748"><ele>690.0</ele><time>2026-05-03T10:44:17Z</time></trkpt><trkpt lat="46.20193117945808" lon="8.180610938712878"><ele>689.0</ele><time>2026-05-03T10:44:18Z</time></trkpt><trkpt lat="46.201945777572924" lon="8.180841294624805"><ele>688.0</ele><time>2026-05-03T10:44:19Z</time></trkpt><trkpt lat="46.20194618519489" lon="8.181069887209109"><ele>687.0</ele><time>2026-05-03T10:44:20Z</time></trkpt><trkpt lat="46.201952292210436" lon="8.18129560299206"><ele>686.6666666666666</ele><time>2026-05-03T10:44:21Z</time></trkpt><trkpt lat="46.20196328093313" lon="8.181518128437336"><ele>686.3333333333333</ele><time>2026-05-03T10:44:22Z</time></trkpt><trkpt lat="46.20197788459375" lon="8.181732101919602"><ele>686.0</ele><time>2026-05-03T10:44:23Z</time></trkpt><trkpt lat="46.20200168838178" lon="8.181943614762872"><ele>686.0</ele><time>2026-05-03T10:44:24Z</time></trkpt><trkpt lat="46.20202026809115" lon="8.18216081854073"><ele>686.0</ele><time>2026-05-03T10:44:25Z</time></trkpt><trkpt lat="46.20208998126698" lon="8.182362812142362"><ele>686.0</ele><time>2026-05-03T10:44:26Z</time></trkpt><trkpt lat="46.202157577686826" lon="8.182561749561867"><ele>687.3333333333333</ele><time>2026-05-03T10:44:27Z</time></trkpt><trkpt lat="46.202233934471465" lon="8.18274775546282"><ele>688.6666666666666</ele><time>2026-05-03T10:44:28Z</time></trkpt><trkpt lat="46.20233987081299" lon="8.18291239169615"><ele>690.0</ele><time>2026-05-03T10:44:29Z</time></trkpt><trkpt lat="46.2024347453507" lon="8.183078792847136"><ele>690.6666666666666</ele><time>2026-05-03T10:44:30Z</time></trkpt><trkpt lat="46.20256069882924" lon="8.183290190643419"><ele>691.3333333333333</ele><time>2026-05-03T10:44:31Z</time></trkpt><trkpt lat="46.202643244041504" lon="8.183470278896374"><ele>692.0</ele><time>2026-05-03T10:44:32Z</time></trkpt><trkpt lat="46.2027123829288" lon="8.183646231841681"><ele>692.0</ele><time>2026-05-03T10:44:33Z</time></trkpt><trkpt lat="46.20279022217529" lon="8.183825326625163"><ele>692.0</ele><time>2026-05-03T10:44:34Z</time></trkpt><trkpt lat="46.202913683852024" lon="8.18410951321022"><ele>692.0</ele><time>2026-05-03T10:44:35Z</time></trkpt><trkpt lat="46.20310478916704" lon="8.184465151057129"><ele>688.5</ele><time>2026-05-03T10:44:36.055Z</time></trkpt><trkpt lat="46.20325073127917" lon="8.18467645301896"><ele>685.0</ele><time>2026-05-03T10:44:37.055Z</time></trkpt><trkpt lat="46.20337098169643" lon="8.184819002205973"><ele>681.5</ele><time>2026-05-03T10:44:38.056Z</time></trkpt><trkpt lat="46.20343252481864" lon="8.184896636963831"><ele>678.0</ele><time>2026-05-03T10:44:39.055Z</time></trkpt><trkpt lat="46.20354650960613" lon="8.185043396689668"><ele>678.0</ele><time>2026-05-03T10:44:40.05Z</time></trkpt><trkpt lat="46.203597048905294" lon="8.185108868087545"><ele>678.0</ele><time>2026-05-03T10:44:41.042Z</time></trkpt><trkpt lat="46.20394202909688" lon="8.185685921775708"><ele>680.0</ele><time>2026-05-03T10:44:45Z</time></trkpt><trkpt lat="46.204040829120316" lon="8.18586358270827"><ele>682.0</ele><time>2026-05-03T10:44:46Z</time></trkpt><trkpt lat="46.20415575657354" lon="8.186129079219377"><ele>684.0</ele><time>2026-05-03T10:44:47Z</time></trkpt><trkpt lat="46.204248379409144" lon="8.186269234301585"><ele>684.0</ele><time>2026-05-03T10:44:48Z</time></trkpt><trkpt lat="46.20432546261038" lon="8.186488999760302"><ele>684.0</ele><time>2026-05-03T10:44:49Z</time></trkpt><trkpt lat="46.20438433651105" lon="8.186716723206006"><ele>684.0</ele><time>2026-05-03T10:44:50Z</time></trkpt><trkpt lat="46.20440354025359" lon="8.186954305195817"><ele>681.75</ele><time>2026-05-03T10:44:51Z</time></trkpt><trkpt lat="46.20443036695984" lon="8.18716463444527"><ele>679.5</ele><time>2026-05-03T10:44:52Z</time></trkpt><trkpt lat="46.20445648868201" lon="8.18735043101106"><ele>677.25</ele><time>2026-05-03T10:44:53Z</time></trkpt><trkpt lat="46.2045035311158" lon="8.187582998081128"><ele>675.0</ele><time>2026-05-03T10:44:54Z</time></trkpt><trkpt lat="46.204558923391296" lon="8.187780286959017"><ele>675.0</ele><time>2026-05-03T10:44:55Z</time></trkpt><trkpt lat="46.20461896418093" lon="8.187980262494106"><ele>675.0</ele><time>2026-05-03T10:44:56Z</time></trkpt><trkpt lat="46.20470720545202" lon="8.18816212544463"><ele>675.0</ele><time>2026-05-03T10:44:57Z</time></trkpt><trkpt lat="46.2047611161995" lon="8.188344892528596"><ele>675.0</ele><time>2026-05-03T10:44:58Z</time></trkpt><trkpt lat="46.20480563194318" lon="8.188527464575024"><ele>676.0</ele><time>2026-05-03T10:44:59Z</time></trkpt><trkpt lat="46.20484388002535" lon="8.188711636820743"><ele>677.0</ele><time>2026-05-03T10:45:00Z</time></trkpt><trkpt lat="46.20485713830952" lon="8.188898620608873"><ele>678.0</ele><time>2026-05-03T10:45:01Z</time></trkpt><trkpt lat="46.20490906940469" lon="8.189051190794165"><ele>679.0</ele><time>2026-05-03T10:45:02Z</time></trkpt><trkpt lat="46.20493205538638" lon="8.189190781318286"><ele>679.0</ele><time>2026-05-03T10:45:03Z</time></trkpt><trkpt lat="46.204949603026634" lon="8.189324832991664"><ele>679.0</ele><time>2026-05-03T10:45:04Z</time></trkpt><trkpt lat="46.20496768492377" lon="8.18944490339022"><ele>679.0</ele><time>2026-05-03T10:45:05Z</time></trkpt><trkpt lat="46.20498733792266" lon="8.189564861277217"><ele>679.0</ele><time>2026-05-03T10:45:06Z</time></trkpt><trkpt lat="46.20497054168596" lon="8.189687098397387"><ele>679.0</ele><time>2026-05-03T10:45:07Z</time></trkpt><trkpt lat="46.20498053929158" lon="8.189789899380068"><ele>679.0</ele><time>2026-05-03T10:45:08Z</time></trkpt><trkpt lat="46.204988733864596" lon="8.189893073597757"><ele>678.0</ele><time>2026-05-03T10:45:09Z</time></trkpt><trkpt lat="46.20500555273559" lon="8.18999238115299"><ele>677.0</ele><time>2026-05-03T10:45:10Z</time></trkpt><trkpt lat="46.20500407827229" lon="8.190087126488873"><ele>676.0</ele><time>2026-05-03T10:45:11Z</time></trkpt><trkpt lat="46.20500901782293" lon="8.190181378869084"><ele>675.0</ele><time>2026-05-03T10:45:12Z</time></trkpt><trkpt lat="46.205011100418865" lon="8.190284364459803"><ele>674.0</ele><time>2026-05-03T10:45:13Z</time></trkpt><trkpt lat="46.20501349133698" lon="8.190386032197472"><ele>673.0</ele><time>2026-05-03T10:45:14Z</time></trkpt><trkpt lat="46.20501606526384" lon="8.190495851235907"><ele>672.0</ele><time>2026-05-03T10:45:15Z</time></trkpt><trkpt lat="46.205018830270596" lon="8.190598527821928"><ele>669.75</ele><time>2026-05-03T10:45:16Z</time></trkpt><trkpt lat="46.20502975432306" lon="8.190777439516877"><ele>667.5</ele><time>2026-05-03T10:45:18Z</time></trkpt><trkpt lat="46.20504427400074" lon="8.190945660563493"><ele>665.25</ele><time>2026-05-03T10:45:20Z</time></trkpt><trkpt lat="46.205070316698716" lon="8.191104990186057"><ele>663.0</ele><time>2026-05-03T10:45:22Z</time></trkpt><trkpt lat="46.20511256133554" lon="8.191270560845078"><ele>663.0</ele><time>2026-05-03T10:45:24Z</time></trkpt><trkpt lat="46.20515516246256" lon="8.191419054244625"><ele>663.0</ele><time>2026-05-03T10:45:26Z</time></trkpt><trkpt lat="46.20519871544122" lon="8.191536525189973"><ele>663.0</ele><time>2026-05-03T10:45:28Z</time></trkpt><trkpt lat="46.20524276673021" lon="8.19167278357616"><ele>663.0</ele><time>2026-05-03T10:45:30Z</time></trkpt><trkpt lat="46.205273163511926" lon="8.191845679131896"><ele>663.0</ele><time>2026-05-03T10:45:32Z</time></trkpt><trkpt lat="46.205298249283956" lon="8.191954622823411"><ele>663.2</ele><time>2026-05-03T10:45:32.999Z</time></trkpt><trkpt lat="46.20532496839067" lon="8.192072723893881"><ele>663.4</ele><time>2026-05-03T10:45:33.999Z</time></trkpt><trkpt lat="46.205353111320385" lon="8.192199200765538"><ele>663.6</ele><time>2026-05-03T10:45:34.999Z</time></trkpt><trkpt lat="46.20538419918074" lon="8.19233938374281"><ele>663.8000000000001</ele><time>2026-05-03T10:45:35.999Z</time></trkpt><trkpt lat="46.20541488205814" lon="8.192489996302115"><ele>664.0</ele><time>2026-05-03T10:45:36.999Z</time></trkpt><trkpt lat="46.20544314123109" lon="8.192638282287634"><ele>664.0</ele><time>2026-05-03T10:45:37.999Z</time></trkpt><trkpt lat="46.20547204485623" lon="8.192780913187537"><ele>664.0</ele><time>2026-05-03T10:45:38.999Z</time></trkpt><trkpt lat="46.20550285221187" lon="8.192912432791951"><ele>664.0</ele><time>2026-05-03T10:45:39.999Z</time></trkpt><trkpt lat="46.20553336937679" lon="8.193044140781419"><ele>664.0</ele><time>2026-05-03T10:45:40.999Z</time></trkpt><trkpt lat="46.20556345707981" lon="8.193173995335938"><ele>664.0</ele><time>2026-05-03T10:45:41.999Z</time></trkpt><trkpt lat="46.20558991625915" lon="8.19328818960697"><ele>664.0</ele><time>2026-05-03T10:45:42.999Z</time></trkpt><trkpt lat="46.20561435469052" lon="8.193398977029577"><ele>664.0</ele><time>2026-05-03T10:45:43.999Z</time></trkpt><trkpt lat="46.205636331850435" lon="8.193512349206202"><ele>664.0</ele><time>2026-05-03T10:45:44.999Z</time></trkpt><trkpt lat="46.20565744960158" lon="8.193633812212882"><ele>664.0</ele><time>2026-05-03T10:45:45.999Z</time></trkpt><trkpt lat="46.205677207930655" lon="8.193764524864918"><ele>664.0</ele><time>2026-05-03T10:45:46.999Z</time></trkpt><trkpt lat="46.20569409019565" lon="8.193905306244558"><ele>664.0</ele><time>2026-05-03T10:45:47.999Z</time></trkpt><trkpt lat="46.205709171945536" lon="8.194056633115238"><ele>665.0</ele><time>2026-05-03T10:45:48.999Z</time></trkpt><trkpt lat="46.20572469110744" lon="8.19421687095665"><ele>666.0</ele><time>2026-05-03T10:45:49.999Z</time></trkpt><trkpt lat="46.205735825609686" lon="8.194386734627827"><ele>667.0</ele><time>2026-05-03T10:45:50.999Z</time></trkpt><trkpt lat="46.20574065107159" lon="8.194569162422102"><ele>668.0</ele><time>2026-05-03T10:45:51.999Z</time></trkpt><trkpt lat="46.20574458213646" lon="8.194758580116096"><ele>668.0</ele><time>2026-05-03T10:45:52.999Z</time></trkpt><trkpt lat="46.20574846424432" lon="8.194945638168877"><ele>668.0</ele><time>2026-05-03T10:45:53.999Z</time></trkpt><trkpt lat="46.205767821281576" lon="8.195127750876573"><ele>668.0</ele><time>2026-05-03T10:45:54.999Z</time></trkpt><trkpt lat="46.20576886352954" lon="8.195306192804692"><ele>668.0</ele><time>2026-05-03T10:45:55.999Z</time></trkpt><trkpt lat="46.205775065918886" lon="8.195479663275433"><ele>668.0</ele><time>2026-05-03T10:45:56.999Z</time></trkpt><trkpt lat="46.2057917531023" lon="8.195660464089741"><ele>668.0</ele><time>2026-05-03T10:45:57.999Z</time></trkpt><trkpt lat="46.20583227503552" lon="8.195841171871718"><ele>668.0</ele><time>2026-05-03T10:45:58.999Z</time></trkpt><trkpt lat="46.20590067282071" lon="8.196012067630091"><ele>668.0</ele><time>2026-05-03T10:45:59.999Z</time></trkpt><trkpt lat="46.20598440888982" lon="8.196174933261151"><ele>665.5</ele><time>2026-05-03T10:46:00.999Z</time></trkpt><trkpt lat="46.20607315229023" lon="8.196321414365759"><ele>663.0</ele><time>2026-05-03T10:46:01.999Z</time></trkpt><trkpt lat="46.206158288752206" lon="8.19646621474407"><ele>660.5</ele><time>2026-05-03T10:46:02.999Z</time></trkpt><trkpt lat="46.20623912082845" lon="8.196623746221233"><ele>658.0</ele><time>2026-05-03T10:46:03.999Z</time></trkpt><trkpt lat="46.20629893749971" lon="8.196810392222863"><ele>656.75</ele><time>2026-05-03T10:46:04.999Z</time></trkpt><trkpt lat="46.2063687896647" lon="8.196996429651824"><ele>655.5</ele><time>2026-05-03T10:46:05.999Z</time></trkpt><trkpt lat="46.20645332640588" lon="8.197168785849454"><ele>654.25</ele><time>2026-05-03T10:46:06.999Z</time></trkpt><trkpt lat="46.206508941140044" lon="8.197352985830772"><ele>653.0</ele><time>2026-05-03T10:46:07.999Z</time></trkpt><trkpt lat="46.206581182368524" lon="8.197538701694146"><ele>655.25</ele><time>2026-05-03T10:46:09Z</time></trkpt><trkpt lat="46.20665321923852" lon="8.197723326735387"><ele>657.5</ele><time>2026-05-03T10:46:10Z</time></trkpt><trkpt lat="46.20672564729993" lon="8.197907273500146"><ele>659.75</ele><time>2026-05-03T10:46:11Z</time></trkpt><trkpt lat="46.2067928945279" lon="8.198080116226409"><ele>662.0</ele><time>2026-05-03T10:46:12Z</time></trkpt><trkpt lat="46.20686682270143" lon="8.198268500369819"><ele>662.0</ele><time>2026-05-03T10:46:13.071Z</time></trkpt><trkpt lat="46.20693710829369" lon="8.198450250810895"><ele>662.0</ele><time>2026-05-03T10:46:14.058Z</time></trkpt><trkpt lat="46.207009149873684" lon="8.198641730241189"><ele>662.0</ele><time>2026-05-03T10:46:15.058Z</time></trkpt><trkpt lat="46.20707038920943" lon="8.198824174772845"><ele>662.0</ele><time>2026-05-03T10:46:16.053Z</time></trkpt><trkpt lat="46.20722359384643" lon="8.199299700170874"><ele>660.0</ele><time>2026-05-03T10:46:18Z</time></trkpt><trkpt lat="46.20728097940072" lon="8.199516059905179"><ele>658.0</ele><time>2026-05-03T10:46:19Z</time></trkpt><trkpt lat="46.207362510605826" lon="8.199644637406404"><ele>656.0</ele><time>2026-05-03T10:46:20Z</time></trkpt><trkpt lat="46.20741524593028" lon="8.19980079929432"><ele>654.0</ele><time>2026-05-03T10:46:21Z</time></trkpt><trkpt lat="46.207447501687234" lon="8.199967521391361"><ele>654.0</ele><time>2026-05-03T10:46:22Z</time></trkpt><trkpt lat="46.207453519803174" lon="8.20014640237974"><ele>654.0</ele><time>2026-05-03T10:46:23Z</time></trkpt><trkpt lat="46.207459862353744" lon="8.200333992273057"><ele>654.0</ele><time>2026-05-03T10:46:24Z</time></trkpt><trkpt lat="46.2074806502774" lon="8.200514998178743"><ele>654.0</ele><time>2026-05-03T10:46:25Z</time></trkpt><trkpt lat="46.20751123733336" lon="8.200697906295629"><ele>648.25</ele><time>2026-05-03T10:46:26Z</time></trkpt><trkpt lat="46.20753699280947" lon="8.200874585422833"><ele>642.5</ele><time>2026-05-03T10:46:27Z</time></trkpt><trkpt lat="46.20753380838945" lon="8.201052777153462"><ele>636.75</ele><time>2026-05-03T10:46:28Z</time></trkpt><trkpt lat="46.20749633242478" lon="8.201213738643773"><ele>631.0</ele><time>2026-05-03T10:46:29Z</time></trkpt><trkpt lat="46.20744910142433" lon="8.201395605052804"><ele>631.25</ele><time>2026-05-03T10:46:30Z</time></trkpt><trkpt lat="46.20739755024199" lon="8.201585108339136"><ele>631.5</ele><time>2026-05-03T10:46:31Z</time></trkpt><trkpt lat="46.207343701079225" lon="8.201786513658963"><ele>631.75</ele><time>2026-05-03T10:46:32Z</time></trkpt><trkpt lat="46.20728844981874" lon="8.20199316324091"><ele>632.0</ele><time>2026-05-03T10:46:33Z</time></trkpt><trkpt lat="46.20723113648046" lon="8.202209444643845"><ele>627.6666666666666</ele><time>2026-05-03T10:46:34Z</time></trkpt><trkpt lat="46.20718890186869" lon="8.202439128248674"><ele>623.3333333333334</ele><time>2026-05-03T10:46:35Z</time></trkpt><trkpt lat="46.20711580023574" lon="8.202651113985706"><ele>619.0</ele><time>2026-05-03T10:46:36Z</time></trkpt><trkpt lat="46.2070558530228" lon="8.202871910670257"><ele>619.0</ele><time>2026-05-03T10:46:37Z</time></trkpt><trkpt lat="46.206997218363796" lon="8.203091233845225"><ele>619.0</ele><time>2026-05-03T10:46:38Z</time></trkpt><trkpt lat="46.20694155043611" lon="8.203308064333141"><ele>619.0</ele><time>2026-05-03T10:46:39Z</time></trkpt><trkpt lat="46.206888420483324" lon="8.203521069572545"><ele>619.0</ele><time>2026-05-03T10:46:40Z</time></trkpt><trkpt lat="46.206839772110094" lon="8.203736640933291"><ele>619.0</ele><time>2026-05-03T10:46:41Z</time></trkpt><trkpt lat="46.20680033597598" lon="8.203962351407446"><ele>619.0</ele><time>2026-05-03T10:46:42Z</time></trkpt><trkpt lat="46.20679228546316" lon="8.204197197595777"><ele>619.6666666666667</ele><time>2026-05-03T10:46:43Z</time></trkpt><trkpt lat="46.20677675591704" lon="8.204430361773168"><ele>620.3333333333334</ele><time>2026-05-03T10:46:44Z</time></trkpt><trkpt lat="46.20674162196128" lon="8.204651996549407"><ele>621.0</ele><time>2026-05-03T10:46:45Z</time></trkpt><trkpt lat="46.20671252782851" lon="8.204870695570554"><ele>621.6666666666666</ele><time>2026-05-03T10:46:46Z</time></trkpt><trkpt lat="46.20668131155095" lon="8.205093503572842"><ele>622.3333333333333</ele><time>2026-05-03T10:46:47Z</time></trkpt><trkpt lat="46.20665047218738" lon="8.205317516195656"><ele>623.0</ele><time>2026-05-03T10:46:48Z</time></trkpt><trkpt lat="46.206619415854995" lon="8.205543104778377"><ele>622.0</ele><time>2026-05-03T10:46:49Z</time></trkpt><trkpt lat="46.2065877842726" lon="8.20577287198806"><ele>621.0</ele><time>2026-05-03T10:46:50Z</time></trkpt><trkpt lat="46.20655622035426" lon="8.206002147722478"><ele>620.0</ele><time>2026-05-03T10:46:51Z</time></trkpt><trkpt lat="46.20652447138505" lon="8.206232286548417"><ele>616.6666666666666</ele><time>2026-05-03T10:46:52Z</time></trkpt><trkpt lat="46.206491252587576" lon="8.206463062329844"><ele>613.3333333333334</ele><time>2026-05-03T10:46:53Z</time></trkpt><trkpt lat="46.20645985346683" lon="8.206697457668879"><ele>610.0</ele><time>2026-05-03T10:46:54Z</time></trkpt><trkpt lat="46.20643051937932" lon="8.206926867078604"><ele>608.3333333333334</ele><time>2026-05-03T10:46:55Z</time></trkpt><trkpt lat="46.2063974728572" lon="8.207158275943659"><ele>606.6666666666666</ele><time>2026-05-03T10:46:56Z</time></trkpt><trkpt lat="46.206350048541765" lon="8.207382890138511"><ele>605.0</ele><time>2026-05-03T10:46:57Z</time></trkpt><trkpt lat="46.20629168200133" lon="8.207600831421576"><ele>604.6666666666666</ele><time>2026-05-03T10:46:58Z</time></trkpt><trkpt lat="46.20623268030204" lon="8.207818508730721"><ele>604.3333333333334</ele><time>2026-05-03T10:46:59Z</time></trkpt><trkpt lat="46.206173824811486" lon="8.208036549731514"><ele>604.0</ele><time>2026-05-03T10:47:00Z</time></trkpt><trkpt lat="46.206113010017766" lon="8.208253859398855"><ele>604.0</ele><time>2026-05-03T10:47:01Z</time></trkpt><trkpt lat="46.20605264932357" lon="8.20846954643808"><ele>604.0</ele><time>2026-05-03T10:47:02Z</time></trkpt><trkpt lat="46.20599166854768" lon="8.20868615539458"><ele>604.0</ele><time>2026-05-03T10:47:03Z</time></trkpt><trkpt lat="46.20593009946543" lon="8.20890187332531"><ele>605.0</ele><time>2026-05-03T10:47:04Z</time></trkpt><trkpt lat="46.205866625639274" lon="8.209119052546894"><ele>606.0</ele><time>2026-05-03T10:47:05Z</time></trkpt><trkpt lat="46.20580127766569" lon="8.209335279740738"><ele>607.0</ele><time>2026-05-03T10:47:06Z</time></trkpt><trkpt lat="46.20574377622197" lon="8.20956302530867"><ele>607.0</ele><time>2026-05-03T10:47:07Z</time></trkpt><trkpt lat="46.205702607510155" lon="8.209800789846312"><ele>607.0</ele><time>2026-05-03T10:47:08Z</time></trkpt><trkpt lat="46.20567302568772" lon="8.21004398844174"><ele>607.0</ele><time>2026-05-03T10:47:09Z</time></trkpt><trkpt lat="46.20564692157712" lon="8.210287285191171"><ele>606.0</ele><time>2026-05-03T10:47:10Z</time></trkpt><trkpt lat="46.20562075342503" lon="8.210531178520984"><ele>605.0</ele><time>2026-05-03T10:47:11Z</time></trkpt><trkpt lat="46.20559476729698" lon="8.210773375701873"><ele>604.0</ele><time>2026-05-03T10:47:12Z</time></trkpt><trkpt lat="46.205568462787156" lon="8.211010736241619"><ele>601.6666666666667</ele><time>2026-05-03T10:47:13Z</time></trkpt><trkpt lat="46.20553286377243" lon="8.21123906481713"><ele>599.3333333333334</ele><time>2026-05-03T10:47:14Z</time></trkpt><trkpt lat="46.20547544190669" lon="8.211452778362686"><ele>597.0</ele><time>2026-05-03T10:47:15Z</time></trkpt><trkpt lat="46.20540545081555" lon="8.211657010427226"><ele>597.0</ele><time>2026-05-03T10:47:16Z</time></trkpt><trkpt lat="46.20534411194458" lon="8.211870176158643"><ele>597.0</ele><time>2026-05-03T10:47:17Z</time></trkpt><trkpt lat="46.205299565324864" lon="8.2120976350129"><ele>597.0</ele><time>2026-05-03T10:47:18Z</time></trkpt><trkpt lat="46.20528375144611" lon="8.212340684888916"><ele>601.0</ele><time>2026-05-03T10:47:19Z</time></trkpt><trkpt lat="46.20528657808221" lon="8.212585073169448"><ele>605.0</ele><time>2026-05-03T10:47:20Z</time></trkpt><trkpt lat="46.205291187160746" lon="8.212823332110181"><ele>609.0</ele><time>2026-05-03T10:47:21Z</time></trkpt><trkpt lat="46.2052964534539" lon="8.213065609994494"><ele>608.0</ele><time>2026-05-03T10:47:22Z</time></trkpt><trkpt lat="46.20530166896827" lon="8.213305673682637"><ele>607.0</ele><time>2026-05-03T10:47:23Z</time></trkpt><trkpt lat="46.205306276436076" lon="8.213545009462829"><ele>606.0</ele><time>2026-05-03T10:47:24Z</time></trkpt><trkpt lat="46.20531007127877" lon="8.213804976751732"><ele>600.3333333333334</ele><time>2026-05-03T10:47:25Z</time></trkpt><trkpt lat="46.2053137588617" lon="8.21405759595555"><ele>594.6666666666667</ele><time>2026-05-03T10:47:26Z</time></trkpt><trkpt lat="46.20531781126709" lon="8.214308816121047"><ele>589.0</ele><time>2026-05-03T10:47:27Z</time></trkpt><trkpt lat="46.20532281886609" lon="8.214551569152293"><ele>589.0</ele><time>2026-05-03T10:47:28Z</time></trkpt><trkpt lat="46.20533297077214" lon="8.21481138739722"><ele>589.0</ele><time>2026-05-03T10:47:29Z</time></trkpt><trkpt lat="46.205358165193616" lon="8.215055805287083"><ele>589.0</ele><time>2026-05-03T10:47:30Z</time></trkpt><trkpt lat="46.20539736341275" lon="8.215302996806553"><ele>588.6666666666667</ele><time>2026-05-03T10:47:31Z</time></trkpt><trkpt lat="46.20543851652183" lon="8.215548543500782"><ele>588.3333333333334</ele><time>2026-05-03T10:47:32Z</time></trkpt><trkpt lat="46.20547947123374" lon="8.215800027934437"><ele>588.0</ele><time>2026-05-03T10:47:33Z</time></trkpt><trkpt lat="46.2055199923901" lon="8.216050673324528"><ele>588.0</ele><time>2026-05-03T10:47:34Z</time></trkpt><trkpt lat="46.20556150394671" lon="8.216302291852733"><ele>588.0</ele><time>2026-05-03T10:47:35Z</time></trkpt><trkpt lat="46.20560328433859" lon="8.216555584539755"><ele>588.0</ele><time>2026-05-03T10:47:36Z</time></trkpt><trkpt lat="46.20564511629915" lon="8.216809399845726"><ele>588.0</ele><time>2026-05-03T10:47:37Z</time></trkpt><trkpt lat="46.20568701017635" lon="8.217063590750927"><ele>588.0</ele><time>2026-05-03T10:47:38Z</time></trkpt><trkpt lat="46.2057286935019" lon="8.21731650418449"><ele>588.0</ele><time>2026-05-03T10:47:39Z</time></trkpt><trkpt lat="46.20578579217695" lon="8.217568672981868"><ele>584.6666666666666</ele><time>2026-05-03T10:47:40Z</time></trkpt><trkpt lat="46.20582923625156" lon="8.217825450658413"><ele>581.3333333333333</ele><time>2026-05-03T10:47:41Z</time></trkpt><trkpt lat="46.20586989066435" lon="8.218075528355927"><ele>578.0</ele><time>2026-05-03T10:47:42Z</time></trkpt><trkpt lat="46.205909758571956" lon="8.218326385428673"><ele>578.0</ele><time>2026-05-03T10:47:42.999Z</time></trkpt><trkpt lat="46.20595112649666" lon="8.21857838800763"><ele>578.0</ele><time>2026-05-03T10:47:43.999Z</time></trkpt><trkpt lat="46.205992301082006" lon="8.218833491227041"><ele>578.0</ele><time>2026-05-03T10:47:44.999Z</time></trkpt><trkpt lat="46.206033000586" lon="8.219092263949115"><ele>578.3333333333333</ele><time>2026-05-03T10:47:45.999Z</time></trkpt><trkpt lat="46.20607752853434" lon="8.21935268293752"><ele>578.6666666666666</ele><time>2026-05-03T10:47:46.999Z</time></trkpt><trkpt lat="46.20612204645259" lon="8.219613186192362"><ele>579.0</ele><time>2026-05-03T10:47:47.999Z</time></trkpt><trkpt lat="46.206164726085845" lon="8.219870433866296"><ele>579.0</ele><time>2026-05-03T10:47:48.999Z</time></trkpt><trkpt lat="46.206188945826064" lon="8.22012425413583"><ele>579.0</ele><time>2026-05-03T10:47:49.999Z</time></trkpt><trkpt lat="46.20622272866399" lon="8.220366078575454"><ele>579.0</ele><time>2026-05-03T10:47:50.999Z</time></trkpt><trkpt lat="46.20624268529773" lon="8.22060564550111"><ele>578.6666666666666</ele><time>2026-05-03T10:47:51.999Z</time></trkpt><trkpt lat="46.206248798951236" lon="8.220838956947997"><ele>578.3333333333333</ele><time>2026-05-03T10:47:52.999Z</time></trkpt><trkpt lat="46.20625623387654" lon="8.221074596903577"><ele>578.0</ele><time>2026-05-03T10:47:53.999Z</time></trkpt><trkpt lat="46.206235672908086" lon="8.221309270489021"><ele>579.0</ele><time>2026-05-03T10:47:54.999Z</time></trkpt><trkpt lat="46.206198629206256" lon="8.221542655498936"><ele>580.0</ele><time>2026-05-03T10:47:55.999Z</time></trkpt><trkpt lat="46.20614553927413" lon="8.22177025900683"><ele>581.0</ele><time>2026-05-03T10:47:56.999Z</time></trkpt><trkpt lat="46.20608760133915" lon="8.22199798585042"><ele>581.0</ele><time>2026-05-03T10:47:57.999Z</time></trkpt><trkpt lat="46.2060373151476" lon="8.222232891152277"><ele>581.0</ele><time>2026-05-03T10:47:58.999Z</time></trkpt><trkpt lat="46.20599522824189" lon="8.222475978468486"><ele>581.0</ele><time>2026-05-03T10:47:59.999Z</time></trkpt><trkpt lat="46.20596629392774" lon="8.222723437376972"><ele>582.6666666666666</ele><time>2026-05-03T10:48:00.999Z</time></trkpt><trkpt lat="46.20596128907741" lon="8.22296954111902"><ele>584.3333333333334</ele><time>2026-05-03T10:48:01.999Z</time></trkpt><trkpt lat="46.20596912043069" lon="8.223211508965472"><ele>586.0</ele><time>2026-05-03T10:48:02.999Z</time></trkpt><trkpt lat="46.2059807847108" lon="8.223452333712537"><ele>586.6666666666667</ele><time>2026-05-03T10:48:03.999Z</time></trkpt><trkpt lat="46.20587960614403" lon="8.223779235255392"><ele>587.3333333333334</ele><time>2026-05-03T10:48:04.999Z</time></trkpt><trkpt lat="46.20586778077996" lon="8.224049460907452"><ele>588.0</ele><time>2026-05-03T10:48:05.999Z</time></trkpt><trkpt lat="46.20584883946438" lon="8.224324576390153"><ele>588.6666666666666</ele><time>2026-05-03T10:48:06.999Z</time></trkpt><trkpt lat="46.205831978511576" lon="8.224602774137175"><ele>589.3333333333333</ele><time>2026-05-03T10:48:07.999Z</time></trkpt><trkpt lat="46.20582046453967" lon="8.22488515150419"><ele>590.0</ele><time>2026-05-03T10:48:08.999Z</time></trkpt><trkpt lat="46.2058009233949" lon="8.225162862694626"><ele>590.0</ele><time>2026-05-03T10:48:09.999Z</time></trkpt><trkpt lat="46.205787535312616" lon="8.225450069685438"><ele>590.0</ele><time>2026-05-03T10:48:10.999Z</time></trkpt><trkpt lat="46.2057667378205" lon="8.225745239316673"><ele>590.0</ele><time>2026-05-03T10:48:11.999Z</time></trkpt><trkpt lat="46.20574450200113" lon="8.226032292620088"><ele>591.6666666666666</ele><time>2026-05-03T10:48:12.999Z</time></trkpt><trkpt lat="46.20572660998838" lon="8.226317692238302"><ele>593.3333333333334</ele><time>2026-05-03T10:48:13.999Z</time></trkpt><trkpt lat="46.20571446260481" lon="8.226605611022856"><ele>595.0</ele><time>2026-05-03T10:48:15Z</time></trkpt><trkpt lat="46.205700632815265" lon="8.226890119533133"><ele>599.0</ele><time>2026-05-03T10:48:16Z</time></trkpt><trkpt lat="46.20569580280522" lon="8.227180176087154"><ele>603.0</ele><time>2026-05-03T10:48:17Z</time></trkpt><trkpt lat="46.2056985406763" lon="8.227473480931913"><ele>607.0</ele><time>2026-05-03T10:48:18Z</time></trkpt><trkpt lat="46.205713326150146" lon="8.227762304045212"><ele>607.0</ele><time>2026-05-03T10:48:19Z</time></trkpt><trkpt lat="46.20574446329747" lon="8.228043862784453"><ele>607.0</ele><time>2026-05-03T10:48:20Z</time></trkpt><trkpt lat="46.20578676363256" lon="8.228326664017361"><ele>607.0</ele><time>2026-05-03T10:48:21Z</time></trkpt><trkpt lat="46.205842415840884" lon="8.22861569454282"><ele>598.3333333333334</ele><time>2026-05-03T10:48:22Z</time></trkpt><trkpt lat="46.205906410470405" lon="8.2288871274854"><ele>589.6666666666666</ele><time>2026-05-03T10:48:23Z</time></trkpt><trkpt lat="46.205986332395405" lon="8.229154983734151"><ele>581.0</ele><time>2026-05-03T10:48:24Z</time></trkpt><trkpt lat="46.20607338469406" lon="8.229409547085545"><ele>575.3333333333333</ele><time>2026-05-03T10:48:25Z</time></trkpt><trkpt lat="46.20616150975349" lon="8.22966260878842"><ele>569.6666666666666</ele><time>2026-05-03T10:48:26Z</time></trkpt><trkpt lat="46.20625183098728" lon="8.229914417777673"><ele>564.0</ele><time>2026-05-03T10:48:27Z</time></trkpt><trkpt lat="46.20631142839799" lon="8.23017828017535"><ele>558.6666666666666</ele><time>2026-05-03T10:48:28Z</time></trkpt><trkpt lat="46.206363904509345" lon="8.23044102144292"><ele>553.3333333333333</ele><time>2026-05-03T10:48:29Z</time></trkpt><trkpt lat="46.20640527339821" lon="8.23070234392968"><ele>548.0</ele><time>2026-05-03T10:48:30Z</time></trkpt><trkpt lat="46.206433891894235" lon="8.230977222478316"><ele>546.6666666666666</ele><time>2026-05-03T10:48:31Z</time></trkpt><trkpt lat="46.2064483951308" lon="8.231258196679802"><ele>545.3333333333334</ele><time>2026-05-03T10:48:32Z</time></trkpt><trkpt lat="46.20644919323444" lon="8.231539251727614"><ele>544.0</ele><time>2026-05-03T10:48:33Z</time></trkpt><trkpt lat="46.20643614871754" lon="8.231820044961522"><ele>543.3333333333334</ele><time>2026-05-03T10:48:34Z</time></trkpt><trkpt lat="46.20640835571196" lon="8.23209708050086"><ele>542.6666666666666</ele><time>2026-05-03T10:48:35Z</time></trkpt><trkpt lat="46.20637060019818" lon="8.232371941428442"><ele>542.0</ele><time>2026-05-03T10:48:36Z</time></trkpt><trkpt lat="46.20633256340495" lon="8.232647259306088"><ele>540.0</ele><time>2026-05-03T10:48:37Z</time></trkpt><trkpt lat="46.20627091763461" lon="8.2329210663961"><ele>538.0</ele><time>2026-05-03T10:48:38Z</time></trkpt><trkpt lat="46.206220339364435" lon="8.23320340053821"><ele>536.0</ele><time>2026-05-03T10:48:39Z</time></trkpt><trkpt lat="46.20617797247312" lon="8.233490795744403"><ele>536.0</ele><time>2026-05-03T10:48:40Z</time></trkpt><trkpt lat="46.206144669646115" lon="8.233781251416815"><ele>536.0</ele><time>2026-05-03T10:48:41Z</time></trkpt><trkpt lat="46.206119427746344" lon="8.2340760284562"><ele>536.0</ele><time>2026-05-03T10:48:42Z</time></trkpt><trkpt lat="46.206102405409744" lon="8.234370113514805"><ele>536.3333333333333</ele><time>2026-05-03T10:48:43Z</time></trkpt><trkpt lat="46.20609732425675" lon="8.23465911744983"><ele>536.6666666666666</ele><time>2026-05-03T10:48:44Z</time></trkpt><trkpt lat="46.20610062765478" lon="8.234948486940192"><ele>537.0</ele><time>2026-05-03T10:48:45Z</time></trkpt><trkpt lat="46.206112801753726" lon="8.235237063102042"><ele>537.0</ele><time>2026-05-03T10:48:46Z</time></trkpt><trkpt lat="46.20613297986024" lon="8.235521704255772"><ele>537.0</ele><time>2026-05-03T10:48:47Z</time></trkpt><trkpt lat="46.20615918589603" lon="8.235805528263782"><ele>537.0</ele><time>2026-05-03T10:48:48Z</time></trkpt><trkpt lat="46.20619142503275" lon="8.236087101889838"><ele>537.0</ele><time>2026-05-03T10:48:49Z</time></trkpt><trkpt lat="46.20623059114279" lon="8.236367895331805"><ele>537.0</ele><time>2026-05-03T10:48:50Z</time></trkpt><trkpt lat="46.20627150002913" lon="8.236650674677698"><ele>537.0</ele><time>2026-05-03T10:48:51Z</time></trkpt><trkpt lat="46.20631047173108" lon="8.236935050783668"><ele>534.6666666666666</ele><time>2026-05-03T10:48:52Z</time></trkpt><trkpt lat="46.20634969378809" lon="8.237220173857695"><ele>532.3333333333333</ele><time>2026-05-03T10:48:53Z</time></trkpt><trkpt lat="46.20638962683997" lon="8.237507647226623"><ele>530.0</ele><time>2026-05-03T10:48:54Z</time></trkpt><trkpt lat="46.20642802593277" lon="8.237793672485962"><ele>528.6666666666666</ele><time>2026-05-03T10:48:55Z</time></trkpt><trkpt lat="46.206466783351274" lon="8.238078700503646"><ele>527.3333333333334</ele><time>2026-05-03T10:48:56Z</time></trkpt><trkpt lat="46.20650268236206" lon="8.238364564421117"><ele>526.0</ele><time>2026-05-03T10:48:57Z</time></trkpt><trkpt lat="46.20653824588271" lon="8.23864969551435"><ele>526.0</ele><time>2026-05-03T10:48:58Z</time></trkpt><trkpt lat="46.206574198147166" lon="8.238935155007503"><ele>526.0</ele><time>2026-05-03T10:48:59Z</time></trkpt><trkpt lat="46.20660983692691" lon="8.239216792388769"><ele>526.0</ele><time>2026-05-03T10:49:00Z</time></trkpt><trkpt lat="46.20664611691287" lon="8.239498223259321"><ele>525.3333333333334</ele><time>2026-05-03T10:49:01Z</time></trkpt><trkpt lat="46.20667661146297" lon="8.239779226837678"><ele>524.6666666666666</ele><time>2026-05-03T10:49:02Z</time></trkpt><trkpt lat="46.20669609728218" lon="8.240059423314285"><ele>524.0</ele><time>2026-05-03T10:49:03Z</time></trkpt><trkpt lat="46.20670441303381" lon="8.240339407140265"><ele>524.0</ele><time>2026-05-03T10:49:04Z</time></trkpt><trkpt lat="46.206703654176955" lon="8.240620289919125"><ele>524.0</ele><time>2026-05-03T10:49:05Z</time></trkpt><trkpt lat="46.20669515655276" lon="8.240902333376573"><ele>524.0</ele><time>2026-05-03T10:49:06Z</time></trkpt><trkpt lat="46.206677445183495" lon="8.241187295282693"><ele>523.3333333333333</ele><time>2026-05-03T10:49:07Z</time></trkpt><trkpt lat="46.206650930016345" lon="8.241470101550414"><ele>522.6666666666666</ele><time>2026-05-03T10:49:08Z</time></trkpt><trkpt lat="46.2066148721707" lon="8.2417552381259"><ele>522.0</ele><time>2026-05-03T10:49:09Z</time></trkpt><trkpt lat="46.206570005359765" lon="8.242036323102274"><ele>521.6666666666666</ele><time>2026-05-03T10:49:10Z</time></trkpt><trkpt lat="46.206517132227454" lon="8.242314124427295"><ele>521.3333333333333</ele><time>2026-05-03T10:49:11Z</time></trkpt><trkpt lat="46.206456254548776" lon="8.242589438974807"><ele>521.0</ele><time>2026-05-03T10:49:12Z</time></trkpt><trkpt lat="46.20639054619287" lon="8.242859990257704"><ele>517.3333333333333</ele><time>2026-05-03T10:49:13Z</time></trkpt><trkpt lat="46.206322294648935" lon="8.24313497999756"><ele>513.6666666666666</ele><time>2026-05-03T10:49:14Z</time></trkpt><trkpt lat="46.20625502895403" lon="8.24340980149354"><ele>510.0</ele><time>2026-05-03T10:49:15Z</time></trkpt><trkpt lat="46.206190538325195" lon="8.243678805083476"><ele>510.0</ele><time>2026-05-03T10:49:16Z</time></trkpt><trkpt lat="46.206127773975346" lon="8.243943523939665"><ele>510.0</ele><time>2026-05-03T10:49:17Z</time></trkpt><trkpt lat="46.20606414598639" lon="8.244201484232978"><ele>510.0</ele><time>2026-05-03T10:49:18Z</time></trkpt><trkpt lat="46.205995559323085" lon="8.244460558069774"><ele>510.0</ele><time>2026-05-03T10:49:19Z</time></trkpt><trkpt lat="46.20591793507283" lon="8.24471632891892"><ele>510.0</ele><time>2026-05-03T10:49:20Z</time></trkpt><trkpt lat="46.20582661744783" lon="8.244965968991425"><ele>510.0</ele><time>2026-05-03T10:49:21Z</time></trkpt><trkpt lat="46.20573078213637" lon="8.245213017318576"><ele>508.66666666666663</ele><time>2026-05-03T10:49:22Z</time></trkpt><trkpt lat="46.20562786478659" lon="8.245454566234478"><ele>507.3333333333333</ele><time>2026-05-03T10:49:23Z</time></trkpt><trkpt lat="46.20552050175299" lon="8.245694875140865"><ele>506.0</ele><time>2026-05-03T10:49:24Z</time></trkpt><trkpt lat="46.205408698729784" lon="8.245933422131746"><ele>505.66666666666663</ele><time>2026-05-03T10:49:25Z</time></trkpt><trkpt lat="46.205295112970525" lon="8.246176832777147"><ele>505.33333333333337</ele><time>2026-05-03T10:49:26Z</time></trkpt><trkpt lat="46.20518004663286" lon="8.24641814413342"><ele>505.0</ele><time>2026-05-03T10:49:27Z</time></trkpt><trkpt lat="46.20506691588872" lon="8.246660574563215"><ele>504.0</ele><time>2026-05-03T10:49:28Z</time></trkpt><trkpt lat="46.20495327701224" lon="8.246904205143286"><ele>503.0</ele><time>2026-05-03T10:49:29Z</time></trkpt><trkpt lat="46.204840865606165" lon="8.247147469247059"><ele>502.0</ele><time>2026-05-03T10:49:30Z</time></trkpt><trkpt lat="46.20472736474412" lon="8.24738551069666"><ele>502.0</ele><time>2026-05-03T10:49:31Z</time></trkpt><trkpt lat="46.204614458215616" lon="8.247623449837079"><ele>502.0</ele><time>2026-05-03T10:49:32Z</time></trkpt><trkpt lat="46.20450280075371" lon="8.247858743874003"><ele>502.0</ele><time>2026-05-03T10:49:33Z</time></trkpt><trkpt lat="46.204387793365576" lon="8.248093928218509"><ele>501.33333333333337</ele><time>2026-05-03T10:49:34Z</time></trkpt><trkpt lat="46.204278953246884" lon="8.248328383465527"><ele>500.66666666666663</ele><time>2026-05-03T10:49:35Z</time></trkpt><trkpt lat="46.20416835811342" lon="8.248562423979724"><ele>500.0</ele><time>2026-05-03T10:49:36Z</time></trkpt><trkpt lat="46.2040604244657" lon="8.248792978376159"><ele>499.3333333333333</ele><time>2026-05-03T10:49:37Z</time></trkpt><trkpt lat="46.203951563216634" lon="8.24902392470717"><ele>498.66666666666663</ele><time>2026-05-03T10:49:38Z</time></trkpt><trkpt lat="46.20384194528227" lon="8.249254737988004"><ele>498.0</ele><time>2026-05-03T10:49:39Z</time></trkpt><trkpt lat="46.20373443871524" lon="8.249485651867131"><ele>498.0</ele><time>2026-05-03T10:49:40Z</time></trkpt><trkpt lat="46.20362453356285" lon="8.249716718166951"><ele>498.0</ele><time>2026-05-03T10:49:41Z</time></trkpt><trkpt lat="46.20351555681583" lon="8.249946759922848"><ele>498.0</ele><time>2026-05-03T10:49:42Z</time></trkpt><trkpt lat="46.20340821620814" lon="8.25017821737195"><ele>498.66666666666663</ele><time>2026-05-03T10:49:43Z</time></trkpt><trkpt lat="46.20330265616999" lon="8.250406522513314"><ele>499.3333333333333</ele><time>2026-05-03T10:49:44Z</time></trkpt><trkpt lat="46.20319856855464" lon="8.250636565652094"><ele>500.0</ele><time>2026-05-03T10:49:45Z</time></trkpt><trkpt lat="46.20309520464825" lon="8.250871545021628"><ele>498.66666666666663</ele><time>2026-05-03T10:49:46Z</time></trkpt><trkpt lat="46.20299592347681" lon="8.251105829180089"><ele>497.33333333333337</ele><time>2026-05-03T10:49:47Z</time></trkpt><trkpt lat="46.20290150677017" lon="8.251344388762734"><ele>496.0</ele><time>2026-05-03T10:49:47.999Z</time></trkpt><trkpt lat="46.202807703330244" lon="8.251585502467353"><ele>496.0</ele><time>2026-05-03T10:49:48.999Z</time></trkpt><trkpt lat="46.202715129238214" lon="8.251823788877775"><ele>496.0</ele><time>2026-05-03T10:49:49.999Z</time></trkpt><trkpt lat="46.20261982810916" lon="8.252060571664488"><ele>496.0</ele><time>2026-05-03T10:49:50.999Z</time></trkpt><trkpt lat="46.20252493093128" lon="8.25229724024286"><ele>494.6666666666667</ele><time>2026-05-03T10:49:51.999Z</time></trkpt><trkpt lat="46.20243142540917" lon="8.252532519963344"><ele>493.33333333333337</ele><time>2026-05-03T10:49:52.999Z</time></trkpt><trkpt lat="46.202341685245095" lon="8.252765729870852"><ele>492.0</ele><time>2026-05-03T10:49:53.999Z</time></trkpt><trkpt lat="46.202244336379046" lon="8.252995901590856"><ele>493.0</ele><time>2026-05-03T10:49:54.999Z</time></trkpt><trkpt lat="46.202153989740964" lon="8.25322918491947"><ele>494.0</ele><time>2026-05-03T10:49:55.999Z</time></trkpt><trkpt lat="46.202062821278496" lon="8.2534600126193"><ele>495.0</ele><time>2026-05-03T10:49:56.999Z</time></trkpt><trkpt lat="46.201970779924004" lon="8.253689611808094"><ele>495.0</ele><time>2026-05-03T10:49:57.999Z</time></trkpt><trkpt lat="46.20187920535457" lon="8.253918674411192"><ele>495.0</ele><time>2026-05-03T10:49:58.999Z</time></trkpt><trkpt lat="46.20178720930479" lon="8.254149154676025"><ele>495.0</ele><time>2026-05-03T10:49:59.999Z</time></trkpt><trkpt lat="46.2016953830481" lon="8.25438480979652"><ele>495.33333333333337</ele><time>2026-05-03T10:50:00.999Z</time></trkpt><trkpt lat="46.20160281853015" lon="8.254618837656869"><ele>495.6666666666667</ele><time>2026-05-03T10:50:01.999Z</time></trkpt><trkpt lat="46.20151629378076" lon="8.254858922999045"><ele>496.0</ele><time>2026-05-03T10:50:02.999Z</time></trkpt><trkpt lat="46.20143149806322" lon="8.25510438162553"><ele>494.0</ele><time>2026-05-03T10:50:03.999Z</time></trkpt><trkpt lat="46.201350676486335" lon="8.255353653327662"><ele>492.0</ele><time>2026-05-03T10:50:04.999Z</time></trkpt><trkpt lat="46.201263199940605" lon="8.25559819853371"><ele>490.0</ele><time>2026-05-03T10:50:05.999Z</time></trkpt><trkpt lat="46.2011925954995" lon="8.255857662497037"><ele>488.33333333333337</ele><time>2026-05-03T10:50:06.999Z</time></trkpt><trkpt lat="46.201141121245186" lon="8.25612041731495"><ele>486.66666666666663</ele><time>2026-05-03T10:50:07.999Z</time></trkpt><trkpt lat="46.20108064569051" lon="8.256377834508534"><ele>485.0</ele><time>2026-05-03T10:50:08.999Z</time></trkpt><trkpt lat="46.201008811616695" lon="8.256629422560183"><ele>485.0</ele><time>2026-05-03T10:50:09.999Z</time></trkpt><trkpt lat="46.200955630491364" lon="8.256894869843698"><ele>485.0</ele><time>2026-05-03T10:50:10.999Z</time></trkpt><trkpt lat="46.20092435288544" lon="8.25716261489325"><ele>485.0</ele><time>2026-05-03T10:50:11.999Z</time></trkpt><trkpt lat="46.200880906419584" lon="8.25742582995542"><ele>484.0</ele><time>2026-05-03T10:50:12.999Z</time></trkpt><trkpt lat="46.20084411564193" lon="8.257692966417636"><ele>483.0</ele><time>2026-05-03T10:50:13.999Z</time></trkpt><trkpt lat="46.2008116778952" lon="8.257957460589838"><ele>482.0</ele><time>2026-05-03T10:50:14.999Z</time></trkpt><trkpt lat="46.200778987149036" lon="8.258218298002012"><ele>480.3333333333333</ele><time>2026-05-03T10:50:15.999Z</time></trkpt><trkpt lat="46.200745369489944" lon="8.258479088307153"><ele>478.66666666666663</ele><time>2026-05-03T10:50:16.999Z</time></trkpt><trkpt lat="46.20071159448574" lon="8.258738962769193"><ele>477.0</ele><time>2026-05-03T10:50:17.999Z</time></trkpt><trkpt lat="46.20067692488958" lon="8.258996195325585"><ele>483.33333333333337</ele><time>2026-05-03T10:50:18.999Z</time></trkpt><trkpt lat="46.20064443609334" lon="8.259254527838392"><ele>489.6666666666667</ele><time>2026-05-03T10:50:19.999Z</time></trkpt><trkpt lat="46.20060956777972" lon="8.259521541603732"><ele>496.0</ele><time>2026-05-03T10:50:21Z</time></trkpt><trkpt lat="46.20057369073425" lon="8.259791148790654"><ele>496.0</ele><time>2026-05-03T10:50:22Z</time></trkpt><trkpt lat="46.20053784489212" lon="8.26006801580651"><ele>496.0</ele><time>2026-05-03T10:50:23Z</time></trkpt><trkpt lat="46.200501849263" lon="8.260344224207133"><ele>496.0</ele><time>2026-05-03T10:50:24Z</time></trkpt><trkpt lat="46.200465231428375" lon="8.260627273353897"><ele>491.0</ele><time>2026-05-03T10:50:25Z</time></trkpt><trkpt lat="46.200427463309445" lon="8.260909936658559"><ele>486.0</ele><time>2026-05-03T10:50:26Z</time></trkpt><trkpt lat="46.20039054896254" lon="8.26119253144643"><ele>481.0</ele><time>2026-05-03T10:50:27Z</time></trkpt><trkpt lat="46.20035356145794" lon="8.261480347127831"><ele>478.0</ele><time>2026-05-03T10:50:28Z</time></trkpt><trkpt lat="46.20031597706629" lon="8.261767709531723"><ele>475.0</ele><time>2026-05-03T10:50:29Z</time></trkpt><trkpt lat="46.20027899337256" lon="8.262054080643788"><ele>472.0</ele><time>2026-05-03T10:50:30Z</time></trkpt><trkpt lat="46.20024267759754" lon="8.262340820768802"><ele>472.0</ele><time>2026-05-03T10:50:31Z</time></trkpt><trkpt lat="46.20020420021593" lon="8.262621416819066"><ele>472.0</ele><time>2026-05-03T10:50:32Z</time></trkpt><trkpt lat="46.200167224220706" lon="8.262903221967475"><ele>472.0</ele><time>2026-05-03T10:50:33Z</time></trkpt><trkpt lat="46.200130189097166" lon="8.263186591033683"><ele>474.33333333333337</ele><time>2026-05-03T10:50:34Z</time></trkpt><trkpt lat="46.2000955967813" lon="8.263463982504673"><ele>476.66666666666663</ele><time>2026-05-03T10:50:35Z</time></trkpt><trkpt lat="46.200060509429555" lon="8.26374621478546"><ele>479.0</ele><time>2026-05-03T10:50:36Z</time></trkpt><trkpt lat="46.20002569650536" lon="8.264025403909498"><ele>480.0</ele><time>2026-05-03T10:50:37Z</time></trkpt><trkpt lat="46.19999012503945" lon="8.264303710179249"><ele>481.0</ele><time>2026-05-03T10:50:38Z</time></trkpt><trkpt lat="46.19995450943037" lon="8.264581934149783"><ele>482.0</ele><time>2026-05-03T10:50:39Z</time></trkpt><trkpt lat="46.199912785404834" lon="8.264862149132975"><ele>482.0</ele><time>2026-05-03T10:50:40Z</time></trkpt><trkpt lat="46.19987280069772" lon="8.265136472551672"><ele>482.0</ele><time>2026-05-03T10:50:41Z</time></trkpt><trkpt lat="46.19982653214278" lon="8.265413009775529"><ele>482.0</ele><time>2026-05-03T10:50:42Z</time></trkpt><trkpt lat="46.199773208831374" lon="8.265682306204958"><ele>478.3333333333333</ele><time>2026-05-03T10:50:43Z</time></trkpt><trkpt lat="46.19971306905946" lon="8.265948391964521"><ele>474.66666666666663</ele><time>2026-05-03T10:50:44Z</time></trkpt><trkpt lat="46.199647283654414" lon="8.26621361835247"><ele>471.0</ele><time>2026-05-03T10:50:45Z</time></trkpt><trkpt lat="46.19957501328161" lon="8.266475587837363"><ele>471.0</ele><time>2026-05-03T10:50:46Z</time></trkpt><trkpt lat="46.19949712679494" lon="8.266733466746153"><ele>471.0</ele><time>2026-05-03T10:50:47Z</time></trkpt><trkpt lat="46.199413840718776" lon="8.266984757565673"><ele>471.0</ele><time>2026-05-03T10:50:48Z</time></trkpt><trkpt lat="46.19932637573967" lon="8.267230639769338"><ele>471.0</ele><time>2026-05-03T10:50:49Z</time></trkpt><trkpt lat="46.19923155029721" lon="8.267470947717042"><ele>471.0</ele><time>2026-05-03T10:50:50Z</time></trkpt><trkpt lat="46.1991308264617" lon="8.267708135527363"><ele>471.0</ele><time>2026-05-03T10:50:51Z</time></trkpt><trkpt lat="46.19902376754127" lon="8.26794306337423"><ele>469.66666666666663</ele><time>2026-05-03T10:50:52Z</time></trkpt><trkpt lat="46.19891192992027" lon="8.268175674525764"><ele>468.3333333333333</ele><time>2026-05-03T10:50:53Z</time></trkpt><trkpt lat="46.198795674112084" lon="8.26840280453145"><ele>467.0</ele><time>2026-05-03T10:50:54Z</time></trkpt><trkpt lat="46.198673508612885" lon="8.268625527708828"><ele>467.0</ele><time>2026-05-03T10:50:55Z</time></trkpt><trkpt lat="46.19854654462976" lon="8.268850927649444"><ele>467.0</ele><time>2026-05-03T10:50:56Z</time></trkpt><trkpt lat="46.19841735690812" lon="8.269075333926677"><ele>467.0</ele><time>2026-05-03T10:50:57Z</time></trkpt><trkpt lat="46.19828716881372" lon="8.269299864061466"><ele>466.3333333333333</ele><time>2026-05-03T10:50:58Z</time></trkpt><trkpt lat="46.19815685537626" lon="8.269527042239806"><ele>465.66666666666663</ele><time>2026-05-03T10:50:59Z</time></trkpt><trkpt lat="46.19802532117074" lon="8.269754016659789"><ele>465.0</ele><time>2026-05-03T10:51:00Z</time></trkpt><trkpt lat="46.19789258906594" lon="8.269981748054445"><ele>465.0</ele><time>2026-05-03T10:51:01Z</time></trkpt><trkpt lat="46.197757600111814" lon="8.270207987037038"><ele>465.0</ele><time>2026-05-03T10:51:02Z</time></trkpt><trkpt lat="46.1976169346207" lon="8.270428177722449"><ele>465.0</ele><time>2026-05-03T10:51:03Z</time></trkpt><trkpt lat="46.19746961253959" lon="8.270635706486495"><ele>463.33333333333337</ele><time>2026-05-03T10:51:04Z</time></trkpt><trkpt lat="46.19731954642795" lon="8.270825395652391"><ele>461.6666666666667</ele><time>2026-05-03T10:51:05Z</time></trkpt><trkpt lat="46.197167128151804" lon="8.271011057190792"><ele>460.0</ele><time>2026-05-03T10:51:06Z</time></trkpt><trkpt lat="46.19701113136355" lon="8.271192891178021"><ele>460.0</ele><time>2026-05-03T10:51:07Z</time></trkpt><trkpt lat="46.196847312507266" lon="8.27136407115071"><ele>460.0</ele><time>2026-05-03T10:51:08Z</time></trkpt><trkpt lat="46.19667960719609" lon="8.271523726063025"><ele>460.0</ele><time>2026-05-03T10:51:09Z</time></trkpt><trkpt lat="46.19650707595222" lon="8.27167449411138"><ele>458.6666666666667</ele><time>2026-05-03T10:51:10Z</time></trkpt><trkpt lat="46.196331823639035" lon="8.271818919318692"><ele>457.33333333333337</ele><time>2026-05-03T10:51:11Z</time></trkpt><trkpt lat="46.196154441216706" lon="8.271951835455267"><ele>456.0</ele><time>2026-05-03T10:51:12Z</time></trkpt><trkpt lat="46.195975269168564" lon="8.272071559700397"><ele>456.0</ele><time>2026-05-03T10:51:13Z</time></trkpt><trkpt lat="46.19579679362853" lon="8.272179504778945"><ele>456.0</ele><time>2026-05-03T10:51:14Z</time></trkpt><trkpt lat="46.19561765891192" lon="8.2722796759731"><ele>456.0</ele><time>2026-05-03T10:51:15Z</time></trkpt><trkpt lat="46.1954379025874" lon="8.27237088408584"><ele>457.33333333333337</ele><time>2026-05-03T10:51:16Z</time></trkpt><trkpt lat="46.19525317062428" lon="8.27245458823737"><ele>458.6666666666667</ele><time>2026-05-03T10:51:17Z</time></trkpt><trkpt lat="46.195067316646956" lon="8.272528947174067"><ele>460.0</ele><time>2026-05-03T10:51:18Z</time></trkpt><trkpt lat="46.19487958407091" lon="8.272591741868814"><ele>459.33333333333337</ele><time>2026-05-03T10:51:19Z</time></trkpt><trkpt lat="46.19469163245828" lon="8.272644331769769"><ele>458.66666666666663</ele><time>2026-05-03T10:51:20Z</time></trkpt><trkpt lat="46.194500888804775" lon="8.27269434536205"><ele>458.0</ele><time>2026-05-03T10:51:21Z</time></trkpt><trkpt lat="46.19431100932076" lon="8.272745296278723"><ele>458.0</ele><time>2026-05-03T10:51:22Z</time></trkpt><trkpt lat="46.194120296777385" lon="8.272796321913"><ele>458.0</ele><time>2026-05-03T10:51:23Z</time></trkpt><trkpt lat="46.19392979092984" lon="8.272848601638955"><ele>458.0</ele><time>2026-05-03T10:51:24Z</time></trkpt><trkpt lat="46.193740137368614" lon="8.272900365946676"><ele>457.0</ele><time>2026-05-03T10:51:25Z</time></trkpt><trkpt lat="46.193549410584865" lon="8.272952938088785"><ele>456.0</ele><time>2026-05-03T10:51:26Z</time></trkpt><trkpt lat="46.193358512050615" lon="8.273007305159163"><ele>455.0</ele><time>2026-05-03T10:51:27Z</time></trkpt><trkpt lat="46.19316700192419" lon="8.273061228568627"><ele>456.0</ele><time>2026-05-03T10:51:28Z</time></trkpt><trkpt lat="46.192975891548144" lon="8.273115898630467"><ele>457.0</ele><time>2026-05-03T10:51:29Z</time></trkpt><trkpt lat="46.192784307719116" lon="8.273176606355298"><ele>458.0</ele><time>2026-05-03T10:51:30Z</time></trkpt><trkpt lat="46.192594794401806" lon="8.273250071672411"><ele>458.0</ele><time>2026-05-03T10:51:31Z</time></trkpt><trkpt lat="46.192405965537866" lon="8.273340744633353"><ele>458.0</ele><time>2026-05-03T10:51:32Z</time></trkpt><trkpt lat="46.192218238239846" lon="8.273445600997768"><ele>458.0</ele><time>2026-05-03T10:51:33Z</time></trkpt><trkpt lat="46.19203335706865" lon="8.273558649336739"><ele>459.3333333333333</ele><time>2026-05-03T10:51:34Z</time></trkpt><trkpt lat="46.19185309586883" lon="8.273684061674393"><ele>460.66666666666663</ele><time>2026-05-03T10:51:35Z</time></trkpt><trkpt lat="46.19167789817169" lon="8.273821783392963"><ele>462.0</ele><time>2026-05-03T10:51:36Z</time></trkpt><trkpt lat="46.191507865386676" lon="8.27397356568868"><ele>455.33333333333337</ele><time>2026-05-03T10:51:37Z</time></trkpt><trkpt lat="46.191343462940495" lon="8.274140494650924"><ele>448.6666666666667</ele><time>2026-05-03T10:51:38Z</time></trkpt><trkpt lat="46.19118341162382" lon="8.274314849234699"><ele>442.0</ele><time>2026-05-03T10:51:39Z</time></trkpt><trkpt lat="46.19103138142655" lon="8.274501814334108"><ele>442.0</ele><time>2026-05-03T10:51:40Z</time></trkpt><trkpt lat="46.190885616669085" lon="8.274701429427884"><ele>442.0</ele><time>2026-05-03T10:51:41Z</time></trkpt><trkpt lat="46.1907453033347" lon="8.27490726910192"><ele>442.0</ele><time>2026-05-03T10:51:42Z</time></trkpt><trkpt lat="46.19061020753917" lon="8.275113540162513"><ele>440.6666666666667</ele><time>2026-05-03T10:51:43Z</time></trkpt><trkpt lat="46.19047761144924" lon="8.275324028449926"><ele>439.33333333333337</ele><time>2026-05-03T10:51:44Z</time></trkpt><trkpt lat="46.19034395566818" lon="8.27553589840927"><ele>438.0</ele><time>2026-05-03T10:51:45Z</time></trkpt><trkpt lat="46.1902072309138" lon="8.27574673125742"><ele>437.0</ele><time>2026-05-03T10:51:46Z</time></trkpt><trkpt lat="46.190070086671035" lon="8.275956727730414"><ele>436.0</ele><time>2026-05-03T10:51:47Z</time></trkpt><trkpt lat="46.18992943988391" lon="8.276163130077391"><ele>435.0</ele><time>2026-05-03T10:51:48Z</time></trkpt><trkpt lat="46.18978570511683" lon="8.276359121481962"><ele>437.66666666666663</ele><time>2026-05-03T10:51:49Z</time></trkpt><trkpt lat="46.1896324008144" lon="8.276533585221511"><ele>440.3333333333333</ele><time>2026-05-03T10:51:50Z</time></trkpt><trkpt lat="46.189471203015785" lon="8.276685498914443"><ele>443.0</ele><time>2026-05-03T10:51:51Z</time></trkpt><trkpt lat="46.189302201976005" lon="8.276823983652562"><ele>443.0</ele><time>2026-05-03T10:51:51.999Z</time></trkpt><trkpt lat="46.18912441531173" lon="8.276941326290638"><ele>443.0</ele><time>2026-05-03T10:51:52.999Z</time></trkpt><trkpt lat="46.18894304858362" lon="8.27704466914105"><ele>443.0</ele><time>2026-05-03T10:51:53.999Z</time></trkpt><trkpt lat="46.18875759063319" lon="8.277134608525998"><ele>444.66666666666663</ele><time>2026-05-03T10:51:54.999Z</time></trkpt><trkpt lat="46.18856840394298" lon="8.277205759781477"><ele>446.33333333333337</ele><time>2026-05-03T10:51:55.999Z</time></trkpt><trkpt lat="46.18837760164387" lon="8.277264855024525"><ele>448.0</ele><time>2026-05-03T10:51:56.999Z</time></trkpt><trkpt lat="46.18818890446201" lon="8.277330185519444"><ele>444.33333333333337</ele><time>2026-05-03T10:51:57.999Z</time></trkpt><trkpt lat="46.18800379203297" lon="8.277415685039442"><ele>440.66666666666663</ele><time>2026-05-03T10:51:58.999Z</time></trkpt><trkpt lat="46.18782352983803" lon="8.277519196359549"><ele>437.0</ele><time>2026-05-03T10:51:59.999Z</time></trkpt><trkpt lat="46.18764845590367" lon="8.27763563277749"><ele>437.0</ele><time>2026-05-03T10:52:00.999Z</time></trkpt><trkpt lat="46.1874805466578" lon="8.277767788237487"><ele>437.0</ele><time>2026-05-03T10:52:01.999Z</time></trkpt><trkpt lat="46.18732292996569" lon="8.277917671191588"><ele>437.0</ele><time>2026-05-03T10:52:02.999Z</time></trkpt><trkpt lat="46.18717304030031" lon="8.27807816464701"><ele>435.3333333333333</ele><time>2026-05-03T10:52:03.999Z</time></trkpt><trkpt lat="46.1870312866692" lon="8.278247947927659"><ele>433.66666666666663</ele><time>2026-05-03T10:52:04.999Z</time></trkpt><trkpt lat="46.18689585847986" lon="8.2784174162269"><ele>432.0</ele><time>2026-05-03T10:52:05.999Z</time></trkpt><trkpt lat="46.18676137006212" lon="8.278581039049886"><ele>432.0</ele><time>2026-05-03T10:52:06.999Z</time></trkpt><trkpt lat="46.18662154363751" lon="8.278722694828895"><ele>432.0</ele><time>2026-05-03T10:52:07.999Z</time></trkpt><trkpt lat="46.18645749097218" lon="8.27885421136187"><ele>432.0</ele><time>2026-05-03T10:52:08.999Z</time></trkpt><trkpt lat="46.18627727595761" lon="8.278978040066253"><ele>432.0</ele><time>2026-05-03T10:52:09.999Z</time></trkpt><trkpt lat="46.186106623028294" lon="8.27907427029842"><ele>432.0</ele><time>2026-05-03T10:52:10.999Z</time></trkpt><trkpt lat="46.18592561565583" lon="8.279151952588128"><ele>432.0</ele><time>2026-05-03T10:52:11.999Z</time></trkpt><trkpt lat="46.185752318713384" lon="8.279216347275039"><ele>429.0</ele><time>2026-05-03T10:52:12.999Z</time></trkpt><trkpt lat="46.18557051432298" lon="8.279289663650333"><ele>426.0</ele><time>2026-05-03T10:52:13.999Z</time></trkpt><trkpt lat="46.185373058648665" lon="8.279340504931081"><ele>423.0</ele><time>2026-05-03T10:52:14.999Z</time></trkpt><trkpt lat="46.18524068860396" lon="8.27939656828337"><ele>423.0</ele><time>2026-05-03T10:52:15.999Z</time></trkpt><trkpt lat="46.18504597068835" lon="8.279452278352117"><ele>423.0</ele><time>2026-05-03T10:52:16.999Z</time></trkpt><trkpt lat="46.1848471461643" lon="8.279470136657952"><ele>423.0</ele><time>2026-05-03T10:52:17.999Z</time></trkpt><trkpt lat="46.184640503733085" lon="8.279501438712204"><ele>422.33333333333337</ele><time>2026-05-03T10:52:18.999Z</time></trkpt><trkpt lat="46.18442716360507" lon="8.279548313675491"><ele>421.6666666666667</ele><time>2026-05-03T10:52:19.999Z</time></trkpt><trkpt lat="46.184213519208164" lon="8.279586463961632"><ele>421.0</ele><time>2026-05-03T10:52:20.999Z</time></trkpt><trkpt lat="46.18400625655539" lon="8.279615432879167"><ele>420.0</ele><time>2026-05-03T10:52:21.999Z</time></trkpt><trkpt lat="46.18379909917394" lon="8.279647228853749"><ele>419.0</ele><time>2026-05-03T10:52:22.999Z</time></trkpt><trkpt lat="46.18360018225918" lon="8.279679899860456"><ele>418.0</ele><time>2026-05-03T10:52:23.999Z</time></trkpt><trkpt lat="46.183403834011926" lon="8.279708926769752"><ele>418.0</ele><time>2026-05-03T10:52:24.999Z</time></trkpt><trkpt lat="46.18320593763151" lon="8.279737609844041"><ele>418.0</ele><time>2026-05-03T10:52:25.999Z</time></trkpt><trkpt lat="46.1830082305064" lon="8.279765641272236"><ele>418.0</ele><time>2026-05-03T10:52:27Z</time></trkpt><trkpt lat="46.18281365562796" lon="8.27980758731388"><ele>420.6666666666667</ele><time>2026-05-03T10:52:28Z</time></trkpt><trkpt lat="46.18262058000987" lon="8.279839919369175"><ele>423.33333333333337</ele><time>2026-05-03T10:52:29Z</time></trkpt><trkpt lat="46.18242617248906" lon="8.279876138443647"><ele>426.0</ele><time>2026-05-03T10:52:30Z</time></trkpt><trkpt lat="46.182226950024834" lon="8.279914234585547"><ele>426.0</ele><time>2026-05-03T10:52:31Z</time></trkpt><trkpt lat="46.182027885765216" lon="8.279949608603586"><ele>426.0</ele><time>2026-05-03T10:52:32Z</time></trkpt><trkpt lat="46.18183315235027" lon="8.279980328720699"><ele>426.0</ele><time>2026-05-03T10:52:33Z</time></trkpt><trkpt lat="46.181631607859295" lon="8.280012345686174"><ele>422.33333333333337</ele><time>2026-05-03T10:52:34Z</time></trkpt><trkpt lat="46.18143315409777" lon="8.280047405932818"><ele>418.6666666666667</ele><time>2026-05-03T10:52:35Z</time></trkpt><trkpt lat="46.181230899240475" lon="8.280076687881342"><ele>415.0</ele><time>2026-05-03T10:52:36Z</time></trkpt><trkpt lat="46.18102636653111" lon="8.280106520612852"><ele>415.0</ele><time>2026-05-03T10:52:37Z</time></trkpt><trkpt lat="46.18082372419685" lon="8.280144646021023"><ele>415.0</ele><time>2026-05-03T10:52:38Z</time></trkpt><trkpt lat="46.18062246218609" lon="8.280179331131057"><ele>415.0</ele><time>2026-05-03T10:52:39Z</time></trkpt><trkpt lat="46.18042559702656" lon="8.280218878528858"><ele>414.0</ele><time>2026-05-03T10:52:40Z</time></trkpt><trkpt lat="46.180233772105645" lon="8.280253071887199"><ele>413.0</ele><time>2026-05-03T10:52:41Z</time></trkpt><trkpt lat="46.18004370147235" lon="8.280286652725069"><ele>412.0</ele><time>2026-05-03T10:52:42Z</time></trkpt><trkpt lat="46.17985621243589" lon="8.280320426969116"><ele>411.6666666666667</ele><time>2026-05-03T10:52:43Z</time></trkpt><trkpt lat="46.179671406936244" lon="8.280350591331606"><ele>411.33333333333337</ele><time>2026-05-03T10:52:44Z</time></trkpt><trkpt lat="46.17948893908307" lon="8.280377538364911"><ele>411.0</ele><time>2026-05-03T10:52:45Z</time></trkpt><trkpt lat="46.17930940363871" lon="8.280406957093636"><ele>411.0</ele><time>2026-05-03T10:52:46Z</time></trkpt><trkpt lat="46.1791314174156" lon="8.280431884161196"><ele>411.0</ele><time>2026-05-03T10:52:47Z</time></trkpt><trkpt lat="46.178956466371694" lon="8.280458214442247"><ele>411.0</ele><time>2026-05-03T10:52:48Z</time></trkpt><trkpt lat="46.178780401384124" lon="8.280486982368467"><ele>410.66666666666663</ele><time>2026-05-03T10:52:49Z</time></trkpt><trkpt lat="46.178602305226114" lon="8.280519479533679"><ele>410.3333333333333</ele><time>2026-05-03T10:52:50Z</time></trkpt><trkpt lat="46.178422849635005" lon="8.280551363709971"><ele>410.0</ele><time>2026-05-03T10:52:51Z</time></trkpt><trkpt lat="46.17824233299829" lon="8.28058654928084"><ele>411.0</ele><time>2026-05-03T10:52:52Z</time></trkpt><trkpt lat="46.178064395019355" lon="8.28062166725751"><ele>412.0</ele><time>2026-05-03T10:52:53Z</time></trkpt><trkpt lat="46.17788467923772" lon="8.280658489852188"><ele>413.0</ele><time>2026-05-03T10:52:54Z</time></trkpt><trkpt lat="46.177705335225866" lon="8.280672769640367"><ele>413.0</ele><time>2026-05-03T10:52:55Z</time></trkpt><trkpt lat="46.17752905835603" lon="8.280730758716228"><ele>413.0</ele><time>2026-05-03T10:52:56Z</time></trkpt><trkpt lat="46.177353208042064" lon="8.280780125000383"><ele>413.0</ele><time>2026-05-03T10:52:57Z</time></trkpt><trkpt lat="46.17717731610639" lon="8.280837939526695"><ele>410.0</ele><time>2026-05-03T10:52:58Z</time></trkpt><trkpt lat="46.17699841243759" lon="8.280883863209644"><ele>407.0</ele><time>2026-05-03T10:52:59Z</time></trkpt><trkpt lat="46.17682942055601" lon="8.280981971834183"><ele>404.0</ele><time>2026-05-03T10:53:00Z</time></trkpt><trkpt lat="46.176653589186145" lon="8.281046534934719"><ele>404.66666666666663</ele><time>2026-05-03T10:53:01Z</time></trkpt><trkpt lat="46.17648551011379" lon="8.281142303031986"><ele>405.33333333333337</ele><time>2026-05-03T10:53:02Z</time></trkpt><trkpt lat="46.17632087835765" lon="8.281247997331482"><ele>406.0</ele><time>2026-05-03T10:53:03Z</time></trkpt><trkpt lat="46.17615737837349" lon="8.28136000516521"><ele>406.33333333333337</ele><time>2026-05-03T10:53:04Z</time></trkpt><trkpt lat="46.175996489828385" lon="8.281483996597593"><ele>406.66666666666663</ele><time>2026-05-03T10:53:05Z</time></trkpt><trkpt lat="46.1758468726657" lon="8.281639939623647"><ele>407.0</ele><time>2026-05-03T10:53:06Z</time></trkpt><trkpt lat="46.17569118023729" lon="8.281785457484808"><ele>405.0</ele><time>2026-05-03T10:53:07Z</time></trkpt><trkpt lat="46.17554338762615" lon="8.281937372758698"><ele>403.0</ele><time>2026-05-03T10:53:08Z</time></trkpt><trkpt lat="46.17540158903986" lon="8.282093978836507"><ele>401.0</ele><time>2026-05-03T10:53:09Z</time></trkpt><trkpt lat="46.17526912318157" lon="8.282250756766619"><ele>405.0</ele><time>2026-05-03T10:53:10Z</time></trkpt><trkpt lat="46.17514052594449" lon="8.282412669388648"><ele>409.0</ele><time>2026-05-03T10:53:11Z</time></trkpt><trkpt lat="46.175017028018736" lon="8.282580085168322"><ele>413.0</ele><time>2026-05-03T10:53:12Z</time></trkpt><trkpt lat="46.17489183389849" lon="8.282751508955569"><ele>411.0</ele><time>2026-05-03T10:53:13Z</time></trkpt><trkpt lat="46.17476844534837" lon="8.282924168397454"><ele>409.0</ele><time>2026-05-03T10:53:14Z</time></trkpt><trkpt lat="46.17464774306766" lon="8.283100235782756"><ele>407.0</ele><time>2026-05-03T10:53:15Z</time></trkpt><trkpt lat="46.174517803682086" lon="8.283281723992015"><ele>429.5</ele><time>2026-05-03T10:53:16.053Z</time></trkpt><trkpt lat="46.17439299002792" lon="8.283452687103212"><ele>452.0</ele><time>2026-05-03T10:53:17.055Z</time></trkpt><trkpt lat="46.17364768053426" lon="8.286171884077175"><ele>338.0</ele><time>2026-05-03T10:53:20.434Z</time></trkpt><trkpt lat="46.167679383068524" lon="8.309815946493966"><ele>338.0</ele><time>2026-05-03T10:54:58.999Z</time></trkpt><trkpt lat="46.16753371260316" lon="8.310005337593656"><ele>338.0</ele><time>2026-05-03T10:54:59.999Z</time></trkpt><trkpt lat="46.16737280860934" lon="8.310196967257083"><ele>338.0</ele><time>2026-05-03T10:55:00.999Z</time></trkpt><trkpt lat="46.167223408332625" lon="8.310356560676123"><ele>338.0</ele><time>2026-05-03T10:55:01.999Z</time></trkpt><trkpt lat="46.16705799353385" lon="8.310539806992304"><ele>338.0</ele><time>2026-05-03T10:55:02.999Z</time></trkpt><trkpt lat="46.16689577926134" lon="8.310715936940188"><ele>338.0</ele><time>2026-05-03T10:55:03.999Z</time></trkpt><trkpt lat="46.166730888534914" lon="8.310839258493269"><ele>331.33333333333337</ele><time>2026-05-03T10:55:05Z</time></trkpt><trkpt lat="46.166560670172984" lon="8.310977926288016"><ele>324.6666666666667</ele><time>2026-05-03T10:55:06Z</time></trkpt><trkpt lat="46.16638189094308" lon="8.311104710065562"><ele>318.0</ele><time>2026-05-03T10:55:07Z</time></trkpt><trkpt lat="46.16620870857466" lon="8.311222207025907"><ele>318.0</ele><time>2026-05-03T10:55:08Z</time></trkpt><trkpt lat="46.166024229468825" lon="8.3113238512743"><ele>318.0</ele><time>2026-05-03T10:55:09Z</time></trkpt><trkpt lat="46.16583364864816" lon="8.31142052289892"><ele>318.0</ele><time>2026-05-03T10:55:10Z</time></trkpt><trkpt lat="46.16564217694784" lon="8.311508204956034"><ele>317.3333333333333</ele><time>2026-05-03T10:55:11Z</time></trkpt><trkpt lat="46.16544826137553" lon="8.311586239460484"><ele>316.66666666666663</ele><time>2026-05-03T10:55:12Z</time></trkpt><trkpt lat="46.16525615149387" lon="8.311649607843126"><ele>316.0</ele><time>2026-05-03T10:55:13Z</time></trkpt><trkpt lat="46.1650538432428" lon="8.311698149936284"><ele>316.3333333333333</ele><time>2026-05-03T10:55:14Z</time></trkpt><trkpt lat="46.164850674504656" lon="8.311738112853662"><ele>316.6666666666667</ele><time>2026-05-03T10:55:15Z</time></trkpt><trkpt lat="46.164658654370456" lon="8.311765626297591"><ele>317.0</ele><time>2026-05-03T10:55:16Z</time></trkpt><trkpt lat="46.16446053405554" lon="8.311802398578038"><ele>317.0</ele><time>2026-05-03T10:55:17Z</time></trkpt><trkpt lat="46.16426328502032" lon="8.311836768255018"><ele>317.0</ele><time>2026-05-03T10:55:18Z</time></trkpt><trkpt lat="46.16406222323917" lon="8.311875788392427"><ele>317.0</ele><time>2026-05-03T10:55:19Z</time></trkpt><trkpt lat="46.16386396793437" lon="8.31191132187546"><ele>315.33333333333337</ele><time>2026-05-03T10:55:20Z</time></trkpt><trkpt lat="46.16366677731957" lon="8.311942084520608"><ele>313.6666666666667</ele><time>2026-05-03T10:55:21Z</time></trkpt><trkpt lat="46.16346395308979" lon="8.311990830253018"><ele>312.0</ele><time>2026-05-03T10:55:22Z</time></trkpt><trkpt lat="46.163265796205046" lon="8.312034298652184"><ele>311.6666666666667</ele><time>2026-05-03T10:55:23Z</time></trkpt><trkpt lat="46.16306372292011" lon="8.312069009160306"><ele>311.33333333333337</ele><time>2026-05-03T10:55:24Z</time></trkpt><trkpt lat="46.16286063204094" lon="8.312108273682489"><ele>311.0</ele><time>2026-05-03T10:55:25Z</time></trkpt><trkpt lat="46.162659817059144" lon="8.31214813906567"><ele>311.0</ele><time>2026-05-03T10:55:26Z</time></trkpt><trkpt lat="46.16245566537724" lon="8.312190618565259"><ele>311.0</ele><time>2026-05-03T10:55:27Z</time></trkpt><trkpt lat="46.162250333255294" lon="8.312229154974258"><ele>311.0</ele><time>2026-05-03T10:55:28Z</time></trkpt><trkpt lat="46.162044439843875" lon="8.312269450353126"><ele>311.33333333333337</ele><time>2026-05-03T10:55:29Z</time></trkpt><trkpt lat="46.16183880101212" lon="8.312307242003579"><ele>311.6666666666667</ele><time>2026-05-03T10:55:30Z</time></trkpt><trkpt lat="46.16163190437309" lon="8.312349618601075"><ele>312.0</ele><time>2026-05-03T10:55:31Z</time></trkpt><trkpt lat="46.16142507820942" lon="8.31239269283905"><ele>312.0</ele><time>2026-05-03T10:55:32Z</time></trkpt><trkpt lat="46.16121800039201" lon="8.3124324927836"><ele>312.0</ele><time>2026-05-03T10:55:33Z</time></trkpt><trkpt lat="46.1610120478719" lon="8.3124701344709"><ele>312.0</ele><time>2026-05-03T10:55:34Z</time></trkpt><trkpt lat="46.16080621638747" lon="8.312508115910362"><ele>311.3333333333333</ele><time>2026-05-03T10:55:35Z</time></trkpt><trkpt lat="46.16059972649409" lon="8.312545963741158"><ele>310.66666666666663</ele><time>2026-05-03T10:55:36Z</time></trkpt><trkpt lat="46.16039827553715" lon="8.312583933151709"><ele>310.0</ele><time>2026-05-03T10:55:37Z</time></trkpt><trkpt lat="46.16019470482991" lon="8.31262390693416"><ele>310.0</ele><time>2026-05-03T10:55:38Z</time></trkpt><trkpt lat="46.15999425297037" lon="8.312664971464004"><ele>310.0</ele><time>2026-05-03T10:55:39Z</time></trkpt><trkpt lat="46.15979387425538" lon="8.312704682003366"><ele>310.0</ele><time>2026-05-03T10:55:40Z</time></trkpt><trkpt lat="46.15959497840132" lon="8.31274161060078"><ele>309.66666666666663</ele><time>2026-05-03T10:55:41Z</time></trkpt><trkpt lat="46.159397481761474" lon="8.312780538364175"><ele>309.3333333333333</ele><time>2026-05-03T10:55:42Z</time></trkpt><trkpt lat="46.15920511296435" lon="8.312814037213169"><ele>309.0</ele><time>2026-05-03T10:55:43Z</time></trkpt><trkpt lat="46.15901728378857" lon="8.312849604807017"><ele>309.0</ele><time>2026-05-03T10:55:44Z</time></trkpt><trkpt lat="46.15882566823876" lon="8.312884878103903"><ele>309.0</ele><time>2026-05-03T10:55:45Z</time></trkpt><trkpt lat="46.15863134909174" lon="8.312920483824756"><ele>309.0</ele><time>2026-05-03T10:55:46Z</time></trkpt><trkpt lat="46.15843521425477" lon="8.312956487253452"><ele>309.0</ele><time>2026-05-03T10:55:47Z</time></trkpt><trkpt lat="46.15823690954613" lon="8.312995011436163"><ele>309.0</ele><time>2026-05-03T10:55:48Z</time></trkpt><trkpt lat="46.15803874555231" lon="8.313031721430251"><ele>309.0</ele><time>2026-05-03T10:55:49Z</time></trkpt><trkpt lat="46.15784061044423" lon="8.313069041834515"><ele>308.0</ele><time>2026-05-03T10:55:50Z</time></trkpt><trkpt lat="46.15764154992086" lon="8.313110189479927"><ele>307.0</ele><time>2026-05-03T10:55:51Z</time></trkpt><trkpt lat="46.157442891351195" lon="8.313150410572701"><ele>306.0</ele><time>2026-05-03T10:55:52Z</time></trkpt><trkpt lat="46.15724589152785" lon="8.313189734089468"><ele>305.6666666666667</ele><time>2026-05-03T10:55:53Z</time></trkpt><trkpt lat="46.15704925551869" lon="8.313227913731819"><ele>305.33333333333337</ele><time>2026-05-03T10:55:54Z</time></trkpt><trkpt lat="46.15685284814301" lon="8.31326497707656"><ele>305.0</ele><time>2026-05-03T10:55:55Z</time></trkpt><trkpt lat="46.15665775878394" lon="8.313293337563357"><ele>306.0</ele><time>2026-05-03T10:55:56Z</time></trkpt><trkpt lat="46.15646384832289" lon="8.313314092368508"><ele>307.0</ele><time>2026-05-03T10:55:57Z</time></trkpt><trkpt lat="46.15627179673401" lon="8.313321512693697"><ele>308.0</ele><time>2026-05-03T10:55:58Z</time></trkpt><trkpt lat="46.15608174633818" lon="8.31332625837776"><ele>308.0</ele><time>2026-05-03T10:55:59Z</time></trkpt><trkpt lat="46.1558893316004" lon="8.31332554289372"><ele>308.0</ele><time>2026-05-03T10:56:00Z</time></trkpt><trkpt lat="46.15569769463124" lon="8.31332183344723"><ele>308.0</ele><time>2026-05-03T10:56:01Z</time></trkpt><trkpt lat="46.15550768225834" lon="8.313309579663962"><ele>307.33333333333337</ele><time>2026-05-03T10:56:02Z</time></trkpt><trkpt lat="46.15531611613216" lon="8.313297767802757"><ele>306.6666666666667</ele><time>2026-05-03T10:56:03Z</time></trkpt><trkpt lat="46.15512739400689" lon="8.31327784619159"><ele>306.0</ele><time>2026-05-03T10:56:04Z</time></trkpt><trkpt lat="46.15493909250565" lon="8.313252218357926"><ele>305.6666666666667</ele><time>2026-05-03T10:56:05Z</time></trkpt><trkpt lat="46.15475317866673" lon="8.313217783067987"><ele>305.33333333333337</ele><time>2026-05-03T10:56:06Z</time></trkpt><trkpt lat="46.15456870026652" lon="8.313181231812969"><ele>305.0</ele><time>2026-05-03T10:56:07Z</time></trkpt><trkpt lat="46.15438726650296" lon="8.31314066582191"><ele>305.0</ele><time>2026-05-03T10:56:08Z</time></trkpt><trkpt lat="46.15420665352422" lon="8.313087325349983"><ele>305.0</ele><time>2026-05-03T10:56:09Z</time></trkpt><trkpt lat="46.154028942114365" lon="8.31302777684924"><ele>305.0</ele><time>2026-05-03T10:56:10Z</time></trkpt><trkpt lat="46.15385384015176" lon="8.312968622611487"><ele>305.33333333333337</ele><time>2026-05-03T10:56:11Z</time></trkpt><trkpt lat="46.15367875813222" lon="8.312907940507785"><ele>305.6666666666667</ele><time>2026-05-03T10:56:12Z</time></trkpt><trkpt lat="46.153503377465505" lon="8.312845855845355"><ele>306.0</ele><time>2026-05-03T10:56:13Z</time></trkpt><trkpt lat="46.153327017167115" lon="8.312783477672221"><ele>306.3333333333333</ele><time>2026-05-03T10:56:14Z</time></trkpt><trkpt lat="46.15315000766438" lon="8.312721304644601"><ele>306.66666666666663</ele><time>2026-05-03T10:56:15Z</time></trkpt><trkpt lat="46.15297155611901" lon="8.312659352914944"><ele>307.0</ele><time>2026-05-03T10:56:16Z</time></trkpt><trkpt lat="46.15279123848046" lon="8.312602916704066"><ele>307.0</ele><time>2026-05-03T10:56:17Z</time></trkpt><trkpt lat="46.152610196120534" lon="8.312548858391773"><ele>307.0</ele><time>2026-05-03T10:56:18Z</time></trkpt><trkpt lat="46.152428912166926" lon="8.312495528395754"><ele>307.0</ele><time>2026-05-03T10:56:19Z</time></trkpt><trkpt lat="46.15224563248932" lon="8.312442612269136"><ele>307.3333333333333</ele><time>2026-05-03T10:56:20Z</time></trkpt><trkpt lat="46.15206194088759" lon="8.312390318473891"><ele>307.6666666666667</ele><time>2026-05-03T10:56:21Z</time></trkpt><trkpt lat="46.15187475449385" lon="8.312341328157682"><ele>308.0</ele><time>2026-05-03T10:56:22Z</time></trkpt><trkpt lat="46.15168699938661" lon="8.3122928828233"><ele>308.6666666666667</ele><time>2026-05-03T10:56:23Z</time></trkpt><trkpt lat="46.151497633420604" lon="8.312245784307745"><ele>309.3333333333333</ele><time>2026-05-03T10:56:24Z</time></trkpt><trkpt lat="46.151307586918165" lon="8.312202825154692"><ele>310.0</ele><time>2026-05-03T10:56:25Z</time></trkpt><trkpt lat="46.151114761436936" lon="8.312166023949707"><ele>309.3333333333333</ele><time>2026-05-03T10:56:26Z</time></trkpt><trkpt lat="46.15092139819789" lon="8.312135972590479"><ele>308.6666666666667</ele><time>2026-05-03T10:56:27Z</time></trkpt><trkpt lat="46.150726760043504" lon="8.31210688782081"><ele>308.0</ele><time>2026-05-03T10:56:28Z</time></trkpt><trkpt lat="46.15053280877119" lon="8.312081167683496"><ele>308.0</ele><time>2026-05-03T10:56:29Z</time></trkpt><trkpt lat="46.150335614970984" lon="8.312065454250945"><ele>308.0</ele><time>2026-05-03T10:56:30Z</time></trkpt><trkpt lat="46.15013743849671" lon="8.31204967756956"><ele>308.0</ele><time>2026-05-03T10:56:31Z</time></trkpt><trkpt lat="46.14994090300513" lon="8.312033684502621"><ele>308.33333333333337</ele><time>2026-05-03T10:56:32Z</time></trkpt><trkpt lat="46.14974515082687" lon="8.312019557501085"><ele>308.6666666666667</ele><time>2026-05-03T10:56:33Z</time></trkpt><trkpt lat="46.149548295813574" lon="8.31200408749542"><ele>309.0</ele><time>2026-05-03T10:56:34Z</time></trkpt><trkpt lat="46.14935160805873" lon="8.311987502099928"><ele>309.0</ele><time>2026-05-03T10:56:35Z</time></trkpt><trkpt lat="46.14915434167333" lon="8.311973179494075"><ele>309.0</ele><time>2026-05-03T10:56:36Z</time></trkpt><trkpt lat="46.148959294830945" lon="8.311963419794067"><ele>309.0</ele><time>2026-05-03T10:56:37Z</time></trkpt><trkpt lat="46.148764560193165" lon="8.311952643763208"><ele>309.0</ele><time>2026-05-03T10:56:38Z</time></trkpt><trkpt lat="46.14857217336241" lon="8.311938447408538"><ele>309.0</ele><time>2026-05-03T10:56:39Z</time></trkpt><trkpt lat="46.148380636529964" lon="8.311925713917418"><ele>309.0</ele><time>2026-05-03T10:56:39.999Z</time></trkpt><trkpt lat="46.14818651899521" lon="8.311916228484845"><ele>309.3333333333333</ele><time>2026-05-03T10:56:40.999Z</time></trkpt><trkpt lat="46.147992326346156" lon="8.311905014771597"><ele>309.66666666666663</ele><time>2026-05-03T10:56:41.999Z</time></trkpt><trkpt lat="46.147797666835636" lon="8.311892949461935"><ele>310.0</ele><time>2026-05-03T10:56:42.999Z</time></trkpt><trkpt lat="46.147602908523204" lon="8.311877426589739"><ele>310.0</ele><time>2026-05-03T10:56:43.999Z</time></trkpt><trkpt lat="46.147407669788954" lon="8.31186479570258"><ele>310.0</ele><time>2026-05-03T10:56:44.999Z</time></trkpt><trkpt lat="46.147211321005834" lon="8.311852638711958"><ele>310.0</ele><time>2026-05-03T10:56:45.999Z</time></trkpt><trkpt lat="46.14701442783475" lon="8.311836771825446"><ele>309.0</ele><time>2026-05-03T10:56:46.999Z</time></trkpt><trkpt lat="46.14681670304847" lon="8.311818449835597"><ele>308.0</ele><time>2026-05-03T10:56:47.999Z</time></trkpt><trkpt lat="46.14661738088395" lon="8.311804736757628"><ele>307.0</ele><time>2026-05-03T10:56:48.999Z</time></trkpt><trkpt lat="46.14641660231395" lon="8.311790836707736"><ele>306.66666666666663</ele><time>2026-05-03T10:56:49.999Z</time></trkpt><trkpt lat="46.14621295278612" lon="8.311778051891027"><ele>306.3333333333333</ele><time>2026-05-03T10:56:50.999Z</time></trkpt><trkpt lat="46.14601026243148" lon="8.311762877384792"><ele>306.0</ele><time>2026-05-03T10:56:51.999Z</time></trkpt><trkpt lat="46.14580546563461" lon="8.311750043434895"><ele>304.6666666666667</ele><time>2026-05-03T10:56:52.999Z</time></trkpt><trkpt lat="46.14560067879067" lon="8.3117369024458"><ele>303.33333333333337</ele><time>2026-05-03T10:56:53.999Z</time></trkpt><trkpt lat="46.1453969864345" lon="8.311721593447807"><ele>302.0</ele><time>2026-05-03T10:56:54.999Z</time></trkpt><trkpt lat="46.145191908529306" lon="8.31170882541391"><ele>302.0</ele><time>2026-05-03T10:56:55.999Z</time></trkpt><trkpt lat="46.14498733944972" lon="8.311697043331653"><ele>302.0</ele><time>2026-05-03T10:56:56.999Z</time></trkpt><trkpt lat="46.14478359946671" lon="8.311686325462917"><ele>302.0</ele><time>2026-05-03T10:56:57.999Z</time></trkpt><trkpt lat="46.14457798095978" lon="8.31167397947701"><ele>302.0</ele><time>2026-05-03T10:56:58.999Z</time></trkpt><trkpt lat="46.144372219765266" lon="8.311661928970434"><ele>302.0</ele><time>2026-05-03T10:56:59.999Z</time></trkpt><trkpt lat="46.1441665333174" lon="8.31164810656129"><ele>302.0</ele><time>2026-05-03T10:57:00.999Z</time></trkpt><trkpt lat="46.14395939917289" lon="8.31163321752967"><ele>302.0</ele><time>2026-05-03T10:57:01.999Z</time></trkpt><trkpt lat="46.14375190035368" lon="8.311621267553365"><ele>302.0</ele><time>2026-05-03T10:57:02.999Z</time></trkpt><trkpt lat="46.143544319997986" lon="8.311602237966456"><ele>302.0</ele><time>2026-05-03T10:57:03.999Z</time></trkpt><trkpt lat="46.14333720124605" lon="8.31157758304031"><ele>301.33333333333337</ele><time>2026-05-03T10:57:04.999Z</time></trkpt><trkpt lat="46.143133916426784" lon="8.311538986363516"><ele>300.6666666666667</ele><time>2026-05-03T10:57:05.999Z</time></trkpt><trkpt lat="46.142937030195654" lon="8.311487641327387"><ele>300.0</ele><time>2026-05-03T10:57:06.999Z</time></trkpt><trkpt lat="46.142543969492664" lon="8.311349873505243"><ele>299.6666666666667</ele><time>2026-05-03T10:57:08.999Z</time></trkpt><trkpt lat="46.142348253053676" lon="8.311264220172994"><ele>299.33333333333337</ele><time>2026-05-03T10:57:10Z</time></trkpt><trkpt lat="46.14215431008387" lon="8.311167228686017"><ele>299.0</ele><time>2026-05-03T10:57:11Z</time></trkpt><trkpt lat="46.141959308102685" lon="8.311064065013692"><ele>299.0</ele><time>2026-05-03T10:57:12Z</time></trkpt><trkpt lat="46.141767016475384" lon="8.310949318631799"><ele>299.0</ele><time>2026-05-03T10:57:13Z</time></trkpt><trkpt lat="46.14157856818921" lon="8.310821209190802"><ele>299.0</ele><time>2026-05-03T10:57:14Z</time></trkpt><trkpt lat="46.1413919157577" lon="8.310679068231456"><ele>297.6666666666667</ele><time>2026-05-03T10:57:15Z</time></trkpt><trkpt lat="46.14121661920297" lon="8.310531531189056"><ele>296.3333333333333</ele><time>2026-05-03T10:57:16Z</time></trkpt><trkpt lat="46.14104619613753" lon="8.310378074007083"><ele>295.0</ele><time>2026-05-03T10:57:17Z</time></trkpt><trkpt lat="46.14088017265151" lon="8.310218971935138"><ele>294.0</ele><time>2026-05-03T10:57:18Z</time></trkpt><trkpt lat="46.14071233275733" lon="8.310049322250862"><ele>293.0</ele><time>2026-05-03T10:57:19Z</time></trkpt><trkpt lat="46.14054621457631" lon="8.309880972780626"><ele>292.0</ele><time>2026-05-03T10:57:20Z</time></trkpt><trkpt lat="46.1403807870418" lon="8.309703132776384"><ele>291.3333333333333</ele><time>2026-05-03T10:57:21Z</time></trkpt><trkpt lat="46.14021449135484" lon="8.30952805658114"><ele>290.6666666666667</ele><time>2026-05-03T10:57:22Z</time></trkpt><trkpt lat="46.14004690226761" lon="8.309357977134768"><ele>290.0</ele><time>2026-05-03T10:57:23Z</time></trkpt><trkpt lat="46.13987696631344" lon="8.309186035437941"><ele>290.0</ele><time>2026-05-03T10:57:24Z</time></trkpt><trkpt lat="46.13970391003528" lon="8.309016107536785"><ele>290.0</ele><time>2026-05-03T10:57:25Z</time></trkpt><trkpt lat="46.139531120572315" lon="8.30884495516576"><ele>290.0</ele><time>2026-05-03T10:57:26Z</time></trkpt><trkpt lat="46.13935942032032" lon="8.308672337207199"><ele>290.33333333333337</ele><time>2026-05-03T10:57:27Z</time></trkpt><trkpt lat="46.13918153418422" lon="8.308512191385054"><ele>290.6666666666667</ele><time>2026-05-03T10:57:28Z</time></trkpt><trkpt lat="46.138994432148735" lon="8.308371651162306"><ele>291.0</ele><time>2026-05-03T10:57:29Z</time></trkpt><trkpt lat="46.13880878319618" lon="8.308236969331649"><ele>290.0</ele><time>2026-05-03T10:57:30Z</time></trkpt><trkpt lat="46.138618348306274" lon="8.308111463692477"><ele>289.0</ele><time>2026-05-03T10:57:31Z</time></trkpt><trkpt lat="46.138428165985175" lon="8.308001661427033"><ele>288.0</ele><time>2026-05-03T10:57:32Z</time></trkpt><trkpt lat="46.138238238788006" lon="8.307902766722798"><ele>287.0</ele><time>2026-05-03T10:57:33Z</time></trkpt><trkpt lat="46.138043660370286" lon="8.307819107465598"><ele>286.0</ele><time>2026-05-03T10:57:34Z</time></trkpt><trkpt lat="46.1378519858119" lon="8.30774829818283"><ele>285.0</ele><time>2026-05-03T10:57:35Z</time></trkpt><trkpt lat="46.137656289783834" lon="8.307681283630856"><ele>285.0</ele><time>2026-05-03T10:57:36Z</time></trkpt><trkpt lat="46.13746188811495" lon="8.30763507135122"><ele>285.0</ele><time>2026-05-03T10:57:37Z</time></trkpt><trkpt lat="46.13726537421359" lon="8.307589333584977"><ele>285.0</ele><time>2026-05-03T10:57:38Z</time></trkpt><trkpt lat="46.13706573277612" lon="8.307549333554956"><ele>284.3333333333333</ele><time>2026-05-03T10:57:39Z</time></trkpt><trkpt lat="46.13687068479944" lon="8.307525287437475"><ele>283.66666666666663</ele><time>2026-05-03T10:57:40Z</time></trkpt><trkpt lat="46.13667573355129" lon="8.307509507452085"><ele>283.0</ele><time>2026-05-03T10:57:41Z</time></trkpt><trkpt lat="46.13647900862042" lon="8.307507927976857"><ele>283.0</ele><time>2026-05-03T10:57:42Z</time></trkpt><trkpt lat="46.136284363353624" lon="8.307523159469609"><ele>283.0</ele><time>2026-05-03T10:57:43Z</time></trkpt><trkpt lat="46.13608967246548" lon="8.30754326180089"><ele>283.0</ele><time>2026-05-03T10:57:44Z</time></trkpt><trkpt lat="46.135896135566675" lon="8.307563966589305"><ele>283.3333333333333</ele><time>2026-05-03T10:57:45Z</time></trkpt><trkpt lat="46.135693246426776" lon="8.307588909595104"><ele>283.6666666666667</ele><time>2026-05-03T10:57:46Z</time></trkpt><trkpt lat="46.1354967344791" lon="8.307628671999097"><ele>284.0</ele><time>2026-05-03T10:57:47Z</time></trkpt><trkpt lat="46.13530341533253" lon="8.307666702858983"><ele>284.0</ele><time>2026-05-03T10:57:48Z</time></trkpt><trkpt lat="46.13510549630507" lon="8.307698837367779"><ele>284.0</ele><time>2026-05-03T10:57:49Z</time></trkpt><trkpt lat="46.134910885531305" lon="8.307733124877334"><ele>284.0</ele><time>2026-05-03T10:57:50Z</time></trkpt><trkpt lat="46.13471767878301" lon="8.307768424853888"><ele>283.6666666666667</ele><time>2026-05-03T10:57:51Z</time></trkpt><trkpt lat="46.13452164718376" lon="8.307800263167204"><ele>283.3333333333333</ele><time>2026-05-03T10:57:52Z</time></trkpt><trkpt lat="46.13432606114556" lon="8.307827127260756"><ele>283.0</ele><time>2026-05-03T10:57:53Z</time></trkpt><trkpt lat="46.134130596505386" lon="8.30785977695801"><ele>283.0</ele><time>2026-05-03T10:57:54Z</time></trkpt><trkpt lat="46.13393195858566" lon="8.307887833081253"><ele>283.0</ele><time>2026-05-03T10:57:55Z</time></trkpt><trkpt lat="46.13373393862766" lon="8.307919732151113"><ele>283.0</ele><time>2026-05-03T10:57:56Z</time></trkpt><trkpt lat="46.133537469640615" lon="8.307954833021574"><ele>283.0</ele><time>2026-05-03T10:57:57Z</time></trkpt><trkpt lat="46.13334203596797" lon="8.307988012901422"><ele>283.0</ele><time>2026-05-03T10:57:58Z</time></trkpt><trkpt lat="46.133142443602715" lon="8.308023777159713"><ele>283.0</ele><time>2026-05-03T10:57:59Z</time></trkpt><trkpt lat="46.132947823902164" lon="8.308062247494943"><ele>281.66666666666663</ele><time>2026-05-03T10:58:00Z</time></trkpt><trkpt lat="46.132747844939765" lon="8.308095788110132"><ele>280.3333333333333</ele><time>2026-05-03T10:58:01Z</time></trkpt><trkpt lat="46.13255205331948" lon="8.308125616000087"><ele>279.0</ele><time>2026-05-03T10:58:02Z</time></trkpt><trkpt lat="46.13235674901102" lon="8.308156384569338"><ele>277.6666666666667</ele><time>2026-05-03T10:58:03Z</time></trkpt><trkpt lat="46.132163980151084" lon="8.308184602047072"><ele>276.33333333333337</ele><time>2026-05-03T10:58:04Z</time></trkpt><trkpt lat="46.1319697596575" lon="8.30821681266077"><ele>275.0</ele><time>2026-05-03T10:58:05Z</time></trkpt><trkpt lat="46.13177670587057" lon="8.308245361620026"><ele>275.0</ele><time>2026-05-03T10:58:06Z</time></trkpt><trkpt lat="46.13158078051651" lon="8.308283819835488"><ele>275.0</ele><time>2026-05-03T10:58:07Z</time></trkpt><trkpt lat="46.131388263680535" lon="8.308321066922996"><ele>275.0</ele><time>2026-05-03T10:58:08Z</time></trkpt><trkpt lat="46.13119438125207" lon="8.30835610100916"><ele>275.33333333333337</ele><time>2026-05-03T10:58:09Z</time></trkpt><trkpt lat="46.13099774323116" lon="8.308388202876358"><ele>275.6666666666667</ele><time>2026-05-03T10:58:10Z</time></trkpt><trkpt lat="46.13079989475789" lon="8.308419891063771"><ele>276.0</ele><time>2026-05-03T10:58:11Z</time></trkpt><trkpt lat="46.13060232746869" lon="8.308454908388887"><ele>276.6666666666667</ele><time>2026-05-03T10:58:12Z</time></trkpt><trkpt lat="46.130403973578794" lon="8.308490738462567"><ele>277.33333333333337</ele><time>2026-05-03T10:58:13Z</time></trkpt><trkpt lat="46.13020542676952" lon="8.308528292705827"><ele>278.0</ele><time>2026-05-03T10:58:14Z</time></trkpt><trkpt lat="46.1300057342941" lon="8.30856316365624"><ele>278.0</ele><time>2026-05-03T10:58:15Z</time></trkpt><trkpt lat="46.12980586368008" lon="8.308595718018749"><ele>278.0</ele><time>2026-05-03T10:58:16Z</time></trkpt><trkpt lat="46.129604640475286" lon="8.308626484773866"><ele>278.0</ele><time>2026-05-03T10:58:17Z</time></trkpt><trkpt lat="46.129403096611604" lon="8.308660933797016"><ele>278.0</ele><time>2026-05-03T10:58:18Z</time></trkpt><trkpt lat="46.12920319223575" lon="8.308697518086715"><ele>278.0</ele><time>2026-05-03T10:58:19Z</time></trkpt><trkpt lat="46.12899695310048" lon="8.308720958444203"><ele>278.0</ele><time>2026-05-03T10:58:20Z</time></trkpt><trkpt lat="46.12879127410571" lon="8.308752821155444"><ele>277.6666666666667</ele><time>2026-05-03T10:58:21Z</time></trkpt><trkpt lat="46.12858365546473" lon="8.308786312152186"><ele>277.3333333333333</ele><time>2026-05-03T10:58:22Z</time></trkpt><trkpt lat="46.12837523234994" lon="8.308821398818466"><ele>277.0</ele><time>2026-05-03T10:58:23Z</time></trkpt><trkpt lat="46.128164690804475" lon="8.308855332028646"><ele>276.0</ele><time>2026-05-03T10:58:24Z</time></trkpt><trkpt lat="46.12795272998876" lon="8.308889395019845"><ele>275.0</ele><time>2026-05-03T10:58:25Z</time></trkpt><trkpt lat="46.12774222966247" lon="8.308926304697248"><ele>274.0</ele><time>2026-05-03T10:58:26Z</time></trkpt><trkpt lat="46.12753493556222" lon="8.308956407517634"><ele>274.3333333333333</ele><time>2026-05-03T10:58:27Z</time></trkpt><trkpt lat="46.127328174402564" lon="8.308982075178239"><ele>274.6666666666667</ele><time>2026-05-03T10:58:28Z</time></trkpt><trkpt lat="46.1271219228066" lon="8.309003978488102"><ele>275.0</ele><time>2026-05-03T10:58:29Z</time></trkpt><trkpt lat="46.12691527574089" lon="8.309014733523775"><ele>275.0</ele><time>2026-05-03T10:58:30Z</time></trkpt><trkpt lat="46.1267051842857" lon="8.309006730880085"><ele>275.0</ele><time>2026-05-03T10:58:31Z</time></trkpt><trkpt lat="46.12649608815675" lon="8.30898679922649"><ele>275.0</ele><time>2026-05-03T10:58:32Z</time></trkpt><trkpt lat="46.126289343646675" lon="8.308959252966087"><ele>274.0</ele><time>2026-05-03T10:58:33Z</time></trkpt><trkpt lat="46.12608336395606" lon="8.308928613611045"><ele>273.0</ele><time>2026-05-03T10:58:34Z</time></trkpt><trkpt lat="46.12587655536034" lon="8.308888060134432"><ele>272.0</ele><time>2026-05-03T10:58:35Z</time></trkpt><trkpt lat="46.125669667618396" lon="8.308837472608658"><ele>272.0</ele><time>2026-05-03T10:58:36Z</time></trkpt><trkpt lat="46.12546740353929" lon="8.30877109460059"><ele>272.0</ele><time>2026-05-03T10:58:37Z</time></trkpt><trkpt lat="46.125262669924844" lon="8.308690982626345"><ele>272.0</ele><time>2026-05-03T10:58:38Z</time></trkpt><trkpt lat="46.12506146956322" lon="8.308611604569407"><ele>271.33333333333337</ele><time>2026-05-03T10:58:39Z</time></trkpt><trkpt lat="46.124860945287104" lon="8.308533318747376"><ele>270.6666666666667</ele><time>2026-05-03T10:58:40Z</time></trkpt><trkpt lat="46.12465972968767" lon="8.30845245587348"><ele>270.0</ele><time>2026-05-03T10:58:41Z</time></trkpt><trkpt lat="46.1244568661479" lon="8.308373785665578"><ele>270.0</ele><time>2026-05-03T10:58:42Z</time></trkpt><trkpt lat="46.124256510592886" lon="8.308295553600308"><ele>270.0</ele><time>2026-05-03T10:58:43Z</time></trkpt><trkpt lat="46.12405597214066" lon="8.308214514523353"><ele>270.0</ele><time>2026-05-03T10:58:43.999Z</time></trkpt><trkpt lat="46.12385268062839" lon="8.308136523151605"><ele>269.0</ele><time>2026-05-03T10:58:44.999Z</time></trkpt><trkpt lat="46.12364987432231" lon="8.30805870628047"><ele>268.0</ele><time>2026-05-03T10:58:45.999Z</time></trkpt><trkpt lat="46.12344795185394" lon="8.307979272787701"><ele>267.0</ele><time>2026-05-03T10:58:46.999Z</time></trkpt><trkpt lat="46.123245401808454" lon="8.307893855327077"><ele>266.6666666666667</ele><time>2026-05-03T10:58:47.999Z</time></trkpt><trkpt lat="46.1230426489869" lon="8.307812471732186"><ele>266.33333333333337</ele><time>2026-05-03T10:58:48.999Z</time></trkpt><trkpt lat="46.12283735454876" lon="8.307734366073959"><ele>266.0</ele><time>2026-05-03T10:58:49.999Z</time></trkpt><trkpt lat="46.12263408163246" lon="8.307655826248395"><ele>266.0</ele><time>2026-05-03T10:58:50.999Z</time></trkpt><trkpt lat="46.12243237160037" lon="8.307574243673342"><ele>266.0</ele><time>2026-05-03T10:58:51.999Z</time></trkpt><trkpt lat="46.122232686397446" lon="8.307493952337664"><ele>266.0</ele><time>2026-05-03T10:58:52.999Z</time></trkpt><trkpt lat="46.122034701806584" lon="8.307414750679564"><ele>265.6666666666667</ele><time>2026-05-03T10:58:53.999Z</time></trkpt><trkpt lat="46.12183932644074" lon="8.30734000476087"><ele>265.3333333333333</ele><time>2026-05-03T10:58:54.999Z</time></trkpt><trkpt lat="46.12164745897962" lon="8.307266550244881"><ele>265.0</ele><time>2026-05-03T10:58:55.999Z</time></trkpt><trkpt lat="46.121456712852385" lon="8.307192196958995"><ele>265.0</ele><time>2026-05-03T10:58:56.999Z</time></trkpt><trkpt lat="46.12126974705999" lon="8.307115615205017"><ele>265.0</ele><time>2026-05-03T10:58:57.999Z</time></trkpt><trkpt lat="46.12108258430334" lon="8.3070388237159"><ele>265.0</ele><time>2026-05-03T10:58:58.999Z</time></trkpt><trkpt lat="46.1208946728612" lon="8.30696109116791"><ele>265.0</ele><time>2026-05-03T10:58:59.999Z</time></trkpt><trkpt lat="46.12070609756857" lon="8.306884876369173"><ele>265.0</ele><time>2026-05-03T10:59:00.999Z</time></trkpt><trkpt lat="46.12051840986273" lon="8.306814866723322"><ele>265.0</ele><time>2026-05-03T10:59:01.999Z</time></trkpt><trkpt lat="46.12033022572448" lon="8.306747228846351"><ele>265.0</ele><time>2026-05-03T10:59:02.999Z</time></trkpt><trkpt lat="46.12014088225394" lon="8.306678696097155"><ele>265.0</ele><time>2026-05-03T10:59:03.999Z</time></trkpt><trkpt lat="46.11995320516574" lon="8.30660666551111"><ele>265.0</ele><time>2026-05-03T10:59:04.999Z</time></trkpt><trkpt lat="46.119765584159325" lon="8.30653481895931"><ele>265.0</ele><time>2026-05-03T10:59:05.999Z</time></trkpt><trkpt lat="46.11957708600114" lon="8.306461384633284"><ele>265.0</ele><time>2026-05-03T10:59:06.999Z</time></trkpt><trkpt lat="46.119386317874245" lon="8.306387506267956"><ele>265.0</ele><time>2026-05-03T10:59:07.999Z</time></trkpt><trkpt lat="46.11919660728048" lon="8.306311953581138"><ele>264.66666666666663</ele><time>2026-05-03T10:59:08.999Z</time></trkpt><trkpt lat="46.1190064662208" lon="8.30623974828576"><ele>264.3333333333333</ele><time>2026-05-03T10:59:09.999Z</time></trkpt><trkpt lat="46.11881561407613" lon="8.30616536069937"><ele>264.0</ele><time>2026-05-03T10:59:10.999Z</time></trkpt><trkpt lat="46.11862516239472" lon="8.306089034902438"><ele>264.0</ele><time>2026-05-03T10:59:11.999Z</time></trkpt><trkpt lat="46.118435707492644" lon="8.306012648510356"><ele>264.0</ele><time>2026-05-03T10:59:12.999Z</time></trkpt><trkpt lat="46.11824454084639" lon="8.305938752523172"><ele>264.0</ele><time>2026-05-03T10:59:13.999Z</time></trkpt><trkpt lat="46.11805216808235" lon="8.30586487148132"><ele>263.6666666666667</ele><time>2026-05-03T10:59:15Z</time></trkpt><trkpt lat="46.117859125646504" lon="8.305791829775293"><ele>263.33333333333337</ele><time>2026-05-03T10:59:16Z</time></trkpt><trkpt lat="46.11766760894982" lon="8.305714993388374"><ele>263.0</ele><time>2026-05-03T10:59:17Z</time></trkpt><trkpt lat="46.1174759794028" lon="8.305636953845505"><ele>262.33333333333337</ele><time>2026-05-03T10:59:18Z</time></trkpt><trkpt lat="46.11728249486872" lon="8.305561365326788"><ele>261.6666666666667</ele><time>2026-05-03T10:59:19Z</time></trkpt><trkpt lat="46.11709088217337" lon="8.305484274763423"><ele>261.0</ele><time>2026-05-03T10:59:20Z</time></trkpt><trkpt lat="46.11689911657753" lon="8.305407401451731"><ele>261.0</ele><time>2026-05-03T10:59:21Z</time></trkpt><trkpt lat="46.11670795354299" lon="8.30533323000394"><ele>261.0</ele><time>2026-05-03T10:59:22Z</time></trkpt><trkpt lat="46.11651882737175" lon="8.305258370164355"><ele>261.0</ele><time>2026-05-03T10:59:23Z</time></trkpt><trkpt lat="46.11632771258946" lon="8.305183125265977"><ele>260.3333333333333</ele><time>2026-05-03T10:59:24Z</time></trkpt><trkpt lat="46.1161384756723" lon="8.305109191869407"><ele>259.66666666666663</ele><time>2026-05-03T10:59:25Z</time></trkpt><trkpt lat="46.11595066492197" lon="8.305032613848049"><ele>259.0</ele><time>2026-05-03T10:59:26Z</time></trkpt><trkpt lat="46.11576292165894" lon="8.304958003415694"><ele>260.0</ele><time>2026-05-03T10:59:27Z</time></trkpt><trkpt lat="46.1155759864877" lon="8.30489056770818"><ele>261.0</ele><time>2026-05-03T10:59:28Z</time></trkpt><trkpt lat="46.11538858242694" lon="8.304831013514816"><ele>262.0</ele><time>2026-05-03T10:59:29Z</time></trkpt><trkpt lat="46.11520102119175" lon="8.30477344576145"><ele>263.3333333333333</ele><time>2026-05-03T10:59:30Z</time></trkpt><trkpt lat="46.11501155193122" lon="8.304725027564565"><ele>264.6666666666667</ele><time>2026-05-03T10:59:31Z</time></trkpt><trkpt lat="46.11482012350364" lon="8.304686442435742"><ele>266.0</ele><time>2026-05-03T10:59:32Z</time></trkpt><trkpt lat="46.11462642268421" lon="8.304659245536763"><ele>266.0</ele><time>2026-05-03T10:59:33Z</time></trkpt><trkpt lat="46.11443013665102" lon="8.304641070257372"><ele>266.0</ele><time>2026-05-03T10:59:34Z</time></trkpt><trkpt lat="46.11423195625421" lon="8.304633723906479"><ele>266.0</ele><time>2026-05-03T10:59:35Z</time></trkpt><trkpt lat="46.11403201978159" lon="8.304637023447892"><ele>264.33333333333337</ele><time>2026-05-03T10:59:36Z</time></trkpt><trkpt lat="46.113832627086246" lon="8.30464850389453"><ele>262.6666666666667</ele><time>2026-05-03T10:59:37Z</time></trkpt><trkpt lat="46.11363130903093" lon="8.304671841788313"><ele>261.0</ele><time>2026-05-03T10:59:38Z</time></trkpt><trkpt lat="46.113427745253304" lon="8.304708298517912"><ele>261.0</ele><time>2026-05-03T10:59:39Z</time></trkpt><trkpt lat="46.113225238142014" lon="8.304750714481775"><ele>261.0</ele><time>2026-05-03T10:59:40Z</time></trkpt><trkpt lat="46.113023197354146" lon="8.304794300790357"><ele>261.0</ele><time>2026-05-03T10:59:41Z</time></trkpt><trkpt lat="46.11282195994927" lon="8.30483397345835"><ele>261.0</ele><time>2026-05-03T10:59:42Z</time></trkpt><trkpt lat="46.11262044851757" lon="8.304871482482413"><ele>261.0</ele><time>2026-05-03T10:59:43Z</time></trkpt><trkpt lat="46.112417550153566" lon="8.304909859210495"><ele>261.0</ele><time>2026-05-03T10:59:44Z</time></trkpt><trkpt lat="46.11221229036379" lon="8.304947575269086"><ele>261.3333333333333</ele><time>2026-05-03T10:59:45Z</time></trkpt><trkpt lat="46.11200934959013" lon="8.304982193035444"><ele>261.66666666666663</ele><time>2026-05-03T10:59:46Z</time></trkpt><trkpt lat="46.111802383812034" lon="8.305013745915957"><ele>262.0</ele><time>2026-05-03T10:59:47Z</time></trkpt><trkpt lat="46.11159664584843" lon="8.305034484063345"><ele>261.0</ele><time>2026-05-03T10:59:48Z</time></trkpt><trkpt lat="46.11138895292966" lon="8.305043735892324"><ele>260.0</ele><time>2026-05-03T10:59:49Z</time></trkpt><trkpt lat="46.111181635641714" lon="8.305040745464815"><ele>259.0</ele><time>2026-05-03T10:59:50Z</time></trkpt><trkpt lat="46.11097412493649" lon="8.305026663530601"><ele>259.0</ele><time>2026-05-03T10:59:51Z</time></trkpt><trkpt lat="46.11076838247853" lon="8.305003787853435"><ele>259.0</ele><time>2026-05-03T10:59:52Z</time></trkpt><trkpt lat="46.110565238728356" lon="8.30497305813632"><ele>259.0</ele><time>2026-05-03T10:59:53Z</time></trkpt><trkpt lat="46.110364533019" lon="8.304928446200352"><ele>258.3333333333333</ele><time>2026-05-03T10:59:54Z</time></trkpt><trkpt lat="46.11016503852045" lon="8.304870833445731"><ele>257.6666666666667</ele><time>2026-05-03T10:59:55Z</time></trkpt><trkpt lat="46.109967647271255" lon="8.304806086889089"><ele>257.0</ele><time>2026-05-03T10:59:56Z</time></trkpt><trkpt lat="46.109766439510956" lon="8.304738395048611"><ele>257.0</ele><time>2026-05-03T10:59:57Z</time></trkpt><trkpt lat="46.10956589660542" lon="8.304670922079353"><ele>257.0</ele><time>2026-05-03T10:59:58Z</time></trkpt><trkpt lat="46.10936309055338" lon="8.304604988760273"><ele>257.0</ele><time>2026-05-03T10:59:59Z</time></trkpt><trkpt lat="46.10915834095716" lon="8.304540723735263"><ele>256.6666666666667</ele><time>2026-05-03T11:00:00Z</time></trkpt><trkpt lat="46.10895342339063" lon="8.304475024476991"><ele>256.3333333333333</ele><time>2026-05-03T11:00:01Z</time></trkpt><trkpt lat="46.108747844297895" lon="8.30441101863583"><ele>256.0</ele><time>2026-05-03T11:00:02Z</time></trkpt><trkpt lat="46.108539421494235" lon="8.304347931674565"><ele>256.0</ele><time>2026-05-03T11:00:03Z</time></trkpt><trkpt lat="46.1083307683712" lon="8.304284001877157"><ele>256.0</ele><time>2026-05-03T11:00:04Z</time></trkpt><trkpt lat="46.10812181156623" lon="8.304214941031084"><ele>256.0</ele><time>2026-05-03T11:00:05Z</time></trkpt><trkpt lat="46.10791260165832" lon="8.304143826937013"><ele>255.66666666666666</ele><time>2026-05-03T11:00:06Z</time></trkpt><trkpt lat="46.10770335216379" lon="8.304075792555283"><ele>255.33333333333331</ele><time>2026-05-03T11:00:07Z</time></trkpt><trkpt lat="46.10749504223846" lon="8.304013022473953"><ele>255.0</ele><time>2026-05-03T11:00:08Z</time></trkpt><trkpt lat="46.10729236612161" lon="8.303950063883061"><ele>255.66666666666669</ele><time>2026-05-03T11:00:09Z</time></trkpt><trkpt lat="46.107092007031405" lon="8.30388512688401"><ele>256.33333333333337</ele><time>2026-05-03T11:00:10Z</time></trkpt><trkpt lat="46.10689217134497" lon="8.303821736360977"><ele>257.0</ele><time>2026-05-03T11:00:11Z</time></trkpt><trkpt lat="46.10669264126112" lon="8.303760482568983"><ele>256.33333333333337</ele><time>2026-05-03T11:00:12Z</time></trkpt><trkpt lat="46.106491354416164" lon="8.303701700063588"><ele>255.66666666666669</ele><time>2026-05-03T11:00:13Z</time></trkpt><trkpt lat="46.10629096382863" lon="8.30364509454067"><ele>255.0</ele><time>2026-05-03T11:00:14Z</time></trkpt><trkpt lat="46.10608913441251" lon="8.303601400551763"><ele>255.0</ele><time>2026-05-03T11:00:15Z</time></trkpt><trkpt lat="46.10588687314676" lon="8.303569742679212"><ele>255.0</ele><time>2026-05-03T11:00:16Z</time></trkpt><trkpt lat="46.105682040497" lon="8.303544528167565"><ele>255.0</ele><time>2026-05-03T11:00:17Z</time></trkpt><trkpt lat="46.105477805910574" lon="8.303521591513363"><ele>254.33333333333331</ele><time>2026-05-03T11:00:18Z</time></trkpt><trkpt lat="46.105271499186124" lon="8.303507452498817"><ele>253.66666666666666</ele><time>2026-05-03T11:00:19Z</time></trkpt><trkpt lat="46.10506610594404" lon="8.303502740086408"><ele>253.0</ele><time>2026-05-03T11:00:20Z</time></trkpt><trkpt lat="46.10486083827448" lon="8.303504875690898"><ele>252.66666666666666</ele><time>2026-05-03T11:00:21Z</time></trkpt><trkpt lat="46.104653832766324" lon="8.303512624125098"><ele>252.33333333333331</ele><time>2026-05-03T11:00:22Z</time></trkpt><trkpt lat="46.10444797472068" lon="8.303517742329037"><ele>252.0</ele><time>2026-05-03T11:00:23Z</time></trkpt><trkpt lat="46.1042423283796" lon="8.303521741601076"><ele>252.33333333333331</ele><time>2026-05-03T11:00:24Z</time></trkpt><trkpt lat="46.104036144484674" lon="8.3035232055661"><ele>252.66666666666666</ele><time>2026-05-03T11:00:25Z</time></trkpt><trkpt lat="46.10382868653431" lon="8.303525227864432"><ele>253.0</ele><time>2026-05-03T11:00:26Z</time></trkpt><trkpt lat="46.10361933883933" lon="8.303530582715881"><ele>253.0</ele><time>2026-05-03T11:00:26.999Z</time></trkpt><trkpt lat="46.10341078494449" lon="8.303535673228808"><ele>253.0</ele><time>2026-05-03T11:00:27.999Z</time></trkpt><trkpt lat="46.10320030535296" lon="8.303539167008708"><ele>253.0</ele><time>2026-05-03T11:00:28.999Z</time></trkpt><trkpt lat="46.10298975878238" lon="8.303543738744551"><ele>252.66666666666666</ele><time>2026-05-03T11:00:29.999Z</time></trkpt><trkpt lat="46.102777353565465" lon="8.303548477632553"><ele>252.33333333333331</ele><time>2026-05-03T11:00:30.999Z</time></trkpt><trkpt lat="46.10256548576244" lon="8.303554471572658"><ele>252.0</ele><time>2026-05-03T11:00:31.999Z</time></trkpt><trkpt lat="46.10235495932887" lon="8.303560152598568"><ele>252.66666666666669</ele><time>2026-05-03T11:00:32.999Z</time></trkpt><trkpt lat="46.10214548622703" lon="8.303564662870649"><ele>253.33333333333334</ele><time>2026-05-03T11:00:33.999Z</time></trkpt><trkpt lat="46.10193709267434" lon="8.303570898148106"><ele>254.0</ele><time>2026-05-03T11:00:34.999Z</time></trkpt><trkpt lat="46.10172982012082" lon="8.303577200814836"><ele>253.66666666666669</ele><time>2026-05-03T11:00:35.999Z</time></trkpt><trkpt lat="46.10152495435196" lon="8.303581123899797"><ele>253.33333333333331</ele><time>2026-05-03T11:00:36.999Z</time></trkpt><trkpt lat="46.10132251392266" lon="8.303584622882935"><ele>253.0</ele><time>2026-05-03T11:00:37.999Z</time></trkpt><trkpt lat="46.101119767869896" lon="8.303587910161554"><ele>253.0</ele><time>2026-05-03T11:00:38.999Z</time></trkpt><trkpt lat="46.10091966692394" lon="8.303592957764378"><ele>253.0</ele><time>2026-05-03T11:00:39.999Z</time></trkpt><trkpt lat="46.10071959409028" lon="8.303598359692023"><ele>253.0</ele><time>2026-05-03T11:00:40.999Z</time></trkpt><trkpt lat="46.10051919277941" lon="8.303602122239585"><ele>252.33333333333331</ele><time>2026-05-03T11:00:41.999Z</time></trkpt><trkpt lat="46.10031781442124" lon="8.30360520591135"><ele>251.66666666666669</ele><time>2026-05-03T11:00:42.999Z</time></trkpt><trkpt lat="46.10011776431407" lon="8.303606156374025"><ele>251.0</ele><time>2026-05-03T11:00:43.999Z</time></trkpt><trkpt lat="46.099915628214006" lon="8.303608412395652"><ele>250.33333333333334</ele><time>2026-05-03T11:00:44.999Z</time></trkpt><trkpt lat="46.0997136847304" lon="8.30361354548483"><ele>249.66666666666669</ele><time>2026-05-03T11:00:45.999Z</time></trkpt><trkpt lat="46.09951106009966" lon="8.303617723374543"><ele>249.0</ele><time>2026-05-03T11:00:46.999Z</time></trkpt><trkpt lat="46.09930753828403" lon="8.303620901663281"><ele>249.0</ele><time>2026-05-03T11:00:47.999Z</time></trkpt><trkpt lat="46.0991039663234" lon="8.303625170096128"><ele>249.0</ele><time>2026-05-03T11:00:48.999Z</time></trkpt><trkpt lat="46.098900071480166" lon="8.30363138714324"><ele>249.0</ele><time>2026-05-03T11:00:49.999Z</time></trkpt><trkpt lat="46.09869646378144" lon="8.303637264782662"><ele>249.0</ele><time>2026-05-03T11:00:50.999Z</time></trkpt><trkpt lat="46.09849250293062" lon="8.303640672172518"><ele>249.0</ele><time>2026-05-03T11:00:51.999Z</time></trkpt><trkpt lat="46.09828760710277" lon="8.303642257981831"><ele>249.0</ele><time>2026-05-03T11:00:52.999Z</time></trkpt><trkpt lat="46.09808373618938" lon="8.303638704405516"><ele>249.0</ele><time>2026-05-03T11:00:53.999Z</time></trkpt><trkpt lat="46.09787977689858" lon="8.303625508001536"><ele>249.0</ele><time>2026-05-03T11:00:54.999Z</time></trkpt><trkpt lat="46.09767687505692" lon="8.303604177519844"><ele>249.0</ele><time>2026-05-03T11:00:55.999Z</time></trkpt><trkpt lat="46.097476903456155" lon="8.303575693698999"><ele>248.66666666666669</ele><time>2026-05-03T11:00:56.999Z</time></trkpt><trkpt lat="46.09727945352653" lon="8.303540059537676"><ele>248.33333333333334</ele><time>2026-05-03T11:00:57.999Z</time></trkpt><trkpt lat="46.09708431380165" lon="8.303501036473808"><ele>248.0</ele><time>2026-05-03T11:00:58.999Z</time></trkpt><trkpt lat="46.09688961194394" lon="8.303460136097884"><ele>248.0</ele><time>2026-05-03T11:00:59.999Z</time></trkpt><trkpt lat="46.09669743758289" lon="8.303413611224151"><ele>248.0</ele><time>2026-05-03T11:01:00.999Z</time></trkpt><trkpt lat="46.09650618017133" lon="8.303359830949068"><ele>248.0</ele><time>2026-05-03T11:01:01.999Z</time></trkpt><trkpt lat="46.09631516307677" lon="8.303298999258292"><ele>248.0</ele><time>2026-05-03T11:01:02.999Z</time></trkpt><trkpt lat="46.09612506993736" lon="8.303233910860518"><ele>248.0</ele><time>2026-05-03T11:01:03.999Z</time></trkpt><trkpt lat="46.09593545678543" lon="8.30316643052677"><ele>248.0</ele><time>2026-05-03T11:01:04.999Z</time></trkpt><trkpt lat="46.09574403787208" lon="8.303095461113417"><ele>248.33333333333334</ele><time>2026-05-03T11:01:05.999Z</time></trkpt><trkpt lat="46.095552385858284" lon="8.303023282697456"><ele>248.66666666666669</ele><time>2026-05-03T11:01:06.999Z</time></trkpt><trkpt lat="46.09536173124985" lon="8.302950799357792"><ele>249.0</ele><time>2026-05-03T11:01:07.999Z</time></trkpt><trkpt lat="46.09517014242603" lon="8.302877417897628"><ele>249.0</ele><time>2026-05-03T11:01:08.999Z</time></trkpt><trkpt lat="46.09497710150899" lon="8.302804281285466"><ele>249.0</ele><time>2026-05-03T11:01:09.999Z</time></trkpt><trkpt lat="46.094784757202966" lon="8.30272820283257"><ele>249.0</ele><time>2026-05-03T11:01:10.999Z</time></trkpt><trkpt lat="46.09459368699708" lon="8.302648921040223"><ele>248.33333333333331</ele><time>2026-05-03T11:01:11.999Z</time></trkpt><trkpt lat="46.094403841277185" lon="8.302563592933392"><ele>247.66666666666666</ele><time>2026-05-03T11:01:12.999Z</time></trkpt><trkpt lat="46.094218297163344" lon="8.302469028179061"><ele>247.0</ele><time>2026-05-03T11:01:13.999Z</time></trkpt><trkpt lat="46.09403538781874" lon="8.302361638001319"><ele>246.33333333333331</ele><time>2026-05-03T11:01:14.999Z</time></trkpt><trkpt lat="46.093855852749265" lon="8.302246051618614"><ele>245.66666666666669</ele><time>2026-05-03T11:01:15.999Z</time></trkpt><trkpt lat="46.09368010691166" lon="8.30212361449831"><ele>245.0</ele><time>2026-05-03T11:01:16.999Z</time></trkpt><trkpt lat="46.093508836167985" lon="8.301991320515647"><ele>245.0</ele><time>2026-05-03T11:01:17.999Z</time></trkpt><trkpt lat="46.093342872201134" lon="8.301848407703858"><ele>245.0</ele><time>2026-05-03T11:01:18.999Z</time></trkpt><trkpt lat="46.09318142983878" lon="8.301694872662361"><ele>245.0</ele><time>2026-05-03T11:01:19.999Z</time></trkpt><trkpt lat="46.09302403795232" lon="8.30153446257337"><ele>245.0</ele><time>2026-05-03T11:01:21Z</time></trkpt><trkpt lat="46.09286969555933" lon="8.301367957361427"><ele>245.0</ele><time>2026-05-03T11:01:22Z</time></trkpt><trkpt lat="46.09271694597684" lon="8.301199401305793"><ele>245.0</ele><time>2026-05-03T11:01:23Z</time></trkpt><trkpt lat="46.092568172044075" lon="8.301025300969117"><ele>245.0</ele><time>2026-05-03T11:01:24Z</time></trkpt><trkpt lat="46.09242464789775" lon="8.300840725585156"><ele>245.0</ele><time>2026-05-03T11:01:25Z</time></trkpt><trkpt lat="46.09228835120493" lon="8.30064314200145"><ele>245.0</ele><time>2026-05-03T11:01:26Z</time></trkpt><trkpt lat="46.09215873257658" lon="8.300432491858189"><ele>244.0</ele><time>2026-05-03T11:01:27Z</time></trkpt><trkpt lat="46.09203302516286" lon="8.300216401758759"><ele>243.0</ele><time>2026-05-03T11:01:28Z</time></trkpt><trkpt lat="46.09190892543775" lon="8.29999742647778"><ele>242.0</ele><time>2026-05-03T11:01:29Z</time></trkpt><trkpt lat="46.091790567847" lon="8.299773182828416"><ele>242.0</ele><time>2026-05-03T11:01:30Z</time></trkpt><trkpt lat="46.09168025152661" lon="8.299547777709765"><ele>242.0</ele><time>2026-05-03T11:01:31Z</time></trkpt><trkpt lat="46.091577872594144" lon="8.299315449966098"><ele>242.0</ele><time>2026-05-03T11:01:32Z</time></trkpt><trkpt lat="46.091482250257286" lon="8.299079416926867"><ele>242.33333333333334</ele><time>2026-05-03T11:01:33Z</time></trkpt><trkpt lat="46.09139128695203" lon="8.298839338089367"><ele>242.66666666666669</ele><time>2026-05-03T11:01:34Z</time></trkpt><trkpt lat="46.09130493845965" lon="8.29859677670104"><ele>243.0</ele><time>2026-05-03T11:01:35Z</time></trkpt><trkpt lat="46.09122489113885" lon="8.298352253264168"><ele>243.0</ele><time>2026-05-03T11:01:36Z</time></trkpt><trkpt lat="46.09115029780254" lon="8.298103201763372"><ele>243.0</ele><time>2026-05-03T11:01:37Z</time></trkpt><trkpt lat="46.0910814518992" lon="8.297849701704775"><ele>243.0</ele><time>2026-05-03T11:01:38Z</time></trkpt><trkpt lat="46.09101948686922" lon="8.297593081657057"><ele>243.66666666666669</ele><time>2026-05-03T11:01:39Z</time></trkpt><trkpt lat="46.09096277127567" lon="8.29733205171008"><ele>244.33333333333334</ele><time>2026-05-03T11:01:40Z</time></trkpt><trkpt lat="46.09090750142112" lon="8.297068956722722"><ele>245.0</ele><time>2026-05-03T11:01:41Z</time></trkpt><trkpt lat="46.09085154683139" lon="8.296805091930402"><ele>245.33333333333334</ele><time>2026-05-03T11:01:42Z</time></trkpt><trkpt lat="46.09079557466872" lon="8.296540032730531"><ele>245.66666666666669</ele><time>2026-05-03T11:01:43Z</time></trkpt><trkpt lat="46.09073837969042" lon="8.296267619293596"><ele>246.0</ele><time>2026-05-03T11:01:44Z</time></trkpt><trkpt lat="46.09068084987004" lon="8.295992125439891"><ele>246.0</ele><time>2026-05-03T11:01:45Z</time></trkpt><trkpt lat="46.09062212663641" lon="8.295717264568465"><ele>246.0</ele><time>2026-05-03T11:01:46Z</time></trkpt><trkpt lat="46.090562701024545" lon="8.295439548829483"><ele>246.0</ele><time>2026-05-03T11:01:47Z</time></trkpt><trkpt lat="46.09050240243772" lon="8.295161222785243"><ele>246.33333333333331</ele><time>2026-05-03T11:01:48Z</time></trkpt><trkpt lat="46.09043982272024" lon="8.294887082012712"><ele>246.66666666666666</ele><time>2026-05-03T11:01:49Z</time></trkpt><trkpt lat="46.09037749494105" lon="8.29460817124181"><ele>247.0</ele><time>2026-05-03T11:01:50Z</time></trkpt><trkpt lat="46.09031402841109" lon="8.294323474377144"><ele>246.0</ele><time>2026-05-03T11:01:51Z</time></trkpt><trkpt lat="46.09025562758848" lon="8.294035579086206"><ele>245.0</ele><time>2026-05-03T11:01:52Z</time></trkpt><trkpt lat="46.09019737526489" lon="8.293756880758686"><ele>244.0</ele><time>2026-05-03T11:01:53Z</time></trkpt><trkpt lat="46.09013753382671" lon="8.293479352584143"><ele>244.0</ele><time>2026-05-03T11:01:54Z</time></trkpt><trkpt lat="46.090078572588" lon="8.293203440935914"><ele>244.0</ele><time>2026-05-03T11:01:55Z</time></trkpt><trkpt lat="46.090019306148385" lon="8.29292948941032"><ele>244.0</ele><time>2026-05-03T11:01:56Z</time></trkpt><trkpt lat="46.089960747085605" lon="8.292655913688028"><ele>243.66666666666666</ele><time>2026-05-03T11:01:57Z</time></trkpt><trkpt lat="46.08990403727143" lon="8.292382395965952"><ele>243.33333333333331</ele><time>2026-05-03T11:01:58Z</time></trkpt><trkpt lat="46.089847875564104" lon="8.292108957715064"><ele>243.0</ele><time>2026-05-03T11:01:59Z</time></trkpt><trkpt lat="46.08979053317482" lon="8.291835183981142"><ele>243.0</ele><time>2026-05-03T11:02:00Z</time></trkpt><trkpt lat="46.08973291762622" lon="8.291561906062864"><ele>243.0</ele><time>2026-05-03T11:02:01Z</time></trkpt><trkpt lat="46.08967424733347" lon="8.291289644278464"><ele>243.0</ele><time>2026-05-03T11:02:02Z</time></trkpt><trkpt lat="46.08961488469282" lon="8.291018153824135"><ele>243.0</ele><time>2026-05-03T11:02:03Z</time></trkpt><trkpt lat="46.08955651729034" lon="8.290745604279024"><ele>243.0</ele><time>2026-05-03T11:02:04Z</time></trkpt><trkpt lat="46.08949940640963" lon="8.290474245540677"><ele>243.0</ele><time>2026-05-03T11:02:05Z</time></trkpt><trkpt lat="46.08944122941061" lon="8.290206120349367"><ele>243.0</ele><time>2026-05-03T11:02:06Z</time></trkpt><trkpt lat="46.08938157675137" lon="8.289938903143039"><ele>243.0</ele><time>2026-05-03T11:02:07Z</time></trkpt><trkpt lat="46.08932080386948" lon="8.289674278385172"><ele>243.0</ele><time>2026-05-03T11:02:08Z</time></trkpt><trkpt lat="46.08925933104377" lon="8.289412096246616"><ele>242.33333333333331</ele><time>2026-05-03T11:02:09Z</time></trkpt><trkpt lat="46.0891954581901" lon="8.2891530243774"><ele>241.66666666666666</ele><time>2026-05-03T11:02:10Z</time></trkpt><trkpt lat="46.0891284394957" lon="8.288898690527107"><ele>241.0</ele><time>2026-05-03T11:02:11Z</time></trkpt><trkpt lat="46.089052956345625" lon="8.288649182500924"><ele>240.66666666666666</ele><time>2026-05-03T11:02:12Z</time></trkpt><trkpt lat="46.08896703225978" lon="8.288407536736273"><ele>240.33333333333331</ele><time>2026-05-03T11:02:13Z</time></trkpt><trkpt lat="46.08887710778569" lon="8.288168363128504"><ele>240.0</ele><time>2026-05-03T11:02:14Z</time></trkpt><trkpt lat="46.08877635791261" lon="8.287935970156493"><ele>240.66666666666669</ele><time>2026-05-03T11:02:15Z</time></trkpt><trkpt lat="46.08866959922519" lon="8.287709030583787"><ele>241.33333333333334</ele><time>2026-05-03T11:02:16Z</time></trkpt><trkpt lat="46.088557410772154" lon="8.287484723344011"><ele>242.0</ele><time>2026-05-03T11:02:17Z</time></trkpt><trkpt lat="46.088437758134916" lon="8.287267393452009"><ele>242.33333333333334</ele><time>2026-05-03T11:02:18Z</time></trkpt><trkpt lat="46.088308263350534" lon="8.287057448514497"><ele>242.66666666666669</ele><time>2026-05-03T11:02:19Z</time></trkpt><trkpt lat="46.08816981679611" lon="8.286856207072956"><ele>243.0</ele><time>2026-05-03T11:02:20Z</time></trkpt><trkpt lat="46.088025125610265" lon="8.286662794857278"><ele>242.33333333333331</ele><time>2026-05-03T11:02:21Z</time></trkpt><trkpt lat="46.08787247960315" lon="8.286479270394743"><ele>241.66666666666666</ele><time>2026-05-03T11:02:22Z</time></trkpt><trkpt lat="46.087714947374046" lon="8.28630365420507"><ele>241.0</ele><time>2026-05-03T11:02:23Z</time></trkpt><trkpt lat="46.08755243954077" lon="8.286137292635548"><ele>240.33333333333331</ele><time>2026-05-03T11:02:24Z</time></trkpt><trkpt lat="46.087384544658" lon="8.285980852715015"><ele>239.66666666666669</ele><time>2026-05-03T11:02:25Z</time></trkpt><trkpt lat="46.08721140238401" lon="8.285836750377326"><ele>239.0</ele><time>2026-05-03T11:02:26Z</time></trkpt><trkpt lat="46.087033544193986" lon="8.285704348631562"><ele>238.66666666666669</ele><time>2026-05-03T11:02:27Z</time></trkpt><trkpt lat="46.08685411432458" lon="8.28557875590386"><ele>238.33333333333331</ele><time>2026-05-03T11:02:28Z</time></trkpt><trkpt lat="46.08667186168165" lon="8.2854599842443"><ele>238.0</ele><time>2026-05-03T11:02:29Z</time></trkpt><trkpt lat="46.08649182365078" lon="8.285342249965323"><ele>238.0</ele><time>2026-05-03T11:02:30Z</time></trkpt><trkpt lat="46.08631191297858" lon="8.285223801692876"><ele>238.0</ele><time>2026-05-03T11:02:31Z</time></trkpt><trkpt lat="46.086131314675406" lon="8.285104505487448"><ele>238.0</ele><time>2026-05-03T11:02:32Z</time></trkpt><trkpt lat="46.085951217465286" lon="8.284982332725052"><ele>238.0</ele><time>2026-05-03T11:02:33Z</time></trkpt><trkpt lat="46.08577127993354" lon="8.284858958343605"><ele>238.0</ele><time>2026-05-03T11:02:34Z</time></trkpt><trkpt lat="46.085592268300815" lon="8.28472975889043"><ele>238.0</ele><time>2026-05-03T11:02:35Z</time></trkpt><trkpt lat="46.08541397951834" lon="8.284593071829018"><ele>238.0</ele><time>2026-05-03T11:02:36Z</time></trkpt><trkpt lat="46.085235355208354" lon="8.284456821383685"><ele>238.0</ele><time>2026-05-03T11:02:37Z</time></trkpt><trkpt lat="46.08505618414389" lon="8.284322759757663"><ele>238.0</ele><time>2026-05-03T11:02:38Z</time></trkpt><trkpt lat="46.08487818531453" lon="8.284187325019658"><ele>238.0</ele><time>2026-05-03T11:02:39Z</time></trkpt><trkpt lat="46.084701377639696" lon="8.284050332676992"><ele>238.0</ele><time>2026-05-03T11:02:40Z</time></trkpt><trkpt lat="46.08452544697626" lon="8.283909967548613"><ele>238.0</ele><time>2026-05-03T11:02:41Z</time></trkpt><trkpt lat="46.084349921284996" lon="8.283768335122259"><ele>237.66666666666666</ele><time>2026-05-03T11:02:41.999Z</time></trkpt><trkpt lat="46.08417583770183" lon="8.28362658099743"><ele>237.33333333333331</ele><time>2026-05-03T11:02:42.999Z</time></trkpt><trkpt lat="46.08400446314841" lon="8.283482095320014"><ele>237.0</ele><time>2026-05-03T11:02:43.999Z</time></trkpt><trkpt lat="46.083832174975655" lon="8.283332859360028"><ele>237.0</ele><time>2026-05-03T11:02:44.999Z</time></trkpt><trkpt lat="46.083661306996575" lon="8.28317917217075"><ele>237.0</ele><time>2026-05-03T11:02:45.999Z</time></trkpt><trkpt lat="46.08349023008239" lon="8.28302258166013"><ele>237.0</ele><time>2026-05-03T11:02:46.999Z</time></trkpt><trkpt lat="46.08331921765936" lon="8.282862074960557"><ele>237.33333333333331</ele><time>2026-05-03T11:02:47.999Z</time></trkpt><trkpt lat="46.083150068333715" lon="8.282699325294356"><ele>237.66666666666666</ele><time>2026-05-03T11:02:48.999Z</time></trkpt><trkpt lat="46.08297979693459" lon="8.282535253990204"><ele>238.0</ele><time>2026-05-03T11:02:49.999Z</time></trkpt><trkpt lat="46.08280959175997" lon="8.282369793139855"><ele>237.66666666666666</ele><time>2026-05-03T11:02:50.999Z</time></trkpt><trkpt lat="46.08263972306488" lon="8.282204010637042"><ele>237.33333333333331</ele><time>2026-05-03T11:02:51.999Z</time></trkpt><trkpt lat="46.08246985373635" lon="8.282036685533182"><ele>237.0</ele><time>2026-05-03T11:02:52.999Z</time></trkpt><trkpt lat="46.08229903132348" lon="8.281872652481072"><ele>237.0</ele><time>2026-05-03T11:02:53.999Z</time></trkpt><trkpt lat="46.0821285053901" lon="8.281705373564389"><ele>237.0</ele><time>2026-05-03T11:02:54.999Z</time></trkpt><trkpt lat="46.08195886247433" lon="8.281538114791601"><ele>237.0</ele><time>2026-05-03T11:02:55.999Z</time></trkpt><trkpt lat="46.08178861613631" lon="8.281371361371924"><ele>237.0</ele><time>2026-05-03T11:02:56.999Z</time></trkpt><trkpt lat="46.08161786880045" lon="8.281205918410398"><ele>237.0</ele><time>2026-05-03T11:02:57.999Z</time></trkpt><trkpt lat="46.08144731081452" lon="8.281041807875573"><ele>237.0</ele><time>2026-05-03T11:02:58.999Z</time></trkpt><trkpt lat="46.08127768598177" lon="8.28087794739421"><ele>237.0</ele><time>2026-05-03T11:02:59.999Z</time></trkpt><trkpt lat="46.08110788754671" lon="8.280716691850964"><ele>237.0</ele><time>2026-05-03T11:03:00.999Z</time></trkpt><trkpt lat="46.08093874757894" lon="8.280554777415857"><ele>237.0</ele><time>2026-05-03T11:03:01.999Z</time></trkpt><trkpt lat="46.080772391525244" lon="8.280395481385037"><ele>237.0</ele><time>2026-05-03T11:03:02.999Z</time></trkpt><trkpt lat="46.08060678629939" lon="8.280238250539547"><ele>237.0</ele><time>2026-05-03T11:03:03.999Z</time></trkpt><trkpt lat="46.08044110974475" lon="8.280079530754422"><ele>237.0</ele><time>2026-05-03T11:03:04.999Z</time></trkpt><trkpt lat="46.080276365489524" lon="8.279921110827432"><ele>237.0</ele><time>2026-05-03T11:03:05.999Z</time></trkpt><trkpt lat="46.080111039618465" lon="8.279764308052155"><ele>237.0</ele><time>2026-05-03T11:03:06.999Z</time></trkpt><trkpt lat="46.07994524270474" lon="8.279606888979885"><ele>237.0</ele><time>2026-05-03T11:03:07.999Z</time></trkpt><trkpt lat="46.07977925119385" lon="8.279448932501602"><ele>236.66666666666669</ele><time>2026-05-03T11:03:08.999Z</time></trkpt><trkpt lat="46.07961306267787" lon="8.27929026541999"><ele>236.33333333333334</ele><time>2026-05-03T11:03:09.999Z</time></trkpt><trkpt lat="46.07944739964743" lon="8.279132208973786"><ele>236.0</ele><time>2026-05-03T11:03:10.999Z</time></trkpt><trkpt lat="46.079283061549326" lon="8.278975513997462"><ele>236.33333333333334</ele><time>2026-05-03T11:03:11.999Z</time></trkpt><trkpt lat="46.07912067257063" lon="8.278821159886158"><ele>236.66666666666669</ele><time>2026-05-03T11:03:12.999Z</time></trkpt><trkpt lat="46.07895558956915" lon="8.278666202609159"><ele>237.0</ele><time>2026-05-03T11:03:13.999Z</time></trkpt><trkpt lat="46.078789659725544" lon="8.278513874959918"><ele>237.33333333333331</ele><time>2026-05-03T11:03:14.999Z</time></trkpt><trkpt lat="46.078621511563234" lon="8.278369028240501"><ele>237.66666666666666</ele><time>2026-05-03T11:03:15.999Z</time></trkpt><trkpt lat="46.07845150166662" lon="8.278227074382091"><ele>238.0</ele><time>2026-05-03T11:03:16.999Z</time></trkpt><trkpt lat="46.07827871285753" lon="8.278088276835776"><ele>237.0</ele><time>2026-05-03T11:03:17.999Z</time></trkpt><trkpt lat="46.07810471446046" lon="8.277953949094833"><ele>236.0</ele><time>2026-05-03T11:03:18.999Z</time></trkpt><trkpt lat="46.07792701386709" lon="8.277826808064829"><ele>235.0</ele><time>2026-05-03T11:03:19.999Z</time></trkpt><trkpt lat="46.077747033684126" lon="8.277703812462185"><ele>235.0</ele><time>2026-05-03T11:03:20.999Z</time></trkpt><trkpt lat="46.07756442927532" lon="8.277586624981216"><ele>235.0</ele><time>2026-05-03T11:03:21.999Z</time></trkpt><trkpt lat="46.0773776438007" lon="8.277479217007043"><ele>235.0</ele><time>2026-05-03T11:03:22.999Z</time></trkpt><trkpt lat="46.07718848801018" lon="8.27738391803768"><ele>234.66666666666666</ele><time>2026-05-03T11:03:23.999Z</time></trkpt><trkpt lat="46.07699684079309" lon="8.277298759850327"><ele>234.33333333333331</ele><time>2026-05-03T11:03:24.999Z</time></trkpt><trkpt lat="46.0768025818969" lon="8.277223058129481"><ele>234.0</ele><time>2026-05-03T11:03:25.999Z</time></trkpt><trkpt lat="46.076605887788126" lon="8.277162216681724"><ele>235.0</ele><time>2026-05-03T11:03:27Z</time></trkpt><trkpt lat="46.07640646641876" lon="8.277107823607665"><ele>236.0</ele><time>2026-05-03T11:03:28Z</time></trkpt><trkpt lat="46.076205133025695" lon="8.277063547375162"><ele>237.0</ele><time>2026-05-03T11:03:29Z</time></trkpt><trkpt lat="46.07600067080459" lon="8.277032815240823"><ele>237.0</ele><time>2026-05-03T11:03:30Z</time></trkpt><trkpt lat="46.07579465782327" lon="8.27701194437673"><ele>237.0</ele><time>2026-05-03T11:03:31Z</time></trkpt><trkpt lat="46.07558753481602" lon="8.277000383039107"><ele>237.0</ele><time>2026-05-03T11:03:32Z</time></trkpt><trkpt lat="46.0753804830697" lon="8.276996460735157"><ele>237.0</ele><time>2026-05-03T11:03:33Z</time></trkpt><trkpt lat="46.075171908973104" lon="8.276998468726765"><ele>237.0</ele><time>2026-05-03T11:03:34Z</time></trkpt><trkpt lat="46.074962800998144" lon="8.277008569967922"><ele>237.0</ele><time>2026-05-03T11:03:35Z</time></trkpt><trkpt lat="46.07475392675353" lon="8.277022612995683"><ele>237.66666666666669</ele><time>2026-05-03T11:03:36Z</time></trkpt><trkpt lat="46.074544456137865" lon="8.277041904601976"><ele>238.33333333333334</ele><time>2026-05-03T11:03:37Z</time></trkpt><trkpt lat="46.074335789784186" lon="8.277064312892907"><ele>239.0</ele><time>2026-05-03T11:03:38Z</time></trkpt><trkpt lat="46.07412806751843" lon="8.277088038948778"><ele>239.0</ele><time>2026-05-03T11:03:39Z</time></trkpt><trkpt lat="46.073920326451315" lon="8.277113070549156"><ele>239.0</ele><time>2026-05-03T11:03:40Z</time></trkpt><trkpt lat="46.07371316134979" lon="8.27714039223424"><ele>239.0</ele><time>2026-05-03T11:03:41Z</time></trkpt><trkpt lat="46.073508076360085" lon="8.277170472523839"><ele>239.0</ele><time>2026-05-03T11:03:42Z</time></trkpt><trkpt lat="46.07330396350382" lon="8.277201288338327"><ele>239.0</ele><time>2026-05-03T11:03:43Z</time></trkpt><trkpt lat="46.07310089357635" lon="8.277228430659264"><ele>239.0</ele><time>2026-05-03T11:03:44Z</time></trkpt><trkpt lat="46.0728978637497" lon="8.277252002174786"><ele>240.0</ele><time>2026-05-03T11:03:45Z</time></trkpt><trkpt lat="46.07269603370793" lon="8.277276333696198"><ele>241.0</ele><time>2026-05-03T11:03:46Z</time></trkpt><trkpt lat="46.072495791716285" lon="8.277303912366115"><ele>242.0</ele><time>2026-05-03T11:03:47Z</time></trkpt><trkpt lat="46.072295079243354" lon="8.277334058103294"><ele>243.0</ele><time>2026-05-03T11:03:48Z</time></trkpt><trkpt lat="46.07209116950415" lon="8.277361934044185"><ele>244.0</ele><time>2026-05-03T11:03:49Z</time></trkpt><trkpt lat="46.07188909075251" lon="8.277386158494632"><ele>245.0</ele><time>2026-05-03T11:03:50Z</time></trkpt><trkpt lat="46.071686861210814" lon="8.277408971660126"><ele>244.0</ele><time>2026-05-03T11:03:51Z</time></trkpt><trkpt lat="46.07148508967968" lon="8.277431652951893"><ele>243.0</ele><time>2026-05-03T11:03:52Z</time></trkpt><trkpt lat="46.07128275092124" lon="8.27745364952011"><ele>242.0</ele><time>2026-05-03T11:03:53Z</time></trkpt><trkpt lat="46.0710791161058" lon="8.277473653140198"><ele>242.0</ele><time>2026-05-03T11:03:54Z</time></trkpt><trkpt lat="46.07087399043788" lon="8.2774913907636"><ele>242.0</ele><time>2026-05-03T11:03:55Z</time></trkpt><trkpt lat="46.07066967350326" lon="8.277505208546213"><ele>242.0</ele><time>2026-05-03T11:03:56Z</time></trkpt><trkpt lat="46.070464443117004" lon="8.277516361176037"><ele>242.33333333333334</ele><time>2026-05-03T11:03:57Z</time></trkpt><trkpt lat="46.07025704876582" lon="8.27752650393153"><ele>242.66666666666669</ele><time>2026-05-03T11:03:58Z</time></trkpt><trkpt lat="46.070047783147764" lon="8.277534647866542"><ele>243.0</ele><time>2026-05-03T11:03:59Z</time></trkpt><trkpt lat="46.06983716686574" lon="8.277537217770686"><ele>241.66666666666669</ele><time>2026-05-03T11:04:00Z</time></trkpt><trkpt lat="46.069625399567926" lon="8.277533978918266"><ele>240.33333333333334</ele><time>2026-05-03T11:04:01Z</time></trkpt><trkpt lat="46.069413691711134" lon="8.277525337807237"><ele>239.0</ele><time>2026-05-03T11:04:02Z</time></trkpt><trkpt lat="46.06920218410172" lon="8.277513083472494"><ele>238.0</ele><time>2026-05-03T11:04:03Z</time></trkpt><trkpt lat="46.068989166957905" lon="8.277495751773145"><ele>237.0</ele><time>2026-05-03T11:04:04Z</time></trkpt><trkpt lat="46.06877583180191" lon="8.277475849083924"><ele>236.0</ele><time>2026-05-03T11:04:05Z</time></trkpt><trkpt lat="46.06856147827795" lon="8.277452922863507"><ele>236.0</ele><time>2026-05-03T11:04:06Z</time></trkpt><trkpt lat="46.0683461083079" lon="8.277427075520873"><ele>236.0</ele><time>2026-05-03T11:04:07Z</time></trkpt><trkpt lat="46.06813161181786" lon="8.277395207357845"><ele>236.0</ele><time>2026-05-03T11:04:08Z</time></trkpt><trkpt lat="46.06791858089984" lon="8.277356685721797"><ele>235.66666666666669</ele><time>2026-05-03T11:04:09Z</time></trkpt><trkpt lat="46.06770737391207" lon="8.27731179250349"><ele>235.33333333333331</ele><time>2026-05-03T11:04:10Z</time></trkpt><trkpt lat="46.067496700090565" lon="8.277261879698159"><ele>235.0</ele><time>2026-05-03T11:04:11Z</time></trkpt><trkpt lat="46.067287141085146" lon="8.277210215123088"><ele>235.66666666666666</ele><time>2026-05-03T11:04:12Z</time></trkpt><trkpt lat="46.067078079602695" lon="8.277157329281629"><ele>236.33333333333331</ele><time>2026-05-03T11:04:13Z</time></trkpt><trkpt lat="46.066869733606" lon="8.277101360623229"><ele>237.0</ele><time>2026-05-03T11:04:14Z</time></trkpt><trkpt lat="46.06666294332173" lon="8.277043048761778"><ele>237.33333333333331</ele><time>2026-05-03T11:04:15Z</time></trkpt><trkpt lat="46.066457486908305" lon="8.276979890696053"><ele>237.66666666666666</ele><time>2026-05-03T11:04:16Z</time></trkpt><trkpt lat="46.066253721504765" lon="8.276913913112182"><ele>238.0</ele><time>2026-05-03T11:04:17Z</time></trkpt><trkpt lat="46.066050697065606" lon="8.27684541807661"><ele>238.0</ele><time>2026-05-03T11:04:18Z</time></trkpt><trkpt lat="46.06584753154498" lon="8.276777423579434"><ele>238.0</ele><time>2026-05-03T11:04:19Z</time></trkpt><trkpt lat="46.06564683649602" lon="8.276709989738448"><ele>238.0</ele><time>2026-05-03T11:04:20Z</time></trkpt><trkpt lat="46.06544753760616" lon="8.276642186023746"><ele>237.66666666666666</ele><time>2026-05-03T11:04:21Z</time></trkpt><trkpt lat="46.06524932671627" lon="8.276572293150036"><ele>237.33333333333331</ele><time>2026-05-03T11:04:22Z</time></trkpt><trkpt lat="46.065052041252976" lon="8.276502955646729"><ele>237.0</ele><time>2026-05-03T11:04:23Z</time></trkpt><trkpt lat="46.064856485664336" lon="8.276428772442342"><ele>237.0</ele><time>2026-05-03T11:04:24Z</time></trkpt><trkpt lat="46.064661252551176" lon="8.276348583252895"><ele>237.0</ele><time>2026-05-03T11:04:25Z</time></trkpt><trkpt lat="46.06446658273713" lon="8.276268201325978"><ele>237.0</ele><time>2026-05-03T11:04:26Z</time></trkpt><trkpt lat="46.064270101657996" lon="8.276195273923376"><ele>236.66666666666669</ele><time>2026-05-03T11:04:27Z</time></trkpt><trkpt lat="46.06407179122019" lon="8.276129629969606"><ele>236.33333333333334</ele><time>2026-05-03T11:04:28Z</time></trkpt><trkpt lat="46.063872637918884" lon="8.276069465079402"><ele>236.0</ele><time>2026-05-03T11:04:29Z</time></trkpt><trkpt lat="46.06367018975898" lon="8.276015591121226"><ele>236.0</ele><time>2026-05-03T11:04:30Z</time></trkpt><trkpt lat="46.063465114694004" lon="8.275967816585847"><ele>236.0</ele><time>2026-05-03T11:04:31Z</time></trkpt><trkpt lat="46.06325944093346" lon="8.27592858756415"><ele>236.0</ele><time>2026-05-03T11:04:32Z</time></trkpt><trkpt lat="46.06305192940308" lon="8.275897490154573"><ele>236.0</ele><time>2026-05-03T11:04:33Z</time></trkpt><trkpt lat="46.06284360225594" lon="8.275875303617452"><ele>236.0</ele><time>2026-05-03T11:04:34Z</time></trkpt><trkpt lat="46.06263412545417" lon="8.275863389606586"><ele>236.0</ele><time>2026-05-03T11:04:35Z</time></trkpt><trkpt lat="46.06242441312584" lon="8.275858082307368"><ele>235.33333333333334</ele><time>2026-05-03T11:04:36Z</time></trkpt><trkpt lat="46.062215074743655" lon="8.275854940599348"><ele>234.66666666666669</ele><time>2026-05-03T11:04:37Z</time></trkpt><trkpt lat="46.06200593023582" lon="8.275851841606862"><ele>234.0</ele><time>2026-05-03T11:04:38Z</time></trkpt><trkpt lat="46.061796090360566" lon="8.275851775406588"><ele>234.33333333333331</ele><time>2026-05-03T11:04:39Z</time></trkpt><trkpt lat="46.061587223874156" lon="8.2758536286689"><ele>234.66666666666666</ele><time>2026-05-03T11:04:40Z</time></trkpt><trkpt lat="46.061377264661125" lon="8.275855813403677"><ele>235.0</ele><time>2026-05-03T11:04:41Z</time></trkpt><trkpt lat="46.06116833596573" lon="8.275858582574635"><ele>235.0</ele><time>2026-05-03T11:04:42Z</time></trkpt><trkpt lat="46.06095921804903" lon="8.275861508212177"><ele>235.0</ele><time>2026-05-03T11:04:43Z</time></trkpt><trkpt lat="46.06075016999226" lon="8.275864989488387"><ele>235.0</ele><time>2026-05-03T11:04:44Z</time></trkpt><trkpt lat="46.06054116638829" lon="8.275866930311246"><ele>235.0</ele><time>2026-05-03T11:04:45Z</time></trkpt><trkpt lat="46.06033144682663" lon="8.275868726094851"><ele>235.0</ele><time>2026-05-03T11:04:46Z</time></trkpt><trkpt lat="46.0601221388303" lon="8.275868248901151"><ele>235.0</ele><time>2026-05-03T11:04:47Z</time></trkpt><trkpt lat="46.05991307217378" lon="8.275864088257533"><ele>235.0</ele><time>2026-05-03T11:04:48Z</time></trkpt><trkpt lat="46.05970501713856" lon="8.275850257122269"><ele>235.0</ele><time>2026-05-03T11:04:49Z</time></trkpt><trkpt lat="46.05949651245755" lon="8.275824490444794"><ele>235.0</ele><time>2026-05-03T11:04:50Z</time></trkpt><trkpt lat="46.05929031963486" lon="8.27577497200378"><ele>235.33333333333331</ele><time>2026-05-03T11:04:51Z</time></trkpt><trkpt lat="46.059085197815705" lon="8.275711930402757"><ele>235.66666666666669</ele><time>2026-05-03T11:04:52Z</time></trkpt><trkpt lat="46.05888295435123" lon="8.275634328335792"><ele>236.0</ele><time>2026-05-03T11:04:53Z</time></trkpt><trkpt lat="46.05868403136445" lon="8.275538176565744"><ele>236.0</ele><time>2026-05-03T11:04:54Z</time></trkpt><trkpt lat="46.05849028464015" lon="8.275424628847993"><ele>236.0</ele><time>2026-05-03T11:04:55Z</time></trkpt><trkpt lat="46.05830217314835" lon="8.275293519487656"><ele>236.0</ele><time>2026-05-03T11:04:56Z</time></trkpt><trkpt lat="46.058120072622046" lon="8.275145801688984"><ele>235.33333333333334</ele><time>2026-05-03T11:04:57Z</time></trkpt><trkpt lat="46.057945207940534" lon="8.274985036373986"><ele>234.66666666666669</ele><time>2026-05-03T11:04:58Z</time></trkpt><trkpt lat="46.05777736637233" lon="8.274809248575647"><ele>234.0</ele><time>2026-05-03T11:04:59Z</time></trkpt><trkpt lat="46.05761307634786" lon="8.27462305686145"><ele>233.0</ele><time>2026-05-03T11:05:00Z</time></trkpt><trkpt lat="46.05744973683632" lon="8.274435424752248"><ele>232.0</ele><time>2026-05-03T11:05:01Z</time></trkpt><trkpt lat="46.057289863537854" lon="8.274248295156829"><ele>231.0</ele><time>2026-05-03T11:05:02Z</time></trkpt><trkpt lat="46.05713105212266" lon="8.274061278071958"><ele>232.0</ele><time>2026-05-03T11:05:03Z</time></trkpt><trkpt lat="46.056973617318384" lon="8.273875889395322"><ele>233.0</ele><time>2026-05-03T11:05:04Z</time></trkpt><trkpt lat="46.05681733796014" lon="8.27369100230243"><ele>234.0</ele><time>2026-05-03T11:05:05Z</time></trkpt><trkpt lat="46.05666286325645" lon="8.273505082169866"><ele>233.0</ele><time>2026-05-03T11:05:06Z</time></trkpt><trkpt lat="46.056509281318185" lon="8.273318837605318"><ele>232.0</ele><time>2026-05-03T11:05:07Z</time></trkpt><trkpt lat="46.05635647133154" lon="8.273137056669881"><ele>231.0</ele><time>2026-05-03T11:05:08Z</time></trkpt><trkpt lat="46.05620235353343" lon="8.272956173165621"><ele>231.0</ele><time>2026-05-03T11:05:09Z</time></trkpt><trkpt lat="46.056047482810335" lon="8.2727785585688"><ele>231.0</ele><time>2026-05-03T11:05:10Z</time></trkpt><trkpt lat="46.055890267773805" lon="8.272605158876342"><ele>231.0</ele><time>2026-05-03T11:05:11Z</time></trkpt><trkpt lat="46.05573030797474" lon="8.272437360863547"><ele>231.66666666666669</ele><time>2026-05-03T11:05:12Z</time></trkpt><trkpt lat="46.05556710832652" lon="8.272272421928415"><ele>232.33333333333334</ele><time>2026-05-03T11:05:13Z</time></trkpt><trkpt lat="46.055402777023176" lon="8.272111215022614"><ele>233.0</ele><time>2026-05-03T11:05:14Z</time></trkpt><trkpt lat="46.05523463292159" lon="8.271957497643331"><ele>233.0</ele><time>2026-05-03T11:05:15Z</time></trkpt><trkpt lat="46.05506210379422" lon="8.271813014225925"><ele>233.0</ele><time>2026-05-03T11:05:16Z</time></trkpt><trkpt lat="46.054885647812085" lon="8.27167376141815"><ele>233.0</ele><time>2026-05-03T11:05:17Z</time></trkpt><trkpt lat="46.0547062759103" lon="8.271538783072186"><ele>232.33333333333334</ele><time>2026-05-03T11:05:18Z</time></trkpt><trkpt lat="46.05452589109012" lon="8.271407052221676"><ele>231.66666666666669</ele><time>2026-05-03T11:05:19Z</time></trkpt><trkpt lat="46.054342353748915" lon="8.271282923621428"><ele>231.0</ele><time>2026-05-03T11:05:20Z</time></trkpt><trkpt lat="46.054157162364824" lon="8.271163481144983"><ele>231.0</ele><time>2026-05-03T11:05:21Z</time></trkpt><trkpt lat="46.05396909061624" lon="8.271054004077097"><ele>231.0</ele><time>2026-05-03T11:05:22Z</time></trkpt><trkpt lat="46.053778641009" lon="8.270951634377251"><ele>231.0</ele><time>2026-05-03T11:05:23Z</time></trkpt><trkpt lat="46.0535854491843" lon="8.270853873258815"><ele>231.0</ele><time>2026-05-03T11:05:23.999Z</time></trkpt><trkpt lat="46.053390454773215" lon="8.270763108479585"><ele>231.0</ele><time>2026-05-03T11:05:24.999Z</time></trkpt><trkpt lat="46.053193713592066" lon="8.270680697632862"><ele>231.0</ele><time>2026-05-03T11:05:25.999Z</time></trkpt><trkpt lat="46.05299526392741" lon="8.270603766697143"><ele>230.66666666666669</ele><time>2026-05-03T11:05:26.999Z</time></trkpt><trkpt lat="46.052795589281814" lon="8.270533171928873"><ele>230.33333333333334</ele><time>2026-05-03T11:05:27.999Z</time></trkpt><trkpt lat="46.05259733276476" lon="8.270464995126426"><ele>230.0</ele><time>2026-05-03T11:05:28.999Z</time></trkpt><trkpt lat="46.05239905531784" lon="8.270395420331331"><ele>229.66666666666669</ele><time>2026-05-03T11:05:29.999Z</time></trkpt><trkpt lat="46.05220071762926" lon="8.270328064193432"><ele>229.33333333333331</ele><time>2026-05-03T11:05:30.999Z</time></trkpt><trkpt lat="46.052003208870495" lon="8.270261067955076"><ele>229.0</ele><time>2026-05-03T11:05:31.999Z</time></trkpt><trkpt lat="46.05180583134443" lon="8.270193080491449"><ele>230.0</ele><time>2026-05-03T11:05:33Z</time></trkpt><trkpt lat="46.05160794755352" lon="8.270126816633152"><ele>231.0</ele><time>2026-05-03T11:05:34Z</time></trkpt><trkpt lat="46.051410696994395" lon="8.270058152557697"><ele>232.0</ele><time>2026-05-03T11:05:35Z</time></trkpt><trkpt lat="46.051214358268325" lon="8.269981805545427"><ele>232.0</ele><time>2026-05-03T11:05:36Z</time></trkpt><trkpt lat="46.0510206413467" lon="8.269895599954946"><ele>232.0</ele><time>2026-05-03T11:05:37Z</time></trkpt><trkpt lat="46.05082841458761" lon="8.26980041190798"><ele>232.0</ele><time>2026-05-03T11:05:38Z</time></trkpt><trkpt lat="46.050638505818235" lon="8.269695932042069"><ele>232.0</ele><time>2026-05-03T11:05:39Z</time></trkpt><trkpt lat="46.05045149965237" lon="8.26958195738985"><ele>232.0</ele><time>2026-05-03T11:05:40Z</time></trkpt><trkpt lat="46.05026687288803" lon="8.269455481122927"><ele>232.0</ele><time>2026-05-03T11:05:41Z</time></trkpt><trkpt lat="46.05008432652068" lon="8.269322446513831"><ele>231.66666666666666</ele><time>2026-05-03T11:05:42Z</time></trkpt><trkpt lat="46.04990383927345" lon="8.269183280331365"><ele>231.33333333333331</ele><time>2026-05-03T11:05:43Z</time></trkpt><trkpt lat="46.04972723719111" lon="8.269037277777826"><ele>231.0</ele><time>2026-05-03T11:05:44Z</time></trkpt><trkpt lat="46.04955414329582" lon="8.268882389232052"><ele>231.0</ele><time>2026-05-03T11:05:45Z</time></trkpt><trkpt lat="46.04938547313151" lon="8.268717036493832"><ele>231.0</ele><time>2026-05-03T11:05:46Z</time></trkpt><trkpt lat="46.049220197605266" lon="8.2685447036638"><ele>231.0</ele><time>2026-05-03T11:05:47Z</time></trkpt><trkpt lat="46.04905817864112" lon="8.268366001886609"><ele>231.33333333333331</ele><time>2026-05-03T11:05:48Z</time></trkpt><trkpt lat="46.048899459462206" lon="8.268180936174641"><ele>231.66666666666666</ele><time>2026-05-03T11:05:49Z</time></trkpt><trkpt lat="46.04874733997043" lon="8.267986032070997"><ele>232.0</ele><time>2026-05-03T11:05:50Z</time></trkpt><trkpt lat="46.048601517672196" lon="8.267783292756752"><ele>232.0</ele><time>2026-05-03T11:05:51Z</time></trkpt><trkpt lat="46.04845754107205" lon="8.267578774830477"><ele>232.0</ele><time>2026-05-03T11:05:52Z</time></trkpt><trkpt lat="46.04831383098345" lon="8.267371789202109"><ele>232.0</ele><time>2026-05-03T11:05:53Z</time></trkpt><trkpt lat="46.04817121920986" lon="8.267165690446845"><ele>231.33333333333331</ele><time>2026-05-03T11:05:54Z</time></trkpt><trkpt lat="46.04803053455306" lon="8.266961104039762"><ele>230.66666666666669</ele><time>2026-05-03T11:05:55Z</time></trkpt><trkpt lat="46.04789141831874" lon="8.266754852413586"><ele>230.0</ele><time>2026-05-03T11:05:56Z</time></trkpt><trkpt lat="46.047750377667896" lon="8.266550824535535"><ele>230.66666666666669</ele><time>2026-05-03T11:05:57Z</time></trkpt><trkpt lat="46.04760909040485" lon="8.26634941518283"><ele>231.33333333333331</ele><time>2026-05-03T11:05:58Z</time></trkpt><trkpt lat="46.04746608048416" lon="8.266149485408462"><ele>232.0</ele><time>2026-05-03T11:05:59Z</time></trkpt><trkpt lat="46.047322059179166" lon="8.265951677814451"><ele>232.0</ele><time>2026-05-03T11:06:00Z</time></trkpt><trkpt lat="46.047174722639014" lon="8.26575979299528"><ele>232.0</ele><time>2026-05-03T11:06:01Z</time></trkpt><trkpt lat="46.047023817826286" lon="8.265576511718713"><ele>232.0</ele><time>2026-05-03T11:06:02Z</time></trkpt><trkpt lat="46.046866630647436" lon="8.265399921133886"><ele>232.33333333333331</ele><time>2026-05-03T11:06:03Z</time></trkpt><trkpt lat="46.046700815534756" lon="8.265237437557198"><ele>232.66666666666669</ele><time>2026-05-03T11:06:04Z</time></trkpt><trkpt lat="46.04652917290207" lon="8.265087847122881"><ele>233.0</ele><time>2026-05-03T11:06:05Z</time></trkpt><trkpt lat="46.04635363519029" lon="8.26494680572709"><ele>233.0</ele><time>2026-05-03T11:06:06Z</time></trkpt><trkpt lat="46.04617333310308" lon="8.264816461305406"><ele>233.0</ele><time>2026-05-03T11:06:07Z</time></trkpt><trkpt lat="46.04598711070279" lon="8.264701840766232"><ele>233.0</ele><time>2026-05-03T11:06:08Z</time></trkpt><trkpt lat="46.045795454221555" lon="8.264596314793293"><ele>232.33333333333334</ele><time>2026-05-03T11:06:09Z</time></trkpt><trkpt lat="46.045599445106944" lon="8.264505236235804"><ele>231.66666666666669</ele><time>2026-05-03T11:06:10Z</time></trkpt><trkpt lat="46.045398859709245" lon="8.264431631996596"><ele>231.0</ele><time>2026-05-03T11:06:11Z</time></trkpt><trkpt lat="46.04519788419442" lon="8.26437211352032"><ele>231.0</ele><time>2026-05-03T11:06:12Z</time></trkpt><trkpt lat="46.0449946998079" lon="8.264324545945136"><ele>231.0</ele><time>2026-05-03T11:06:13Z</time></trkpt><trkpt lat="46.04479115932074" lon="8.264291144725945"><ele>231.0</ele><time>2026-05-03T11:06:14Z</time></trkpt><trkpt lat="46.04458573048195" lon="8.264275502779292"><ele>231.0</ele><time>2026-05-03T11:06:15Z</time></trkpt><trkpt lat="46.04438107928482" lon="8.264274066919288"><ele>231.0</ele><time>2026-05-03T11:06:16Z</time></trkpt><trkpt lat="46.04417539196979" lon="8.264286125916927"><ele>231.0</ele><time>2026-05-03T11:06:17Z</time></trkpt><trkpt lat="46.04396841109331" lon="8.264312853469088"><ele>231.0</ele><time>2026-05-03T11:06:18Z</time></trkpt><trkpt lat="46.04376248804217" lon="8.264346002295303"><ele>231.0</ele><time>2026-05-03T11:06:19Z</time></trkpt><trkpt lat="46.04355543675382" lon="8.264384258144718"><ele>231.0</ele><time>2026-05-03T11:06:20Z</time></trkpt><trkpt lat="46.04334836093302" lon="8.26442581107169"><ele>231.66666666666669</ele><time>2026-05-03T11:06:21Z</time></trkpt><trkpt lat="46.043141316754436" lon="8.26447013381469"><ele>232.33333333333334</ele><time>2026-05-03T11:06:22Z</time></trkpt><trkpt lat="46.0429341064031" lon="8.264515053900412"><ele>233.0</ele><time>2026-05-03T11:06:23Z</time></trkpt><trkpt lat="46.042727807548154" lon="8.264555973862887"><ele>233.0</ele><time>2026-05-03T11:06:24Z</time></trkpt><trkpt lat="46.04252124622652" lon="8.264593188142825"><ele>233.0</ele><time>2026-05-03T11:06:25Z</time></trkpt><trkpt lat="46.04231607343785" lon="8.264628523841736"><ele>233.0</ele><time>2026-05-03T11:06:26Z</time></trkpt><trkpt lat="46.04211312461554" lon="8.264666804462676"><ele>232.0</ele><time>2026-05-03T11:06:27Z</time></trkpt><trkpt lat="46.041910444468506" lon="8.264707902378092"><ele>231.0</ele><time>2026-05-03T11:06:28Z</time></trkpt><trkpt lat="46.041709431670476" lon="8.264750250007861"><ele>230.0</ele><time>2026-05-03T11:06:29Z</time></trkpt><trkpt lat="46.04151079498264" lon="8.264793846899298"><ele>230.0</ele><time>2026-05-03T11:06:30Z</time></trkpt><trkpt lat="46.04131329209028" lon="8.264840484656991"><ele>230.0</ele><time>2026-05-03T11:06:31Z</time></trkpt><trkpt lat="46.041117962301186" lon="8.264895924655525"><ele>230.0</ele><time>2026-05-03T11:06:32Z</time></trkpt><trkpt lat="46.04092549726871" lon="8.264965471505889"><ele>229.66666666666669</ele><time>2026-05-03T11:06:33Z</time></trkpt><trkpt lat="46.040737987830305" lon="8.26504821618847"><ele>229.33333333333331</ele><time>2026-05-03T11:06:34Z</time></trkpt><trkpt lat="46.04055465058923" lon="8.26514632345065"><ele>229.0</ele><time>2026-05-03T11:06:35Z</time></trkpt><trkpt lat="46.04037280377157" lon="8.265257430743064"><ele>229.0</ele><time>2026-05-03T11:06:36Z</time></trkpt><trkpt lat="46.040197055617924" lon="8.265379249091929"><ele>229.0</ele><time>2026-05-03T11:06:37Z</time></trkpt><trkpt lat="46.04002526903782" lon="8.265515462940437"><ele>229.0</ele><time>2026-05-03T11:06:38Z</time></trkpt><trkpt lat="46.03986130483656" lon="8.265667219013789"><ele>229.33333333333331</ele><time>2026-05-03T11:06:39Z</time></trkpt><trkpt lat="46.03970333273785" lon="8.265832101536807"><ele>229.66666666666669</ele><time>2026-05-03T11:06:40Z</time></trkpt><trkpt lat="46.03955014504525" lon="8.266005126752805"><ele>230.0</ele><time>2026-05-03T11:06:41Z</time></trkpt><trkpt lat="46.03940186648209" lon="8.266188850374075"><ele>230.0</ele><time>2026-05-03T11:06:42Z</time></trkpt><trkpt lat="46.039259798524256" lon="8.26638520683164"><ele>230.0</ele><time>2026-05-03T11:06:43Z</time></trkpt><trkpt lat="46.03912080318533" lon="8.266589510450121"><ele>230.0</ele><time>2026-05-03T11:06:44Z</time></trkpt><trkpt lat="46.03898100434501" lon="8.266799062606633"><ele>229.66666666666669</ele><time>2026-05-03T11:06:45Z</time></trkpt><trkpt lat="46.03884261808124" lon="8.267010649527998"><ele>229.33333333333331</ele><time>2026-05-03T11:06:46Z</time></trkpt><trkpt lat="46.038703196582965" lon="8.267222982143748"><ele>229.0</ele><time>2026-05-03T11:06:47Z</time></trkpt><trkpt lat="46.0385646475104" lon="8.267438467175944"><ele>229.0</ele><time>2026-05-03T11:06:48Z</time></trkpt><trkpt lat="46.03842689353086" lon="8.26765619930648"><ele>229.0</ele><time>2026-05-03T11:06:49Z</time></trkpt><trkpt lat="46.03828688070807" lon="8.267874076047534"><ele>229.0</ele><time>2026-05-03T11:06:50Z</time></trkpt><trkpt lat="46.038145643141085" lon="8.268094365649768"><ele>229.0</ele><time>2026-05-03T11:06:51Z</time></trkpt><trkpt lat="46.03800150088939" lon="8.268313087276681"><ele>229.0</ele><time>2026-05-03T11:06:52Z</time></trkpt><trkpt lat="46.037856239600906" lon="8.268532210205596"><ele>229.0</ele><time>2026-05-03T11:06:53Z</time></trkpt><trkpt lat="46.037711691281544" lon="8.268753328129709"><ele>228.66666666666666</ele><time>2026-05-03T11:06:54Z</time></trkpt><trkpt lat="46.037567948601705" lon="8.268975325379122"><ele>228.33333333333331</ele><time>2026-05-03T11:06:55Z</time></trkpt><trkpt lat="46.03742434284185" lon="8.2691979198671"><ele>228.0</ele><time>2026-05-03T11:06:56Z</time></trkpt><trkpt lat="46.03728088930057" lon="8.2694211529351"><ele>228.0</ele><time>2026-05-03T11:06:57Z</time></trkpt><trkpt lat="46.037136498843445" lon="8.269642153858724"><ele>228.0</ele><time>2026-05-03T11:06:58Z</time></trkpt><trkpt lat="46.03699282323853" lon="8.26986236536491"><ele>228.0</ele><time>2026-05-03T11:06:59Z</time></trkpt><trkpt lat="46.036850796405936" lon="8.270084277584317"><ele>228.33333333333331</ele><time>2026-05-03T11:07:00Z</time></trkpt><trkpt lat="46.03670871054704" lon="8.270303905129385"><ele>228.66666666666666</ele><time>2026-05-03T11:07:01Z</time></trkpt><trkpt lat="46.03656836785443" lon="8.270520699614947"><ele>229.0</ele><time>2026-05-03T11:07:02Z</time></trkpt><trkpt lat="46.036428655203146" lon="8.270736689533404"><ele>229.33333333333331</ele><time>2026-05-03T11:07:03Z</time></trkpt><trkpt lat="46.03628943207726" lon="8.270952174033972"><ele>229.66666666666669</ele><time>2026-05-03T11:07:04Z</time></trkpt><trkpt lat="46.036150975042496" lon="8.271168260973367"><ele>230.0</ele><time>2026-05-03T11:07:05Z</time></trkpt><trkpt lat="46.03601347611716" lon="8.271384627956225"><ele>230.0</ele><time>2026-05-03T11:07:06Z</time></trkpt><trkpt lat="46.035875410787845" lon="8.271601613379552"><ele>230.0</ele><time>2026-05-03T11:07:07Z</time></trkpt><trkpt lat="46.03573426552813" lon="8.27181600173607"><ele>230.0</ele><time>2026-05-03T11:07:08Z</time></trkpt><trkpt lat="46.03559287247205" lon="8.272028474417077"><ele>230.0</ele><time>2026-05-03T11:07:09Z</time></trkpt><trkpt lat="46.03545092001731" lon="8.27224293806344"><ele>230.0</ele><time>2026-05-03T11:07:10Z</time></trkpt><trkpt lat="46.035309933911996" lon="8.272457385407982"><ele>230.0</ele><time>2026-05-03T11:07:11Z</time></trkpt><trkpt lat="46.03517173378157" lon="8.272672653562772"><ele>230.0</ele><time>2026-05-03T11:07:12Z</time></trkpt><trkpt lat="46.035033506581456" lon="8.272886546460152"><ele>230.0</ele><time>2026-05-03T11:07:13Z</time></trkpt><trkpt lat="46.03489516508646" lon="8.273100886765098"><ele>230.0</ele><time>2026-05-03T11:07:14Z</time></trkpt><trkpt lat="46.03475700856889" lon="8.273314992374056"><ele>230.0</ele><time>2026-05-03T11:07:15Z</time></trkpt><trkpt lat="46.034617822556804" lon="8.273529158381184"><ele>230.0</ele><time>2026-05-03T11:07:16Z</time></trkpt><trkpt lat="46.03447934053431" lon="8.273742967019501"><ele>230.0</ele><time>2026-05-03T11:07:17Z</time></trkpt><trkpt lat="46.03434261818904" lon="8.273957167467819"><ele>230.33333333333334</ele><time>2026-05-03T11:07:18Z</time></trkpt><trkpt lat="46.034206919037686" lon="8.274171118589544"><ele>230.66666666666669</ele><time>2026-05-03T11:07:19Z</time></trkpt><trkpt lat="46.03407422682892" lon="8.274387940464667"><ele>231.0</ele><time>2026-05-03T11:07:20Z</time></trkpt><trkpt lat="46.033946087178236" lon="8.274613177046097"><ele>230.33333333333331</ele><time>2026-05-03T11:07:21Z</time></trkpt><trkpt lat="46.03382323111413" lon="8.274845980692904"><ele>229.66666666666666</ele><time>2026-05-03T11:07:22Z</time></trkpt><trkpt lat="46.03370797878308" lon="8.275085819856864"><ele>229.0</ele><time>2026-05-03T11:07:23Z</time></trkpt><trkpt lat="46.03359596008676" lon="8.275330678777971"><ele>229.0</ele><time>2026-05-03T11:07:24Z</time></trkpt><trkpt lat="46.03348641756978" lon="8.275579269678136"><ele>229.0</ele><time>2026-05-03T11:07:25Z</time></trkpt><trkpt lat="46.03337778878921" lon="8.275831623905374"><ele>229.0</ele><time>2026-05-03T11:07:26Z</time></trkpt><trkpt lat="46.033269585932985" lon="8.27608792025585"><ele>229.0</ele><time>2026-05-03T11:07:27Z</time></trkpt><trkpt lat="46.033161154669905" lon="8.276343811061396"><ele>229.0</ele><time>2026-05-03T11:07:28Z</time></trkpt><trkpt lat="46.03305285132738" lon="8.27660201167335"><ele>229.0</ele><time>2026-05-03T11:07:29Z</time></trkpt><trkpt lat="46.032944771483216" lon="8.27686231325045"><ele>230.0</ele><time>2026-05-03T11:07:30Z</time></trkpt><trkpt lat="46.032831758873655" lon="8.277118843585495"><ele>231.0</ele><time>2026-05-03T11:07:31Z</time></trkpt><trkpt lat="46.03271308960649" lon="8.277369112407422"><ele>232.0</ele><time>2026-05-03T11:07:32Z</time></trkpt><trkpt lat="46.03258870086122" lon="8.277612736316042"><ele>231.33333333333331</ele><time>2026-05-03T11:07:33Z</time></trkpt><trkpt lat="46.032458058835466" lon="8.277846646474586"><ele>230.66666666666669</ele><time>2026-05-03T11:07:34Z</time></trkpt><trkpt lat="46.03232116942342" lon="8.27807343892702"><ele>230.0</ele><time>2026-05-03T11:07:35Z</time></trkpt><trkpt lat="46.032178561493986" lon="8.278290790099609"><ele>229.33333333333334</ele><time>2026-05-03T11:07:36Z</time></trkpt><trkpt lat="46.0320315563036" lon="8.278500484275263"><ele>228.66666666666669</ele><time>2026-05-03T11:07:37Z</time></trkpt><trkpt lat="46.03187957700347" lon="8.278702325305495"><ele>228.0</ele><time>2026-05-03T11:07:38Z</time></trkpt><trkpt lat="46.03172149909885" lon="8.278896349312063"><ele>228.33333333333331</ele><time>2026-05-03T11:07:39Z</time></trkpt><trkpt lat="46.03156064583529" lon="8.279082711656642"><ele>228.66666666666666</ele><time>2026-05-03T11:07:40Z</time></trkpt><trkpt lat="46.03139422244593" lon="8.279258158014446"><ele>229.0</ele><time>2026-05-03T11:07:41Z</time></trkpt><trkpt lat="46.03122252430846" lon="8.279422995624088"><ele>229.0</ele><time>2026-05-03T11:07:42Z</time></trkpt><trkpt lat="46.031046779737885" lon="8.279576863948066"><ele>229.0</ele><time>2026-05-03T11:07:43Z</time></trkpt><trkpt lat="46.030867335730555" lon="8.279722595095496"><ele>229.0</ele><time>2026-05-03T11:07:44Z</time></trkpt><trkpt lat="46.030684837925016" lon="8.279858582785067"><ele>229.0</ele><time>2026-05-03T11:07:45Z</time></trkpt><trkpt lat="46.0305001843563" lon="8.279985591426719"><ele>229.0</ele><time>2026-05-03T11:07:46Z</time></trkpt><trkpt lat="46.030311853067026" lon="8.280104086182696"><ele>229.0</ele><time>2026-05-03T11:07:47Z</time></trkpt><trkpt lat="46.0301192063706" lon="8.280210538813444"><ele>228.66666666666666</ele><time>2026-05-03T11:07:48Z</time></trkpt><trkpt lat="46.02992304055432" lon="8.280301597881834"><ele>228.33333333333331</ele><time>2026-05-03T11:07:49Z</time></trkpt><trkpt lat="46.029724287651" lon="8.280381867612146"><ele>228.0</ele><time>2026-05-03T11:07:50Z</time></trkpt><trkpt lat="46.029522629548495" lon="8.280453433988406"><ele>228.0</ele><time>2026-05-03T11:07:51Z</time></trkpt><trkpt lat="46.029318988529965" lon="8.280514398982909"><ele>228.0</ele><time>2026-05-03T11:07:52Z</time></trkpt><trkpt lat="46.02911322094808" lon="8.280565502994527"><ele>228.0</ele><time>2026-05-03T11:07:53Z</time></trkpt><trkpt lat="46.028905395203395" lon="8.280603558484245"><ele>228.0</ele><time>2026-05-03T11:07:54Z</time></trkpt><trkpt lat="46.02869616518467" lon="8.280624897407273"><ele>228.0</ele><time>2026-05-03T11:07:55Z</time></trkpt><trkpt lat="46.02848463922522" lon="8.280635439634036"><ele>228.0</ele><time>2026-05-03T11:07:56Z</time></trkpt><trkpt lat="46.028272797600515" lon="8.280636885776444"><ele>227.33333333333331</ele><time>2026-05-03T11:07:57Z</time></trkpt><trkpt lat="46.028059940910794" lon="8.280630395199644"><ele>226.66666666666666</ele><time>2026-05-03T11:07:58Z</time></trkpt><trkpt lat="46.02784652753841" lon="8.280619107125164"><ele>226.0</ele><time>2026-05-03T11:07:59Z</time></trkpt><trkpt lat="46.027632989130794" lon="8.280603816805328"><ele>226.33333333333331</ele><time>2026-05-03T11:08:00Z</time></trkpt><trkpt lat="46.02741832778135" lon="8.28058664787941"><ele>226.66666666666669</ele><time>2026-05-03T11:08:01Z</time></trkpt><trkpt lat="46.02720289539715" lon="8.2805751851499"><ele>227.0</ele><time>2026-05-03T11:08:02Z</time></trkpt><trkpt lat="46.02698904629117" lon="8.28056633993831"><ele>227.0</ele><time>2026-05-03T11:08:03Z</time></trkpt><trkpt lat="46.02677608399168" lon="8.280556413049347"><ele>227.0</ele><time>2026-05-03T11:08:04Z</time></trkpt><trkpt lat="46.02656453380291" lon="8.280546043979506"><ele>227.0</ele><time>2026-05-03T11:08:05Z</time></trkpt><trkpt lat="46.02635306683973" lon="8.280532177517411"><ele>227.0</ele><time>2026-05-03T11:08:06Z</time></trkpt><trkpt lat="46.02614317246765" lon="8.280517367512228"><ele>227.0</ele><time>2026-05-03T11:08:07Z</time></trkpt><trkpt lat="46.02593365553575" lon="8.280503468093023"><ele>227.0</ele><time>2026-05-03T11:08:08Z</time></trkpt><trkpt lat="46.02572509720955" lon="8.280483897010537"><ele>227.0</ele><time>2026-05-03T11:08:09Z</time></trkpt><trkpt lat="46.02551782065136" lon="8.280454037884322"><ele>227.0</ele><time>2026-05-03T11:08:10Z</time></trkpt><trkpt lat="46.0253139918795" lon="8.280406336334336"><ele>227.0</ele><time>2026-05-03T11:08:11Z</time></trkpt><trkpt lat="46.025114876046246" lon="8.280339369496318"><ele>227.33333333333334</ele><time>2026-05-03T11:08:12Z</time></trkpt><trkpt lat="46.02491965931259" lon="8.280258831511752"><ele>227.66666666666669</ele><time>2026-05-03T11:08:13Z</time></trkpt><trkpt lat="46.02472772748269" lon="8.280164395488057"><ele>228.0</ele><time>2026-05-03T11:08:14Z</time></trkpt><trkpt lat="46.0245385861316" lon="8.280057382202004"><ele>228.0</ele><time>2026-05-03T11:08:15Z</time></trkpt><trkpt lat="46.02435401442055" lon="8.279936230544838"><ele>228.0</ele><time>2026-05-03T11:08:16Z</time></trkpt><trkpt lat="46.02417475601906" lon="8.279800348175518"><ele>228.0</ele><time>2026-05-03T11:08:17Z</time></trkpt><trkpt lat="46.02400223385879" lon="8.27964768240491"><ele>227.33333333333331</ele><time>2026-05-03T11:08:18Z</time></trkpt><trkpt lat="46.02383668541207" lon="8.279478837110117"><ele>226.66666666666666</ele><time>2026-05-03T11:08:19Z</time></trkpt><trkpt lat="46.02367779367299" lon="8.279294911362221"><ele>226.0</ele><time>2026-05-03T11:08:20Z</time></trkpt><trkpt lat="46.02352361414875" lon="8.27910371256558"><ele>226.33333333333331</ele><time>2026-05-03T11:08:21Z</time></trkpt><trkpt lat="46.023372286291924" lon="8.278906762441391"><ele>226.66666666666669</ele><time>2026-05-03T11:08:22Z</time></trkpt><trkpt lat="46.02322368004322" lon="8.278702700434588"><ele>227.0</ele><time>2026-05-03T11:08:23Z</time></trkpt><trkpt lat="46.02307709676619" lon="8.27849509170749"><ele>227.0</ele><time>2026-05-03T11:08:24Z</time></trkpt><trkpt lat="46.02292903769433" lon="8.278286216171749"><ele>227.0</ele><time>2026-05-03T11:08:25Z</time></trkpt><trkpt lat="46.022781836711694" lon="8.278077329008523"><ele>227.0</ele><time>2026-05-03T11:08:26Z</time></trkpt><trkpt lat="46.02263480779566" lon="8.27786842800537"><ele>227.66666666666669</ele><time>2026-05-03T11:08:27Z</time></trkpt><trkpt lat="46.02249000822167" lon="8.27766065122003"><ele>228.33333333333331</ele><time>2026-05-03T11:08:28Z</time></trkpt><trkpt lat="46.022347480190994" lon="8.277452187935138"><ele>229.0</ele><time>2026-05-03T11:08:29Z</time></trkpt><trkpt lat="46.02220532076574" lon="8.277247023812993"><ele>229.0</ele><time>2026-05-03T11:08:30Z</time></trkpt><trkpt lat="46.022058810152274" lon="8.277046665222574"><ele>229.0</ele><time>2026-05-03T11:08:31Z</time></trkpt><trkpt lat="46.021909990737676" lon="8.276850275558179"><ele>229.0</ele><time>2026-05-03T11:08:32Z</time></trkpt><trkpt lat="46.021758515131694" lon="8.276660236308054"><ele>228.0</ele><time>2026-05-03T11:08:33Z</time></trkpt><trkpt lat="46.02160315514406" lon="8.276476179428778"><ele>227.0</ele><time>2026-05-03T11:08:34Z</time></trkpt><trkpt lat="46.02144466661196" lon="8.276300362612695"><ele>226.0</ele><time>2026-05-03T11:08:35Z</time></trkpt><trkpt lat="46.02128190175214" lon="8.276133740999223"><ele>226.0</ele><time>2026-05-03T11:08:36Z</time></trkpt><trkpt lat="46.02111496984853" lon="8.275979728271114"><ele>226.0</ele><time>2026-05-03T11:08:37Z</time></trkpt><trkpt lat="46.02094427638401" lon="8.275834632780473"><ele>226.0</ele><time>2026-05-03T11:08:38Z</time></trkpt><trkpt lat="46.02077061525262" lon="8.27569866756644"><ele>227.33333333333331</ele><time>2026-05-03T11:08:39Z</time></trkpt><trkpt lat="46.02059106140378" lon="8.275570257429873"><ele>228.66666666666669</ele><time>2026-05-03T11:08:40Z</time></trkpt><trkpt lat="46.02040752789666" lon="8.275448251353456"><ele>230.0</ele><time>2026-05-03T11:08:41Z</time></trkpt><trkpt lat="46.02021886284446" lon="8.275335710865281"><ele>230.0</ele><time>2026-05-03T11:08:42Z</time></trkpt><trkpt lat="46.020025221189506" lon="8.275233201563003"><ele>230.0</ele><time>2026-05-03T11:08:43Z</time></trkpt><trkpt lat="46.019826211626174" lon="8.275142004319239"><ele>230.0</ele><time>2026-05-03T11:08:44Z</time></trkpt><trkpt lat="46.019624235925775" lon="8.275061450102791"><ele>230.33333333333334</ele><time>2026-05-03T11:08:45Z</time></trkpt><trkpt lat="46.0194186718773" lon="8.27498751301502"><ele>230.66666666666669</ele><time>2026-05-03T11:08:46Z</time></trkpt><trkpt lat="46.01921039015535" lon="8.27492388764843"><ele>231.0</ele><time>2026-05-03T11:08:47Z</time></trkpt><trkpt lat="46.01900042132843" lon="8.274874178440925"><ele>231.0</ele><time>2026-05-03T11:08:48Z</time></trkpt><trkpt lat="46.01879034967756" lon="8.274837993488838"><ele>231.0</ele><time>2026-05-03T11:08:49Z</time></trkpt><trkpt lat="46.018579250148235" lon="8.27481453144504"><ele>231.0</ele><time>2026-05-03T11:08:50Z</time></trkpt><trkpt lat="46.018367101531645" lon="8.274803479862737"><ele>230.66666666666669</ele><time>2026-05-03T11:08:51Z</time></trkpt><trkpt lat="46.01815469875509" lon="8.274803388435133"><ele>230.33333333333334</ele><time>2026-05-03T11:08:52Z</time></trkpt><trkpt lat="46.01794279797237" lon="8.274812209705784"><ele>230.0</ele><time>2026-05-03T11:08:53Z</time></trkpt><trkpt lat="46.01773332134045" lon="8.274832613974366"><ele>230.0</ele><time>2026-05-03T11:08:54Z</time></trkpt><trkpt lat="46.01752412350781" lon="8.274865834696328"><ele>230.0</ele><time>2026-05-03T11:08:55Z</time></trkpt><trkpt lat="46.01731616293793" lon="8.27491431048093"><ele>230.0</ele><time>2026-05-03T11:08:56Z</time></trkpt><trkpt lat="46.01710829702863" lon="8.274970189086373"><ele>229.66666666666669</ele><time>2026-05-03T11:08:57Z</time></trkpt><trkpt lat="46.016902126049814" lon="8.275035038281267"><ele>229.33333333333331</ele><time>2026-05-03T11:08:58Z</time></trkpt><trkpt lat="46.016697656321796" lon="8.275112742992873"><ele>229.0</ele><time>2026-05-03T11:08:59Z</time></trkpt><trkpt lat="46.01649577931069" lon="8.275204306519601"><ele>228.66666666666666</ele><time>2026-05-03T11:09:00Z</time></trkpt><trkpt lat="46.01629489854809" lon="8.275309801362548"><ele>228.33333333333331</ele><time>2026-05-03T11:09:01Z</time></trkpt><trkpt lat="46.016095933941315" lon="8.275426201663098"><ele>228.0</ele><time>2026-05-03T11:09:02Z</time></trkpt><trkpt lat="46.015897468164" lon="8.275548923511016"><ele>227.0</ele><time>2026-05-03T11:09:03Z</time></trkpt><trkpt lat="46.015700207408315" lon="8.275675108476852"><ele>226.0</ele><time>2026-05-03T11:09:04Z</time></trkpt><trkpt lat="46.01550403497966" lon="8.275803068563965"><ele>225.0</ele><time>2026-05-03T11:09:05Z</time></trkpt><trkpt lat="46.01530857344601" lon="8.275931834914221"><ele>225.0</ele><time>2026-05-03T11:09:06Z</time></trkpt><trkpt lat="46.01511501823881" lon="8.276059694158382"><ele>225.0</ele><time>2026-05-03T11:09:07Z</time></trkpt><trkpt lat="46.01492192884749" lon="8.27618501969254"><ele>225.0</ele><time>2026-05-03T11:09:08Z</time></trkpt><trkpt lat="46.01472885232138" lon="8.276305547502051"><ele>225.0</ele><time>2026-05-03T11:09:09Z</time></trkpt><trkpt lat="46.014537088263445" lon="8.276427506449032"><ele>225.0</ele><time>2026-05-03T11:09:10Z</time></trkpt><trkpt lat="46.014348970494865" lon="8.276553336739514"><ele>225.0</ele><time>2026-05-03T11:09:11Z</time></trkpt><trkpt lat="46.01415977434774" lon="8.276678003716263"><ele>224.33333333333331</ele><time>2026-05-03T11:09:12Z</time></trkpt><trkpt lat="46.01397194387746" lon="8.276799429094966"><ele>223.66666666666666</ele><time>2026-05-03T11:09:13Z</time></trkpt><trkpt lat="46.01378670779507" lon="8.276920301408863"><ele>223.0</ele><time>2026-05-03T11:09:14Z</time></trkpt><trkpt lat="46.01360323948972" lon="8.277038627686034"><ele>223.0</ele><time>2026-05-03T11:09:15Z</time></trkpt><trkpt lat="46.01342023180436" lon="8.277157791762633"><ele>223.0</ele><time>2026-05-03T11:09:16Z</time></trkpt><trkpt lat="46.01323724731547" lon="8.277281082762459"><ele>223.0</ele><time>2026-05-03T11:09:17Z</time></trkpt><trkpt lat="46.01305551514668" lon="8.277404071679253"><ele>223.33333333333331</ele><time>2026-05-03T11:09:18Z</time></trkpt><trkpt lat="46.0128745251549" lon="8.277525901372542"><ele>223.66666666666669</ele><time>2026-05-03T11:09:19Z</time></trkpt><trkpt lat="46.012691820342404" lon="8.277646357175652"><ele>224.0</ele><time>2026-05-03T11:09:20Z</time></trkpt><trkpt lat="46.012508158520674" lon="8.27776893599726"><ele>223.66666666666669</ele><time>2026-05-03T11:09:21Z</time></trkpt><trkpt lat="46.012321447438154" lon="8.277889147534042"><ele>223.33333333333331</ele><time>2026-05-03T11:09:22Z</time></trkpt><trkpt lat="46.01213354532149" lon="8.278011660948795"><ele>223.0</ele><time>2026-05-03T11:09:23Z</time></trkpt><trkpt lat="46.01194450534258" lon="8.278135157903726"><ele>223.33333333333331</ele><time>2026-05-03T11:09:24Z</time></trkpt><trkpt lat="46.011754275708014" lon="8.278259766560215"><ele>223.66666666666669</ele><time>2026-05-03T11:09:25Z</time></trkpt><trkpt lat="46.01156410302826" lon="8.278385300484974"><ele>224.0</ele><time>2026-05-03T11:09:26Z</time></trkpt><trkpt lat="46.01137165218599" lon="8.278511794134472"><ele>224.0</ele><time>2026-05-03T11:09:27Z</time></trkpt><trkpt lat="46.01117957944677" lon="8.27863864578582"><ele>224.0</ele><time>2026-05-03T11:09:28Z</time></trkpt><trkpt lat="46.010987835445455" lon="8.278763937005513"><ele>224.0</ele><time>2026-05-03T11:09:29Z</time></trkpt><trkpt lat="46.010797135817064" lon="8.27889071170058"><ele>224.0</ele><time>2026-05-03T11:09:30Z</time></trkpt><trkpt lat="46.010606728063635" lon="8.279014653989224"><ele>224.0</ele><time>2026-05-03T11:09:31Z</time></trkpt><trkpt lat="46.01041757608221" lon="8.279138016388103"><ele>224.0</ele><time>2026-05-03T11:09:32Z</time></trkpt><trkpt lat="46.010230407403384" lon="8.279261038555044"><ele>224.0</ele><time>2026-05-03T11:09:33Z</time></trkpt><trkpt lat="46.010043593324994" lon="8.279382926958995"><ele>224.0</ele><time>2026-05-03T11:09:34Z</time></trkpt><trkpt lat="46.0098557901045" lon="8.279504429677855"><ele>224.0</ele><time>2026-05-03T11:09:35Z</time></trkpt><trkpt lat="46.00966855821944" lon="8.27962633853201"><ele>224.33333333333334</ele><time>2026-05-03T11:09:36Z</time></trkpt><trkpt lat="46.009479103020794" lon="8.279738608859315"><ele>224.66666666666669</ele><time>2026-05-03T11:09:37Z</time></trkpt><trkpt lat="46.00928547990256" lon="8.27983944896645"><ele>225.0</ele><time>2026-05-03T11:09:38Z</time></trkpt><trkpt lat="46.00909039085856" lon="8.279931583778353"><ele>225.0</ele><time>2026-05-03T11:09:39Z</time></trkpt><trkpt lat="46.00889343155608" lon="8.280014625333953"><ele>225.0</ele><time>2026-05-03T11:09:40Z</time></trkpt><trkpt lat="46.00869434031874" lon="8.28008627131866"><ele>225.0</ele><time>2026-05-03T11:09:41Z</time></trkpt><trkpt lat="46.00849327590372" lon="8.280148213646395"><ele>225.0</ele><time>2026-05-03T11:09:42Z</time></trkpt><trkpt lat="46.00828868915363" lon="8.280202048142828"><ele>225.0</ele><time>2026-05-03T11:09:43Z</time></trkpt><trkpt lat="46.00808219182213" lon="8.28024202377446"><ele>225.0</ele><time>2026-05-03T11:09:44Z</time></trkpt><trkpt lat="46.00787360102866" lon="8.280267639442304"><ele>225.0</ele><time>2026-05-03T11:09:45Z</time></trkpt><trkpt lat="46.007664280071694" lon="8.28027722760438"><ele>225.0</ele><time>2026-05-03T11:09:46Z</time></trkpt><trkpt lat="46.00745356598218" lon="8.280279447003402"><ele>225.0</ele><time>2026-05-03T11:09:47Z</time></trkpt><trkpt lat="46.00724201507927" lon="8.280275524999894"><ele>224.66666666666669</ele><time>2026-05-03T11:09:48Z</time></trkpt><trkpt lat="46.007030753136675" lon="8.280267488187306"><ele>224.33333333333334</ele><time>2026-05-03T11:09:49Z</time></trkpt><trkpt lat="46.006819339485986" lon="8.280256068050193"><ele>224.0</ele><time>2026-05-03T11:09:50Z</time></trkpt><trkpt lat="46.00660879569127" lon="8.280244210660154"><ele>224.0</ele><time>2026-05-03T11:09:51Z</time></trkpt><trkpt lat="46.00639735545235" lon="8.280228083674771"><ele>224.0</ele><time>2026-05-03T11:09:52Z</time></trkpt><trkpt lat="46.006186794465435" lon="8.280216525898373"><ele>224.0</ele><time>2026-05-03T11:09:53Z</time></trkpt><trkpt lat="46.00597637572175" lon="8.28020293340772"><ele>223.33333333333334</ele><time>2026-05-03T11:09:54Z</time></trkpt><trkpt lat="46.00576560922851" lon="8.280192351939252"><ele>222.66666666666669</ele><time>2026-05-03T11:09:55Z</time></trkpt><trkpt lat="46.0055562022072" lon="8.280181384492693"><ele>222.0</ele><time>2026-05-03T11:09:56Z</time></trkpt><trkpt lat="46.005349185244455" lon="8.280167765824388"><ele>222.0</ele><time>2026-05-03T11:09:57Z</time></trkpt><trkpt lat="46.00514126231031" lon="8.280155552669608"><ele>222.0</ele><time>2026-05-03T11:09:58Z</time></trkpt><trkpt lat="46.00493497664384" lon="8.280143546245695"><ele>222.0</ele><time>2026-05-03T11:09:59Z</time></trkpt><trkpt lat="46.00472987625006" lon="8.280132141667789"><ele>221.33333333333331</ele><time>2026-05-03T11:10:00Z</time></trkpt><trkpt lat="46.004525072028606" lon="8.280121926259993"><ele>220.66666666666666</ele><time>2026-05-03T11:10:01Z</time></trkpt><trkpt lat="46.00432088845523" lon="8.280112761086032"><ele>220.0</ele><time>2026-05-03T11:10:02Z</time></trkpt><trkpt lat="46.00411726210374" lon="8.2801085676559"><ele>220.0</ele><time>2026-05-03T11:10:03Z</time></trkpt><trkpt lat="46.00391581962366" lon="8.28010834018598"><ele>220.0</ele><time>2026-05-03T11:10:04Z</time></trkpt><trkpt lat="46.00371511454151" lon="8.280117489136662"><ele>220.0</ele><time>2026-05-03T11:10:05Z</time></trkpt><trkpt lat="46.00351824692572" lon="8.280141111184951"><ele>220.33333333333331</ele><time>2026-05-03T11:10:06Z</time></trkpt><trkpt lat="46.003322203165396" lon="8.280170734111492"><ele>220.66666666666669</ele><time>2026-05-03T11:10:07Z</time></trkpt><trkpt lat="46.00312615238319" lon="8.280209677867246"><ele>221.0</ele><time>2026-05-03T11:10:08Z</time></trkpt><trkpt lat="46.00293156804829" lon="8.280260697996173"><ele>221.0</ele><time>2026-05-03T11:10:09Z</time></trkpt><trkpt lat="46.00273908673391" lon="8.28032321945874"><ele>221.0</ele><time>2026-05-03T11:10:10Z</time></trkpt><trkpt lat="46.00255043604226" lon="8.28039400820754"><ele>221.0</ele><time>2026-05-03T11:10:11Z</time></trkpt><trkpt lat="46.002363290684585" lon="8.280479352136334"><ele>221.0</ele><time>2026-05-03T11:10:12Z</time></trkpt><trkpt lat="46.00217735334581" lon="8.280572233470735"><ele>221.0</ele><time>2026-05-03T11:10:13Z</time></trkpt><trkpt lat="46.00199263026384" lon="8.280669228990327"><ele>221.0</ele><time>2026-05-03T11:10:14Z</time></trkpt><trkpt lat="46.00180858223338" lon="8.280778868931426"><ele>221.0</ele><time>2026-05-03T11:10:15Z</time></trkpt><trkpt lat="46.00162975280911" lon="8.280900916123864"><ele>221.0</ele><time>2026-05-03T11:10:16Z</time></trkpt><trkpt lat="46.00145280811964" lon="8.28103128759032"><ele>221.0</ele><time>2026-05-03T11:10:17Z</time></trkpt><trkpt lat="46.00127844321445" lon="8.281167865685099"><ele>221.0</ele><time>2026-05-03T11:10:18Z</time></trkpt><trkpt lat="46.00110654929291" lon="8.281314551135312"><ele>221.0</ele><time>2026-05-03T11:10:19Z</time></trkpt><trkpt lat="46.00093921795631" lon="8.281471609887731"><ele>221.0</ele><time>2026-05-03T11:10:20Z</time></trkpt><trkpt lat="46.00077731382037" lon="8.281638110256788"><ele>220.66666666666669</ele><time>2026-05-03T11:10:21Z</time></trkpt><trkpt lat="46.00061938124775" lon="8.281812506661671"><ele>220.33333333333331</ele><time>2026-05-03T11:10:22Z</time></trkpt><trkpt lat="46.00046532313992" lon="8.281995550647034"><ele>220.0</ele><time>2026-05-03T11:10:23Z</time></trkpt><trkpt lat="46.00031689425867" lon="8.282189653703778"><ele>221.0</ele><time>2026-05-03T11:10:24Z</time></trkpt><trkpt lat="46.00017386375269" lon="8.282390949490395"><ele>222.0</ele><time>2026-05-03T11:10:25Z</time></trkpt><trkpt lat="46.00003763982137" lon="8.282598104161753"><ele>223.0</ele><time>2026-05-03T11:10:26Z</time></trkpt><trkpt lat="45.99990438503095" lon="8.282812541899737"><ele>223.0</ele><time>2026-05-03T11:10:27Z</time></trkpt><trkpt lat="45.99977518939493" lon="8.283027651377243"><ele>223.0</ele><time>2026-05-03T11:10:28Z</time></trkpt><trkpt lat="45.9996524441836" lon="8.283250782151237"><ele>223.0</ele><time>2026-05-03T11:10:29Z</time></trkpt><trkpt lat="45.99953696536793" lon="8.283478777532531"><ele>222.33333333333331</ele><time>2026-05-03T11:10:30Z</time></trkpt><trkpt lat="45.99942737825724" lon="8.283715234213162"><ele>221.66666666666669</ele><time>2026-05-03T11:10:31Z</time></trkpt><trkpt lat="45.99932507309999" lon="8.283956467911416"><ele>221.0</ele><time>2026-05-03T11:10:32Z</time></trkpt><trkpt lat="45.99922613036581" lon="8.284201431856346"><ele>220.33333333333334</ele><time>2026-05-03T11:10:33Z</time></trkpt><trkpt lat="45.99913313731721" lon="8.284454568961571"><ele>219.66666666666669</ele><time>2026-05-03T11:10:34Z</time></trkpt><trkpt lat="45.999047269211225" lon="8.28471344256182"><ele>219.0</ele><time>2026-05-03T11:10:35Z</time></trkpt><trkpt lat="45.99896796876147" lon="8.284979839777035"><ele>219.0</ele><time>2026-05-03T11:10:36Z</time></trkpt><trkpt lat="45.99889760602783" lon="8.285254022523686"><ele>219.0</ele><time>2026-05-03T11:10:37Z</time></trkpt><trkpt lat="45.998834608107956" lon="8.2855375164111"><ele>219.0</ele><time>2026-05-03T11:10:38Z</time></trkpt><trkpt lat="45.99877489541081" lon="8.285823580095396"><ele>220.0</ele><time>2026-05-03T11:10:39Z</time></trkpt><trkpt lat="45.998716115166836" lon="8.286114868831662"><ele>221.0</ele><time>2026-05-03T11:10:40Z</time></trkpt><trkpt lat="45.998659839986026" lon="8.286410691582136"><ele>222.0</ele><time>2026-05-03T11:10:41Z</time></trkpt><trkpt lat="45.998602600686425" lon="8.286703848156248"><ele>222.0</ele><time>2026-05-03T11:10:42Z</time></trkpt><trkpt lat="45.998545397523586" lon="8.28699782989624"><ele>222.0</ele><time>2026-05-03T11:10:43Z</time></trkpt><trkpt lat="45.998487262261655" lon="8.287292939013097"><ele>222.0</ele><time>2026-05-03T11:10:44Z</time></trkpt><trkpt lat="45.998428748725956" lon="8.287589693527545"><ele>221.33333333333331</ele><time>2026-05-03T11:10:45Z</time></trkpt><trkpt lat="45.99837149610024" lon="8.287887678173"><ele>220.66666666666666</ele><time>2026-05-03T11:10:46Z</time></trkpt><trkpt lat="45.99831578890742" lon="8.288184959005799"><ele>220.0</ele><time>2026-05-03T11:10:47Z</time></trkpt><trkpt lat="45.99826077877942" lon="8.288481009058666"><ele>219.66666666666666</ele><time>2026-05-03T11:10:48Z</time></trkpt><trkpt lat="45.998206020049324" lon="8.288774259805011"><ele>219.33333333333331</ele><time>2026-05-03T11:10:49Z</time></trkpt><trkpt lat="45.99814980964871" lon="8.289066447677694"><ele>219.0</ele><time>2026-05-03T11:10:50Z</time></trkpt><trkpt lat="45.99809312406493" lon="8.289358286676554"><ele>219.0</ele><time>2026-05-03T11:10:51Z</time></trkpt><trkpt lat="45.998036129999115" lon="8.28964844233118"><ele>219.0</ele><time>2026-05-03T11:10:52Z</time></trkpt><trkpt lat="45.99798002769107" lon="8.289935976012941"><ele>219.0</ele><time>2026-05-03T11:10:53Z</time></trkpt><trkpt lat="45.99792313582394" lon="8.290221978153241"><ele>219.0</ele><time>2026-05-03T11:10:54Z</time></trkpt><trkpt lat="45.99786522082175" lon="8.290503831944745"><ele>219.0</ele><time>2026-05-03T11:10:55Z</time></trkpt><trkpt lat="45.99780410307725" lon="8.290782902235165"><ele>219.0</ele><time>2026-05-03T11:10:56Z</time></trkpt><trkpt lat="45.9977400573359" lon="8.291056909973603"><ele>219.33333333333331</ele><time>2026-05-03T11:10:57Z</time></trkpt><trkpt lat="45.99767089640753" lon="8.29132775058886"><ele>219.66666666666666</ele><time>2026-05-03T11:10:58Z</time></trkpt><trkpt lat="45.99759861598683" lon="8.29159384641125"><ele>220.0</ele><time>2026-05-03T11:10:59Z</time></trkpt><trkpt lat="45.99752330536216" lon="8.291857169351966"><ele>219.66666666666666</ele><time>2026-05-03T11:11:00Z</time></trkpt><trkpt lat="45.997447379333984" lon="8.292119445276304"><ele>219.33333333333331</ele><time>2026-05-03T11:11:01Z</time></trkpt><trkpt lat="45.99737085889104" lon="8.292381923476047"><ele>219.0</ele><time>2026-05-03T11:11:02Z</time></trkpt><trkpt lat="45.99729283434212" lon="8.292642780244528"><ele>219.0</ele><time>2026-05-03T11:11:03Z</time></trkpt><trkpt lat="45.997211947940535" lon="8.292901459104307"><ele>219.0</ele><time>2026-05-03T11:11:04Z</time></trkpt><trkpt lat="45.99712645016718" lon="8.293159848485947"><ele>219.0</ele><time>2026-05-03T11:11:05Z</time></trkpt><trkpt lat="45.99703788456438" lon="8.293416207586812"><ele>218.66666666666669</ele><time>2026-05-03T11:11:06Z</time></trkpt><trkpt lat="45.99694662254077" lon="8.293668977278712"><ele>218.33333333333334</ele><time>2026-05-03T11:11:07Z</time></trkpt><trkpt lat="45.99685282014346" lon="8.293922050265149"><ele>218.0</ele><time>2026-05-03T11:11:08Z</time></trkpt><trkpt lat="45.99675572607004" lon="8.29417355381952"><ele>218.33333333333334</ele><time>2026-05-03T11:11:09Z</time></trkpt><trkpt lat="45.99665667911935" lon="8.294427525195331"><ele>218.66666666666669</ele><time>2026-05-03T11:11:10Z</time></trkpt><trkpt lat="45.99655863783707" lon="8.294681680809035"><ele>219.0</ele><time>2026-05-03T11:11:11Z</time></trkpt><trkpt lat="45.996458644806225" lon="8.294937230709133"><ele>219.0</ele><time>2026-05-03T11:11:12Z</time></trkpt><trkpt lat="45.99635922445946" lon="8.295196602214611"><ele>219.0</ele><time>2026-05-03T11:11:13Z</time></trkpt><trkpt lat="45.99626214875537" lon="8.295458255745832"><ele>219.0</ele><time>2026-05-03T11:11:14Z</time></trkpt><trkpt lat="45.99616491029572" lon="8.295722026424562"><ele>219.0</ele><time>2026-05-03T11:11:15Z</time></trkpt><trkpt lat="45.99606568273238" lon="8.29598644311549"><ele>219.0</ele><time>2026-05-03T11:11:16Z</time></trkpt><trkpt lat="45.99596818773601" lon="8.296250989547119"><ele>219.0</ele><time>2026-05-03T11:11:17Z</time></trkpt><trkpt lat="45.99587479300163" lon="8.296522237013846"><ele>219.33333333333331</ele><time>2026-05-03T11:11:18Z</time></trkpt><trkpt lat="45.99578670501842" lon="8.296797513195548"><ele>219.66666666666666</ele><time>2026-05-03T11:11:19Z</time></trkpt><trkpt lat="45.99570380954442" lon="8.297075736608729"><ele>220.0</ele><time>2026-05-03T11:11:20Z</time></trkpt><trkpt lat="45.99562186064657" lon="8.29735419211621"><ele>220.0</ele><time>2026-05-03T11:11:21Z</time></trkpt><trkpt lat="45.99554121663865" lon="8.297633048129967"><ele>220.0</ele><time>2026-05-03T11:11:22Z</time></trkpt><trkpt lat="45.99546350939951" lon="8.297912388222818"><ele>220.0</ele><time>2026-05-03T11:11:23Z</time></trkpt><trkpt lat="45.99538872411841" lon="8.298192831229548"><ele>219.66666666666666</ele><time>2026-05-03T11:11:24Z</time></trkpt><trkpt lat="45.99531669069457" lon="8.298474461688155"><ele>219.33333333333331</ele><time>2026-05-03T11:11:25Z</time></trkpt><trkpt lat="45.995248282451286" lon="8.298759297496712"><ele>219.0</ele><time>2026-05-03T11:11:26Z</time></trkpt><trkpt lat="45.9951828959064" lon="8.299045335226525"><ele>218.33333333333331</ele><time>2026-05-03T11:11:27Z</time></trkpt><trkpt lat="45.9951202061579" lon="8.299332173748247"><ele>217.66666666666666</ele><time>2026-05-03T11:11:28Z</time></trkpt><trkpt lat="45.995058970622296" lon="8.299620488420928"><ele>217.0</ele><time>2026-05-03T11:11:29Z</time></trkpt><trkpt lat="45.99499989585868" lon="8.299908705583052"><ele>217.0</ele><time>2026-05-03T11:11:30Z</time></trkpt><trkpt lat="45.99494113189692" lon="8.300197318248227"><ele>217.0</ele><time>2026-05-03T11:11:31Z</time></trkpt><trkpt lat="45.994885234730816" lon="8.300485478401423"><ele>217.0</ele><time>2026-05-03T11:11:32Z</time></trkpt><trkpt lat="45.99483172347374" lon="8.30077385760477"><ele>217.33333333333331</ele><time>2026-05-03T11:11:33Z</time></trkpt><trkpt lat="45.99477876419225" lon="8.301060373068443"><ele>217.66666666666669</ele><time>2026-05-03T11:11:34Z</time></trkpt><trkpt lat="45.99472585189701" lon="8.30134484380572"><ele>218.0</ele><time>2026-05-03T11:11:35Z</time></trkpt><trkpt lat="45.994672762768445" lon="8.301627473073545"><ele>218.33333333333334</ele><time>2026-05-03T11:11:36Z</time></trkpt><trkpt lat="45.99461750157233" lon="8.30190904010284"><ele>218.66666666666669</ele><time>2026-05-03T11:11:37Z</time></trkpt><trkpt lat="45.994562225125534" lon="8.302191549599845"><ele>219.0</ele><time>2026-05-03T11:11:38Z</time></trkpt><trkpt lat="45.99450829399425" lon="8.30247313976416"><ele>219.33333333333331</ele><time>2026-05-03T11:11:39Z</time></trkpt><trkpt lat="45.99445518656911" lon="8.302753780427919"><ele>219.66666666666666</ele><time>2026-05-03T11:11:40Z</time></trkpt><trkpt lat="45.99440177491176" lon="8.30303535598585"><ele>220.0</ele><time>2026-05-03T11:11:41Z</time></trkpt><trkpt lat="45.99434722860271" lon="8.30331829069974"><ele>219.33333333333331</ele><time>2026-05-03T11:11:42Z</time></trkpt><trkpt lat="45.99429335570527" lon="8.30360277179557"><ele>218.66666666666669</ele><time>2026-05-03T11:11:43Z</time></trkpt><trkpt lat="45.994239321822306" lon="8.303889633279946"><ele>218.0</ele><time>2026-05-03T11:11:44Z</time></trkpt><trkpt lat="45.99418411094633" lon="8.304176845402695"><ele>217.66666666666669</ele><time>2026-05-03T11:11:45Z</time></trkpt><trkpt lat="45.99412802630329" lon="8.304465385583091"><ele>217.33333333333331</ele><time>2026-05-03T11:11:46Z</time></trkpt><trkpt lat="45.994069991434074" lon="8.304753966593587"><ele>217.0</ele><time>2026-05-03T11:11:47Z</time></trkpt><trkpt lat="45.99401235454125" lon="8.305042418316393"><ele>217.0</ele><time>2026-05-03T11:11:48Z</time></trkpt><trkpt lat="45.99395497656447" lon="8.305328627810262"><ele>217.0</ele><time>2026-05-03T11:11:49Z</time></trkpt><trkpt lat="45.99389591075369" lon="8.305611600724115"><ele>217.0</ele><time>2026-05-03T11:11:50Z</time></trkpt><trkpt lat="45.99383281745152" lon="8.30589405818854"><ele>216.33333333333331</ele><time>2026-05-03T11:11:51Z</time></trkpt><trkpt lat="45.99376814016649" lon="8.30617493614643"><ele>215.66666666666669</ele><time>2026-05-03T11:11:52Z</time></trkpt><trkpt lat="45.99369893532203" lon="8.3064547188273"><ele>215.0</ele><time>2026-05-03T11:11:53Z</time></trkpt><trkpt lat="45.99362578368914" lon="8.306733399210687"><ele>214.66666666666669</ele><time>2026-05-03T11:11:54Z</time></trkpt><trkpt lat="45.99354685758504" lon="8.307010460243559"><ele>214.33333333333331</ele><time>2026-05-03T11:11:55Z</time></trkpt><trkpt lat="45.99346674765527" lon="8.307287931839069"><ele>214.0</ele><time>2026-05-03T11:11:56Z</time></trkpt><trkpt lat="45.99338328670948" lon="8.307564027242163"><ele>214.0</ele><time>2026-05-03T11:11:57Z</time></trkpt><trkpt lat="45.99329673853276" lon="8.30783857577962"><ele>214.0</ele><time>2026-05-03T11:11:58Z</time></trkpt><trkpt lat="45.99320746729486" lon="8.308111182428986"><ele>214.0</ele><time>2026-05-03T11:11:59Z</time></trkpt><trkpt lat="45.9931167277668" lon="8.308383760805185"><ele>214.0</ele><time>2026-05-03T11:12:00Z</time></trkpt><trkpt lat="45.993022028624424" lon="8.308654582744122"><ele>214.0</ele><time>2026-05-03T11:12:01Z</time></trkpt><trkpt lat="45.99292461495883" lon="8.308921803615842"><ele>214.0</ele><time>2026-05-03T11:12:02Z</time></trkpt><trkpt lat="45.99282312241534" lon="8.309186641221746"><ele>214.0</ele><time>2026-05-03T11:12:03Z</time></trkpt><trkpt lat="45.99271749473856" lon="8.309445746602233"><ele>214.0</ele><time>2026-05-03T11:12:04Z</time></trkpt><trkpt lat="45.992611164634376" lon="8.309701285654628"><ele>214.0</ele><time>2026-05-03T11:12:05Z</time></trkpt><trkpt lat="45.9925068678498" lon="8.309955755465102"><ele>214.0</ele><time>2026-05-03T11:12:06Z</time></trkpt><trkpt lat="45.99240262320858" lon="8.310208676908832"><ele>214.0</ele><time>2026-05-03T11:12:07Z</time></trkpt><trkpt lat="45.99229922532236" lon="8.310460432679552"><ele>214.0</ele><time>2026-05-03T11:12:08Z</time></trkpt><trkpt lat="45.99219689663458" lon="8.310710442737712"><ele>214.0</ele><time>2026-05-03T11:12:09Z</time></trkpt><trkpt lat="45.992096306475624" lon="8.31096051984998"><ele>214.0</ele><time>2026-05-03T11:12:10Z</time></trkpt><trkpt lat="45.992000676139085" lon="8.311212371086446"><ele>214.0</ele><time>2026-05-03T11:12:11Z</time></trkpt><trkpt lat="45.991906763153445" lon="8.31146487955968"><ele>214.0</ele><time>2026-05-03T11:12:12Z</time></trkpt><trkpt lat="45.991817419817345" lon="8.311720334423372"><ele>214.0</ele><time>2026-05-03T11:12:13Z</time></trkpt><trkpt lat="45.99173005255899" lon="8.311977674683423"><ele>214.0</ele><time>2026-05-03T11:12:14Z</time></trkpt><trkpt lat="45.991647513497" lon="8.312239908599345"><ele>214.66666666666666</ele><time>2026-05-03T11:12:15Z</time></trkpt><trkpt lat="45.99157056504059" lon="8.31250536532325"><ele>215.33333333333331</ele><time>2026-05-03T11:12:16Z</time></trkpt><trkpt lat="45.99149718753135" lon="8.312776272799702"><ele>216.0</ele><time>2026-05-03T11:12:17Z</time></trkpt><trkpt lat="45.99143031697463" lon="8.313050581692323"><ele>216.33333333333331</ele><time>2026-05-03T11:12:18Z</time></trkpt><trkpt lat="45.99136691566769" lon="8.313328691911742"><ele>216.66666666666666</ele><time>2026-05-03T11:12:19Z</time></trkpt><trkpt lat="45.991305462795424" lon="8.313609718048182"><ele>217.0</ele><time>2026-05-03T11:12:20Z</time></trkpt><trkpt lat="45.991246523276736" lon="8.313893178675023"><ele>216.66666666666666</ele><time>2026-05-03T11:12:21Z</time></trkpt><trkpt lat="45.99119416006435" lon="8.314178165802199"><ele>216.33333333333331</ele><time>2026-05-03T11:12:22Z</time></trkpt><trkpt lat="45.99114995091219" lon="8.314463962912347"><ele>216.0</ele><time>2026-05-03T11:12:23Z</time></trkpt><trkpt lat="45.99110962377302" lon="8.314751039786906"><ele>215.66666666666669</ele><time>2026-05-03T11:12:24Z</time></trkpt><trkpt lat="45.99107500340061" lon="8.31503854232202"><ele>215.33333333333334</ele><time>2026-05-03T11:12:25Z</time></trkpt><trkpt lat="45.99104452731833" lon="8.31532911859415"><ele>215.0</ele><time>2026-05-03T11:12:26Z</time></trkpt><trkpt lat="45.9910189317187" lon="8.315618514028483"><ele>214.66666666666669</ele><time>2026-05-03T11:12:27Z</time></trkpt><trkpt lat="45.99099879624178" lon="8.315908727800757"><ele>214.33333333333331</ele><time>2026-05-03T11:12:28Z</time></trkpt><trkpt lat="45.99098583763289" lon="8.31620029611"><ele>214.0</ele><time>2026-05-03T11:12:29Z</time></trkpt><trkpt lat="45.990978924673335" lon="8.316490681599394"><ele>213.33333333333331</ele><time>2026-05-03T11:12:30Z</time></trkpt><trkpt lat="45.990975158402954" lon="8.316780746308863"><ele>212.66666666666669</ele><time>2026-05-03T11:12:31Z</time></trkpt><trkpt lat="45.9909749112621" lon="8.317069927159881"><ele>212.0</ele><time>2026-05-03T11:12:32Z</time></trkpt><trkpt lat="45.99097740536125" lon="8.317358009405265"><ele>212.0</ele><time>2026-05-03T11:12:33Z</time></trkpt><trkpt lat="45.990981253373214" lon="8.317647946967476"><ele>212.0</ele><time>2026-05-03T11:12:34Z</time></trkpt><trkpt lat="45.99098574198535" lon="8.317937170918082"><ele>212.0</ele><time>2026-05-03T11:12:35Z</time></trkpt><trkpt lat="45.99098992059653" lon="8.31822530350877"><ele>212.0</ele><time>2026-05-03T11:12:36Z</time></trkpt><trkpt lat="45.99099410158581" lon="8.318515759299832"><ele>212.0</ele><time>2026-05-03T11:12:37Z</time></trkpt><trkpt lat="45.990996972530326" lon="8.318808483636884"><ele>212.0</ele><time>2026-05-03T11:12:38Z</time></trkpt><trkpt lat="45.99100114263919" lon="8.319101546982543"><ele>212.0</ele><time>2026-05-03T11:12:39Z</time></trkpt><trkpt lat="45.991006714195734" lon="8.319395282458203"><ele>212.0</ele><time>2026-05-03T11:12:40Z</time></trkpt><trkpt lat="45.99101210248762" lon="8.319690611629362"><ele>212.0</ele><time>2026-05-03T11:12:41Z</time></trkpt><trkpt lat="45.991017415438556" lon="8.319988445497984"><ele>211.66666666666669</ele><time>2026-05-03T11:12:42Z</time></trkpt><trkpt lat="45.99102135999181" lon="8.320288630095515"><ele>211.33333333333331</ele><time>2026-05-03T11:12:43Z</time></trkpt><trkpt lat="45.99102708435574" lon="8.32058932743821"><ele>211.0</ele><time>2026-05-03T11:12:44Z</time></trkpt><trkpt lat="45.99103313763066" lon="8.320891381694759"><ele>211.0</ele><time>2026-05-03T11:12:45Z</time></trkpt><trkpt lat="45.991037631360086" lon="8.321193874118416"><ele>211.0</ele><time>2026-05-03T11:12:46Z</time></trkpt><trkpt lat="45.991041234865264" lon="8.321496173394731"><ele>211.0</ele><time>2026-05-03T11:12:47Z</time></trkpt><trkpt lat="45.991045908396366" lon="8.321797107577947"><ele>211.33333333333331</ele><time>2026-05-03T11:12:48Z</time></trkpt><trkpt lat="45.99105014932474" lon="8.322098646618613"><ele>211.66666666666669</ele><time>2026-05-03T11:12:49Z</time></trkpt><trkpt lat="45.99105236347008" lon="8.322398509850352"><ele>212.0</ele><time>2026-05-03T11:12:50Z</time></trkpt><trkpt lat="45.991056931927325" lon="8.322697058831476"><ele>213.0</ele><time>2026-05-03T11:12:51Z</time></trkpt><trkpt lat="45.99106069585381" lon="8.322993325581784"><ele>214.0</ele><time>2026-05-03T11:12:52Z</time></trkpt><trkpt lat="45.99106255364944" lon="8.32328754337453"><ele>215.0</ele><time>2026-05-03T11:12:53Z</time></trkpt><trkpt lat="45.991067543629185" lon="8.323582825307929"><ele>215.66666666666669</ele><time>2026-05-03T11:12:54Z</time></trkpt><trkpt lat="45.991073141984934" lon="8.32388183487856"><ele>216.33333333333331</ele><time>2026-05-03T11:12:55Z</time></trkpt><trkpt lat="45.991078142458" lon="8.32417236995524"><ele>217.0</ele><time>2026-05-03T11:12:56Z</time></trkpt><trkpt lat="45.991083701741665" lon="8.324453655326668"><ele>216.33333333333331</ele><time>2026-05-03T11:12:57Z</time></trkpt><trkpt lat="45.991089589909876" lon="8.324732367499584"><ele>215.66666666666669</ele><time>2026-05-03T11:12:58Z</time></trkpt><trkpt lat="45.99109180710635" lon="8.325009891551943"><ele>215.0</ele><time>2026-05-03T11:12:59Z</time></trkpt><trkpt lat="45.99109397951537" lon="8.325286757218555"><ele>215.66666666666669</ele><time>2026-05-03T11:13:00Z</time></trkpt><trkpt lat="45.991099212879895" lon="8.325564762337704"><ele>216.33333333333331</ele><time>2026-05-03T11:13:01Z</time></trkpt><trkpt lat="45.9911062618629" lon="8.325842170203794"><ele>217.0</ele><time>2026-05-03T11:13:02Z</time></trkpt><trkpt lat="45.991110339069934" lon="8.3261213686117"><ele>216.33333333333331</ele><time>2026-05-03T11:13:03Z</time></trkpt><trkpt lat="45.99111741728313" lon="8.326399403279002"><ele>215.66666666666669</ele><time>2026-05-03T11:13:04Z</time></trkpt><trkpt lat="45.99112683275612" lon="8.326678712181272"><ele>215.0</ele><time>2026-05-03T11:13:05Z</time></trkpt><trkpt lat="45.99113610757236" lon="8.326958853909336"><ele>215.0</ele><time>2026-05-03T11:13:06Z</time></trkpt><trkpt lat="45.99114662013142" lon="8.327238350084924"><ele>215.0</ele><time>2026-05-03T11:13:07Z</time></trkpt><trkpt lat="45.991160004550665" lon="8.327519430923457"><ele>215.0</ele><time>2026-05-03T11:13:08Z</time></trkpt><trkpt lat="45.9911740042573" lon="8.327801204073962"><ele>214.66666666666669</ele><time>2026-05-03T11:13:09Z</time></trkpt><trkpt lat="45.99119079571418" lon="8.328080731983333"><ele>214.33333333333331</ele><time>2026-05-03T11:13:10Z</time></trkpt><trkpt lat="45.99120937022745" lon="8.328360704044965"><ele>214.0</ele><time>2026-05-03T11:13:11Z</time></trkpt><trkpt lat="45.99122841219814" lon="8.328641299881156"><ele>212.66666666666666</ele><time>2026-05-03T11:13:12Z</time></trkpt><trkpt lat="45.99124926023763" lon="8.328922210977884"><ele>211.33333333333331</ele><time>2026-05-03T11:13:13Z</time></trkpt><trkpt lat="45.9912722416728" lon="8.329206857235475"><ele>210.0</ele><time>2026-05-03T11:13:14Z</time></trkpt><trkpt lat="45.991294642620296" lon="8.329493896877759"><ele>210.66666666666669</ele><time>2026-05-03T11:13:15Z</time></trkpt><trkpt lat="45.99131796765984" lon="8.329782825291163"><ele>211.33333333333334</ele><time>2026-05-03T11:13:16Z</time></trkpt><trkpt lat="45.9913420751979" lon="8.330074185156606"><ele>212.0</ele><time>2026-05-03T11:13:17Z</time></trkpt><trkpt lat="45.991367708923484" lon="8.330363875269812"><ele>211.66666666666669</ele><time>2026-05-03T11:13:18Z</time></trkpt><trkpt lat="45.991395701882446" lon="8.330652599329182"><ele>211.33333333333331</ele><time>2026-05-03T11:13:19Z</time></trkpt><trkpt lat="45.99142600517273" lon="8.330940587699384"><ele>211.0</ele><time>2026-05-03T11:13:20Z</time></trkpt><trkpt lat="45.99145492220752" lon="8.33123023005108"><ele>211.0</ele><time>2026-05-03T11:13:21Z</time></trkpt><trkpt lat="45.991482826716364" lon="8.331521078895264"><ele>211.0</ele><time>2026-05-03T11:13:22Z</time></trkpt><trkpt lat="45.99151135730866" lon="8.331810922849678"><ele>211.0</ele><time>2026-05-03T11:13:23Z</time></trkpt><trkpt lat="45.99153832371983" lon="8.332100292058502"><ele>211.66666666666666</ele><time>2026-05-03T11:13:24Z</time></trkpt><trkpt lat="45.99156398578783" lon="8.33238841754583"><ele>212.33333333333331</ele><time>2026-05-03T11:13:25Z</time></trkpt><trkpt lat="45.991589059422864" lon="8.332678385868943"><ele>213.0</ele><time>2026-05-03T11:13:26Z</time></trkpt><trkpt lat="45.99161264205217" lon="8.332967422314633"><ele>213.33333333333331</ele><time>2026-05-03T11:13:27Z</time></trkpt><trkpt lat="45.991636479869356" lon="8.333256377703314"><ele>213.66666666666666</ele><time>2026-05-03T11:13:28Z</time></trkpt><trkpt lat="45.99165926589012" lon="8.333546996691515"><ele>214.0</ele><time>2026-05-03T11:13:29Z</time></trkpt><trkpt lat="45.99167703828717" lon="8.333839939407524"><ele>212.33333333333331</ele><time>2026-05-03T11:13:30Z</time></trkpt><trkpt lat="45.991690983862135" lon="8.334134491978075"><ele>210.66666666666669</ele><time>2026-05-03T11:13:31Z</time></trkpt><trkpt lat="45.991701912131575" lon="8.334429681162247"><ele>209.0</ele><time>2026-05-03T11:13:32Z</time></trkpt><trkpt lat="45.991710192927016" lon="8.334723409475423"><ele>208.33333333333334</ele><time>2026-05-03T11:13:33Z</time></trkpt><trkpt lat="45.99171875299731" lon="8.335017712342426"><ele>207.66666666666669</ele><time>2026-05-03T11:13:34Z</time></trkpt><trkpt lat="45.99172505705065" lon="8.33531218414409"><ele>207.0</ele><time>2026-05-03T11:13:35Z</time></trkpt><trkpt lat="45.99172980732397" lon="8.335604277476008"><ele>208.33333333333331</ele><time>2026-05-03T11:13:36Z</time></trkpt><trkpt lat="45.991735187068976" lon="8.335896827105255"><ele>209.66666666666666</ele><time>2026-05-03T11:13:37Z</time></trkpt><trkpt lat="45.99174005733539" lon="8.336187046118805"><ele>211.0</ele><time>2026-05-03T11:13:38Z</time></trkpt><trkpt lat="45.99174564006144" lon="8.336476962294281"><ele>212.66666666666666</ele><time>2026-05-03T11:13:39Z</time></trkpt><trkpt lat="45.991749541269854" lon="8.336765138401866"><ele>214.33333333333331</ele><time>2026-05-03T11:13:40Z</time></trkpt><trkpt lat="45.99175147269984" lon="8.337051836949735"><ele>216.0</ele><time>2026-05-03T11:13:41Z</time></trkpt><trkpt lat="45.991752993946264" lon="8.337333281837081"><ele>216.0</ele><time>2026-05-03T11:13:42Z</time></trkpt><trkpt lat="45.99175501021933" lon="8.337614068716157"><ele>216.0</ele><time>2026-05-03T11:13:43Z</time></trkpt><trkpt lat="45.991760628058294" lon="8.337894368297986"><ele>216.0</ele><time>2026-05-03T11:13:44Z</time></trkpt><trkpt lat="45.99176451093127" lon="8.33817295450693"><ele>216.0</ele><time>2026-05-03T11:13:45Z</time></trkpt><trkpt lat="45.99176732092637" lon="8.33844989724685"><ele>216.0</ele><time>2026-05-03T11:13:46Z</time></trkpt><trkpt lat="45.991771351174755" lon="8.338725409725326"><ele>216.0</ele><time>2026-05-03T11:13:47Z</time></trkpt><trkpt lat="45.99177522214364" lon="8.339000597403892"><ele>215.0</ele><time>2026-05-03T11:13:48Z</time></trkpt><trkpt lat="45.99177871065162" lon="8.339277674447331"><ele>214.0</ele><time>2026-05-03T11:13:49Z</time></trkpt><trkpt lat="45.99178149450559" lon="8.339556292463007"><ele>213.0</ele><time>2026-05-03T11:13:50Z</time></trkpt><trkpt lat="45.99178437607216" lon="8.339835402303727"><ele>212.66666666666669</ele><time>2026-05-03T11:13:51Z</time></trkpt><trkpt lat="45.99178689713651" lon="8.340116112988325"><ele>212.33333333333334</ele><time>2026-05-03T11:13:52Z</time></trkpt><trkpt lat="45.991790312036144" lon="8.340398100495559"><ele>212.0</ele><time>2026-05-03T11:13:53Z</time></trkpt><trkpt lat="45.991794457952594" lon="8.340683831166658"><ele>212.0</ele><time>2026-05-03T11:13:54Z</time></trkpt><trkpt lat="45.991800210692816" lon="8.340972205501512"><ele>212.0</ele><time>2026-05-03T11:13:55Z</time></trkpt><trkpt lat="45.99180501915415" lon="8.341265354283045"><ele>212.0</ele><time>2026-05-03T11:13:56Z</time></trkpt><trkpt lat="45.99181223924916" lon="8.341560443000324"><ele>211.66666666666669</ele><time>2026-05-03T11:13:57Z</time></trkpt><trkpt lat="45.99181780727568" lon="8.341854403381651"><ele>211.33333333333331</ele><time>2026-05-03T11:13:58Z</time></trkpt><trkpt lat="45.99182336675684" lon="8.34214474529408"><ele>211.0</ele><time>2026-05-03T11:13:59Z</time></trkpt><trkpt lat="45.99182971996518" lon="8.342435124144085"><ele>211.0</ele><time>2026-05-03T11:14:00Z</time></trkpt><trkpt lat="45.99183684808385" lon="8.342724215973872"><ele>211.0</ele><time>2026-05-03T11:14:01Z</time></trkpt><trkpt lat="45.991845483788204" lon="8.34301457763192"><ele>211.0</ele><time>2026-05-03T11:14:02Z</time></trkpt><trkpt lat="45.99185578948371" lon="8.343305438847281"><ele>210.66666666666666</ele><time>2026-05-03T11:14:03Z</time></trkpt><trkpt lat="45.99187104599579" lon="8.34359579642611"><ele>210.33333333333331</ele><time>2026-05-03T11:14:04Z</time></trkpt><trkpt lat="45.99188860353964" lon="8.343889007673868"><ele>210.0</ele><time>2026-05-03T11:14:05Z</time></trkpt><trkpt lat="45.99190824603601" lon="8.344178964812428"><ele>210.0</ele><time>2026-05-03T11:14:06Z</time></trkpt><trkpt lat="45.99192838226088" lon="8.344464120574289"><ele>210.0</ele><time>2026-05-03T11:14:07Z</time></trkpt><trkpt lat="45.991950064525135" lon="8.344750747292053"><ele>210.0</ele><time>2026-05-03T11:14:08Z</time></trkpt><trkpt lat="45.991968278698174" lon="8.345038734825172"><ele>210.0</ele><time>2026-05-03T11:14:09Z</time></trkpt><trkpt lat="45.99198503443316" lon="8.345326769482245"><ele>210.0</ele><time>2026-05-03T11:14:10Z</time></trkpt><trkpt lat="45.99200138683538" lon="8.345616892420548"><ele>210.0</ele><time>2026-05-03T11:14:11Z</time></trkpt><trkpt lat="45.99201976971106" lon="8.34590631991772"><ele>210.33333333333331</ele><time>2026-05-03T11:14:12Z</time></trkpt><trkpt lat="45.992039822875135" lon="8.346197941165576"><ele>210.66666666666666</ele><time>2026-05-03T11:14:13Z</time></trkpt><trkpt lat="45.99205669690607" lon="8.346491824856345"><ele>211.0</ele><time>2026-05-03T11:14:14Z</time></trkpt><trkpt lat="45.99206736230993" lon="8.346788344784024"><ele>211.66666666666666</ele><time>2026-05-03T11:14:15Z</time></trkpt><trkpt lat="45.99206866054714" lon="8.347086781546688"><ele>212.33333333333331</ele><time>2026-05-03T11:14:16Z</time></trkpt><trkpt lat="45.99206129397559" lon="8.347387077013007"><ele>213.0</ele><time>2026-05-03T11:14:17Z</time></trkpt><trkpt lat="45.9920441513623" lon="8.347689617083004"><ele>213.0</ele><time>2026-05-03T11:14:18Z</time></trkpt><trkpt lat="45.99201561242052" lon="8.347991654704419"><ele>213.0</ele><time>2026-05-03T11:14:19Z</time></trkpt><trkpt lat="45.99197543562541" lon="8.348290695316262"><ele>213.0</ele><time>2026-05-03T11:14:20Z</time></trkpt><trkpt lat="45.991923513143874" lon="8.34858437875378"><ele>212.0</ele><time>2026-05-03T11:14:21Z</time></trkpt><trkpt lat="45.99186259079826" lon="8.34887513129272"><ele>211.0</ele><time>2026-05-03T11:14:22Z</time></trkpt><trkpt lat="45.991797325940865" lon="8.349162052764287"><ele>210.0</ele><time>2026-05-03T11:14:23Z</time></trkpt><trkpt lat="45.99172331392334" lon="8.349445397871767"><ele>210.66666666666669</ele><time>2026-05-03T11:14:24Z</time></trkpt><trkpt lat="45.991639613489355" lon="8.349723964795045"><ele>211.33333333333334</ele><time>2026-05-03T11:14:25Z</time></trkpt><trkpt lat="45.99154979451245" lon="8.350001111677907"><ele>212.0</ele><time>2026-05-03T11:14:26Z</time></trkpt><trkpt lat="45.99146069294151" lon="8.350278273868964"><ele>212.33333333333334</ele><time>2026-05-03T11:14:27Z</time></trkpt><trkpt lat="45.99137298405886" lon="8.350557211152884"><ele>212.66666666666669</ele><time>2026-05-03T11:14:28Z</time></trkpt><trkpt lat="45.99128569924701" lon="8.350834426841125"><ele>213.0</ele><time>2026-05-03T11:14:29Z</time></trkpt><trkpt lat="45.99119665097588" lon="8.351110596037769"><ele>212.0</ele><time>2026-05-03T11:14:30Z</time></trkpt><trkpt lat="45.991108129157574" lon="8.351388709772639"><ele>211.0</ele><time>2026-05-03T11:14:31Z</time></trkpt><trkpt lat="45.991019688309606" lon="8.351666264190218"><ele>210.0</ele><time>2026-05-03T11:14:32Z</time></trkpt><trkpt lat="45.990932058488546" lon="8.351942560079262"><ele>209.66666666666669</ele><time>2026-05-03T11:14:33Z</time></trkpt><trkpt lat="45.9908440958443" lon="8.35221684227805"><ele>209.33333333333334</ele><time>2026-05-03T11:14:34Z</time></trkpt><trkpt lat="45.9907572750414" lon="8.352489199459399"><ele>209.0</ele><time>2026-05-03T11:14:35Z</time></trkpt><trkpt lat="45.990671986197555" lon="8.352760998433217"><ele>209.66666666666669</ele><time>2026-05-03T11:14:36Z</time></trkpt><trkpt lat="45.990585923590416" lon="8.353032562402209"><ele>210.33333333333331</ele><time>2026-05-03T11:14:37Z</time></trkpt><trkpt lat="45.99049960286095" lon="8.353303863839637"><ele>211.0</ele><time>2026-05-03T11:14:38Z</time></trkpt><trkpt lat="45.99041620730366" lon="8.353577365620918"><ele>211.0</ele><time>2026-05-03T11:14:39Z</time></trkpt><trkpt lat="45.99033973019364" lon="8.353854546819534"><ele>211.0</ele><time>2026-05-03T11:14:40Z</time></trkpt><trkpt lat="45.99027399287946" lon="8.354139932176938"><ele>211.0</ele><time>2026-05-03T11:14:41Z</time></trkpt><trkpt lat="45.99021756267817" lon="8.354431392780178"><ele>210.66666666666666</ele><time>2026-05-03T11:14:42Z</time></trkpt><trkpt lat="45.99016769621335" lon="8.354728108273436"><ele>210.33333333333331</ele><time>2026-05-03T11:14:43Z</time></trkpt><trkpt lat="45.99012293861132" lon="8.355031097777957"><ele>210.0</ele><time>2026-05-03T11:14:44Z</time></trkpt><trkpt lat="45.99007862218026" lon="8.355333715248829"><ele>209.66666666666669</ele><time>2026-05-03T11:14:45Z</time></trkpt><trkpt lat="45.99003476721684" lon="8.355637452591722"><ele>209.33333333333334</ele><time>2026-05-03T11:14:46Z</time></trkpt><trkpt lat="45.98999241457919" lon="8.355940309925288"><ele>209.0</ele><time>2026-05-03T11:14:47Z</time></trkpt><trkpt lat="45.98994888818303" lon="8.356242591063868"><ele>210.33333333333334</ele><time>2026-05-03T11:14:48Z</time></trkpt><trkpt lat="45.98990553865261" lon="8.356544745920173"><ele>211.66666666666669</ele><time>2026-05-03T11:14:49Z</time></trkpt><trkpt lat="45.98986074224265" lon="8.356847402707459"><ele>213.0</ele><time>2026-05-03T11:14:50Z</time></trkpt><trkpt lat="45.98981436441287" lon="8.35714826662208"><ele>212.66666666666669</ele><time>2026-05-03T11:14:51Z</time></trkpt><trkpt lat="45.98976211588079" lon="8.357445365225173"><ele>212.33333333333334</ele><time>2026-05-03T11:14:52Z</time></trkpt><trkpt lat="45.989702952062274" lon="8.357741396456891"><ele>212.0</ele><time>2026-05-03T11:14:53Z</time></trkpt><trkpt lat="45.98963402118059" lon="8.358035391290956"><ele>212.0</ele><time>2026-05-03T11:14:54Z</time></trkpt><trkpt lat="45.9895621543076" lon="8.358327956243583"><ele>212.0</ele><time>2026-05-03T11:14:55Z</time></trkpt><trkpt lat="45.98949058397135" lon="8.358620238440228"><ele>212.0</ele><time>2026-05-03T11:14:56Z</time></trkpt><trkpt lat="45.9894179059109" lon="8.358913314716139"><ele>210.66666666666669</ele><time>2026-05-03T11:14:57Z</time></trkpt><trkpt lat="45.98934684656899" lon="8.359208257171248"><ele>209.33333333333331</ele><time>2026-05-03T11:14:58Z</time></trkpt><trkpt lat="45.98927534327394" lon="8.359503470994682"><ele>208.0</ele><time>2026-05-03T11:14:59Z</time></trkpt><trkpt lat="45.989202524104776" lon="8.359794303116239"><ele>209.66666666666666</ele><time>2026-05-03T11:15:00Z</time></trkpt><trkpt lat="45.98912944032165" lon="8.360084919064468"><ele>211.33333333333331</ele><time>2026-05-03T11:15:01Z</time></trkpt><trkpt lat="45.98905508247872" lon="8.360376162464116"><ele>213.0</ele><time>2026-05-03T11:15:02Z</time></trkpt><trkpt lat="45.988980770283106" lon="8.360666626893307"><ele>213.0</ele><time>2026-05-03T11:15:03Z</time></trkpt><trkpt lat="45.98890469022227" lon="8.360955662874957"><ele>213.0</ele><time>2026-05-03T11:15:04Z</time></trkpt><trkpt lat="45.988830348143125" lon="8.361244404981724"><ele>213.0</ele><time>2026-05-03T11:15:05Z</time></trkpt><trkpt lat="45.98875430353996" lon="8.36153260372804"><ele>212.33333333333331</ele><time>2026-05-03T11:15:06Z</time></trkpt><trkpt lat="45.98867961751605" lon="8.361821154239514"><ele>211.66666666666666</ele><time>2026-05-03T11:15:07Z</time></trkpt><trkpt lat="45.98860504566929" lon="8.362108523366128"><ele>211.0</ele><time>2026-05-03T11:15:08Z</time></trkpt><trkpt lat="45.9885294435799" lon="8.36239251127336"><ele>211.66666666666666</ele><time>2026-05-03T11:15:09Z</time></trkpt><trkpt lat="45.98844712581501" lon="8.362672213898474"><ele>212.33333333333331</ele><time>2026-05-03T11:15:10Z</time></trkpt><trkpt lat="45.988356436035225" lon="8.362946994944322"><ele>213.0</ele><time>2026-05-03T11:15:11Z</time></trkpt><trkpt lat="45.98825362239791" lon="8.363211941087723"><ele>213.0</ele><time>2026-05-03T11:15:12Z</time></trkpt><trkpt lat="45.988144554587294" lon="8.36347147132259"><ele>213.0</ele><time>2026-05-03T11:15:13Z</time></trkpt><trkpt lat="45.988032118779294" lon="8.363727487338293"><ele>213.0</ele><time>2026-05-03T11:15:14Z</time></trkpt><trkpt lat="45.987919685989176" lon="8.363984001864536"><ele>213.0</ele><time>2026-05-03T11:15:15Z</time></trkpt><trkpt lat="45.987804816959574" lon="8.364237097310168"><ele>213.0</ele><time>2026-05-03T11:15:16Z</time></trkpt><trkpt lat="45.98768673403544" lon="8.36448779369075"><ele>213.0</ele><time>2026-05-03T11:15:17Z</time></trkpt><trkpt lat="45.987564245296916" lon="8.364734222426682"><ele>212.33333333333331</ele><time>2026-05-03T11:15:18Z</time></trkpt><trkpt lat="45.98743939712946" lon="8.364978962777228"><ele>211.66666666666666</ele><time>2026-05-03T11:15:19Z</time></trkpt><trkpt lat="45.987313554300776" lon="8.365219496782213"><ele>211.0</ele><time>2026-05-03T11:15:20Z</time></trkpt><trkpt lat="45.98718602282869" lon="8.365459698617508"><ele>211.0</ele><time>2026-05-03T11:15:21Z</time></trkpt><trkpt lat="45.98705908746521" lon="8.365698111150778"><ele>211.0</ele><time>2026-05-03T11:15:22Z</time></trkpt><trkpt lat="45.98693390605046" lon="8.365935195435856"><ele>211.0</ele><time>2026-05-03T11:15:23Z</time></trkpt><trkpt lat="45.98680910202075" lon="8.36617001091415"><ele>211.33333333333331</ele><time>2026-05-03T11:15:24Z</time></trkpt><trkpt lat="45.986684238221194" lon="8.366405770480094"><ele>211.66666666666669</ele><time>2026-05-03T11:15:25Z</time></trkpt><trkpt lat="45.9865621477581" lon="8.366643689972049"><ele>212.0</ele><time>2026-05-03T11:15:26Z</time></trkpt><trkpt lat="45.986443653812586" lon="8.366883594736972"><ele>212.0</ele><time>2026-05-03T11:15:27Z</time></trkpt><trkpt lat="45.98632928478099" lon="8.367127669769497"><ele>212.0</ele><time>2026-05-03T11:15:28Z</time></trkpt><trkpt lat="45.98622271228973" lon="8.367378895638932"><ele>212.0</ele><time>2026-05-03T11:15:29Z</time></trkpt><trkpt lat="45.98612483006033" lon="8.367639920688937"><ele>211.66666666666669</ele><time>2026-05-03T11:15:30Z</time></trkpt><trkpt lat="45.986035817582355" lon="8.367907869501181"><ele>211.33333333333331</ele><time>2026-05-03T11:15:31Z</time></trkpt><trkpt lat="45.985953661636565" lon="8.36817961063409"><ele>211.0</ele><time>2026-05-03T11:15:32Z</time></trkpt><trkpt lat="45.98587753367509" lon="8.368455940180649"><ele>210.66666666666666</ele><time>2026-05-03T11:15:33Z</time></trkpt><trkpt lat="45.98581196357243" lon="8.368737605141257"><ele>210.33333333333331</ele><time>2026-05-03T11:15:34Z</time></trkpt><trkpt lat="45.9857568395901" lon="8.369022548405216"><ele>210.0</ele><time>2026-05-03T11:15:35Z</time></trkpt><trkpt lat="45.985708883098916" lon="8.369308287247843"><ele>210.33333333333331</ele><time>2026-05-03T11:15:36Z</time></trkpt><trkpt lat="45.98567175561204" lon="8.369595911977544"><ele>210.66666666666666</ele><time>2026-05-03T11:15:37Z</time></trkpt><trkpt lat="45.985644586280486" lon="8.369885803712435"><ele>211.0</ele><time>2026-05-03T11:15:38Z</time></trkpt><trkpt lat="45.98562793599384" lon="8.370176478940776"><ele>211.0</ele><time>2026-05-03T11:15:39Z</time></trkpt><trkpt lat="45.985618792854076" lon="8.370468144923985"><ele>211.0</ele><time>2026-05-03T11:15:40Z</time></trkpt><trkpt lat="45.985615728235274" lon="8.370759778099655"><ele>211.0</ele><time>2026-05-03T11:15:41Z</time></trkpt><trkpt lat="45.985623272403714" lon="8.371050955492354"><ele>210.33333333333331</ele><time>2026-05-03T11:15:42Z</time></trkpt><trkpt lat="45.9856399637863" lon="8.371340250330597"><ele>209.66666666666669</ele><time>2026-05-03T11:15:43Z</time></trkpt><trkpt lat="45.985660183373845" lon="8.37162765199704"><ele>209.0</ele><time>2026-05-03T11:15:44Z</time></trkpt><trkpt lat="45.98568252258288" lon="8.371915664116052"><ele>208.0</ele><time>2026-05-03T11:15:45Z</time></trkpt><trkpt lat="45.985704586569014" lon="8.37220602907014"><ele>207.0</ele><time>2026-05-03T11:15:46Z</time></trkpt><trkpt lat="45.9857228168061" lon="8.372497675981071"><ele>206.0</ele><time>2026-05-03T11:15:47Z</time></trkpt><trkpt lat="45.9857400147372" lon="8.372790525549677"><ele>206.66666666666669</ele><time>2026-05-03T11:15:48Z</time></trkpt><trkpt lat="45.985759166370435" lon="8.373085787140806"><ele>207.33333333333331</ele><time>2026-05-03T11:15:49Z</time></trkpt><trkpt lat="45.98577668606669" lon="8.373383095846107"><ele>208.0</ele><time>2026-05-03T11:15:50Z</time></trkpt><trkpt lat="45.98579467522705" lon="8.373679370300334"><ele>208.66666666666666</ele><time>2026-05-03T11:15:51Z</time></trkpt><trkpt lat="45.985813568077795" lon="8.373975087718932"><ele>209.33333333333331</ele><time>2026-05-03T11:15:52Z</time></trkpt><trkpt lat="45.98583191558711" lon="8.374269681946314"><ele>210.0</ele><time>2026-05-03T11:15:53Z</time></trkpt><trkpt lat="45.98585017044022" lon="8.37456289544644"><ele>208.66666666666669</ele><time>2026-05-03T11:15:54Z</time></trkpt><trkpt lat="45.98586951537293" lon="8.374854408619349"><ele>207.33333333333334</ele><time>2026-05-03T11:15:55Z</time></trkpt><trkpt lat="45.98588737726373" lon="8.375143310657124"><ele>206.0</ele><time>2026-05-03T11:15:56Z</time></trkpt><trkpt lat="45.98590374185288" lon="8.37542787277841"><ele>207.33333333333334</ele><time>2026-05-03T11:15:57Z</time></trkpt><trkpt lat="45.98591558988995" lon="8.375710606696195"><ele>208.66666666666669</ele><time>2026-05-03T11:15:58Z</time></trkpt><trkpt lat="45.98592168850168" lon="8.375992277140817"><ele>210.0</ele><time>2026-05-03T11:15:59Z</time></trkpt><trkpt lat="45.98592282445165" lon="8.376269763554898"><ele>209.66666666666669</ele><time>2026-05-03T11:16:00Z</time></trkpt><trkpt lat="45.985918688297886" lon="8.37654498684121"><ele>209.33333333333334</ele><time>2026-05-03T11:16:01Z</time></trkpt><trkpt lat="45.98591040259421" lon="8.376816948199354"><ele>209.0</ele><time>2026-05-03T11:16:02Z</time></trkpt><trkpt lat="45.985899259082665" lon="8.377087597836749"><ele>208.66666666666669</ele><time>2026-05-03T11:16:03Z</time></trkpt><trkpt lat="45.98588447321791" lon="8.377355459386207"><ele>208.33333333333331</ele><time>2026-05-03T11:16:04Z</time></trkpt><trkpt lat="45.98586296267758" lon="8.377622202755878"><ele>208.0</ele><time>2026-05-03T11:16:05Z</time></trkpt><trkpt lat="45.98583231472624" lon="8.377887559335788"><ele>209.0</ele><time>2026-05-03T11:16:06Z</time></trkpt><trkpt lat="45.98579608740284" lon="8.378156810699679"><ele>210.0</ele><time>2026-05-03T11:16:07Z</time></trkpt><trkpt lat="45.98575648127964" lon="8.378423733893145"><ele>211.0</ele><time>2026-05-03T11:16:08Z</time></trkpt><trkpt lat="45.98571281712898" lon="8.378690328857811"><ele>211.0</ele><time>2026-05-03T11:16:09Z</time></trkpt><trkpt lat="45.98566513415085" lon="8.37895534381942"><ele>211.0</ele><time>2026-05-03T11:16:10Z</time></trkpt><trkpt lat="45.98561306742632" lon="8.379222016967946"><ele>211.0</ele><time>2026-05-03T11:16:11Z</time></trkpt><trkpt lat="45.98555991853631" lon="8.379490119183998"><ele>211.0</ele><time>2026-05-03T11:16:12Z</time></trkpt><trkpt lat="45.98550554328007" lon="8.379763033749667"><ele>211.0</ele><time>2026-05-03T11:16:13Z</time></trkpt><trkpt lat="45.98545134561181" lon="8.380038711406451"><ele>211.0</ele><time>2026-05-03T11:16:14Z</time></trkpt><trkpt lat="45.98539417259511" lon="8.38031268371216"><ele>210.33333333333331</ele><time>2026-05-03T11:16:15Z</time></trkpt><trkpt lat="45.985336506820396" lon="8.3805848730691"><ele>209.66666666666669</ele><time>2026-05-03T11:16:16Z</time></trkpt><trkpt lat="45.98528243754506" lon="8.380858085178666"><ele>209.0</ele><time>2026-05-03T11:16:17Z</time></trkpt><trkpt lat="45.98523370349559" lon="8.381130659630259"><ele>209.33333333333334</ele><time>2026-05-03T11:16:18Z</time></trkpt><trkpt lat="45.985189893822344" lon="8.381402486182798"><ele>209.66666666666669</ele><time>2026-05-03T11:16:19Z</time></trkpt><trkpt lat="45.985150185435785" lon="8.381674150632827"><ele>210.0</ele><time>2026-05-03T11:16:20Z</time></trkpt><trkpt lat="45.98511049934684" lon="8.381945917987059"><ele>210.33333333333331</ele><time>2026-05-03T11:16:21Z</time></trkpt><trkpt lat="45.98507196173386" lon="8.382218238123102"><ele>210.66666666666666</ele><time>2026-05-03T11:16:22Z</time></trkpt><trkpt lat="45.98503923320947" lon="8.382495243605364"><ele>211.0</ele><time>2026-05-03T11:16:23Z</time></trkpt><trkpt lat="45.985010885506824" lon="8.382777254400807"><ele>210.33333333333331</ele><time>2026-05-03T11:16:24Z</time></trkpt><trkpt lat="45.984988108942936" lon="8.383062895482361"><ele>209.66666666666669</ele><time>2026-05-03T11:16:25Z</time></trkpt><trkpt lat="45.98497610405168" lon="8.383350787260104"><ele>209.0</ele><time>2026-05-03T11:16:26Z</time></trkpt><trkpt lat="45.984967445288994" lon="8.383639275431248"><ele>209.0</ele><time>2026-05-03T11:16:27Z</time></trkpt><trkpt lat="45.984962317858006" lon="8.383930654972264"><ele>209.0</ele><time>2026-05-03T11:16:28Z</time></trkpt><trkpt lat="45.98495844006053" lon="8.384224733079819"><ele>209.0</ele><time>2026-05-03T11:16:29Z</time></trkpt><trkpt lat="45.98495797307437" lon="8.384521231575187"><ele>209.0</ele><time>2026-05-03T11:16:30Z</time></trkpt><trkpt lat="45.98496439420116" lon="8.384822694081517"><ele>209.0</ele><time>2026-05-03T11:16:31Z</time></trkpt><trkpt lat="45.98497801798563" lon="8.385123940303684"><ele>209.0</ele><time>2026-05-03T11:16:32Z</time></trkpt><trkpt lat="45.98499349764914" lon="8.385422766538735"><ele>208.66666666666669</ele><time>2026-05-03T11:16:33Z</time></trkpt><trkpt lat="45.985010792781814" lon="8.385721173168573"><ele>208.33333333333331</ele><time>2026-05-03T11:16:34Z</time></trkpt><trkpt lat="45.98503110681958" lon="8.38602022783944"><ele>208.0</ele><time>2026-05-03T11:16:35Z</time></trkpt><trkpt lat="45.985057608073184" lon="8.38631817766682"><ele>207.66666666666666</ele><time>2026-05-03T11:16:36Z</time></trkpt><trkpt lat="45.98508985923857" lon="8.386614702960097"><ele>207.33333333333331</ele><time>2026-05-03T11:16:37Z</time></trkpt><trkpt lat="45.98512827579847" lon="8.386911080329853"><ele>207.0</ele><time>2026-05-03T11:16:38Z</time></trkpt><trkpt lat="45.98517224714498" lon="8.387206004803"><ele>207.0</ele><time>2026-05-03T11:16:39Z</time></trkpt><trkpt lat="45.985220513252756" lon="8.387497294242916"><ele>207.0</ele><time>2026-05-03T11:16:40Z</time></trkpt><trkpt lat="45.98527763114707" lon="8.387783788540187"><ele>207.0</ele><time>2026-05-03T11:16:41Z</time></trkpt><trkpt lat="45.98533834325568" lon="8.388065629117852"><ele>207.33333333333331</ele><time>2026-05-03T11:16:42Z</time></trkpt><trkpt lat="45.98540148827707" lon="8.388344431638286"><ele>207.66666666666666</ele><time>2026-05-03T11:16:43Z</time></trkpt><trkpt lat="45.98546686074836" lon="8.388619267716509"><ele>208.0</ele><time>2026-05-03T11:16:44Z</time></trkpt><trkpt lat="45.985531914369226" lon="8.38889238313882"><ele>208.33333333333331</ele><time>2026-05-03T11:16:45Z</time></trkpt><trkpt lat="45.98560010006722" lon="8.38915682069704"><ele>208.66666666666669</ele><time>2026-05-03T11:16:46Z</time></trkpt><trkpt lat="45.98567617043851" lon="8.389415506847623"><ele>209.0</ele><time>2026-05-03T11:16:47Z</time></trkpt><trkpt lat="45.9857541681265" lon="8.38967386120937"><ele>209.0</ele><time>2026-05-03T11:16:48Z</time></trkpt><trkpt lat="45.985829800483614" lon="8.389931933508699"><ele>209.0</ele><time>2026-05-03T11:16:49Z</time></trkpt><trkpt lat="45.98590476605762" lon="8.390188649598837"><ele>209.0</ele><time>2026-05-03T11:16:50Z</time></trkpt><trkpt lat="45.98598154322214" lon="8.390446108590906"><ele>209.33333333333334</ele><time>2026-05-03T11:16:51Z</time></trkpt><trkpt lat="45.98605933437202" lon="8.390704819798268"><ele>209.66666666666669</ele><time>2026-05-03T11:16:52Z</time></trkpt><trkpt lat="45.98613937186062" lon="8.390964425089264"><ele>210.0</ele><time>2026-05-03T11:16:53Z</time></trkpt><trkpt lat="45.98621769145036" lon="8.391224028237685"><ele>210.0</ele><time>2026-05-03T11:16:54Z</time></trkpt><trkpt lat="45.98629759071922" lon="8.391482743549568"><ele>210.0</ele><time>2026-05-03T11:16:55Z</time></trkpt><trkpt lat="45.986379432488384" lon="8.391742373374024"><ele>210.0</ele><time>2026-05-03T11:16:56Z</time></trkpt><trkpt lat="45.9864614322408" lon="8.392001509352973"><ele>209.66666666666669</ele><time>2026-05-03T11:16:57Z</time></trkpt><trkpt lat="45.98654130268604" lon="8.39226051729471"><ele>209.33333333333334</ele><time>2026-05-03T11:16:58Z</time></trkpt><trkpt lat="45.98662086639684" lon="8.39252022765368"><ele>209.0</ele><time>2026-05-03T11:16:59Z</time></trkpt><trkpt lat="45.98669820806749" lon="8.392780738017938"><ele>209.0</ele><time>2026-05-03T11:17:00Z</time></trkpt><trkpt lat="45.98677699424697" lon="8.393040196503113"><ele>209.0</ele><time>2026-05-03T11:17:01Z</time></trkpt><trkpt lat="45.98685836990581" lon="8.393294874594684"><ele>209.0</ele><time>2026-05-03T11:17:02Z</time></trkpt><trkpt lat="45.986938263828065" lon="8.39354639705469"><ele>209.0</ele><time>2026-05-03T11:17:03Z</time></trkpt><trkpt lat="45.98701412257692" lon="8.393797843688073"><ele>209.0</ele><time>2026-05-03T11:17:04Z</time></trkpt><trkpt lat="45.98708733128313" lon="8.394051456698298"><ele>209.0</ele><time>2026-05-03T11:17:05Z</time></trkpt><trkpt lat="45.9871589001713" lon="8.394297218215186"><ele>209.33333333333334</ele><time>2026-05-03T11:17:06Z</time></trkpt><trkpt lat="45.98722922757237" lon="8.394536709163074"><ele>209.66666666666669</ele><time>2026-05-03T11:17:07Z</time></trkpt><trkpt lat="45.987303163078586" lon="8.394774348535208"><ele>210.0</ele><time>2026-05-03T11:17:08Z</time></trkpt><trkpt lat="45.98737528635494" lon="8.395007805151256"><ele>210.33333333333331</ele><time>2026-05-03T11:17:09Z</time></trkpt><trkpt lat="45.98744389253891" lon="8.395242828894238"><ele>210.66666666666666</ele><time>2026-05-03T11:17:10Z</time></trkpt><trkpt lat="45.987514918165765" lon="8.395474935605172"><ele>211.0</ele><time>2026-05-03T11:17:11Z</time></trkpt><trkpt lat="45.9875870611827" lon="8.395705650575126"><ele>211.0</ele><time>2026-05-03T11:17:12Z</time></trkpt><trkpt lat="45.98765550434735" lon="8.395938990616715"><ele>211.0</ele><time>2026-05-03T11:17:13Z</time></trkpt><trkpt lat="45.98772436998214" lon="8.396173766227822"><ele>211.0</ele><time>2026-05-03T11:17:14Z</time></trkpt><trkpt lat="45.987787115734335" lon="8.396420224765137"><ele>211.0</ele><time>2026-05-03T11:17:15Z</time></trkpt><trkpt lat="45.987848152110956" lon="8.396668540959347"><ele>211.0</ele><time>2026-05-03T11:17:16Z</time></trkpt><trkpt lat="45.98790664262604" lon="8.396921611213793"><ele>211.0</ele><time>2026-05-03T11:17:17Z</time></trkpt><trkpt lat="45.98796494170312" lon="8.3971756452834"><ele>211.0</ele><time>2026-05-03T11:17:18Z</time></trkpt><trkpt lat="45.98802096484337" lon="8.397432539306672"><ele>211.0</ele><time>2026-05-03T11:17:19Z</time></trkpt><trkpt lat="45.98807158839689" lon="8.397694167413942"><ele>211.0</ele><time>2026-05-03T11:17:20Z</time></trkpt><trkpt lat="45.98811882919665" lon="8.397955693236602"><ele>211.66666666666666</ele><time>2026-05-03T11:17:21Z</time></trkpt><trkpt lat="45.988159381688625" lon="8.398221153244432"><ele>212.33333333333331</ele><time>2026-05-03T11:17:22Z</time></trkpt><trkpt lat="45.988197143345865" lon="8.39848790160789"><ele>213.0</ele><time>2026-05-03T11:17:23Z</time></trkpt><trkpt lat="45.98823276788683" lon="8.398758231453387"><ele>213.66666666666669</ele><time>2026-05-03T11:17:24Z</time></trkpt><trkpt lat="45.988265091989184" lon="8.399033011626317"><ele>214.33333333333334</ele><time>2026-05-03T11:17:25Z</time></trkpt><trkpt lat="45.98829304552857" lon="8.399311601800898"><ele>215.0</ele><time>2026-05-03T11:17:26Z</time></trkpt><trkpt lat="45.98831588010884" lon="8.3995912162645"><ele>215.0</ele><time>2026-05-03T11:17:27Z</time></trkpt><trkpt lat="45.988334620155236" lon="8.399872705701489"><ele>215.0</ele><time>2026-05-03T11:17:28Z</time></trkpt><trkpt lat="45.98834972528222" lon="8.400156182494172"><ele>215.0</ele><time>2026-05-03T11:17:29Z</time></trkpt><trkpt lat="45.98835998425354" lon="8.400442524728808"><ele>214.33333333333334</ele><time>2026-05-03T11:17:30Z</time></trkpt><trkpt lat="45.98836766476339" lon="8.400731214552165"><ele>213.66666666666669</ele><time>2026-05-03T11:17:31Z</time></trkpt><trkpt lat="45.988372364431385" lon="8.40102025703791"><ele>213.0</ele><time>2026-05-03T11:17:32Z</time></trkpt><trkpt lat="45.98837045374074" lon="8.401312332068578"><ele>213.0</ele><time>2026-05-03T11:17:33Z</time></trkpt><trkpt lat="45.98836276240124" lon="8.40160701487741"><ele>213.0</ele><time>2026-05-03T11:17:34Z</time></trkpt><trkpt lat="45.98834976230766" lon="8.401904109410381"><ele>213.0</ele><time>2026-05-03T11:17:35Z</time></trkpt><trkpt lat="45.98833259608588" lon="8.402202832190035"><ele>212.66666666666669</ele><time>2026-05-03T11:17:36Z</time></trkpt><trkpt lat="45.98831162726963" lon="8.402502621501949"><ele>212.33333333333334</ele><time>2026-05-03T11:17:37Z</time></trkpt><trkpt lat="45.988284697579886" lon="8.402803636696365"><ele>212.0</ele><time>2026-05-03T11:17:38Z</time></trkpt><trkpt lat="45.9882526074987" lon="8.403102831559634"><ele>211.33333333333334</ele><time>2026-05-03T11:17:39Z</time></trkpt><trkpt lat="45.988215393506984" lon="8.40340555710873"><ele>210.66666666666669</ele><time>2026-05-03T11:17:40Z</time></trkpt><trkpt lat="45.988173863396646" lon="8.403705975820323"><ele>210.0</ele><time>2026-05-03T11:17:41Z</time></trkpt><trkpt lat="45.9881257254414" lon="8.40400889936014"><ele>209.66666666666669</ele><time>2026-05-03T11:17:42Z</time></trkpt><trkpt lat="45.98807074004774" lon="8.404309983217154"><ele>209.33333333333334</ele><time>2026-05-03T11:17:43Z</time></trkpt><trkpt lat="45.988009840408814" lon="8.40460849085856"><ele>209.0</ele><time>2026-05-03T11:17:44Z</time></trkpt><trkpt lat="45.9879393172105" lon="8.404903728505479"><ele>208.66666666666669</ele><time>2026-05-03T11:17:45Z</time></trkpt><trkpt lat="45.98787235024289" lon="8.405199332370568"><ele>208.33333333333331</ele><time>2026-05-03T11:17:46Z</time></trkpt><trkpt lat="45.98780525345928" lon="8.405490571096184"><ele>208.0</ele><time>2026-05-03T11:17:47Z</time></trkpt><trkpt lat="45.987730675712484" lon="8.405775516268509"><ele>207.66666666666666</ele><time>2026-05-03T11:17:48Z</time></trkpt><trkpt lat="45.987649090267745" lon="8.406050899820992"><ele>207.33333333333331</ele><time>2026-05-03T11:17:49Z</time></trkpt><trkpt lat="45.98756474111262" lon="8.406320556281733"><ele>207.0</ele><time>2026-05-03T11:17:50Z</time></trkpt><trkpt lat="45.98747585539884" lon="8.406588010503713"><ele>207.66666666666669</ele><time>2026-05-03T11:17:51Z</time></trkpt><trkpt lat="45.98738458889643" lon="8.406852297048578"><ele>208.33333333333334</ele><time>2026-05-03T11:17:52Z</time></trkpt><trkpt lat="45.98728897598201" lon="8.407116502202815"><ele>209.0</ele><time>2026-05-03T11:17:53Z</time></trkpt><trkpt lat="45.98718797746228" lon="8.40737526579733"><ele>209.0</ele><time>2026-05-03T11:17:54Z</time></trkpt><trkpt lat="45.98708260171417" lon="8.407631850741078"><ele>209.0</ele><time>2026-05-03T11:17:55Z</time></trkpt><trkpt lat="45.98697277112923" lon="8.407882748675826"><ele>209.0</ele><time>2026-05-03T11:17:56Z</time></trkpt><trkpt lat="45.986859308779714" lon="8.408132743344394"><ele>209.33333333333334</ele><time>2026-05-03T11:17:57Z</time></trkpt><trkpt lat="45.98674068539642" lon="8.408381063882874"><ele>209.66666666666669</ele><time>2026-05-03T11:17:58Z</time></trkpt><trkpt lat="45.98661817097823" lon="8.408624003622263"><ele>210.0</ele><time>2026-05-03T11:17:59Z</time></trkpt><trkpt lat="45.9864933955784" lon="8.40886031140809"><ele>210.33333333333331</ele><time>2026-05-03T11:18:00Z</time></trkpt><trkpt lat="45.9863655593123" lon="8.40909506369835"><ele>210.66666666666666</ele><time>2026-05-03T11:18:01Z</time></trkpt><trkpt lat="45.98623330349134" lon="8.409324941573207"><ele>211.0</ele><time>2026-05-03T11:18:02Z</time></trkpt><trkpt lat="45.986094908849516" lon="8.409551239878263"><ele>211.0</ele><time>2026-05-03T11:18:03Z</time></trkpt><trkpt lat="45.98595563996159" lon="8.409771063853597"><ele>211.0</ele><time>2026-05-03T11:18:04Z</time></trkpt><trkpt lat="45.98581062081371" lon="8.409988194367987"><ele>211.0</ele><time>2026-05-03T11:18:05Z</time></trkpt><trkpt lat="45.98565957745883" lon="8.410194154435723"><ele>210.33333333333331</ele><time>2026-05-03T11:18:06Z</time></trkpt><trkpt lat="45.98550758559647" lon="8.410399947931587"><ele>209.66666666666669</ele><time>2026-05-03T11:18:07Z</time></trkpt><trkpt lat="45.985355379621524" lon="8.410605119452269"><ele>209.0</ele><time>2026-05-03T11:18:08Z</time></trkpt><trkpt lat="45.985199229153125" lon="8.410802465868686"><ele>208.33333333333334</ele><time>2026-05-03T11:18:09Z</time></trkpt><trkpt lat="45.98503859422427" lon="8.410994896424079"><ele>207.66666666666669</ele><time>2026-05-03T11:18:10Z</time></trkpt><trkpt lat="45.984874043252695" lon="8.411178260486485"><ele>207.0</ele><time>2026-05-03T11:18:11Z</time></trkpt><trkpt lat="45.984703852380356" lon="8.41135345944023"><ele>206.33333333333331</ele><time>2026-05-03T11:18:12Z</time></trkpt><trkpt lat="45.98453308111472" lon="8.41152750516463"><ele>205.66666666666666</ele><time>2026-05-03T11:18:13Z</time></trkpt><trkpt lat="45.984361162110815" lon="8.411699394314255"><ele>205.0</ele><time>2026-05-03T11:18:14Z</time></trkpt><trkpt lat="45.984190147018815" lon="8.411864334365262"><ele>206.33333333333331</ele><time>2026-05-03T11:18:15Z</time></trkpt><trkpt lat="45.98401786856305" lon="8.412029016978627"><ele>207.66666666666669</ele><time>2026-05-03T11:18:16Z</time></trkpt><trkpt lat="45.983846647790294" lon="8.412194511456951"><ele>209.0</ele><time>2026-05-03T11:18:17Z</time></trkpt><trkpt lat="45.9836739555367" lon="8.412358326802584"><ele>209.0</ele><time>2026-05-03T11:18:18Z</time></trkpt><trkpt lat="45.98350331599271" lon="8.412520191098084"><ele>209.0</ele><time>2026-05-03T11:18:19Z</time></trkpt><trkpt lat="45.98333058361402" lon="8.412685535122485"><ele>209.0</ele><time>2026-05-03T11:18:20Z</time></trkpt><trkpt lat="45.98315760130498" lon="8.412852197339902"><ele>209.0</ele><time>2026-05-03T11:18:21Z</time></trkpt><trkpt lat="45.98298462361703" lon="8.413020904870148"><ele>209.0</ele><time>2026-05-03T11:18:22Z</time></trkpt><trkpt lat="45.98281176623491" lon="8.413189668267018"><ele>209.0</ele><time>2026-05-03T11:18:23Z</time></trkpt><trkpt lat="45.98263661760092" lon="8.413359399172116"><ele>209.0</ele><time>2026-05-03T11:18:24Z</time></trkpt><trkpt lat="45.98246094525562" lon="8.413532543188902"><ele>209.0</ele><time>2026-05-03T11:18:25Z</time></trkpt><trkpt lat="45.982284823197304" lon="8.413705281156735"><ele>209.0</ele><time>2026-05-03T11:18:26Z</time></trkpt><trkpt lat="45.98210697365557" lon="8.41387639379121"><ele>208.66666666666669</ele><time>2026-05-03T11:18:27Z</time></trkpt><trkpt lat="45.981928612701225" lon="8.414046327992246"><ele>208.33333333333331</ele><time>2026-05-03T11:18:28Z</time></trkpt><trkpt lat="45.98175169437086" lon="8.41421698472708"><ele>208.0</ele><time>2026-05-03T11:18:29Z</time></trkpt><trkpt lat="45.981576788440464" lon="8.41438654808559"><ele>207.66666666666666</ele><time>2026-05-03T11:18:30Z</time></trkpt><trkpt lat="45.981402765633526" lon="8.414553391179755"><ele>207.33333333333331</ele><time>2026-05-03T11:18:31Z</time></trkpt><trkpt lat="45.981227328009666" lon="8.414718283756121"><ele>207.0</ele><time>2026-05-03T11:18:32Z</time></trkpt><trkpt lat="45.981051970919715" lon="8.414883459291222"><ele>207.0</ele><time>2026-05-03T11:18:33Z</time></trkpt><trkpt lat="45.980880400609735" lon="8.415050689328414"><ele>207.0</ele><time>2026-05-03T11:18:34Z</time></trkpt><trkpt lat="45.98070751662321" lon="8.41521860080507"><ele>207.0</ele><time>2026-05-03T11:18:35Z</time></trkpt><trkpt lat="45.98053448039163" lon="8.415385877158515"><ele>207.33333333333331</ele><time>2026-05-03T11:18:36Z</time></trkpt><trkpt lat="45.980362112642986" lon="8.415554087663022"><ele>207.66666666666666</ele><time>2026-05-03T11:18:37Z</time></trkpt><trkpt lat="45.9801892366979" lon="8.415721679720596"><ele>208.0</ele><time>2026-05-03T11:18:38Z</time></trkpt><trkpt lat="45.98001495589886" lon="8.415884645793694"><ele>208.0</ele><time>2026-05-03T11:18:39Z</time></trkpt><trkpt lat="45.9798414291286" lon="8.416048672767904"><ele>208.0</ele><time>2026-05-03T11:18:40Z</time></trkpt><trkpt lat="45.97966539937168" lon="8.416212012145932"><ele>208.0</ele><time>2026-05-03T11:18:41Z</time></trkpt><trkpt lat="45.97949058533156" lon="8.416378172937703"><ele>207.66666666666666</ele><time>2026-05-03T11:18:42Z</time></trkpt><trkpt lat="45.979318074638414" lon="8.416545399320688"><ele>207.33333333333331</ele><time>2026-05-03T11:18:43Z</time></trkpt><trkpt lat="45.97914701007136" lon="8.416712479322372"><ele>207.0</ele><time>2026-05-03T11:18:44Z</time></trkpt><trkpt lat="45.978976784685074" lon="8.416884096794767"><ele>207.0</ele><time>2026-05-03T11:18:45Z</time></trkpt><trkpt lat="45.97880946062939" lon="8.417061132995475"><ele>207.0</ele><time>2026-05-03T11:18:46Z</time></trkpt><trkpt lat="45.97864631595179" lon="8.417246468234035"><ele>207.0</ele><time>2026-05-03T11:18:47Z</time></trkpt><trkpt lat="45.97848780822544" lon="8.417440813256777"><ele>207.0</ele><time>2026-05-03T11:18:48Z</time></trkpt><trkpt lat="45.97833418766388" lon="8.417640022072282"><ele>207.0</ele><time>2026-05-03T11:18:49Z</time></trkpt><trkpt lat="45.978182492970824" lon="8.417845744655693"><ele>207.0</ele><time>2026-05-03T11:18:50Z</time></trkpt><trkpt lat="45.978035180439086" lon="8.418059309522121"><ele>207.0</ele><time>2026-05-03T11:18:51Z</time></trkpt><trkpt lat="45.97789064357116" lon="8.418275630732373"><ele>207.0</ele><time>2026-05-03T11:18:52Z</time></trkpt><trkpt lat="45.977747566235486" lon="8.418496476664792"><ele>207.0</ele><time>2026-05-03T11:18:53Z</time></trkpt><trkpt lat="45.97760543633951" lon="8.418721344898884"><ele>207.0</ele><time>2026-05-03T11:18:54Z</time></trkpt><trkpt lat="45.97746043237889" lon="8.418942932044455"><ele>207.0</ele><time>2026-05-03T11:18:55Z</time></trkpt><trkpt lat="45.97731360265" lon="8.419160106140083"><ele>207.0</ele><time>2026-05-03T11:18:56Z</time></trkpt><trkpt lat="45.97716689350612" lon="8.419376366992248"><ele>207.0</ele><time>2026-05-03T11:18:57Z</time></trkpt><trkpt lat="45.97702057731758" lon="8.419594756258345"><ele>207.0</ele><time>2026-05-03T11:18:58Z</time></trkpt><trkpt lat="45.9768751105989" lon="8.419813701836697"><ele>207.0</ele><time>2026-05-03T11:18:59Z</time></trkpt><trkpt lat="45.97673147344489" lon="8.42003565719169"><ele>206.66666666666669</ele><time>2026-05-03T11:19:00Z</time></trkpt><trkpt lat="45.97658763309128" lon="8.420259497691486"><ele>206.33333333333334</ele><time>2026-05-03T11:19:01Z</time></trkpt><trkpt lat="45.976443114614185" lon="8.420480314743992"><ele>206.0</ele><time>2026-05-03T11:19:02Z</time></trkpt><trkpt lat="45.97629913968695" lon="8.4207005011566"><ele>206.66666666666669</ele><time>2026-05-03T11:19:03Z</time></trkpt><trkpt lat="45.976153348334435" lon="8.420919156432287"><ele>207.33333333333331</ele><time>2026-05-03T11:19:04Z</time></trkpt><trkpt lat="45.97600843942327" lon="8.421138043296006"><ele>208.0</ele><time>2026-05-03T11:19:05Z</time></trkpt><trkpt lat="45.97586607907824" lon="8.42135467865546"><ele>208.0</ele><time>2026-05-03T11:19:06Z</time></trkpt><trkpt lat="45.975725410550574" lon="8.421571710075613"><ele>208.0</ele><time>2026-05-03T11:19:07Z</time></trkpt><trkpt lat="45.97558702811063" lon="8.42178560700339"><ele>208.0</ele><time>2026-05-03T11:19:08Z</time></trkpt><trkpt lat="45.97544753421336" lon="8.421996954120878"><ele>208.33333333333331</ele><time>2026-05-03T11:19:09Z</time></trkpt><trkpt lat="45.97530881234146" lon="8.422207136437324"><ele>208.66666666666669</ele><time>2026-05-03T11:19:10Z</time></trkpt><trkpt lat="45.97516958826796" lon="8.422416985581936"><ele>209.0</ele><time>2026-05-03T11:19:11Z</time></trkpt><trkpt lat="45.9750287759628" lon="8.42262630869773"><ele>208.66666666666669</ele><time>2026-05-03T11:19:12Z</time></trkpt><trkpt lat="45.97488577208913" lon="8.422832704357331"><ele>208.33333333333331</ele><time>2026-05-03T11:19:13Z</time></trkpt><trkpt lat="45.97473711259336" lon="8.423036785342418"><ele>208.0</ele><time>2026-05-03T11:19:14Z</time></trkpt><trkpt lat="45.97458730420431" lon="8.423235244037892"><ele>208.0</ele><time>2026-05-03T11:19:15Z</time></trkpt><trkpt lat="45.97443478987673" lon="8.423431468219444"><ele>208.0</ele><time>2026-05-03T11:19:16Z</time></trkpt><trkpt lat="45.97427897391996" lon="8.423625621693025"><ele>208.0</ele><time>2026-05-03T11:19:17Z</time></trkpt><trkpt lat="45.974118122900386" lon="8.423815195993209"><ele>208.0</ele><time>2026-05-03T11:19:18Z</time></trkpt><trkpt lat="45.97395833658154" lon="8.424003393203213"><ele>208.0</ele><time>2026-05-03T11:19:19Z</time></trkpt><trkpt lat="45.973792881225904" lon="8.42418704252419"><ele>208.0</ele><time>2026-05-03T11:19:20Z</time></trkpt><trkpt lat="45.973626367815264" lon="8.424367585375364"><ele>208.0</ele><time>2026-05-03T11:19:21Z</time></trkpt><trkpt lat="45.9734591320387" lon="8.424549127926326"><ele>208.0</ele><time>2026-05-03T11:19:22Z</time></trkpt><trkpt lat="45.97328799006452" lon="8.424727256980638"><ele>208.0</ele><time>2026-05-03T11:19:23Z</time></trkpt><trkpt lat="45.97311297339257" lon="8.424900246756732"><ele>208.0</ele><time>2026-05-03T11:19:24Z</time></trkpt><trkpt lat="45.97294078582135" lon="8.42506269517947"><ele>208.0</ele><time>2026-05-03T11:19:25Z</time></trkpt><trkpt lat="45.97276858256434" lon="8.425221483827235"><ele>208.0</ele><time>2026-05-03T11:19:26Z</time></trkpt><trkpt lat="45.97259731998258" lon="8.42537655445279"><ele>207.66666666666666</ele><time>2026-05-03T11:19:27Z</time></trkpt><trkpt lat="45.97242378701769" lon="8.4255288751139"><ele>207.33333333333331</ele><time>2026-05-03T11:19:28Z</time></trkpt><trkpt lat="45.97225287431419" lon="8.425670796534318"><ele>207.0</ele><time>2026-05-03T11:19:29Z</time></trkpt><trkpt lat="45.97208252966161" lon="8.425810003416277"><ele>207.0</ele><time>2026-05-03T11:19:30Z</time></trkpt><trkpt lat="45.971908679961786" lon="8.42594626992185"><ele>207.0</ele><time>2026-05-03T11:19:31Z</time></trkpt><trkpt lat="45.971733004926804" lon="8.426077089748407"><ele>207.0</ele><time>2026-05-03T11:19:32Z</time></trkpt><trkpt lat="45.97155394042114" lon="8.426209165863314"><ele>206.66666666666669</ele><time>2026-05-03T11:19:33Z</time></trkpt><trkpt lat="45.97137329176271" lon="8.426339508028104"><ele>206.33333333333334</ele><time>2026-05-03T11:19:34Z</time></trkpt><trkpt lat="45.971187241858615" lon="8.42646711155589"><ele>206.0</ele><time>2026-05-03T11:19:35Z</time></trkpt><trkpt lat="45.97099808941173" lon="8.426588950621758"><ele>203.33333333333334</ele><time>2026-05-03T11:19:36Z</time></trkpt><trkpt lat="45.97080546192224" lon="8.426707036447112"><ele>200.66666666666669</ele><time>2026-05-03T11:19:37Z</time></trkpt><trkpt lat="45.97061324375448" lon="8.426818939554378"><ele>198.0</ele><time>2026-05-03T11:19:38Z</time></trkpt><trkpt lat="45.9704229477809" lon="8.426924768366389"><ele>198.0</ele><time>2026-05-03T11:19:39Z</time></trkpt><trkpt lat="45.9702337373892" lon="8.427026787570657"><ele>198.0</ele><time>2026-05-03T11:19:40Z</time></trkpt><trkpt lat="45.97004473071842" lon="8.427120945735664"><ele>198.0</ele><time>2026-05-03T11:19:41Z</time></trkpt><trkpt lat="45.969855295186065" lon="8.427210838963783"><ele>199.0</ele><time>2026-05-03T11:19:42Z</time></trkpt><trkpt lat="45.969667206891245" lon="8.427297677660805"><ele>200.0</ele><time>2026-05-03T11:19:43Z</time></trkpt><trkpt lat="45.96947835978639" lon="8.427384238710744"><ele>201.0</ele><time>2026-05-03T11:19:44Z</time></trkpt><trkpt lat="45.96928818363658" lon="8.427468776575642"><ele>202.0</ele><time>2026-05-03T11:19:45Z</time></trkpt><trkpt lat="45.96909426939237" lon="8.427548872393844"><ele>203.0</ele><time>2026-05-03T11:19:46Z</time></trkpt><trkpt lat="45.96889699610435" lon="8.427624445819337"><ele>204.0</ele><time>2026-05-03T11:19:47Z</time></trkpt><trkpt lat="45.96869555018635" lon="8.427694728257007"><ele>204.0</ele><time>2026-05-03T11:19:48Z</time></trkpt><trkpt lat="45.96849066929833" lon="8.427760487649222"><ele>204.0</ele><time>2026-05-03T11:19:49Z</time></trkpt><trkpt lat="45.9682851008515" lon="8.427821713228232"><ele>204.0</ele><time>2026-05-03T11:19:50Z</time></trkpt><trkpt lat="45.968079056237976" lon="8.427880333547536"><ele>204.33333333333331</ele><time>2026-05-03T11:19:51Z</time></trkpt><trkpt lat="45.96787248404287" lon="8.427934658214781"><ele>204.66666666666666</ele><time>2026-05-03T11:19:52Z</time></trkpt><trkpt lat="45.96766488628629" lon="8.427985329763418"><ele>205.0</ele><time>2026-05-03T11:19:53Z</time></trkpt><trkpt lat="45.967455567743805" lon="8.428032657022875"><ele>205.66666666666666</ele><time>2026-05-03T11:19:54Z</time></trkpt><trkpt lat="45.96724542595097" lon="8.428073879375791"><ele>206.33333333333331</ele><time>2026-05-03T11:19:55Z</time></trkpt><trkpt lat="45.9670333368244" lon="8.42810943339749"><ele>207.0</ele><time>2026-05-03T11:19:56Z</time></trkpt><trkpt lat="45.96681826228014" lon="8.428138792424633"><ele>207.66666666666669</ele><time>2026-05-03T11:19:57Z</time></trkpt><trkpt lat="45.96660365607254" lon="8.428163050680649"><ele>208.33333333333334</ele><time>2026-05-03T11:19:58Z</time></trkpt><trkpt lat="45.96638787132233" lon="8.428184806911068"><ele>209.0</ele><time>2026-05-03T11:19:59Z</time></trkpt><trkpt lat="45.96617274119414" lon="8.428202277388694"><ele>209.0</ele><time>2026-05-03T11:20:00Z</time></trkpt><trkpt lat="45.96595520401945" lon="8.428213582171184"><ele>209.0</ele><time>2026-05-03T11:20:01Z</time></trkpt><trkpt lat="45.965737511253444" lon="8.428220464248207"><ele>209.0</ele><time>2026-05-03T11:20:02Z</time></trkpt><trkpt lat="45.96552008355496" lon="8.428217720316777"><ele>208.33333333333334</ele><time>2026-05-03T11:20:03Z</time></trkpt><trkpt lat="45.96530262297423" lon="8.428214472607086"><ele>207.66666666666669</ele><time>2026-05-03T11:20:04Z</time></trkpt><trkpt lat="45.96508326988517" lon="8.428205845191815"><ele>207.0</ele><time>2026-05-03T11:20:05Z</time></trkpt><trkpt lat="45.964867119186536" lon="8.428191212135191"><ele>206.66666666666669</ele><time>2026-05-03T11:20:06Z</time></trkpt><trkpt lat="45.96465103825555" lon="8.428171273770564"><ele>206.33333333333334</ele><time>2026-05-03T11:20:07Z</time></trkpt><trkpt lat="45.964436773926565" lon="8.428149467681235"><ele>206.0</ele><time>2026-05-03T11:20:08Z</time></trkpt><trkpt lat="45.96422330744768" lon="8.428131181148537"><ele>206.0</ele><time>2026-05-03T11:20:09Z</time></trkpt><trkpt lat="45.9640110423052" lon="8.428110663077138"><ele>206.0</ele><time>2026-05-03T11:20:10Z</time></trkpt><trkpt lat="45.96380231081536" lon="8.42808902983234"><ele>206.0</ele><time>2026-05-03T11:20:11Z</time></trkpt><trkpt lat="45.9635954037742" lon="8.428066587710934"><ele>206.0</ele><time>2026-05-03T11:20:12Z</time></trkpt><trkpt lat="45.96339019365484" lon="8.42804577620699"><ele>206.0</ele><time>2026-05-03T11:20:13Z</time></trkpt><trkpt lat="45.963186709884866" lon="8.428025392086479"><ele>206.0</ele><time>2026-05-03T11:20:14Z</time></trkpt><trkpt lat="45.96298211813215" lon="8.428005177069638"><ele>206.33333333333334</ele><time>2026-05-03T11:20:15Z</time></trkpt><trkpt lat="45.9627781985725" lon="8.427983625624451"><ele>206.66666666666669</ele><time>2026-05-03T11:20:16Z</time></trkpt><trkpt lat="45.96257320904898" lon="8.427962886570395"><ele>207.0</ele><time>2026-05-03T11:20:17Z</time></trkpt><trkpt lat="45.96236829153213" lon="8.427944253535317"><ele>206.0</ele><time>2026-05-03T11:20:18Z</time></trkpt><trkpt lat="45.96216248141312" lon="8.427923303321469"><ele>205.0</ele><time>2026-05-03T11:20:19Z</time></trkpt><trkpt lat="45.96195435026279" lon="8.427900456507343"><ele>204.0</ele><time>2026-05-03T11:20:20Z</time></trkpt><trkpt lat="45.96174508967196" lon="8.427877978437593"><ele>203.33333333333331</ele><time>2026-05-03T11:20:21Z</time></trkpt><trkpt lat="45.961534280741375" lon="8.427856495860466"><ele>202.66666666666666</ele><time>2026-05-03T11:20:22Z</time></trkpt><trkpt lat="45.961322926891725" lon="8.427834759318175"><ele>202.0</ele><time>2026-05-03T11:20:23Z</time></trkpt><trkpt lat="45.961109423999176" lon="8.427814144018587"><ele>202.0</ele><time>2026-05-03T11:20:24Z</time></trkpt><trkpt lat="45.96089580304848" lon="8.427789681324665"><ele>202.0</ele><time>2026-05-03T11:20:25Z</time></trkpt><trkpt lat="45.96067861468821" lon="8.427761809451889"><ele>202.0</ele><time>2026-05-03T11:20:26Z</time></trkpt><trkpt lat="45.96046551596414" lon="8.427738462268989"><ele>202.0</ele><time>2026-05-03T11:20:27Z</time></trkpt><trkpt lat="45.96025034067149" lon="8.427722492906556"><ele>202.0</ele><time>2026-05-03T11:20:28Z</time></trkpt><trkpt lat="45.96003510634572" lon="8.427702319289176"><ele>202.0</ele><time>2026-05-03T11:20:29Z</time></trkpt><trkpt lat="45.959818904064754" lon="8.427682366314407"><ele>202.66666666666666</ele><time>2026-05-03T11:20:30Z</time></trkpt><trkpt lat="45.95960153804379" lon="8.427661137909006"><ele>203.33333333333331</ele><time>2026-05-03T11:20:31Z</time></trkpt><trkpt lat="45.95938282152036" lon="8.427639473056919"><ele>204.0</ele><time>2026-05-03T11:20:32Z</time></trkpt><trkpt lat="45.959164445912315" lon="8.427615653271246"><ele>204.66666666666669</ele><time>2026-05-03T11:20:33Z</time></trkpt><trkpt lat="45.958944660591555" lon="8.42759478292704"><ele>205.33333333333334</ele><time>2026-05-03T11:20:34Z</time></trkpt><trkpt lat="45.958725084282975" lon="8.427572834908856"><ele>206.0</ele><time>2026-05-03T11:20:35Z</time></trkpt><trkpt lat="45.95850685649933" lon="8.427551043589443"><ele>205.33333333333334</ele><time>2026-05-03T11:20:36Z</time></trkpt><trkpt lat="45.95829022672798" lon="8.427527851818036"><ele>204.66666666666669</ele><time>2026-05-03T11:20:37Z</time></trkpt><trkpt lat="45.958073201805476" lon="8.42750517920285"><ele>204.0</ele><time>2026-05-03T11:20:38Z</time></trkpt><trkpt lat="45.95785444333213" lon="8.427483469123493"><ele>204.0</ele><time>2026-05-03T11:20:39Z</time></trkpt><trkpt lat="45.95763780868174" lon="8.427460902476946"><ele>204.0</ele><time>2026-05-03T11:20:40Z</time></trkpt><trkpt lat="45.957421871133334" lon="8.42743942462644"><ele>204.0</ele><time>2026-05-03T11:20:41Z</time></trkpt><trkpt lat="45.957205134099695" lon="8.427417167494667"><ele>203.66666666666669</ele><time>2026-05-03T11:20:42Z</time></trkpt><trkpt lat="45.956988526155115" lon="8.427393846998452"><ele>203.33333333333334</ele><time>2026-05-03T11:20:43Z</time></trkpt><trkpt lat="45.956771803519096" lon="8.427370747415415"><ele>203.0</ele><time>2026-05-03T11:20:44Z</time></trkpt><trkpt lat="45.956553884495634" lon="8.427346032854013"><ele>204.0</ele><time>2026-05-03T11:20:45Z</time></trkpt><trkpt lat="45.956337785264566" lon="8.427322261360839"><ele>205.0</ele><time>2026-05-03T11:20:46Z</time></trkpt><trkpt lat="45.95612011312047" lon="8.427298698965812"><ele>206.0</ele><time>2026-05-03T11:20:47Z</time></trkpt><trkpt lat="45.95589881499195" lon="8.42727865214774"><ele>206.33333333333334</ele><time>2026-05-03T11:20:48Z</time></trkpt><trkpt lat="45.955679079756635" lon="8.427263093729342"><ele>206.66666666666669</ele><time>2026-05-03T11:20:49Z</time></trkpt><trkpt lat="45.95545978245216" lon="8.427245088492649"><ele>207.0</ele><time>2026-05-03T11:20:50Z</time></trkpt><trkpt lat="45.955242240107665" lon="8.427223556289126"><ele>205.0</ele><time>2026-05-03T11:20:51Z</time></trkpt><trkpt lat="45.95502424512738" lon="8.427202818099405"><ele>203.0</ele><time>2026-05-03T11:20:52Z</time></trkpt><trkpt lat="45.954807918955204" lon="8.4271805055381"><ele>201.0</ele><time>2026-05-03T11:20:53Z</time></trkpt><trkpt lat="45.95458939470257" lon="8.427158822956564"><ele>201.0</ele><time>2026-05-03T11:20:54Z</time></trkpt><trkpt lat="45.95437083956656" lon="8.427137640343714"><ele>201.0</ele><time>2026-05-03T11:20:55Z</time></trkpt><trkpt lat="45.95415417010876" lon="8.427117313067594"><ele>201.0</ele><time>2026-05-03T11:20:56Z</time></trkpt><trkpt lat="45.9539353003376" lon="8.427095169788142"><ele>201.33333333333331</ele><time>2026-05-03T11:20:57Z</time></trkpt><trkpt lat="45.95371532832401" lon="8.427071283849175"><ele>201.66666666666666</ele><time>2026-05-03T11:20:58Z</time></trkpt><trkpt lat="45.95349590309494" lon="8.427046232699718"><ele>202.0</ele><time>2026-05-03T11:20:59Z</time></trkpt><trkpt lat="45.95327608280825" lon="8.42702399946844"><ele>202.0</ele><time>2026-05-03T11:21:00Z</time></trkpt><trkpt lat="45.95305612624606" lon="8.426998941991949"><ele>202.0</ele><time>2026-05-03T11:21:01Z</time></trkpt><trkpt lat="45.95283638128865" lon="8.42697549674552"><ele>202.0</ele><time>2026-05-03T11:21:02Z</time></trkpt><trkpt lat="45.95261801995418" lon="8.426953704163099"><ele>201.66666666666666</ele><time>2026-05-03T11:21:03Z</time></trkpt><trkpt lat="45.952401660412356" lon="8.42693503587089"><ele>201.33333333333331</ele><time>2026-05-03T11:21:04Z</time></trkpt><trkpt lat="45.952186301442296" lon="8.426914778410055"><ele>201.0</ele><time>2026-05-03T11:21:05Z</time></trkpt><trkpt lat="45.95197395108604" lon="8.426895095009895"><ele>201.0</ele><time>2026-05-03T11:21:06Z</time></trkpt><trkpt lat="45.95176246488059" lon="8.42687445159607"><ele>201.0</ele><time>2026-05-03T11:21:07Z</time></trkpt><trkpt lat="45.951553183030036" lon="8.426852542908863"><ele>201.0</ele><time>2026-05-03T11:21:08Z</time></trkpt><trkpt lat="45.95134475495881" lon="8.426831448677405"><ele>201.0</ele><time>2026-05-03T11:21:09Z</time></trkpt><trkpt lat="45.95113750255762" lon="8.426803986004186"><ele>201.0</ele><time>2026-05-03T11:21:10Z</time></trkpt><trkpt lat="45.95093181542734" lon="8.426765378196253"><ele>201.0</ele><time>2026-05-03T11:21:11Z</time></trkpt><trkpt lat="45.95072669338708" lon="8.426717678730695"><ele>201.33333333333331</ele><time>2026-05-03T11:21:12Z</time></trkpt><trkpt lat="45.95052365681254" lon="8.426658152867073"><ele>201.66666666666666</ele><time>2026-05-03T11:21:13Z</time></trkpt><trkpt lat="45.95032236053311" lon="8.426584332575592"><ele>202.0</ele><time>2026-05-03T11:21:14Z</time></trkpt><trkpt lat="45.950121843491374" lon="8.426495239046126"><ele>202.0</ele><time>2026-05-03T11:21:15Z</time></trkpt><trkpt lat="45.9499262728657" lon="8.426391125149918"><ele>202.0</ele><time>2026-05-03T11:21:16Z</time></trkpt><trkpt lat="45.94973292527258" lon="8.426274895416515"><ele>202.0</ele><time>2026-05-03T11:21:17Z</time></trkpt><trkpt lat="45.949540895733385" lon="8.426147342665557"><ele>201.33333333333331</ele><time>2026-05-03T11:21:18Z</time></trkpt><trkpt lat="45.94935009669768" lon="8.426013440397051"><ele>200.66666666666669</ele><time>2026-05-03T11:21:19Z</time></trkpt><trkpt lat="45.949159196228536" lon="8.425869265672128"><ele>200.0</ele><time>2026-05-03T11:21:20Z</time></trkpt><trkpt lat="45.94896672192485" lon="8.425724065430245"><ele>201.33333333333334</ele><time>2026-05-03T11:21:21Z</time></trkpt><trkpt lat="45.94877153200754" lon="8.425578712584318"><ele>202.66666666666669</ele><time>2026-05-03T11:21:22Z</time></trkpt><trkpt lat="45.94857582537134" lon="8.42543294711973"><ele>204.0</ele><time>2026-05-03T11:21:23Z</time></trkpt><trkpt lat="45.94837900123134" lon="8.42528963917089"><ele>203.0</ele><time>2026-05-03T11:21:24Z</time></trkpt><trkpt lat="45.94817902705374" lon="8.425154165071863"><ele>202.0</ele><time>2026-05-03T11:21:25Z</time></trkpt><trkpt lat="45.94797480819047" lon="8.425025693032318"><ele>201.0</ele><time>2026-05-03T11:21:26Z</time></trkpt><trkpt lat="45.94776629081936" lon="8.42490462393235"><ele>201.0</ele><time>2026-05-03T11:21:27Z</time></trkpt><trkpt lat="45.94755629510516" lon="8.4247890955135"><ele>201.0</ele><time>2026-05-03T11:21:28Z</time></trkpt><trkpt lat="45.947344058000226" lon="8.424685251635841"><ele>201.0</ele><time>2026-05-03T11:21:29Z</time></trkpt><trkpt lat="45.9471315982303" lon="8.424594225941147"><ele>201.66666666666669</ele><time>2026-05-03T11:21:30Z</time></trkpt><trkpt lat="45.9469157042346" lon="8.424512616564565"><ele>202.33333333333334</ele><time>2026-05-03T11:21:31Z</time></trkpt><trkpt lat="45.946698582585626" lon="8.424438826671112"><ele>203.0</ele><time>2026-05-03T11:21:32Z</time></trkpt><trkpt lat="45.94648021172487" lon="8.424373799526496"><ele>203.0</ele><time>2026-05-03T11:21:33Z</time></trkpt><trkpt lat="45.94626141570243" lon="8.424319817926325"><ele>203.0</ele><time>2026-05-03T11:21:34Z</time></trkpt><trkpt lat="45.946042537701565" lon="8.424276491297292"><ele>203.0</ele><time>2026-05-03T11:21:35Z</time></trkpt><trkpt lat="45.945822870197645" lon="8.42424498730835"><ele>202.66666666666669</ele><time>2026-05-03T11:21:36Z</time></trkpt><trkpt lat="45.945603166851804" lon="8.424223319271334"><ele>202.33333333333331</ele><time>2026-05-03T11:21:37Z</time></trkpt><trkpt lat="45.945382066608595" lon="8.42420845268562"><ele>202.0</ele><time>2026-05-03T11:21:38Z</time></trkpt><trkpt lat="45.9451607102265" lon="8.424202047360328"><ele>202.0</ele><time>2026-05-03T11:21:39Z</time></trkpt><trkpt lat="45.944938038442494" lon="8.42420678669499"><ele>202.0</ele><time>2026-05-03T11:21:40Z</time></trkpt><trkpt lat="45.94471566407282" lon="8.424219652039096"><ele>202.0</ele><time>2026-05-03T11:21:41Z</time></trkpt><trkpt lat="45.94449296008689" lon="8.42424196874429"><ele>202.0</ele><time>2026-05-03T11:21:42Z</time></trkpt><trkpt lat="45.94427219224673" lon="8.424274897133373"><ele>202.0</ele><time>2026-05-03T11:21:43Z</time></trkpt><trkpt lat="45.944053955504366" lon="8.42431795501229"><ele>202.0</ele><time>2026-05-03T11:21:44Z</time></trkpt><trkpt lat="45.9438365137392" lon="8.424370124635379"><ele>202.33333333333331</ele><time>2026-05-03T11:21:45Z</time></trkpt><trkpt lat="45.94362068208674" lon="8.424431634908398"><ele>202.66666666666669</ele><time>2026-05-03T11:21:46Z</time></trkpt><trkpt lat="45.943406041203694" lon="8.424503501131504"><ele>203.0</ele><time>2026-05-03T11:21:47Z</time></trkpt><trkpt lat="45.94319401311366" lon="8.424582551564997"><ele>203.0</ele><time>2026-05-03T11:21:48Z</time></trkpt><trkpt lat="45.94298647923457" lon="8.424671698616233"><ele>203.0</ele><time>2026-05-03T11:21:49Z</time></trkpt><trkpt lat="45.942783960815134" lon="8.424766942631496"><ele>203.0</ele><time>2026-05-03T11:21:50Z</time></trkpt><trkpt lat="45.942586286507556" lon="8.424871020348624"><ele>203.33333333333334</ele><time>2026-05-03T11:21:51Z</time></trkpt><trkpt lat="45.94239177735595" lon="8.424982872521976"><ele>203.66666666666669</ele><time>2026-05-03T11:21:52Z</time></trkpt><trkpt lat="45.94220178727876" lon="8.42510200956233"><ele>204.0</ele><time>2026-05-03T11:21:53Z</time></trkpt><trkpt lat="45.9420150104145" lon="8.425226425437966"><ele>204.0</ele><time>2026-05-03T11:21:54Z</time></trkpt><trkpt lat="45.94183084067186" lon="8.425359190422027"><ele>204.0</ele><time>2026-05-03T11:21:55Z</time></trkpt><trkpt lat="45.94164846936273" lon="8.425498345291157"><ele>204.0</ele><time>2026-05-03T11:21:56Z</time></trkpt><trkpt lat="45.941469101781166" lon="8.42564567258724"><ele>204.66666666666669</ele><time>2026-05-03T11:21:57Z</time></trkpt><trkpt lat="45.94129299543715" lon="8.42579967745965"><ele>205.33333333333334</ele><time>2026-05-03T11:21:58Z</time></trkpt><trkpt lat="45.941119801456374" lon="8.425961125013341"><ele>206.0</ele><time>2026-05-03T11:21:59Z</time></trkpt><trkpt lat="45.94095136431015" lon="8.426129809604507"><ele>205.0</ele><time>2026-05-03T11:22:00Z</time></trkpt><trkpt lat="45.94078690363124" lon="8.42630145622579"><ele>204.0</ele><time>2026-05-03T11:22:01Z</time></trkpt><trkpt lat="45.94062687067884" lon="8.42647822757587"><ele>203.0</ele><time>2026-05-03T11:22:02Z</time></trkpt><trkpt lat="45.94046859820026" lon="8.42666158528212"><ele>202.33333333333334</ele><time>2026-05-03T11:22:03Z</time></trkpt><trkpt lat="45.94031425193694" lon="8.426854033340167"><ele>201.66666666666669</ele><time>2026-05-03T11:22:04Z</time></trkpt><trkpt lat="45.9401644616326" lon="8.427053592451522"><ele>201.0</ele><time>2026-05-03T11:22:05Z</time></trkpt><trkpt lat="45.94001780183429" lon="8.427263040207118"><ele>202.33333333333331</ele><time>2026-05-03T11:22:06Z</time></trkpt><trkpt lat="45.939874302141945" lon="8.427478724390769"><ele>203.66666666666666</ele><time>2026-05-03T11:22:07Z</time></trkpt><trkpt lat="45.93973197051207" lon="8.427700848735102"><ele>205.0</ele><time>2026-05-03T11:22:08Z</time></trkpt><trkpt lat="45.93959319599567" lon="8.427932092883632"><ele>204.66666666666666</ele><time>2026-05-03T11:22:09Z</time></trkpt><trkpt lat="45.93945646935807" lon="8.428168909036923"><ele>204.33333333333331</ele><time>2026-05-03T11:22:10Z</time></trkpt><trkpt lat="45.93932409665632" lon="8.42841334525271"><ele>204.0</ele><time>2026-05-03T11:22:11Z</time></trkpt><trkpt lat="45.93919754995394" lon="8.428666070796941"><ele>203.33333333333331</ele><time>2026-05-03T11:22:12Z</time></trkpt><trkpt lat="45.93907561713391" lon="8.428925176728061"><ele>202.66666666666666</ele><time>2026-05-03T11:22:13Z</time></trkpt><trkpt lat="45.93895819366648" lon="8.429190896210379"><ele>202.0</ele><time>2026-05-03T11:22:14Z</time></trkpt><trkpt lat="45.93884635870223" lon="8.429461379213627"><ele>201.66666666666666</ele><time>2026-05-03T11:22:15Z</time></trkpt><trkpt lat="45.93874022649885" lon="8.429736548842461"><ele>201.33333333333331</ele><time>2026-05-03T11:22:16Z</time></trkpt><trkpt lat="45.938639630732936" lon="8.43001375654699"><ele>201.0</ele><time>2026-05-03T11:22:17Z</time></trkpt><trkpt lat="45.93854220441518" lon="8.430291521009837"><ele>200.66666666666669</ele><time>2026-05-03T11:22:18Z</time></trkpt><trkpt lat="45.93844521696647" lon="8.430570827026944"><ele>200.33333333333334</ele><time>2026-05-03T11:22:19Z</time></trkpt><trkpt lat="45.9383491367837" lon="8.430851426395433"><ele>200.0</ele><time>2026-05-03T11:22:20Z</time></trkpt><trkpt lat="45.93825248916556" lon="8.431128145688772"><ele>201.0</ele><time>2026-05-03T11:22:21Z</time></trkpt><trkpt lat="45.93815541513065" lon="8.431406414359326"><ele>202.0</ele><time>2026-05-03T11:22:22Z</time></trkpt><trkpt lat="45.938055794786095" lon="8.431678862682128"><ele>203.0</ele><time>2026-05-03T11:22:23Z</time></trkpt><trkpt lat="45.93795127732007" lon="8.431950702484176"><ele>202.0</ele><time>2026-05-03T11:22:24Z</time></trkpt><trkpt lat="45.937844068235904" lon="8.432220828588644"><ele>201.0</ele><time>2026-05-03T11:22:25Z</time></trkpt><trkpt lat="45.937733214861794" lon="8.432486092156356"><ele>200.0</ele><time>2026-05-03T11:22:26Z</time></trkpt><trkpt lat="45.937618586334764" lon="8.43274993275648"><ele>200.0</ele><time>2026-05-03T11:22:27Z</time></trkpt><trkpt lat="45.937500389146216" lon="8.433008743124462"><ele>200.0</ele><time>2026-05-03T11:22:28Z</time></trkpt><trkpt lat="45.93737920223854" lon="8.433262574153769"><ele>200.0</ele><time>2026-05-03T11:22:29Z</time></trkpt><trkpt lat="45.93725261231946" lon="8.433513790001301"><ele>200.0</ele><time>2026-05-03T11:22:30Z</time></trkpt><trkpt lat="45.937120828175864" lon="8.433761401299591"><ele>200.0</ele><time>2026-05-03T11:22:31Z</time></trkpt><trkpt lat="45.93698550389019" lon="8.43400616980092"><ele>200.0</ele><time>2026-05-03T11:22:32Z</time></trkpt><trkpt lat="45.936849399993164" lon="8.434249401001948"><ele>200.33333333333334</ele><time>2026-05-03T11:22:33Z</time></trkpt><trkpt lat="45.9367118824475" lon="8.434488252468588"><ele>200.66666666666669</ele><time>2026-05-03T11:22:34Z</time></trkpt><trkpt lat="45.93657382090988" lon="8.434721581937167"><ele>201.0</ele><time>2026-05-03T11:22:35Z</time></trkpt><trkpt lat="45.936435388595626" lon="8.43495287725948"><ele>201.66666666666669</ele><time>2026-05-03T11:22:36Z</time></trkpt><trkpt lat="45.936298585425966" lon="8.435182639429756"><ele>202.33333333333334</ele><time>2026-05-03T11:22:37Z</time></trkpt><trkpt lat="45.93616268399167" lon="8.435412179179492"><ele>203.0</ele><time>2026-05-03T11:22:38Z</time></trkpt><trkpt lat="45.936026217842155" lon="8.435638585202502"><ele>203.0</ele><time>2026-05-03T11:22:39Z</time></trkpt><trkpt lat="45.93588977481626" lon="8.435864028656297"><ele>203.0</ele><time>2026-05-03T11:22:40Z</time></trkpt><trkpt lat="45.935753444421955" lon="8.436090522622079"><ele>203.0</ele><time>2026-05-03T11:22:41Z</time></trkpt><trkpt lat="45.935616745143115" lon="8.436316671398142"><ele>202.66666666666669</ele><time>2026-05-03T11:22:42Z</time></trkpt><trkpt lat="45.935482469727944" lon="8.436540897129852"><ele>202.33333333333331</ele><time>2026-05-03T11:22:43Z</time></trkpt><trkpt lat="45.93534886656653" lon="8.436764825228606"><ele>202.0</ele><time>2026-05-03T11:22:44Z</time></trkpt><trkpt lat="45.9352158987181" lon="8.436988924984357"><ele>201.33333333333331</ele><time>2026-05-03T11:22:45Z</time></trkpt><trkpt lat="45.935083079150274" lon="8.437211801434696"><ele>200.66666666666669</ele><time>2026-05-03T11:22:46Z</time></trkpt><trkpt lat="45.9349494453303" lon="8.437432401166921"><ele>200.0</ele><time>2026-05-03T11:22:47Z</time></trkpt><trkpt lat="45.934817193319624" lon="8.437650901332761"><ele>202.0</ele><time>2026-05-03T11:22:48Z</time></trkpt><trkpt lat="45.934685700782964" lon="8.437872627386854"><ele>204.0</ele><time>2026-05-03T11:22:49Z</time></trkpt><trkpt lat="45.93455612257688" lon="8.438097236254707"><ele>206.0</ele><time>2026-05-03T11:22:50Z</time></trkpt><trkpt lat="45.934428205962725" lon="8.438324983127515"><ele>206.0</ele><time>2026-05-03T11:22:51Z</time></trkpt><trkpt lat="45.93430146201509" lon="8.438558500028353"><ele>206.0</ele><time>2026-05-03T11:22:52Z</time></trkpt><trkpt lat="45.934176392010436" lon="8.438796398307074"><ele>206.0</ele><time>2026-05-03T11:22:53Z</time></trkpt><trkpt lat="45.9340569414903" lon="8.439042666985966"><ele>205.66666666666669</ele><time>2026-05-03T11:22:54Z</time></trkpt><trkpt lat="45.9339491470187" lon="8.43929195743726"><ele>205.33333333333331</ele><time>2026-05-03T11:22:55Z</time></trkpt><trkpt lat="45.933854918967945" lon="8.439531743415733"><ele>205.0</ele><time>2026-05-03T11:22:56Z</time></trkpt><trkpt lat="45.933770221170455" lon="8.439761202803588"><ele>204.66666666666666</ele><time>2026-05-03T11:22:57Z</time></trkpt><trkpt lat="45.933696134313706" lon="8.439981442036961"><ele>204.33333333333331</ele><time>2026-05-03T11:22:58Z</time></trkpt><trkpt lat="45.933626562133604" lon="8.440192286182333"><ele>204.0</ele><time>2026-05-03T11:22:59Z</time></trkpt><trkpt lat="45.93356071206058" lon="8.440390029508611"><ele>204.0</ele><time>2026-05-03T11:23:00Z</time></trkpt><trkpt lat="45.93350129184267" lon="8.440572656147456"><ele>204.0</ele><time>2026-05-03T11:23:01Z</time></trkpt><trkpt lat="45.933444860646844" lon="8.440748653587931"><ele>204.0</ele><time>2026-05-03T11:23:02Z</time></trkpt><trkpt lat="45.93338929362408" lon="8.44090865273058"><ele>204.0</ele><time>2026-05-03T11:23:03Z</time></trkpt><trkpt lat="45.93332135506885" lon="8.441047434307364"><ele>205.5</ele><time>2026-05-03T11:23:04Z</time></trkpt><trkpt lat="45.93323599056131" lon="8.441164599416798"><ele>207.0</ele><time>2026-05-03T11:23:05Z</time></trkpt><trkpt lat="45.93313625064058" lon="8.441253762502294"><ele>208.5</ele><time>2026-05-03T11:23:06Z</time></trkpt><trkpt lat="45.933016593225396" lon="8.441281998326149"><ele>210.0</ele><time>2026-05-03T11:23:07Z</time></trkpt><trkpt lat="45.93290162437304" lon="8.441257701823549"><ele>210.0</ele><time>2026-05-03T11:23:08Z</time></trkpt><trkpt lat="45.93278744238452" lon="8.441181276006981"><ele>210.0</ele><time>2026-05-03T11:23:09Z</time></trkpt><trkpt lat="45.93270352609581" lon="8.441097006237108"><ele>210.0</ele><time>2026-05-03T11:23:10Z</time></trkpt><trkpt lat="45.93264859135714" lon="8.440940520856469"><ele>210.0</ele><time>2026-05-03T11:23:11Z</time></trkpt><trkpt lat="45.932621364616246" lon="8.440761266965344"><ele>210.0</ele><time>2026-05-03T11:23:12Z</time></trkpt><trkpt lat="45.932628806529614" lon="8.440591382146469"><ele>210.0</ele><time>2026-05-03T11:23:13Z</time></trkpt><trkpt lat="45.93266942467509" lon="8.440439313144973"><ele>210.0</ele><time>2026-05-03T11:23:14Z</time></trkpt><trkpt lat="45.93274082680701" lon="8.440294725477917"><ele>210.0</ele><time>2026-05-03T11:23:15Z</time></trkpt><trkpt lat="45.93283131170254" lon="8.440158082798195"><ele>209.0</ele><time>2026-05-03T11:23:16Z</time></trkpt><trkpt lat="45.93291630717336" lon="8.440020842667153"><ele>208.0</ele><time>2026-05-03T11:23:17Z</time></trkpt><trkpt lat="45.93300670051928" lon="8.43990025917546"><ele>207.0</ele><time>2026-05-03T11:23:18Z</time></trkpt><trkpt lat="45.933095600420785" lon="8.439792337471909"><ele>206.0</ele><time>2026-05-03T11:23:19Z</time></trkpt><trkpt lat="45.93319302832682" lon="8.43971643461847"><ele>206.0</ele><time>2026-05-03T11:23:20Z</time></trkpt><trkpt lat="45.93330113556799" lon="8.439695457605577"><ele>206.0</ele><time>2026-05-03T11:23:21Z</time></trkpt><trkpt lat="45.933411967546746" lon="8.439726416875315"><ele>206.0</ele><time>2026-05-03T11:23:22Z</time></trkpt><trkpt lat="45.93351093840996" lon="8.439800602229752"><ele>206.0</ele><time>2026-05-03T11:23:23Z</time></trkpt><trkpt lat="45.933593916896776" lon="8.43992378596997"><ele>205.5</ele><time>2026-05-03T11:23:24Z</time></trkpt><trkpt lat="45.933665897327245" lon="8.440059606018432"><ele>205.0</ele><time>2026-05-03T11:23:25Z</time></trkpt><trkpt lat="45.93373911588147" lon="8.440183860721534"><ele>204.5</ele><time>2026-05-03T11:23:26Z</time></trkpt><trkpt lat="45.93380919623366" lon="8.440313696437281"><ele>204.0</ele><time>2026-05-03T11:23:27Z</time></trkpt><trkpt lat="45.93390005238699" lon="8.4404359434009"><ele>204.0</ele><time>2026-05-03T11:23:28Z</time></trkpt><trkpt lat="45.93398093799293" lon="8.440564265054336"><ele>204.0</ele><time>2026-05-03T11:23:29Z</time></trkpt><trkpt lat="45.934194672682814" lon="8.440685826391531"><ele>204.0</ele><time>2026-05-03T11:23:30Z</time></trkpt><trkpt lat="45.9343017795092" lon="8.44083377171"><ele>203.66666666666669</ele><time>2026-05-03T11:23:31Z</time></trkpt><trkpt lat="45.93439819560806" lon="8.44099023970267"><ele>203.33333333333334</ele><time>2026-05-03T11:23:32Z</time></trkpt><trkpt lat="45.934496697636" lon="8.441154962213494"><ele>203.0</ele><time>2026-05-03T11:23:33Z</time></trkpt><trkpt lat="45.93460550584425" lon="8.441314487277952"><ele>203.0</ele><time>2026-05-03T11:23:34Z</time></trkpt><trkpt lat="45.93471245423596" lon="8.44147841387642"><ele>203.0</ele><time>2026-05-03T11:23:35Z</time></trkpt><trkpt lat="45.9348272326881" lon="8.441638647803329"><ele>203.0</ele><time>2026-05-03T11:23:36Z</time></trkpt><trkpt lat="45.93493498851648" lon="8.441793630461715"><ele>203.0</ele><time>2026-05-03T11:23:37Z</time></trkpt><trkpt lat="45.935040596616076" lon="8.44195459131312"><ele>203.0</ele><time>2026-05-03T11:23:38Z</time></trkpt><trkpt lat="45.93514250925625" lon="8.442118556586182"><ele>203.0</ele><time>2026-05-03T11:23:39Z</time></trkpt><trkpt lat="45.93524765158379" lon="8.442293204675252"><ele>201.33333333333334</ele><time>2026-05-03T11:23:40Z</time></trkpt><trkpt lat="45.93535228413012" lon="8.442466281725347"><ele>199.66666666666669</ele><time>2026-05-03T11:23:41Z</time></trkpt><trkpt lat="45.93545073096658" lon="8.442641237413962"><ele>198.0</ele><time>2026-05-03T11:23:42Z</time></trkpt><trkpt lat="45.935549047748644" lon="8.442827626527519"><ele>198.0</ele><time>2026-05-03T11:23:43Z</time></trkpt><trkpt lat="45.93563913480524" lon="8.443023742304158"><ele>198.0</ele><time>2026-05-03T11:23:44Z</time></trkpt><trkpt lat="45.93572478795167" lon="8.44322007508839"><ele>198.0</ele><time>2026-05-03T11:23:45Z</time></trkpt><trkpt lat="45.93580878157788" lon="8.44342117175989"><ele>199.0</ele><time>2026-05-03T11:23:46Z</time></trkpt><trkpt lat="45.935893254881165" lon="8.44362172952025"><ele>200.0</ele><time>2026-05-03T11:23:47Z</time></trkpt><trkpt lat="45.93597907553838" lon="8.443819415816321"><ele>201.0</ele><time>2026-05-03T11:23:48Z</time></trkpt><trkpt lat="45.93605411198563" lon="8.444017335253323"><ele>201.33333333333331</ele><time>2026-05-03T11:23:49Z</time></trkpt><trkpt lat="45.93612356839833" lon="8.444217727294955"><ele>201.66666666666666</ele><time>2026-05-03T11:23:50Z</time></trkpt><trkpt lat="45.93619191599285" lon="8.444423173547966"><ele>202.0</ele><time>2026-05-03T11:23:51Z</time></trkpt><trkpt lat="45.936250981501274" lon="8.444632538671252"><ele>202.0</ele><time>2026-05-03T11:23:52Z</time></trkpt><trkpt lat="45.93631340384932" lon="8.444841967471731"><ele>202.0</ele><time>2026-05-03T11:23:53Z</time></trkpt><trkpt lat="45.93637344550048" lon="8.445052965609928"><ele>202.0</ele><time>2026-05-03T11:23:54Z</time></trkpt><trkpt lat="45.93642976116976" lon="8.445272275317507"><ele>201.33333333333331</ele><time>2026-05-03T11:23:55Z</time></trkpt><trkpt lat="45.936485707862005" lon="8.445494037160053"><ele>200.66666666666669</ele><time>2026-05-03T11:23:56Z</time></trkpt><trkpt lat="45.936534355781795" lon="8.445707428258808"><ele>200.0</ele><time>2026-05-03T11:23:57Z</time></trkpt><trkpt lat="45.936579385061826" lon="8.44592650662286"><ele>200.0</ele><time>2026-05-03T11:23:58Z</time></trkpt><trkpt lat="45.93662096691119" lon="8.446138890217952"><ele>200.0</ele><time>2026-05-03T11:23:59Z</time></trkpt><trkpt lat="45.93665853526567" lon="8.446346103660817"><ele>200.0</ele><time>2026-05-03T11:24:00Z</time></trkpt><trkpt lat="45.9366888509209" lon="8.446554944668698"><ele>200.0</ele><time>2026-05-03T11:24:01Z</time></trkpt><trkpt lat="45.936717310365665" lon="8.446765164499057"><ele>200.0</ele><time>2026-05-03T11:24:02Z</time></trkpt><trkpt lat="45.93674652963468" lon="8.446980441342491"><ele>200.0</ele><time>2026-05-03T11:24:03Z</time></trkpt><trkpt lat="45.93677623392583" lon="8.447206923025613"><ele>202.0</ele><time>2026-05-03T11:24:04Z</time></trkpt><trkpt lat="45.93680233391218" lon="8.44744143200106"><ele>204.0</ele><time>2026-05-03T11:24:05Z</time></trkpt><trkpt lat="45.93682134865101" lon="8.447686116857499"><ele>206.0</ele><time>2026-05-03T11:24:06Z</time></trkpt><trkpt lat="45.93683607508307" lon="8.447934929235016"><ele>209.0</ele><time>2026-05-03T11:24:07Z</time></trkpt><trkpt lat="45.93684998709825" lon="8.44818620512624"><ele>212.0</ele><time>2026-05-03T11:24:08Z</time></trkpt><trkpt lat="45.93686172386031" lon="8.448439839869597"><ele>215.0</ele><time>2026-05-03T11:24:09Z</time></trkpt><trkpt lat="45.93686853102929" lon="8.448697249310376"><ele>215.0</ele><time>2026-05-03T11:24:10Z</time></trkpt><trkpt lat="45.93687051328433" lon="8.448955828233155"><ele>215.0</ele><time>2026-05-03T11:24:11Z</time></trkpt><trkpt lat="45.93686785148309" lon="8.449213722601781"><ele>215.0</ele><time>2026-05-03T11:24:12Z</time></trkpt><trkpt lat="45.93686479260584" lon="8.449474819080887"><ele>214.33333333333334</ele><time>2026-05-03T11:24:13Z</time></trkpt><trkpt lat="45.93686143366078" lon="8.449733797681114"><ele>213.66666666666669</ele><time>2026-05-03T11:24:14Z</time></trkpt><trkpt lat="45.93686220381284" lon="8.44999258224262"><ele>213.0</ele><time>2026-05-03T11:24:15Z</time></trkpt><trkpt lat="45.936864656159166" lon="8.450247605868748"><ele>213.66666666666669</ele><time>2026-05-03T11:24:16Z</time></trkpt><trkpt lat="45.936869069596916" lon="8.45049767539738"><ele>214.33333333333334</ele><time>2026-05-03T11:24:17Z</time></trkpt><trkpt lat="45.93687969772866" lon="8.450745645229642"><ele>215.0</ele><time>2026-05-03T11:24:18Z</time></trkpt><trkpt lat="45.936895368973076" lon="8.450995206027116"><ele>215.0</ele><time>2026-05-03T11:24:19Z</time></trkpt><trkpt lat="45.936917162882246" lon="8.451237643589755"><ele>215.0</ele><time>2026-05-03T11:24:20Z</time></trkpt><trkpt lat="45.93694249713407" lon="8.451479419696843"><ele>215.0</ele><time>2026-05-03T11:24:21Z</time></trkpt><trkpt lat="45.93697414364467" lon="8.45171915153531"><ele>215.66666666666669</ele><time>2026-05-03T11:24:22Z</time></trkpt><trkpt lat="45.937010369494025" lon="8.451954627359521"><ele>216.33333333333331</ele><time>2026-05-03T11:24:23Z</time></trkpt><trkpt lat="45.937046714173434" lon="8.45218771617137"><ele>217.0</ele><time>2026-05-03T11:24:24Z</time></trkpt><trkpt lat="45.93708674479178" lon="8.452413112879011"><ele>217.0</ele><time>2026-05-03T11:24:25Z</time></trkpt><trkpt lat="45.93712671577999" lon="8.452630650277008"><ele>217.0</ele><time>2026-05-03T11:24:26Z</time></trkpt><trkpt lat="45.93716735087656" lon="8.45284470349631"><ele>217.0</ele><time>2026-05-03T11:24:27Z</time></trkpt><trkpt lat="45.93720569501145" lon="8.453061570617177"><ele>214.66666666666666</ele><time>2026-05-03T11:24:28Z</time></trkpt><trkpt lat="45.937242175308" lon="8.453273025460406"><ele>212.33333333333331</ele><time>2026-05-03T11:24:29Z</time></trkpt><trkpt lat="45.937281490999005" lon="8.453486180858132"><ele>210.0</ele><time>2026-05-03T11:24:30Z</time></trkpt><trkpt lat="45.93731839701132" lon="8.453696571133698"><ele>207.0</ele><time>2026-05-03T11:24:31Z</time></trkpt><trkpt lat="45.93735388927591" lon="8.45390549674965"><ele>204.0</ele><time>2026-05-03T11:24:32Z</time></trkpt><trkpt lat="45.93738976111662" lon="8.454114775168126"><ele>201.0</ele><time>2026-05-03T11:24:33Z</time></trkpt><trkpt lat="45.937427179029356" lon="8.45432483045384"><ele>201.0</ele><time>2026-05-03T11:24:34Z</time></trkpt><trkpt lat="45.93746449487618" lon="8.454534927427108"><ele>201.0</ele><time>2026-05-03T11:24:35Z</time></trkpt><trkpt lat="45.93750098603555" lon="8.45474716855891"><ele>201.0</ele><time>2026-05-03T11:24:36Z</time></trkpt><trkpt lat="45.937536404674766" lon="8.4549549798818"><ele>203.75</ele><time>2026-05-03T11:24:37Z</time></trkpt><trkpt lat="45.937572846784924" lon="8.455160832020555"><ele>206.5</ele><time>2026-05-03T11:24:38Z</time></trkpt><trkpt lat="45.93761013593472" lon="8.455366361266426"><ele>209.25</ele><time>2026-05-03T11:24:39Z</time></trkpt><trkpt lat="45.937651433252825" lon="8.455568367698014"><ele>212.0</ele><time>2026-05-03T11:24:40Z</time></trkpt><trkpt lat="45.93768670289526" lon="8.455765464877667"><ele>212.0</ele><time>2026-05-03T11:24:41Z</time></trkpt><trkpt lat="45.937719801446676" lon="8.455955125694588"><ele>212.0</ele><time>2026-05-03T11:24:42Z</time></trkpt><trkpt lat="45.93775140771465" lon="8.45614002888412"><ele>212.0</ele><time>2026-05-03T11:24:43Z</time></trkpt><trkpt lat="45.937784896448235" lon="8.456327641859074"><ele>212.0</ele><time>2026-05-03T11:24:44Z</time></trkpt><trkpt lat="45.93781866036881" lon="8.456517478494735"><ele>210.5</ele><time>2026-05-03T11:24:45Z</time></trkpt><trkpt lat="45.937851669042225" lon="8.456701673676644"><ele>209.0</ele><time>2026-05-03T11:24:46Z</time></trkpt><trkpt lat="45.937883573982276" lon="8.45688878393062"><ele>207.5</ele><time>2026-05-03T11:24:47Z</time></trkpt><trkpt lat="45.93791858194266" lon="8.457076758620135"><ele>206.0</ele><time>2026-05-03T11:24:48Z</time></trkpt><trkpt lat="45.93795125161325" lon="8.457269778634329"><ele>205.25</ele><time>2026-05-03T11:24:49Z</time></trkpt><trkpt lat="45.93798269317259" lon="8.457464157300171"><ele>204.5</ele><time>2026-05-03T11:24:50Z</time></trkpt><trkpt lat="45.938015618900614" lon="8.457658473450977"><ele>203.75</ele><time>2026-05-03T11:24:51Z</time></trkpt><trkpt lat="45.938047675292275" lon="8.457854741389202"><ele>203.0</ele><time>2026-05-03T11:24:52Z</time></trkpt><trkpt lat="45.93808105561445" lon="8.45805465283685"><ele>202.25</ele><time>2026-05-03T11:24:53Z</time></trkpt><trkpt lat="45.93811456872621" lon="8.458252763867469"><ele>201.5</ele><time>2026-05-03T11:24:54Z</time></trkpt><trkpt lat="45.938148866059564" lon="8.45845137437951"><ele>200.75</ele><time>2026-05-03T11:24:55Z</time></trkpt><trkpt lat="45.93818572619891" lon="8.45864495733734"><ele>200.0</ele><time>2026-05-03T11:24:56Z</time></trkpt><trkpt lat="45.938223783710846" lon="8.458834689419886"><ele>200.0</ele><time>2026-05-03T11:24:57Z</time></trkpt><trkpt lat="45.938265145032084" lon="8.45902155263675"><ele>200.0</ele><time>2026-05-03T11:24:58Z</time></trkpt><trkpt lat="45.93831681753135" lon="8.459202854114796"><ele>200.0</ele><time>2026-05-03T11:24:59Z</time></trkpt><trkpt lat="45.9383755336066" lon="8.459382583612106"><ele>200.0</ele><time>2026-05-03T11:25:00Z</time></trkpt><trkpt lat="45.93843478640545" lon="8.459561701119219"><ele>201.0</ele><time>2026-05-03T11:25:01Z</time></trkpt><trkpt lat="45.938496567402744" lon="8.459743890604008"><ele>202.0</ele><time>2026-05-03T11:25:02Z</time></trkpt><trkpt lat="45.9386269965243" lon="8.460110892887318"><ele>203.0</ele><time>2026-05-03T11:25:04Z</time></trkpt><trkpt lat="45.93869372107658" lon="8.460298664587398"><ele>203.0</ele><time>2026-05-03T11:25:05Z</time></trkpt><trkpt lat="45.93876404704137" lon="8.460488220260657"><ele>203.0</ele><time>2026-05-03T11:25:06Z</time></trkpt><trkpt lat="45.938832635298496" lon="8.460679248421746"><ele>203.0</ele><time>2026-05-03T11:25:07Z</time></trkpt><trkpt lat="45.93890391307115" lon="8.460873985519896"><ele>203.0</ele><time>2026-05-03T11:25:08Z</time></trkpt><trkpt lat="45.93897413318512" lon="8.461067890513586"><ele>203.0</ele><time>2026-05-03T11:25:09Z</time></trkpt><trkpt lat="45.93904317377531" lon="8.461262136525539"><ele>203.0</ele><time>2026-05-03T11:25:10Z</time></trkpt><trkpt lat="45.93911383388669" lon="8.461457369029443"><ele>202.66666666666669</ele><time>2026-05-03T11:25:11Z</time></trkpt><trkpt lat="45.93918549981333" lon="8.461653995046621"><ele>202.33333333333331</ele><time>2026-05-03T11:25:12Z</time></trkpt><trkpt lat="45.939251922794156" lon="8.461850986843801"><ele>202.0</ele><time>2026-05-03T11:25:13Z</time></trkpt><trkpt lat="45.939323562686596" lon="8.462043349080549"><ele>202.66666666666666</ele><time>2026-05-03T11:25:14Z</time></trkpt><trkpt lat="45.93939007878164" lon="8.462238544903508"><ele>203.33333333333331</ele><time>2026-05-03T11:25:15Z</time></trkpt><trkpt lat="45.93945656503566" lon="8.462429437400958"><ele>204.0</ele><time>2026-05-03T11:25:16Z</time></trkpt><trkpt lat="45.93952536835811" lon="8.462623333395692"><ele>204.0</ele><time>2026-05-03T11:25:17Z</time></trkpt><trkpt lat="45.9395975537129" lon="8.462816749204247"><ele>204.0</ele><time>2026-05-03T11:25:18Z</time></trkpt><trkpt lat="45.939672937096724" lon="8.463014312795696"><ele>204.0</ele><time>2026-05-03T11:25:19Z</time></trkpt><trkpt lat="45.93974603616164" lon="8.46321431491709"><ele>204.0</ele><time>2026-05-03T11:25:20Z</time></trkpt><trkpt lat="45.939810198845656" lon="8.463415494691729"><ele>204.0</ele><time>2026-05-03T11:25:21Z</time></trkpt><trkpt lat="45.93987724699828" lon="8.463600509062456"><ele>204.0</ele><time>2026-05-03T11:25:22Z</time></trkpt><trkpt lat="45.939949171522606" lon="8.463793526404718"><ele>204.0</ele><time>2026-05-03T11:25:23Z</time></trkpt><trkpt lat="45.9400186041997" lon="8.46398873959539"><ele>204.0</ele><time>2026-05-03T11:25:24Z</time></trkpt><trkpt lat="45.94008560773336" lon="8.46418699878144"><ele>204.0</ele><time>2026-05-03T11:25:25Z</time></trkpt><trkpt lat="45.94015545373663" lon="8.464389341560576"><ele>205.66666666666669</ele><time>2026-05-03T11:25:26Z</time></trkpt><trkpt lat="45.94022777887311" lon="8.464597749181818"><ele>207.33333333333334</ele><time>2026-05-03T11:25:27Z</time></trkpt><trkpt lat="45.94030185062862" lon="8.464805134068978"><ele>209.0</ele><time>2026-05-03T11:25:28Z</time></trkpt><trkpt lat="45.940374521358144" lon="8.46501101348641"><ele>209.0</ele><time>2026-05-03T11:25:29Z</time></trkpt><trkpt lat="45.94044911969712" lon="8.465214821778002"><ele>209.0</ele><time>2026-05-03T11:25:30Z</time></trkpt><trkpt lat="45.94052298759871" lon="8.465416661078313"><ele>209.0</ele><time>2026-05-03T11:25:31Z</time></trkpt><trkpt lat="45.94059453522232" lon="8.46561736573508"><ele>207.66666666666669</ele><time>2026-05-03T11:25:32Z</time></trkpt><trkpt lat="45.94066663304181" lon="8.46581914537461"><ele>206.33333333333331</ele><time>2026-05-03T11:25:33Z</time></trkpt><trkpt lat="45.940740188072894" lon="8.466024469524356"><ele>205.0</ele><time>2026-05-03T11:25:34Z</time></trkpt><trkpt lat="45.940815284686856" lon="8.466233307988118"><ele>211.33333333333331</ele><time>2026-05-03T11:25:35Z</time></trkpt><trkpt lat="45.9408925324945" lon="8.466442427414458"><ele>217.66666666666669</ele><time>2026-05-03T11:25:36Z</time></trkpt><trkpt lat="45.94097209884221" lon="8.46665325780781"><ele>224.0</ele><time>2026-05-03T11:25:37Z</time></trkpt><trkpt lat="45.941054385943595" lon="8.466864541348283"><ele>224.0</ele><time>2026-05-03T11:25:38Z</time></trkpt><trkpt lat="45.94113516845041" lon="8.467076633878438"><ele>224.0</ele><time>2026-05-03T11:25:39Z</time></trkpt><trkpt lat="45.941221887534525" lon="8.467287618514563"><ele>224.0</ele><time>2026-05-03T11:25:40Z</time></trkpt><trkpt lat="45.9413142791974" lon="8.467495271355174"><ele>217.0</ele><time>2026-05-03T11:25:41Z</time></trkpt><trkpt lat="45.94140907300338" lon="8.467702687813125"><ele>210.0</ele><time>2026-05-03T11:25:42Z</time></trkpt><trkpt lat="45.941503790455876" lon="8.467906230458029"><ele>203.0</ele><time>2026-05-03T11:25:43Z</time></trkpt><trkpt lat="45.94159617379446" lon="8.468106838044923"><ele>201.66666666666669</ele><time>2026-05-03T11:25:44Z</time></trkpt><trkpt lat="45.94168385266647" lon="8.46830708469642"><ele>200.33333333333331</ele><time>2026-05-03T11:25:45Z</time></trkpt><trkpt lat="45.94177472252582" lon="8.468503729523407"><ele>199.0</ele><time>2026-05-03T11:25:46Z</time></trkpt><trkpt lat="45.94186747084999" lon="8.468697882317581"><ele>201.0</ele><time>2026-05-03T11:25:47Z</time></trkpt><trkpt lat="45.94195900476157" lon="8.4688902532337"><ele>203.0</ele><time>2026-05-03T11:25:48Z</time></trkpt><trkpt lat="45.94205522914757" lon="8.469075999907659"><ele>205.0</ele><time>2026-05-03T11:25:49Z</time></trkpt><trkpt lat="45.94214291898281" lon="8.469266994671221"><ele>205.0</ele><time>2026-05-03T11:25:50Z</time></trkpt><trkpt lat="45.942228109571964" lon="8.469457212031896"><ele>205.0</ele><time>2026-05-03T11:25:51Z</time></trkpt><trkpt lat="45.9423143320006" lon="8.469645631907248"><ele>205.0</ele><time>2026-05-03T11:25:52Z</time></trkpt><trkpt lat="45.94240024107764" lon="8.469833954086218"><ele>205.0</ele><time>2026-05-03T11:25:53Z</time></trkpt><trkpt lat="45.942481211801606" lon="8.470025542653486"><ele>205.0</ele><time>2026-05-03T11:25:54Z</time></trkpt><trkpt lat="45.94255338119662" lon="8.470215196035475"><ele>205.0</ele><time>2026-05-03T11:25:55Z</time></trkpt><trkpt lat="45.942612065276215" lon="8.470411770676"><ele>204.0</ele><time>2026-05-03T11:25:56Z</time></trkpt><trkpt lat="45.942656914125145" lon="8.470609119172197"><ele>203.0</ele><time>2026-05-03T11:25:57Z</time></trkpt><trkpt lat="45.94269176750574" lon="8.470806319624446"><ele>202.0</ele><time>2026-05-03T11:25:58Z</time></trkpt><trkpt lat="45.94272112297125" lon="8.471002926081132"><ele>201.0</ele><time>2026-05-03T11:25:59Z</time></trkpt><trkpt lat="45.942751842272784" lon="8.471200258120973"><ele>201.0</ele><time>2026-05-03T11:26:00Z</time></trkpt><trkpt lat="45.9427851067439" lon="8.471399183097928"><ele>201.0</ele><time>2026-05-03T11:26:01Z</time></trkpt><trkpt lat="45.9428205731862" lon="8.471599799522915"><ele>201.0</ele><time>2026-05-03T11:26:02Z</time></trkpt><trkpt lat="45.94285504391838" lon="8.471800479406518"><ele>201.0</ele><time>2026-05-03T11:26:03Z</time></trkpt><trkpt lat="45.942891132717506" lon="8.472002630201397"><ele>201.5</ele><time>2026-05-03T11:26:04Z</time></trkpt><trkpt lat="45.94292676079338" lon="8.472195608802004"><ele>202.0</ele><time>2026-05-03T11:26:05Z</time></trkpt><trkpt lat="45.94295678271637" lon="8.472377195803649"><ele>202.5</ele><time>2026-05-03T11:26:06Z</time></trkpt><trkpt lat="45.94298140295193" lon="8.472541600173683"><ele>203.0</ele><time>2026-05-03T11:26:07Z</time></trkpt><trkpt lat="45.94300505420974" lon="8.472700403966092"><ele>203.00000000000003</ele><time>2026-05-03T11:26:08Z</time></trkpt><trkpt lat="45.94303364672573" lon="8.472848956427715"><ele>203.0</ele><time>2026-05-03T11:26:09Z</time></trkpt><trkpt lat="45.9430483227346" lon="8.47298601394565"><ele>203.0</ele><time>2026-05-03T11:26:10Z</time></trkpt><trkpt lat="45.94305960743437" lon="8.473100343508355"><ele>203.0</ele><time>2026-05-03T11:26:11Z</time></trkpt><trkpt lat="45.943058099675255" lon="8.473205514074335"><ele>203.00000000000003</ele><time>2026-05-03T11:26:12Z</time></trkpt><trkpt lat="45.943037406118776" lon="8.473293965041119"><ele>203.0</ele><time>2026-05-03T11:26:13Z</time></trkpt><trkpt lat="45.94301381466725" lon="8.473378656465673"><ele>202.33333333333334</ele><time>2026-05-03T11:26:14Z</time></trkpt><trkpt lat="45.9430207961522" lon="8.47347506327025"><ele>201.66666666666669</ele><time>2026-05-03T11:26:15Z</time></trkpt><trkpt lat="45.94305436624582" lon="8.473571440900955"><ele>201.0</ele><time>2026-05-03T11:26:16Z</time></trkpt><trkpt lat="45.94310324497994" lon="8.473640174501124"><ele>200.33333333333331</ele><time>2026-05-03T11:26:17Z</time></trkpt><trkpt lat="45.943156735934586" lon="8.473731390385385"><ele>199.66666666666666</ele><time>2026-05-03T11:26:18Z</time></trkpt><trkpt lat="45.94319378051961" lon="8.473849514408569"><ele>199.0</ele><time>2026-05-03T11:26:19Z</time></trkpt><trkpt lat="45.94321898762208" lon="8.473982135198879"><ele>198.6</ele><time>2026-05-03T11:26:20Z</time></trkpt><trkpt lat="45.94324115915478" lon="8.474121041834518"><ele>198.2</ele><time>2026-05-03T11:26:21Z</time></trkpt><trkpt lat="45.94326600595751" lon="8.474271339422653"><ele>197.79999999999998</ele><time>2026-05-03T11:26:22Z</time></trkpt><trkpt lat="45.94329419230797" lon="8.474428180925619"><ele>197.39999999999998</ele><time>2026-05-03T11:26:23Z</time></trkpt><trkpt lat="45.943319926331945" lon="8.474594393017377"><ele>197.0</ele><time>2026-05-03T11:26:24Z</time></trkpt><trkpt lat="45.94334821518779" lon="8.47476715066451"><ele>197.0</ele><time>2026-05-03T11:26:25Z</time></trkpt><trkpt lat="45.94337703860454" lon="8.474951327322236"><ele>197.0</ele><time>2026-05-03T11:26:26Z</time></trkpt><trkpt lat="45.94340382613095" lon="8.475144850873129"><ele>197.0</ele><time>2026-05-03T11:26:27Z</time></trkpt><trkpt lat="45.94342925430832" lon="8.475326934905299"><ele>197.0</ele><time>2026-05-03T11:26:28Z</time></trkpt><trkpt lat="45.94345974257413" lon="8.475520003258355"><ele>197.25</ele><time>2026-05-03T11:26:29Z</time></trkpt><trkpt lat="45.94349299802603" lon="8.475708784296891"><ele>197.5</ele><time>2026-05-03T11:26:30Z</time></trkpt><trkpt lat="45.943528776946906" lon="8.475897694536169"><ele>197.75</ele><time>2026-05-03T11:26:31Z</time></trkpt><trkpt lat="45.943559025621795" lon="8.476084941031115"><ele>198.0</ele><time>2026-05-03T11:26:32Z</time></trkpt><trkpt lat="45.94358680861527" lon="8.47627019657695"><ele>197.25</ele><time>2026-05-03T11:26:33Z</time></trkpt><trkpt lat="45.94362184994658" lon="8.476463347290434"><ele>196.5</ele><time>2026-05-03T11:26:34Z</time></trkpt><trkpt lat="45.94365418265681" lon="8.47666102980408"><ele>195.75</ele><time>2026-05-03T11:26:35Z</time></trkpt><trkpt lat="45.94368750890732" lon="8.476862679240973"><ele>195.0</ele><time>2026-05-03T11:26:36Z</time></trkpt><trkpt lat="45.94372050212922" lon="8.477068329749974"><ele>195.25</ele><time>2026-05-03T11:26:37Z</time></trkpt><trkpt lat="45.94375213356939" lon="8.477274490894736"><ele>195.5</ele><time>2026-05-03T11:26:38Z</time></trkpt><trkpt lat="45.94378254237378" lon="8.47748270096749"><ele>195.75</ele><time>2026-05-03T11:26:39Z</time></trkpt><trkpt lat="45.94382128191935" lon="8.477686784075756"><ele>196.0</ele><time>2026-05-03T11:26:40Z</time></trkpt><trkpt lat="45.943862210999725" lon="8.477894779283455"><ele>196.5</ele><time>2026-05-03T11:26:41Z</time></trkpt><trkpt lat="45.94389995495776" lon="8.478107778830305"><ele>197.0</ele><time>2026-05-03T11:26:42Z</time></trkpt><trkpt lat="45.94393365994959" lon="8.478305097461718"><ele>197.5</ele><time>2026-05-03T11:26:43Z</time></trkpt><trkpt lat="45.94397201373112" lon="8.478503308129602"><ele>198.0</ele><time>2026-05-03T11:26:44Z</time></trkpt><trkpt lat="45.944005844328515" lon="8.478706196463742"><ele>197.75</ele><time>2026-05-03T11:26:45Z</time></trkpt><trkpt lat="45.94403829561369" lon="8.478914096291259"><ele>197.5</ele><time>2026-05-03T11:26:46Z</time></trkpt><trkpt lat="45.94406781233047" lon="8.479124909607872"><ele>197.25</ele><time>2026-05-03T11:26:47Z</time></trkpt><trkpt lat="45.94410368619355" lon="8.479336029435078"><ele>197.0</ele><time>2026-05-03T11:26:48Z</time></trkpt><trkpt lat="45.94413992602236" lon="8.479542730523493"><ele>197.0</ele><time>2026-05-03T11:26:49Z</time></trkpt><trkpt lat="45.94417431474151" lon="8.479760288699723"><ele>197.0</ele><time>2026-05-03T11:26:50Z</time></trkpt><trkpt lat="45.94420896403783" lon="8.47997269009075"><ele>197.0</ele><time>2026-05-03T11:26:51Z</time></trkpt><trkpt lat="45.944246718739144" lon="8.48018569908877"><ele>197.0</ele><time>2026-05-03T11:26:52Z</time></trkpt><trkpt lat="45.94428262185503" lon="8.48039931095709"><ele>197.0</ele><time>2026-05-03T11:26:53Z</time></trkpt><trkpt lat="45.944320317453744" lon="8.480614683240368"><ele>197.0</ele><time>2026-05-03T11:26:54Z</time></trkpt><trkpt lat="45.944355694576" lon="8.480820380946406"><ele>197.0</ele><time>2026-05-03T11:26:55Z</time></trkpt><trkpt lat="45.944390207024696" lon="8.481047027693553"><ele>197.0</ele><time>2026-05-03T11:26:56Z</time></trkpt><trkpt lat="45.94442681016992" lon="8.481262458514237"><ele>197.0</ele><time>2026-05-03T11:26:57Z</time></trkpt><trkpt lat="45.944465017159224" lon="8.481478971250322"><ele>196.66666666666669</ele><time>2026-05-03T11:26:58Z</time></trkpt><trkpt lat="45.944498805376305" lon="8.481695445601122"><ele>196.33333333333331</ele><time>2026-05-03T11:26:59Z</time></trkpt><trkpt lat="45.944536610179384" lon="8.481919471232809"><ele>196.0</ele><time>2026-05-03T11:27:00Z</time></trkpt><trkpt lat="45.94457359502441" lon="8.482140633105955"><ele>196.0</ele><time>2026-05-03T11:27:01Z</time></trkpt><trkpt lat="45.94461087649141" lon="8.482364278720882"><ele>196.0</ele><time>2026-05-03T11:27:02Z</time></trkpt><trkpt lat="45.944648973044224" lon="8.482587636027686"><ele>196.0</ele><time>2026-05-03T11:27:03Z</time></trkpt><trkpt lat="45.94468603027906" lon="8.482812677860741"><ele>196.0</ele><time>2026-05-03T11:27:04Z</time></trkpt><trkpt lat="45.94472242330719" lon="8.483040999646427"><ele>196.0</ele><time>2026-05-03T11:27:05Z</time></trkpt><trkpt lat="45.94475682471922" lon="8.483271082772696"><ele>196.0</ele><time>2026-05-03T11:27:06Z</time></trkpt><trkpt lat="45.94479357575699" lon="8.483502728735102"><ele>196.0</ele><time>2026-05-03T11:27:07Z</time></trkpt><trkpt lat="45.94483509279633" lon="8.483731558245477"><ele>196.0</ele><time>2026-05-03T11:27:08Z</time></trkpt><trkpt lat="45.944878679771044" lon="8.483962370460292"><ele>196.0</ele><time>2026-05-03T11:27:09Z</time></trkpt><trkpt lat="45.94491801208885" lon="8.484194334953498"><ele>196.0</ele><time>2026-05-03T11:27:10Z</time></trkpt><trkpt lat="45.944953486477225" lon="8.484419869556243"><ele>196.0</ele><time>2026-05-03T11:27:11Z</time></trkpt><trkpt lat="45.94498987740648" lon="8.484642431623048"><ele>196.0</ele><time>2026-05-03T11:27:12Z</time></trkpt><trkpt lat="45.94502727375358" lon="8.484866103161648"><ele>196.33333333333331</ele><time>2026-05-03T11:27:13Z</time></trkpt><trkpt lat="45.94506571393264" lon="8.485092848303513"><ele>196.66666666666669</ele><time>2026-05-03T11:27:14Z</time></trkpt><trkpt lat="45.94510335270572" lon="8.48532056079936"><ele>197.0</ele><time>2026-05-03T11:27:15Z</time></trkpt><trkpt lat="45.94514264610893" lon="8.485544638579771"><ele>197.33333333333334</ele><time>2026-05-03T11:27:16Z</time></trkpt><trkpt lat="45.94518065950563" lon="8.48576621394753"><ele>197.66666666666669</ele><time>2026-05-03T11:27:17Z</time></trkpt><trkpt lat="45.94521720747784" lon="8.485981561179672"><ele>198.0</ele><time>2026-05-03T11:27:18Z</time></trkpt><trkpt lat="45.94525329726243" lon="8.486192117933454"><ele>197.66666666666669</ele><time>2026-05-03T11:27:19Z</time></trkpt><trkpt lat="45.94528862466336" lon="8.48640977610378"><ele>197.33333333333334</ele><time>2026-05-03T11:27:20Z</time></trkpt><trkpt lat="45.94532807259387" lon="8.48662208499103"><ele>197.0</ele><time>2026-05-03T11:27:21Z</time></trkpt><trkpt lat="45.945365649163186" lon="8.486835788701773"><ele>197.0</ele><time>2026-05-03T11:27:22Z</time></trkpt><trkpt lat="45.94540208771881" lon="8.487055915516308"><ele>197.0</ele><time>2026-05-03T11:27:23Z</time></trkpt><trkpt lat="45.94543555559548" lon="8.487272532559695"><ele>197.0</ele><time>2026-05-03T11:27:24Z</time></trkpt><trkpt lat="45.945469485844846" lon="8.487481039677032"><ele>196.75</ele><time>2026-05-03T11:27:25Z</time></trkpt><trkpt lat="45.94550647422093" lon="8.487684109984967"><ele>196.5</ele><time>2026-05-03T11:27:26Z</time></trkpt><trkpt lat="45.94554031451704" lon="8.487869975016014"><ele>196.25</ele><time>2026-05-03T11:27:27Z</time></trkpt><trkpt lat="45.94557088936628" lon="8.488042400132887"><ele>196.0</ele><time>2026-05-03T11:27:28Z</time></trkpt><trkpt lat="45.9455961399716" lon="8.488205119833749"><ele>196.33333333333331</ele><time>2026-05-03T11:27:29Z</time></trkpt><trkpt lat="45.945609374346056" lon="8.488349323927931"><ele>196.66666666666666</ele><time>2026-05-03T11:27:30Z</time></trkpt><trkpt lat="45.94561008160394" lon="8.488474486559417"><ele>197.0</ele><time>2026-05-03T11:27:31Z</time></trkpt><trkpt lat="45.94558945158037" lon="8.488594406776576"><ele>197.33333333333331</ele><time>2026-05-03T11:27:32Z</time></trkpt><trkpt lat="45.94557241405922" lon="8.488711869259621"><ele>197.66666666666666</ele><time>2026-05-03T11:27:33Z</time></trkpt><trkpt lat="45.945539763952716" lon="8.488832092804607"><ele>198.0</ele><time>2026-05-03T11:27:34Z</time></trkpt><trkpt lat="45.94553349324315" lon="8.488959728973127"><ele>198.16666666666666</ele><time>2026-05-03T11:27:35Z</time></trkpt><trkpt lat="45.94556132593742" lon="8.489084014867704"><ele>198.33333333333331</ele><time>2026-05-03T11:27:36Z</time></trkpt><trkpt lat="45.945632712994865" lon="8.489166802193294"><ele>198.5</ele><time>2026-05-03T11:27:37Z</time></trkpt><trkpt lat="45.94565772580434" lon="8.489290844213109"><ele>198.66666666666666</ele><time>2026-05-03T11:27:38Z</time></trkpt><trkpt lat="45.94570869212887" lon="8.489382214137144"><ele>198.83333333333331</ele><time>2026-05-03T11:27:39Z</time></trkpt><trkpt lat="45.945747337998874" lon="8.489484924403037"><ele>199.0</ele><time>2026-05-03T11:27:40Z</time></trkpt><trkpt lat="45.94577871483148" lon="8.489603326558067"><ele>199.16666666666666</ele><time>2026-05-03T11:27:41Z</time></trkpt><trkpt lat="45.94580497859766" lon="8.489732798368722"><ele>199.33333333333331</ele><time>2026-05-03T11:27:42Z</time></trkpt><trkpt lat="45.94582457722244" lon="8.489874569722717"><ele>199.5</ele><time>2026-05-03T11:27:43Z</time></trkpt><trkpt lat="45.94583401120619" lon="8.49000250773514"><ele>199.66666666666669</ele><time>2026-05-03T11:27:44Z</time></trkpt><trkpt lat="45.94583451168748" lon="8.490112215256426"><ele>199.83333333333334</ele><time>2026-05-03T11:27:45Z</time></trkpt><trkpt lat="45.94582227699154" lon="8.490204207904062"><ele>200.0</ele><time>2026-05-03T11:27:46Z</time></trkpt><trkpt lat="45.94578375562249" lon="8.49035908500648"><ele>200.0</ele><time>2026-05-03T11:27:48Z</time></trkpt><trkpt lat="45.945742842525206" lon="8.490453174727106"><ele>200.0</ele><time>2026-05-03T11:27:50Z</time></trkpt></trkseg></trk></gpx>